<?xml version="1.0" encoding="UTF-8" standalone="no" ?><gpx xmlns="http://www.topografix.com/GPX/1/1" xmlns:gpxx="http://www.garmin.com/xmlschemas/GpxExtensions/v3" xmlns:wptx1="http://www.garmin.com/xmlschemas/WaypointExtension/v1" xmlns:gpxtpx="http://www.garmin.com/xmlschemas/TrackPointExtension/v1" creator="GuideVTT.com" version="1.1" xmlns:xsi="http://www.w3.org/2001/XMLSchema-instance" xsi:schemaLocation="http://www.topografix.com/GPX/1/1 http://www.topografix.com/GPX/1/1/gpx.xsd http://www.garmin.com/xmlschemas/GpxExtensions/v3 http://www8.garmin.com/xmlschemas/GpxExtensionsv3.xsd http://www.garmin.com/xmlschemas/WaypointExtension/v1 http://www8.garmin.com/xmlschemas/WaypointExtensionv1.xsd http://www.garmin.com/xmlschemas/TrackPointExtension/v1 http://www.garmin.com/xmlschemas/TrackPointExtensionv1.xsd">
<metadata><link href="http://www.garmin.com"><text>Garmin International</text></link><time>2013-06-22T15:13:50Z</time></metadata>
<trk><name>2014-09-28-01-data.gpx</name><extensions><gpxx:TrackExtension><gpxx:DisplayColor>Cyan</gpxx:DisplayColor></gpxx:TrackExtension></extensions><trkseg>
<trkpt lat="48.496774" lon="2.634913"><ele></ele><time>2017-9-19T5:37:25Z</time></trkpt>
<trkpt lat="48.496768" lon="2.634917"><ele></ele><time>2017-9-19T5:37:28Z</time></trkpt>
<trkpt lat="48.496694" lon="2.634803"><ele></ele><time>2017-9-19T5:37:31Z</time></trkpt>
<trkpt lat="48.496602" lon="2.63489"><ele></ele><time>2017-9-19T5:37:34Z</time></trkpt>
<trkpt lat="48.496514" lon="2.634973"><ele></ele><time>2017-9-19T5:37:37Z</time></trkpt>
<trkpt lat="48.496432" lon="2.63505"><ele></ele><time>2017-9-19T5:37:40Z</time></trkpt>
<trkpt lat="48.49634" lon="2.635141"><ele></ele><time>2017-9-19T5:37:43Z</time></trkpt>
<trkpt lat="48.49626" lon="2.63521"><ele></ele><time>2017-9-19T5:37:46Z</time></trkpt>
<trkpt lat="48.496187" lon="2.635297"><ele></ele><time>2017-9-19T5:37:49Z</time></trkpt>
<trkpt lat="48.496108" lon="2.635397"><ele></ele><time>2017-9-19T5:37:52Z</time></trkpt>
<trkpt lat="48.496011" lon="2.635522"><ele></ele><time>2017-9-19T5:37:55Z</time></trkpt>
<trkpt lat="48.495935" lon="2.635635"><ele></ele><time>2017-9-19T5:37:58Z</time></trkpt>
<trkpt lat="48.495854" lon="2.635733"><ele></ele><time>2017-9-19T5:38:1Z</time></trkpt>
<trkpt lat="48.495758" lon="2.635852"><ele></ele><time>2017-9-19T5:38:4Z</time></trkpt>
<trkpt lat="48.495679" lon="2.635976"><ele></ele><time>2017-9-19T5:38:7Z</time></trkpt>
<trkpt lat="48.495599" lon="2.63606"><ele></ele><time>2017-9-19T5:38:10Z</time></trkpt>
<trkpt lat="48.495523" lon="2.636163"><ele></ele><time>2017-9-19T5:38:13Z</time></trkpt>
<trkpt lat="48.495453" lon="2.636264"><ele></ele><time>2017-9-19T5:38:16Z</time></trkpt>
<trkpt lat="48.495381" lon="2.636355"><ele></ele><time>2017-9-19T5:38:19Z</time></trkpt>
<trkpt lat="48.495307" lon="2.636438"><ele></ele><time>2017-9-19T5:38:22Z</time></trkpt>
<trkpt lat="48.495232" lon="2.63655"><ele></ele><time>2017-9-19T5:38:25Z</time></trkpt>
<trkpt lat="48.49515" lon="2.636647"><ele></ele><time>2017-9-19T5:38:28Z</time></trkpt>
<trkpt lat="48.495075" lon="2.636756"><ele></ele><time>2017-9-19T5:38:31Z</time></trkpt>
<trkpt lat="48.495004" lon="2.636844"><ele></ele><time>2017-9-19T5:38:34Z</time></trkpt>
<trkpt lat="48.494934" lon="2.636931"><ele></ele><time>2017-9-19T5:38:37Z</time></trkpt>
<trkpt lat="48.494858" lon="2.637035"><ele></ele><time>2017-9-19T5:38:40Z</time></trkpt>
<trkpt lat="48.494773" lon="2.637111"><ele></ele><time>2017-9-19T5:38:43Z</time></trkpt>
<trkpt lat="48.494695" lon="2.637208"><ele></ele><time>2017-9-19T5:38:46Z</time></trkpt>
<trkpt lat="48.494617" lon="2.637304"><ele></ele><time>2017-9-19T5:38:49Z</time></trkpt>
<trkpt lat="48.494505" lon="2.637427"><ele></ele><time>2017-9-19T5:38:52Z</time></trkpt>
<trkpt lat="48.494408" lon="2.637549"><ele></ele><time>2017-9-19T5:38:55Z</time></trkpt>
<trkpt lat="48.49432" lon="2.637643"><ele></ele><time>2017-9-19T5:38:58Z</time></trkpt>
<trkpt lat="48.49423" lon="2.637765"><ele></ele><time>2017-9-19T5:39:1Z</time></trkpt>
<trkpt lat="48.494163" lon="2.637862"><ele></ele><time>2017-9-19T5:39:4Z</time></trkpt>
<trkpt lat="48.494062" lon="2.637977"><ele></ele><time>2017-9-19T5:39:7Z</time></trkpt>
<trkpt lat="48.493921" lon="2.638173"><ele></ele><time>2017-9-19T5:39:10Z</time></trkpt>
<trkpt lat="48.493834" lon="2.63827"><ele></ele><time>2017-9-19T5:39:13Z</time></trkpt>
<trkpt lat="48.493764" lon="2.638372"><ele></ele><time>2017-9-19T5:39:16Z</time></trkpt>
<trkpt lat="48.493657" lon="2.638501"><ele></ele><time>2017-9-19T5:39:19Z</time></trkpt>
<trkpt lat="48.493571" lon="2.638619"><ele></ele><time>2017-9-19T5:39:22Z</time></trkpt>
<trkpt lat="48.493508" lon="2.638721"><ele></ele><time>2017-9-19T5:39:25Z</time></trkpt>
<trkpt lat="48.493408" lon="2.63887"><ele></ele><time>2017-9-19T5:39:28Z</time></trkpt>
<trkpt lat="48.493326" lon="2.63896"><ele></ele><time>2017-9-19T5:39:31Z</time></trkpt>
<trkpt lat="48.493259" lon="2.639103"><ele></ele><time>2017-9-19T5:39:34Z</time></trkpt>
<trkpt lat="48.493178" lon="2.639253"><ele></ele><time>2017-9-19T5:39:37Z</time></trkpt>
<trkpt lat="48.493059" lon="2.639369"><ele></ele><time>2017-9-19T5:39:40Z</time></trkpt>
<trkpt lat="48.492968" lon="2.639445"><ele></ele><time>2017-9-19T5:39:43Z</time></trkpt>
<trkpt lat="48.492854" lon="2.639543"><ele></ele><time>2017-9-19T5:39:46Z</time></trkpt>
<trkpt lat="48.492746" lon="2.639648"><ele></ele><time>2017-9-19T5:39:49Z</time></trkpt>
<trkpt lat="48.492648" lon="2.639749"><ele></ele><time>2017-9-19T5:39:52Z</time></trkpt>
<trkpt lat="48.492558" lon="2.639857"><ele></ele><time>2017-9-19T5:39:55Z</time></trkpt>
<trkpt lat="48.492481" lon="2.639938"><ele></ele><time>2017-9-19T5:39:58Z</time></trkpt>
<trkpt lat="48.49236" lon="2.640052"><ele></ele><time>2017-9-19T5:40:1Z</time></trkpt>
<trkpt lat="48.492265" lon="2.640193"><ele></ele><time>2017-9-19T5:40:4Z</time></trkpt>
<trkpt lat="48.492206" lon="2.640302"><ele></ele><time>2017-9-19T5:40:7Z</time></trkpt>
<trkpt lat="48.49212" lon="2.640437"><ele></ele><time>2017-9-19T5:40:10Z</time></trkpt>
<trkpt lat="48.492042" lon="2.64053"><ele></ele><time>2017-9-19T5:40:13Z</time></trkpt>
<trkpt lat="48.491959" lon="2.64064"><ele></ele><time>2017-9-19T5:40:16Z</time></trkpt>
<trkpt lat="48.491842" lon="2.640749"><ele></ele><time>2017-9-19T5:40:19Z</time></trkpt>
<trkpt lat="48.491697" lon="2.640939"><ele></ele><time>2017-9-19T5:40:22Z</time></trkpt>
<trkpt lat="48.491623" lon="2.641041"><ele></ele><time>2017-9-19T5:40:25Z</time></trkpt>
<trkpt lat="48.491549" lon="2.641124"><ele></ele><time>2017-9-19T5:40:28Z</time></trkpt>
<trkpt lat="48.491475" lon="2.641229"><ele></ele><time>2017-9-19T5:40:31Z</time></trkpt>
<trkpt lat="48.491389" lon="2.641304"><ele></ele><time>2017-9-19T5:40:34Z</time></trkpt>
<trkpt lat="48.491293" lon="2.641448"><ele></ele><time>2017-9-19T5:40:37Z</time></trkpt>
<trkpt lat="48.491206" lon="2.641554"><ele></ele><time>2017-9-19T5:40:40Z</time></trkpt>
<trkpt lat="48.491135" lon="2.64164"><ele></ele><time>2017-9-19T5:40:43Z</time></trkpt>
<trkpt lat="48.491054" lon="2.641707"><ele></ele><time>2017-9-19T5:40:46Z</time></trkpt>
<trkpt lat="48.49095" lon="2.641853"><ele></ele><time>2017-9-19T5:40:49Z</time></trkpt>
<trkpt lat="48.490835" lon="2.642014"><ele></ele><time>2017-9-19T5:40:52Z</time></trkpt>
<trkpt lat="48.490741" lon="2.642131"><ele></ele><time>2017-9-19T5:40:55Z</time></trkpt>
<trkpt lat="48.490646" lon="2.64225"><ele></ele><time>2017-9-19T5:40:58Z</time></trkpt>
<trkpt lat="48.490559" lon="2.642369"><ele></ele><time>2017-9-19T5:41:1Z</time></trkpt>
<trkpt lat="48.490493" lon="2.642473"><ele></ele><time>2017-9-19T5:41:4Z</time></trkpt>
<trkpt lat="48.490415" lon="2.642556"><ele></ele><time>2017-9-19T5:41:7Z</time></trkpt>
<trkpt lat="48.490314" lon="2.642645"><ele></ele><time>2017-9-19T5:41:10Z</time></trkpt>
<trkpt lat="48.490214" lon="2.642789"><ele></ele><time>2017-9-19T5:41:13Z</time></trkpt>
<trkpt lat="48.490116" lon="2.642915"><ele></ele><time>2017-9-19T5:41:16Z</time></trkpt>
<trkpt lat="48.490001" lon="2.643063"><ele></ele><time>2017-9-19T5:41:19Z</time></trkpt>
<trkpt lat="48.489926" lon="2.64317"><ele></ele><time>2017-9-19T5:41:22Z</time></trkpt>
<trkpt lat="48.489803" lon="2.643325"><ele></ele><time>2017-9-19T5:41:25Z</time></trkpt>
<trkpt lat="48.489719" lon="2.643427"><ele></ele><time>2017-9-19T5:41:28Z</time></trkpt>
<trkpt lat="48.489656" lon="2.643571"><ele></ele><time>2017-9-19T5:41:31Z</time></trkpt>
<trkpt lat="48.489564" lon="2.643847"><ele></ele><time>2017-9-19T5:41:34Z</time></trkpt>
<trkpt lat="48.489522" lon="2.644026"><ele></ele><time>2017-9-19T5:41:37Z</time></trkpt>
<trkpt lat="48.489494" lon="2.64422"><ele></ele><time>2017-9-19T5:41:40Z</time></trkpt>
<trkpt lat="48.489449" lon="2.644358"><ele></ele><time>2017-9-19T5:41:43Z</time></trkpt>
<trkpt lat="48.489402" lon="2.644537"><ele></ele><time>2017-9-19T5:41:46Z</time></trkpt>
<trkpt lat="48.489371" lon="2.644672"><ele></ele><time>2017-9-19T5:41:49Z</time></trkpt>
<trkpt lat="48.489346" lon="2.64483"><ele></ele><time>2017-9-19T5:41:52Z</time></trkpt>
<trkpt lat="48.489317" lon="2.644972"><ele></ele><time>2017-9-19T5:41:55Z</time></trkpt>
<trkpt lat="48.489275" lon="2.645143"><ele></ele><time>2017-9-19T5:41:58Z</time></trkpt>
<trkpt lat="48.489237" lon="2.645305"><ele></ele><time>2017-9-19T5:42:1Z</time></trkpt>
<trkpt lat="48.489194" lon="2.645456"><ele></ele><time>2017-9-19T5:42:4Z</time></trkpt>
<trkpt lat="48.489131" lon="2.645634"><ele></ele><time>2017-9-19T5:42:7Z</time></trkpt>
<trkpt lat="48.489091" lon="2.645794"><ele></ele><time>2017-9-19T5:42:10Z</time></trkpt>
<trkpt lat="48.489063" lon="2.645956"><ele></ele><time>2017-9-19T5:42:13Z</time></trkpt>
<trkpt lat="48.489017" lon="2.646114"><ele></ele><time>2017-9-19T5:42:16Z</time></trkpt>
<trkpt lat="48.488978" lon="2.646266"><ele></ele><time>2017-9-19T5:42:19Z</time></trkpt>
<trkpt lat="48.488911" lon="2.64646"><ele></ele><time>2017-9-19T5:42:22Z</time></trkpt>
<trkpt lat="48.488845" lon="2.646611"><ele></ele><time>2017-9-19T5:42:25Z</time></trkpt>
<trkpt lat="48.488784" lon="2.646725"><ele></ele><time>2017-9-19T5:42:28Z</time></trkpt>
<trkpt lat="48.488709" lon="2.646871"><ele></ele><time>2017-9-19T5:42:31Z</time></trkpt>
<trkpt lat="48.488648" lon="2.647002"><ele></ele><time>2017-9-19T5:42:34Z</time></trkpt>
<trkpt lat="48.488593" lon="2.64712"><ele></ele><time>2017-9-19T5:42:37Z</time></trkpt>
<trkpt lat="48.488515" lon="2.647277"><ele></ele><time>2017-9-19T5:42:40Z</time></trkpt>
<trkpt lat="48.48844" lon="2.647419"><ele></ele><time>2017-9-19T5:42:43Z</time></trkpt>
<trkpt lat="48.488381" lon="2.647553"><ele></ele><time>2017-9-19T5:42:46Z</time></trkpt>
<trkpt lat="48.488319" lon="2.647696"><ele></ele><time>2017-9-19T5:42:49Z</time></trkpt>
<trkpt lat="48.48825" lon="2.647831"><ele></ele><time>2017-9-19T5:42:52Z</time></trkpt>
<trkpt lat="48.488183" lon="2.647967"><ele></ele><time>2017-9-19T5:42:55Z</time></trkpt>
<trkpt lat="48.488103" lon="2.648131"><ele></ele><time>2017-9-19T5:42:58Z</time></trkpt>
<trkpt lat="48.487957" lon="2.648427"><ele></ele><time>2017-9-19T5:43:1Z</time></trkpt>
<trkpt lat="48.487898" lon="2.648542"><ele></ele><time>2017-9-19T5:43:4Z</time></trkpt>
<trkpt lat="48.487831" lon="2.648697"><ele></ele><time>2017-9-19T5:43:7Z</time></trkpt>
<trkpt lat="48.487774" lon="2.648807"><ele></ele><time>2017-9-19T5:43:10Z</time></trkpt>
<trkpt lat="48.487708" lon="2.648974"><ele></ele><time>2017-9-19T5:43:13Z</time></trkpt>
<trkpt lat="48.487618" lon="2.64914"><ele></ele><time>2017-9-19T5:43:16Z</time></trkpt>
<trkpt lat="48.487561" lon="2.649252"><ele></ele><time>2017-9-19T5:43:19Z</time></trkpt>
<trkpt lat="48.487494" lon="2.649398"><ele></ele><time>2017-9-19T5:43:22Z</time></trkpt>
<trkpt lat="48.487417" lon="2.649573"><ele></ele><time>2017-9-19T5:43:25Z</time></trkpt>
<trkpt lat="48.48736" lon="2.649689"><ele></ele><time>2017-9-19T5:43:28Z</time></trkpt>
<trkpt lat="48.487291" lon="2.649822"><ele></ele><time>2017-9-19T5:43:31Z</time></trkpt>
<trkpt lat="48.487228" lon="2.649934"><ele></ele><time>2017-9-19T5:43:34Z</time></trkpt>
<trkpt lat="48.487159" lon="2.65008"><ele></ele><time>2017-9-19T5:43:37Z</time></trkpt>
<trkpt lat="48.487095" lon="2.650188"><ele></ele><time>2017-9-19T5:43:40Z</time></trkpt>
<trkpt lat="48.487023" lon="2.650295"><ele></ele><time>2017-9-19T5:43:43Z</time></trkpt>
<trkpt lat="48.486966" lon="2.650433"><ele></ele><time>2017-9-19T5:43:46Z</time></trkpt>
<trkpt lat="48.486885" lon="2.650581"><ele></ele><time>2017-9-19T5:43:49Z</time></trkpt>
<trkpt lat="48.486807" lon="2.650727"><ele></ele><time>2017-9-19T5:43:52Z</time></trkpt>
<trkpt lat="48.486737" lon="2.650888"><ele></ele><time>2017-9-19T5:43:55Z</time></trkpt>
<trkpt lat="48.486683" lon="2.651035"><ele></ele><time>2017-9-19T5:43:58Z</time></trkpt>
<trkpt lat="48.486621" lon="2.651187"><ele></ele><time>2017-9-19T5:44:1Z</time></trkpt>
<trkpt lat="48.486539" lon="2.651336"><ele></ele><time>2017-9-19T5:44:4Z</time></trkpt>
<trkpt lat="48.48648" lon="2.651442"><ele></ele><time>2017-9-19T5:44:7Z</time></trkpt>
<trkpt lat="48.486413" lon="2.651597"><ele></ele><time>2017-9-19T5:44:10Z</time></trkpt>
<trkpt lat="48.486365" lon="2.651716"><ele></ele><time>2017-9-19T5:44:13Z</time></trkpt>
<trkpt lat="48.486249" lon="2.65196"><ele></ele><time>2017-9-19T5:44:16Z</time></trkpt>
<trkpt lat="48.48617" lon="2.652113"><ele></ele><time>2017-9-19T5:44:19Z</time></trkpt>
<trkpt lat="48.486097" lon="2.652262"><ele></ele><time>2017-9-19T5:44:22Z</time></trkpt>
<trkpt lat="48.48603" lon="2.652407"><ele></ele><time>2017-9-19T5:44:25Z</time></trkpt>
<trkpt lat="48.485964" lon="2.652575"><ele></ele><time>2017-9-19T5:44:28Z</time></trkpt>
<trkpt lat="48.48589" lon="2.652744"><ele></ele><time>2017-9-19T5:44:31Z</time></trkpt>
<trkpt lat="48.4858" lon="2.652897"><ele></ele><time>2017-9-19T5:44:34Z</time></trkpt>
<trkpt lat="48.485734" lon="2.653033"><ele></ele><time>2017-9-19T5:44:37Z</time></trkpt>
<trkpt lat="48.485656" lon="2.653186"><ele></ele><time>2017-9-19T5:44:40Z</time></trkpt>
<trkpt lat="48.485571" lon="2.653358"><ele></ele><time>2017-9-19T5:44:43Z</time></trkpt>
<trkpt lat="48.485518" lon="2.653519"><ele></ele><time>2017-9-19T5:44:46Z</time></trkpt>
<trkpt lat="48.48548" lon="2.653667"><ele></ele><time>2017-9-19T5:44:49Z</time></trkpt>
<trkpt lat="48.485466" lon="2.653832"><ele></ele><time>2017-9-19T5:44:52Z</time></trkpt>
<trkpt lat="48.485433" lon="2.653996"><ele></ele><time>2017-9-19T5:44:55Z</time></trkpt>
<trkpt lat="48.485398" lon="2.654161"><ele></ele><time>2017-9-19T5:44:58Z</time></trkpt>
<trkpt lat="48.485368" lon="2.654315"><ele></ele><time>2017-9-19T5:45:1Z</time></trkpt>
<trkpt lat="48.485346" lon="2.654471"><ele></ele><time>2017-9-19T5:45:4Z</time></trkpt>
<trkpt lat="48.485322" lon="2.654628"><ele></ele><time>2017-9-19T5:45:7Z</time></trkpt>
<trkpt lat="48.485316" lon="2.654773"><ele></ele><time>2017-9-19T5:45:10Z</time></trkpt>
<trkpt lat="48.485285" lon="2.654942"><ele></ele><time>2017-9-19T5:45:13Z</time></trkpt>
<trkpt lat="48.485255" lon="2.655103"><ele></ele><time>2017-9-19T5:45:16Z</time></trkpt>
<trkpt lat="48.485246" lon="2.65525"><ele></ele><time>2017-9-19T5:45:19Z</time></trkpt>
<trkpt lat="48.485214" lon="2.655444"><ele></ele><time>2017-9-19T5:45:22Z</time></trkpt>
<trkpt lat="48.485208" lon="2.655581"><ele></ele><time>2017-9-19T5:45:25Z</time></trkpt>
<trkpt lat="48.485185" lon="2.655732"><ele></ele><time>2017-9-19T5:45:28Z</time></trkpt>
<trkpt lat="48.485167" lon="2.655872"><ele></ele><time>2017-9-19T5:45:31Z</time></trkpt>
<trkpt lat="48.485123" lon="2.656196"><ele></ele><time>2017-9-19T5:45:34Z</time></trkpt>
<trkpt lat="48.485104" lon="2.656346"><ele></ele><time>2017-9-19T5:45:37Z</time></trkpt>
<trkpt lat="48.485071" lon="2.656503"><ele></ele><time>2017-9-19T5:45:40Z</time></trkpt>
<trkpt lat="48.48505" lon="2.656656"><ele></ele><time>2017-9-19T5:45:43Z</time></trkpt>
<trkpt lat="48.485028" lon="2.65682"><ele></ele><time>2017-9-19T5:45:46Z</time></trkpt>
<trkpt lat="48.485005" lon="2.656975"><ele></ele><time>2017-9-19T5:45:49Z</time></trkpt>
<trkpt lat="48.48497" lon="2.657139"><ele></ele><time>2017-9-19T5:45:52Z</time></trkpt>
<trkpt lat="48.48495" lon="2.657299"><ele></ele><time>2017-9-19T5:45:55Z</time></trkpt>
<trkpt lat="48.484929" lon="2.657451"><ele></ele><time>2017-9-19T5:45:58Z</time></trkpt>
<trkpt lat="48.484913" lon="2.657601"><ele></ele><time>2017-9-19T5:46:1Z</time></trkpt>
<trkpt lat="48.484895" lon="2.657762"><ele></ele><time>2017-9-19T5:46:4Z</time></trkpt>
<trkpt lat="48.484868" lon="2.657914"><ele></ele><time>2017-9-19T5:46:7Z</time></trkpt>
<trkpt lat="48.484847" lon="2.658057"><ele></ele><time>2017-9-19T5:46:10Z</time></trkpt>
<trkpt lat="48.484826" lon="2.658214"><ele></ele><time>2017-9-19T5:46:13Z</time></trkpt>
<trkpt lat="48.484809" lon="2.658365"><ele></ele><time>2017-9-19T5:46:16Z</time></trkpt>
<trkpt lat="48.484787" lon="2.658531"><ele></ele><time>2017-9-19T5:46:19Z</time></trkpt>
<trkpt lat="48.484766" lon="2.658686"><ele></ele><time>2017-9-19T5:46:22Z</time></trkpt>
<trkpt lat="48.48474" lon="2.658843"><ele></ele><time>2017-9-19T5:46:25Z</time></trkpt>
<trkpt lat="48.484721" lon="2.659001"><ele></ele><time>2017-9-19T5:46:28Z</time></trkpt>
<trkpt lat="48.484701" lon="2.659142"><ele></ele><time>2017-9-19T5:46:31Z</time></trkpt>
<trkpt lat="48.484676" lon="2.659301"><ele></ele><time>2017-9-19T5:46:34Z</time></trkpt>
<trkpt lat="48.484653" lon="2.659463"><ele></ele><time>2017-9-19T5:46:37Z</time></trkpt>
<trkpt lat="48.484636" lon="2.659612"><ele></ele><time>2017-9-19T5:46:40Z</time></trkpt>
<trkpt lat="48.484614" lon="2.659755"><ele></ele><time>2017-9-19T5:46:43Z</time></trkpt>
<trkpt lat="48.484585" lon="2.659884"><ele></ele><time>2017-9-19T5:46:46Z</time></trkpt>
<trkpt lat="48.484559" lon="2.660033"><ele></ele><time>2017-9-19T5:46:49Z</time></trkpt>
<trkpt lat="48.484528" lon="2.660168"><ele></ele><time>2017-9-19T5:46:52Z</time></trkpt>
<trkpt lat="48.484495" lon="2.66033"><ele></ele><time>2017-9-19T5:46:55Z</time></trkpt>
<trkpt lat="48.484452" lon="2.660541"><ele></ele><time>2017-9-19T5:46:58Z</time></trkpt>
<trkpt lat="48.48437" lon="2.660883"><ele></ele><time>2017-9-19T5:47:1Z</time></trkpt>
<trkpt lat="48.484351" lon="2.66103"><ele></ele><time>2017-9-19T5:47:4Z</time></trkpt>
<trkpt lat="48.48433" lon="2.661204"><ele></ele><time>2017-9-19T5:47:7Z</time></trkpt>
<trkpt lat="48.484283" lon="2.661355"><ele></ele><time>2017-9-19T5:47:10Z</time></trkpt>
<trkpt lat="48.484245" lon="2.661515"><ele></ele><time>2017-9-19T5:47:13Z</time></trkpt>
<trkpt lat="48.484185" lon="2.661662"><ele></ele><time>2017-9-19T5:47:16Z</time></trkpt>
<trkpt lat="48.484178" lon="2.661831"><ele></ele><time>2017-9-19T5:47:19Z</time></trkpt>
<trkpt lat="48.484142" lon="2.661982"><ele></ele><time>2017-9-19T5:47:22Z</time></trkpt>
<trkpt lat="48.484088" lon="2.662107"><ele></ele><time>2017-9-19T5:47:25Z</time></trkpt>
<trkpt lat="48.48406" lon="2.662257"><ele></ele><time>2017-9-19T5:47:28Z</time></trkpt>
<trkpt lat="48.48402" lon="2.662402"><ele></ele><time>2017-9-19T5:47:31Z</time></trkpt>
<trkpt lat="48.483988" lon="2.662534"><ele></ele><time>2017-9-19T5:47:34Z</time></trkpt>
<trkpt lat="48.483953" lon="2.662669"><ele></ele><time>2017-9-19T5:47:37Z</time></trkpt>
<trkpt lat="48.483945" lon="2.662819"><ele></ele><time>2017-9-19T5:47:40Z</time></trkpt>
<trkpt lat="48.483865" lon="2.663125"><ele></ele><time>2017-9-19T5:47:43Z</time></trkpt>
<trkpt lat="48.483837" lon="2.663257"><ele></ele><time>2017-9-19T5:47:46Z</time></trkpt>
<trkpt lat="48.483799" lon="2.663421"><ele></ele><time>2017-9-19T5:47:49Z</time></trkpt>
<trkpt lat="48.483766" lon="2.663552"><ele></ele><time>2017-9-19T5:47:52Z</time></trkpt>
<trkpt lat="48.483725" lon="2.66368"><ele></ele><time>2017-9-19T5:47:55Z</time></trkpt>
<trkpt lat="48.483684" lon="2.663861"><ele></ele><time>2017-9-19T5:47:58Z</time></trkpt>
<trkpt lat="48.483653" lon="2.66399"><ele></ele><time>2017-9-19T5:48:1Z</time></trkpt>
<trkpt lat="48.483611" lon="2.664139"><ele></ele><time>2017-9-19T5:48:4Z</time></trkpt>
<trkpt lat="48.483573" lon="2.664307"><ele></ele><time>2017-9-19T5:48:7Z</time></trkpt>
<trkpt lat="48.483529" lon="2.66444"><ele></ele><time>2017-9-19T5:48:10Z</time></trkpt>
<trkpt lat="48.483499" lon="2.66457"><ele></ele><time>2017-9-19T5:48:13Z</time></trkpt>
<trkpt lat="48.483459" lon="2.664749"><ele></ele><time>2017-9-19T5:48:16Z</time></trkpt>
<trkpt lat="48.483426" lon="2.664893"><ele></ele><time>2017-9-19T5:48:19Z</time></trkpt>
<trkpt lat="48.483366" lon="2.665057"><ele></ele><time>2017-9-19T5:48:22Z</time></trkpt>
<trkpt lat="48.483259" lon="2.665075"><ele></ele><time>2017-9-19T5:48:25Z</time></trkpt>
<trkpt lat="48.483145" lon="2.665111"><ele></ele><time>2017-9-19T5:48:28Z</time></trkpt>
<trkpt lat="48.48305" lon="2.665087"><ele></ele><time>2017-9-19T5:48:31Z</time></trkpt>
<trkpt lat="48.482947" lon="2.665051"><ele></ele><time>2017-9-19T5:48:34Z</time></trkpt>
<trkpt lat="48.482839" lon="2.66501"><ele></ele><time>2017-9-19T5:48:37Z</time></trkpt>
<trkpt lat="48.482821" lon="2.664873"><ele></ele><time>2017-9-19T5:48:40Z</time></trkpt>
<trkpt lat="48.482773" lon="2.664751"><ele></ele><time>2017-9-19T5:48:43Z</time></trkpt>
<trkpt lat="48.482687" lon="2.664477"><ele></ele><time>2017-9-19T5:48:46Z</time></trkpt>
<trkpt lat="48.482629" lon="2.664301"><ele></ele><time>2017-9-19T5:48:49Z</time></trkpt>
<trkpt lat="48.482591" lon="2.664141"><ele></ele><time>2017-9-19T5:48:52Z</time></trkpt>
<trkpt lat="48.482553" lon="2.664004"><ele></ele><time>2017-9-19T5:48:55Z</time></trkpt>
<trkpt lat="48.482517" lon="2.66381"><ele></ele><time>2017-9-19T5:48:58Z</time></trkpt>
<trkpt lat="48.48246" lon="2.663617"><ele></ele><time>2017-9-19T5:49:1Z</time></trkpt>
<trkpt lat="48.482408" lon="2.663452"><ele></ele><time>2017-9-19T5:49:4Z</time></trkpt>
<trkpt lat="48.482361" lon="2.663243"><ele></ele><time>2017-9-19T5:49:7Z</time></trkpt>
<trkpt lat="48.482309" lon="2.66302"><ele></ele><time>2017-9-19T5:49:10Z</time></trkpt>
<trkpt lat="48.482255" lon="2.662788"><ele></ele><time>2017-9-19T5:49:13Z</time></trkpt>
<trkpt lat="48.482198" lon="2.662606"><ele></ele><time>2017-9-19T5:49:16Z</time></trkpt>
<trkpt lat="48.482163" lon="2.662391"><ele></ele><time>2017-9-19T5:49:19Z</time></trkpt>
<trkpt lat="48.482125" lon="2.662193"><ele></ele><time>2017-9-19T5:49:22Z</time></trkpt>
<trkpt lat="48.482069" lon="2.66202"><ele></ele><time>2017-9-19T5:49:25Z</time></trkpt>
<trkpt lat="48.482028" lon="2.661895"><ele></ele><time>2017-9-19T5:49:28Z</time></trkpt>
<trkpt lat="48.481956" lon="2.661692"><ele></ele><time>2017-9-19T5:49:31Z</time></trkpt>
<trkpt lat="48.481889" lon="2.661489"><ele></ele><time>2017-9-19T5:49:34Z</time></trkpt>
<trkpt lat="48.481818" lon="2.661291"><ele></ele><time>2017-9-19T5:49:37Z</time></trkpt>
<trkpt lat="48.481741" lon="2.661074"><ele></ele><time>2017-9-19T5:49:40Z</time></trkpt>
<trkpt lat="48.481683" lon="2.660883"><ele></ele><time>2017-9-19T5:49:43Z</time></trkpt>
<trkpt lat="48.481624" lon="2.66069"><ele></ele><time>2017-9-19T5:49:46Z</time></trkpt>
<trkpt lat="48.48154" lon="2.660523"><ele></ele><time>2017-9-19T5:49:49Z</time></trkpt>
<trkpt lat="48.481465" lon="2.660306"><ele></ele><time>2017-9-19T5:49:52Z</time></trkpt>
<trkpt lat="48.481392" lon="2.660109"><ele></ele><time>2017-9-19T5:49:55Z</time></trkpt>
<trkpt lat="48.481344" lon="2.659869"><ele></ele><time>2017-9-19T5:49:58Z</time></trkpt>
<trkpt lat="48.481285" lon="2.659707"><ele></ele><time>2017-9-19T5:50:1Z</time></trkpt>
<trkpt lat="48.481241" lon="2.659531"><ele></ele><time>2017-9-19T5:50:4Z</time></trkpt>
<trkpt lat="48.481201" lon="2.65938"><ele></ele><time>2017-9-19T5:50:7Z</time></trkpt>
<trkpt lat="48.481081" lon="2.659083"><ele></ele><time>2017-9-19T5:50:10Z</time></trkpt>
<trkpt lat="48.481034" lon="2.658963"><ele></ele><time>2017-9-19T5:50:13Z</time></trkpt>
<trkpt lat="48.480974" lon="2.658803"><ele></ele><time>2017-9-19T5:50:16Z</time></trkpt>
<trkpt lat="48.480905" lon="2.658678"><ele></ele><time>2017-9-19T5:50:19Z</time></trkpt>
<trkpt lat="48.480847" lon="2.658552"><ele></ele><time>2017-9-19T5:50:22Z</time></trkpt>
<trkpt lat="48.480779" lon="2.658353"><ele></ele><time>2017-9-19T5:50:25Z</time></trkpt>
<trkpt lat="48.480721" lon="2.658197"><ele></ele><time>2017-9-19T5:50:28Z</time></trkpt>
<trkpt lat="48.480671" lon="2.658046"><ele></ele><time>2017-9-19T5:50:31Z</time></trkpt>
<trkpt lat="48.48063" lon="2.657897"><ele></ele><time>2017-9-19T5:50:34Z</time></trkpt>
<trkpt lat="48.480565" lon="2.657744"><ele></ele><time>2017-9-19T5:50:37Z</time></trkpt>
<trkpt lat="48.480523" lon="2.657562"><ele></ele><time>2017-9-19T5:50:40Z</time></trkpt>
<trkpt lat="48.480474" lon="2.65738"><ele></ele><time>2017-9-19T5:50:43Z</time></trkpt>
<trkpt lat="48.48043" lon="2.657234"><ele></ele><time>2017-9-19T5:50:46Z</time></trkpt>
<trkpt lat="48.480375" lon="2.657074"><ele></ele><time>2017-9-19T5:50:49Z</time></trkpt>
<trkpt lat="48.480326" lon="2.656937"><ele></ele><time>2017-9-19T5:50:52Z</time></trkpt>
<trkpt lat="48.480286" lon="2.656724"><ele></ele><time>2017-9-19T5:50:55Z</time></trkpt>
<trkpt lat="48.480211" lon="2.656572"><ele></ele><time>2017-9-19T5:50:58Z</time></trkpt>
<trkpt lat="48.480163" lon="2.656435"><ele></ele><time>2017-9-19T5:51:1Z</time></trkpt>
<trkpt lat="48.480124" lon="2.656295"><ele></ele><time>2017-9-19T5:51:4Z</time></trkpt>
<trkpt lat="48.480069" lon="2.656142"><ele></ele><time>2017-9-19T5:51:7Z</time></trkpt>
<trkpt lat="48.480016" lon="2.656026"><ele></ele><time>2017-9-19T5:51:10Z</time></trkpt>
<trkpt lat="48.479963" lon="2.655882"><ele></ele><time>2017-9-19T5:51:13Z</time></trkpt>
<trkpt lat="48.479901" lon="2.655764"><ele></ele><time>2017-9-19T5:51:16Z</time></trkpt>
<trkpt lat="48.479856" lon="2.655569"><ele></ele><time>2017-9-19T5:51:19Z</time></trkpt>
<trkpt lat="48.479794" lon="2.655444"><ele></ele><time>2017-9-19T5:51:22Z</time></trkpt>
<trkpt lat="48.479781" lon="2.6553"><ele></ele><time>2017-9-19T5:51:25Z</time></trkpt>
<trkpt lat="48.47974" lon="2.655163"><ele></ele><time>2017-9-19T5:51:28Z</time></trkpt>
<trkpt lat="48.479609" lon="2.654949"><ele></ele><time>2017-9-19T5:51:31Z</time></trkpt>
<trkpt lat="48.479515" lon="2.654881"><ele></ele><time>2017-9-19T5:51:34Z</time></trkpt>
<trkpt lat="48.479436" lon="2.654732"><ele></ele><time>2017-9-19T5:51:37Z</time></trkpt>
<trkpt lat="48.479404" lon="2.654569"><ele></ele><time>2017-9-19T5:51:40Z</time></trkpt>
<trkpt lat="48.479395" lon="2.654422"><ele></ele><time>2017-9-19T5:51:43Z</time></trkpt>
<trkpt lat="48.479329" lon="2.654255"><ele></ele><time>2017-9-19T5:51:46Z</time></trkpt>
<trkpt lat="48.479274" lon="2.654148"><ele></ele><time>2017-9-19T5:51:49Z</time></trkpt>
<trkpt lat="48.479226" lon="2.653974"><ele></ele><time>2017-9-19T5:51:52Z</time></trkpt>
<trkpt lat="48.479163" lon="2.65382"><ele></ele><time>2017-9-19T5:51:55Z</time></trkpt>
<trkpt lat="48.47911" lon="2.653646"><ele></ele><time>2017-9-19T5:51:58Z</time></trkpt>
<trkpt lat="48.479078" lon="2.653495"><ele></ele><time>2017-9-19T5:52:1Z</time></trkpt>
<trkpt lat="48.479066" lon="2.653348"><ele></ele><time>2017-9-19T5:52:4Z</time></trkpt>
<trkpt lat="48.47902" lon="2.653197"><ele></ele><time>2017-9-19T5:52:7Z</time></trkpt>
<trkpt lat="48.47892" lon="2.65317"><ele></ele><time>2017-9-19T5:52:10Z</time></trkpt>
<trkpt lat="48.478887" lon="2.653022"><ele></ele><time>2017-9-19T5:52:13Z</time></trkpt>
<trkpt lat="48.47885" lon="2.652897"><ele></ele><time>2017-9-19T5:52:16Z</time></trkpt>
<trkpt lat="48.47878" lon="2.652805"><ele></ele><time>2017-9-19T5:52:19Z</time></trkpt>
<trkpt lat="48.478687" lon="2.652697"><ele></ele><time>2017-9-19T5:52:22Z</time></trkpt>
<trkpt lat="48.478578" lon="2.652742"><ele></ele><time>2017-9-19T5:52:25Z</time></trkpt>
<trkpt lat="48.478469" lon="2.652785"><ele></ele><time>2017-9-19T5:52:28Z</time></trkpt>
<trkpt lat="48.478279" lon="2.652859"><ele></ele><time>2017-9-19T5:52:31Z</time></trkpt>
<trkpt lat="48.478183" lon="2.65291"><ele></ele><time>2017-9-19T5:52:34Z</time></trkpt>
<trkpt lat="48.478091" lon="2.652988"><ele></ele><time>2017-9-19T5:52:37Z</time></trkpt>
<trkpt lat="48.477979" lon="2.653071"><ele></ele><time>2017-9-19T5:52:40Z</time></trkpt>
<trkpt lat="48.477885" lon="2.653147"><ele></ele><time>2017-9-19T5:52:43Z</time></trkpt>
<trkpt lat="48.477785" lon="2.653209"><ele></ele><time>2017-9-19T5:52:46Z</time></trkpt>
<trkpt lat="48.477703" lon="2.653275"><ele></ele><time>2017-9-19T5:52:49Z</time></trkpt>
<trkpt lat="48.477584" lon="2.653387"><ele></ele><time>2017-9-19T5:52:52Z</time></trkpt>
<trkpt lat="48.477469" lon="2.653487"><ele></ele><time>2017-9-19T5:52:55Z</time></trkpt>
<trkpt lat="48.477361" lon="2.653578"><ele></ele><time>2017-9-19T5:52:58Z</time></trkpt>
<trkpt lat="48.477272" lon="2.653653"><ele></ele><time>2017-9-19T5:53:1Z</time></trkpt>
<trkpt lat="48.477167" lon="2.653722"><ele></ele><time>2017-9-19T5:53:4Z</time></trkpt>
<trkpt lat="48.477086" lon="2.653809"><ele></ele><time>2017-9-19T5:53:7Z</time></trkpt>
<trkpt lat="48.476996" lon="2.653874"><ele></ele><time>2017-9-19T5:53:10Z</time></trkpt>
<trkpt lat="48.476901" lon="2.653943"><ele></ele><time>2017-9-19T5:53:13Z</time></trkpt>
<trkpt lat="48.476809" lon="2.654027"><ele></ele><time>2017-9-19T5:53:16Z</time></trkpt>
<trkpt lat="48.476712" lon="2.654083"><ele></ele><time>2017-9-19T5:53:19Z</time></trkpt>
<trkpt lat="48.476602" lon="2.654169"><ele></ele><time>2017-9-19T5:53:22Z</time></trkpt>
<trkpt lat="48.476482" lon="2.654286"><ele></ele><time>2017-9-19T5:53:25Z</time></trkpt>
<trkpt lat="48.476381" lon="2.654374"><ele></ele><time>2017-9-19T5:53:28Z</time></trkpt>
<trkpt lat="48.476301" lon="2.654457"><ele></ele><time>2017-9-19T5:53:31Z</time></trkpt>
<trkpt lat="48.47618" lon="2.654576"><ele></ele><time>2017-9-19T5:53:34Z</time></trkpt>
<trkpt lat="48.476055" lon="2.654665"><ele></ele><time>2017-9-19T5:53:37Z</time></trkpt>
<trkpt lat="48.475935" lon="2.654758"><ele></ele><time>2017-9-19T5:53:40Z</time></trkpt>
<trkpt lat="48.475854" lon="2.654832"><ele></ele><time>2017-9-19T5:53:43Z</time></trkpt>
<trkpt lat="48.475771" lon="2.6549"><ele></ele><time>2017-9-19T5:53:46Z</time></trkpt>
<trkpt lat="48.47568" lon="2.654975"><ele></ele><time>2017-9-19T5:53:49Z</time></trkpt>
<trkpt lat="48.475499" lon="2.655161"><ele></ele><time>2017-9-19T5:53:52Z</time></trkpt>
<trkpt lat="48.475392" lon="2.655248"><ele></ele><time>2017-9-19T5:53:55Z</time></trkpt>
<trkpt lat="48.475295" lon="2.655345"><ele></ele><time>2017-9-19T5:53:58Z</time></trkpt>
<trkpt lat="48.475217" lon="2.655422"><ele></ele><time>2017-9-19T5:54:1Z</time></trkpt>
<trkpt lat="48.47512" lon="2.655499"><ele></ele><time>2017-9-19T5:54:4Z</time></trkpt>
<trkpt lat="48.475028" lon="2.655558"><ele></ele><time>2017-9-19T5:54:7Z</time></trkpt>
<trkpt lat="48.474925" lon="2.655643"><ele></ele><time>2017-9-19T5:54:10Z</time></trkpt>
<trkpt lat="48.47483" lon="2.655726"><ele></ele><time>2017-9-19T5:54:13Z</time></trkpt>
<trkpt lat="48.47474" lon="2.655817"><ele></ele><time>2017-9-19T5:54:16Z</time></trkpt>
<trkpt lat="48.474645" lon="2.655896"><ele></ele><time>2017-9-19T5:54:19Z</time></trkpt>
<trkpt lat="48.474505" lon="2.656001"><ele></ele><time>2017-9-19T5:54:22Z</time></trkpt>
<trkpt lat="48.474398" lon="2.656097"><ele></ele><time>2017-9-19T5:54:25Z</time></trkpt>
<trkpt lat="48.474321" lon="2.656179"><ele></ele><time>2017-9-19T5:54:28Z</time></trkpt>
<trkpt lat="48.474229" lon="2.656296"><ele></ele><time>2017-9-19T5:54:31Z</time></trkpt>
<trkpt lat="48.474124" lon="2.656394"><ele></ele><time>2017-9-19T5:54:34Z</time></trkpt>
<trkpt lat="48.474023" lon="2.656453"><ele></ele><time>2017-9-19T5:54:37Z</time></trkpt>
<trkpt lat="48.473917" lon="2.656566"><ele></ele><time>2017-9-19T5:54:40Z</time></trkpt>
<trkpt lat="48.473814" lon="2.656641"><ele></ele><time>2017-9-19T5:54:43Z</time></trkpt>
<trkpt lat="48.473683" lon="2.656732"><ele></ele><time>2017-9-19T5:54:46Z</time></trkpt>
<trkpt lat="48.473547" lon="2.656825"><ele></ele><time>2017-9-19T5:54:49Z</time></trkpt>
<trkpt lat="48.473456" lon="2.656885"><ele></ele><time>2017-9-19T5:54:52Z</time></trkpt>
<trkpt lat="48.473356" lon="2.65697"><ele></ele><time>2017-9-19T5:54:55Z</time></trkpt>
<trkpt lat="48.473267" lon="2.657042"><ele></ele><time>2017-9-19T5:54:58Z</time></trkpt>
<trkpt lat="48.473141" lon="2.657128"><ele></ele><time>2017-9-19T5:55:1Z</time></trkpt>
<trkpt lat="48.473049" lon="2.657211"><ele></ele><time>2017-9-19T5:55:4Z</time></trkpt>
<trkpt lat="48.472965" lon="2.657278"><ele></ele><time>2017-9-19T5:55:7Z</time></trkpt>
<trkpt lat="48.472861" lon="2.657382"><ele></ele><time>2017-9-19T5:55:10Z</time></trkpt>
<trkpt lat="48.472766" lon="2.65746"><ele></ele><time>2017-9-19T5:55:13Z</time></trkpt>
<trkpt lat="48.47266" lon="2.657542"><ele></ele><time>2017-9-19T5:55:16Z</time></trkpt>
<trkpt lat="48.472435" lon="2.657767"><ele></ele><time>2017-9-19T5:55:19Z</time></trkpt>
<trkpt lat="48.472333" lon="2.657829"><ele></ele><time>2017-9-19T5:55:22Z</time></trkpt>
<trkpt lat="48.472232" lon="2.657911"><ele></ele><time>2017-9-19T5:55:25Z</time></trkpt>
<trkpt lat="48.47214" lon="2.657972"><ele></ele><time>2017-9-19T5:55:28Z</time></trkpt>
<trkpt lat="48.47202" lon="2.658111"><ele></ele><time>2017-9-19T5:55:31Z</time></trkpt>
<trkpt lat="48.471911" lon="2.65819"><ele></ele><time>2017-9-19T5:55:34Z</time></trkpt>
<trkpt lat="48.471812" lon="2.658272"><ele></ele><time>2017-9-19T5:55:37Z</time></trkpt>
<trkpt lat="48.471708" lon="2.658341"><ele></ele><time>2017-9-19T5:55:40Z</time></trkpt>
<trkpt lat="48.471612" lon="2.658428"><ele></ele><time>2017-9-19T5:55:43Z</time></trkpt>
<trkpt lat="48.471517" lon="2.658521"><ele></ele><time>2017-9-19T5:55:46Z</time></trkpt>
<trkpt lat="48.471428" lon="2.658579"><ele></ele><time>2017-9-19T5:55:49Z</time></trkpt>
<trkpt lat="48.471333" lon="2.658641"><ele></ele><time>2017-9-19T5:55:52Z</time></trkpt>
<trkpt lat="48.47124" lon="2.658713"><ele></ele><time>2017-9-19T5:55:55Z</time></trkpt>
<trkpt lat="48.471094" lon="2.658762"><ele></ele><time>2017-9-19T5:55:58Z</time></trkpt>
<trkpt lat="48.470936" lon="2.658796"><ele></ele><time>2017-9-19T5:56:1Z</time></trkpt>
<trkpt lat="48.470814" lon="2.658787"><ele></ele><time>2017-9-19T5:56:4Z</time></trkpt>
<trkpt lat="48.47069" lon="2.658791"><ele></ele><time>2017-9-19T5:56:7Z</time></trkpt>
<trkpt lat="48.470582" lon="2.658798"><ele></ele><time>2017-9-19T5:56:10Z</time></trkpt>
<trkpt lat="48.470452" lon="2.658792"><ele></ele><time>2017-9-19T5:56:13Z</time></trkpt>
<trkpt lat="48.47034" lon="2.658795"><ele></ele><time>2017-9-19T5:56:16Z</time></trkpt>
<trkpt lat="48.470229" lon="2.658804"><ele></ele><time>2017-9-19T5:56:19Z</time></trkpt>
<trkpt lat="48.470129" lon="2.658811"><ele></ele><time>2017-9-19T5:56:22Z</time></trkpt>
<trkpt lat="48.470019" lon="2.658788"><ele></ele><time>2017-9-19T5:56:25Z</time></trkpt>
<trkpt lat="48.469918" lon="2.658764"><ele></ele><time>2017-9-19T5:56:28Z</time></trkpt>
<trkpt lat="48.46979" lon="2.658746"><ele></ele><time>2017-9-19T5:56:31Z</time></trkpt>
<trkpt lat="48.469674" lon="2.658739"><ele></ele><time>2017-9-19T5:56:34Z</time></trkpt>
<trkpt lat="48.46956" lon="2.658724"><ele></ele><time>2017-9-19T5:56:37Z</time></trkpt>
<trkpt lat="48.469437" lon="2.6587"><ele></ele><time>2017-9-19T5:56:40Z</time></trkpt>
<trkpt lat="48.469222" lon="2.658681"><ele></ele><time>2017-9-19T5:56:43Z</time></trkpt>
<trkpt lat="48.469115" lon="2.658685"><ele></ele><time>2017-9-19T5:56:46Z</time></trkpt>
<trkpt lat="48.469023" lon="2.658665"><ele></ele><time>2017-9-19T5:56:49Z</time></trkpt>
<trkpt lat="48.468914" lon="2.658656"><ele></ele><time>2017-9-19T5:56:52Z</time></trkpt>
<trkpt lat="48.468821" lon="2.658643"><ele></ele><time>2017-9-19T5:56:55Z</time></trkpt>
<trkpt lat="48.468686" lon="2.658597"><ele></ele><time>2017-9-19T5:56:58Z</time></trkpt>
<trkpt lat="48.468594" lon="2.658598"><ele></ele><time>2017-9-19T5:57:1Z</time></trkpt>
<trkpt lat="48.468498" lon="2.658607"><ele></ele><time>2017-9-19T5:57:4Z</time></trkpt>
<trkpt lat="48.468383" lon="2.65858"><ele></ele><time>2017-9-19T5:57:7Z</time></trkpt>
<trkpt lat="48.468286" lon="2.658551"><ele></ele><time>2017-9-19T5:57:10Z</time></trkpt>
<trkpt lat="48.468175" lon="2.65853"><ele></ele><time>2017-9-19T5:57:13Z</time></trkpt>
<trkpt lat="48.46806" lon="2.658516"><ele></ele><time>2017-9-19T5:57:16Z</time></trkpt>
<trkpt lat="48.467953" lon="2.658503"><ele></ele><time>2017-9-19T5:57:19Z</time></trkpt>
<trkpt lat="48.467852" lon="2.658508"><ele></ele><time>2017-9-19T5:57:22Z</time></trkpt>
<trkpt lat="48.467732" lon="2.65851"><ele></ele><time>2017-9-19T5:57:25Z</time></trkpt>
<trkpt lat="48.467617" lon="2.658536"><ele></ele><time>2017-9-19T5:57:28Z</time></trkpt>
<trkpt lat="48.467496" lon="2.658494"><ele></ele><time>2017-9-19T5:57:31Z</time></trkpt>
<trkpt lat="48.467399" lon="2.658476"><ele></ele><time>2017-9-19T5:57:34Z</time></trkpt>
<trkpt lat="48.467268" lon="2.658466"><ele></ele><time>2017-9-19T5:57:37Z</time></trkpt>
<trkpt lat="48.467161" lon="2.658451"><ele></ele><time>2017-9-19T5:57:40Z</time></trkpt>
<trkpt lat="48.467071" lon="2.658435"><ele></ele><time>2017-9-19T5:57:43Z</time></trkpt>
<trkpt lat="48.466949" lon="2.658428"><ele></ele><time>2017-9-19T5:57:46Z</time></trkpt>
<trkpt lat="48.466809" lon="2.658371"><ele></ele><time>2017-9-19T5:57:49Z</time></trkpt>
<trkpt lat="48.466675" lon="2.658378"><ele></ele><time>2017-9-19T5:57:52Z</time></trkpt>
<trkpt lat="48.466557" lon="2.658378"><ele></ele><time>2017-9-19T5:57:55Z</time></trkpt>
<trkpt lat="48.466422" lon="2.658358"><ele></ele><time>2017-9-19T5:57:58Z</time></trkpt>
<trkpt lat="48.466298" lon="2.658374"><ele></ele><time>2017-9-19T5:58:1Z</time></trkpt>
<trkpt lat="48.466059" lon="2.658371"><ele></ele><time>2017-9-19T5:58:4Z</time></trkpt>
<trkpt lat="48.465975" lon="2.658418"><ele></ele><time>2017-9-19T5:58:7Z</time></trkpt>
<trkpt lat="48.465833" lon="2.658473"><ele></ele><time>2017-9-19T5:58:10Z</time></trkpt>
<trkpt lat="48.465688" lon="2.658499"><ele></ele><time>2017-9-19T5:58:13Z</time></trkpt>
<trkpt lat="48.465581" lon="2.658468"><ele></ele><time>2017-9-19T5:58:16Z</time></trkpt>
<trkpt lat="48.465483" lon="2.658399"><ele></ele><time>2017-9-19T5:58:19Z</time></trkpt>
<trkpt lat="48.465387" lon="2.658425"><ele></ele><time>2017-9-19T5:58:22Z</time></trkpt>
<trkpt lat="48.465254" lon="2.658472"><ele></ele><time>2017-9-19T5:58:25Z</time></trkpt>
<trkpt lat="48.465121" lon="2.658481"><ele></ele><time>2017-9-19T5:58:28Z</time></trkpt>
<trkpt lat="48.465024" lon="2.658498"><ele></ele><time>2017-9-19T5:58:31Z</time></trkpt>
<trkpt lat="48.464923" lon="2.658514"><ele></ele><time>2017-9-19T5:58:34Z</time></trkpt>
<trkpt lat="48.464819" lon="2.658498"><ele></ele><time>2017-9-19T5:58:37Z</time></trkpt>
<trkpt lat="48.464694" lon="2.65845"><ele></ele><time>2017-9-19T5:58:40Z</time></trkpt>
<trkpt lat="48.464591" lon="2.658458"><ele></ele><time>2017-9-19T5:58:43Z</time></trkpt>
<trkpt lat="48.464484" lon="2.658522"><ele></ele><time>2017-9-19T5:58:46Z</time></trkpt>
<trkpt lat="48.464363" lon="2.658633"><ele></ele><time>2017-9-19T5:58:49Z</time></trkpt>
<trkpt lat="48.464262" lon="2.658746"><ele></ele><time>2017-9-19T5:58:52Z</time></trkpt>
<trkpt lat="48.464172" lon="2.658811"><ele></ele><time>2017-9-19T5:58:55Z</time></trkpt>
<trkpt lat="48.46407" lon="2.658876"><ele></ele><time>2017-9-19T5:58:58Z</time></trkpt>
<trkpt lat="48.463943" lon="2.658999"><ele></ele><time>2017-9-19T5:59:1Z</time></trkpt>
<trkpt lat="48.463841" lon="2.659072"><ele></ele><time>2017-9-19T5:59:4Z</time></trkpt>
<trkpt lat="48.463749" lon="2.659128"><ele></ele><time>2017-9-19T5:59:7Z</time></trkpt>
<trkpt lat="48.463646" lon="2.65918"><ele></ele><time>2017-9-19T5:59:10Z</time></trkpt>
<trkpt lat="48.463543" lon="2.659243"><ele></ele><time>2017-9-19T5:59:13Z</time></trkpt>
<trkpt lat="48.463305" lon="2.659432"><ele></ele><time>2017-9-19T5:59:16Z</time></trkpt>
<trkpt lat="48.463226" lon="2.659502"><ele></ele><time>2017-9-19T5:59:19Z</time></trkpt>
<trkpt lat="48.46311" lon="2.659612"><ele></ele><time>2017-9-19T5:59:22Z</time></trkpt>
<trkpt lat="48.463029" lon="2.659679"><ele></ele><time>2017-9-19T5:59:25Z</time></trkpt>
<trkpt lat="48.462935" lon="2.659743"><ele></ele><time>2017-9-19T5:59:28Z</time></trkpt>
<trkpt lat="48.462854" lon="2.659809"><ele></ele><time>2017-9-19T5:59:31Z</time></trkpt>
<trkpt lat="48.462771" lon="2.659891"><ele></ele><time>2017-9-19T5:59:34Z</time></trkpt>
<trkpt lat="48.46269" lon="2.659976"><ele></ele><time>2017-9-19T5:59:37Z</time></trkpt>
<trkpt lat="48.462594" lon="2.660025"><ele></ele><time>2017-9-19T5:59:40Z</time></trkpt>
<trkpt lat="48.462484" lon="2.66011"><ele></ele><time>2017-9-19T5:59:43Z</time></trkpt>
<trkpt lat="48.462404" lon="2.660179"><ele></ele><time>2017-9-19T5:59:46Z</time></trkpt>
<trkpt lat="48.462319" lon="2.660268"><ele></ele><time>2017-9-19T5:59:49Z</time></trkpt>
<trkpt lat="48.462225" lon="2.660337"><ele></ele><time>2017-9-19T5:59:52Z</time></trkpt>
<trkpt lat="48.462123" lon="2.660348"><ele></ele><time>2017-9-19T5:59:55Z</time></trkpt>
<trkpt lat="48.462016" lon="2.66037"><ele></ele><time>2017-9-19T5:59:58Z</time></trkpt>
<trkpt lat="48.461924" lon="2.660414"><ele></ele><time>2017-9-19T6:0:1Z</time></trkpt>
<trkpt lat="48.461831" lon="2.66046"><ele></ele><time>2017-9-19T6:0:4Z</time></trkpt>
<trkpt lat="48.461734" lon="2.66047"><ele></ele><time>2017-9-19T6:0:7Z</time></trkpt>
<trkpt lat="48.461532" lon="2.660476"><ele></ele><time>2017-9-19T6:0:10Z</time></trkpt>
<trkpt lat="48.461428" lon="2.660454"><ele></ele><time>2017-9-19T6:0:13Z</time></trkpt>
<trkpt lat="48.46134" lon="2.660397"><ele></ele><time>2017-9-19T6:0:16Z</time></trkpt>
<trkpt lat="48.46125" lon="2.660374"><ele></ele><time>2017-9-19T6:0:19Z</time></trkpt>
<trkpt lat="48.461154" lon="2.660407"><ele></ele><time>2017-9-19T6:0:22Z</time></trkpt>
<trkpt lat="48.461003" lon="2.660463"><ele></ele><time>2017-9-19T6:0:25Z</time></trkpt>
<trkpt lat="48.460912" lon="2.660515"><ele></ele><time>2017-9-19T6:0:28Z</time></trkpt>
<trkpt lat="48.460837" lon="2.660593"><ele></ele><time>2017-9-19T6:0:31Z</time></trkpt>
<trkpt lat="48.460763" lon="2.660691"><ele></ele><time>2017-9-19T6:0:34Z</time></trkpt>
<trkpt lat="48.460641" lon="2.660966"><ele></ele><time>2017-9-19T6:0:37Z</time></trkpt>
<trkpt lat="48.460555" lon="2.661047"><ele></ele><time>2017-9-19T6:0:40Z</time></trkpt>
<trkpt lat="48.460424" lon="2.661119"><ele></ele><time>2017-9-19T6:0:43Z</time></trkpt>
<trkpt lat="48.460315" lon="2.661205"><ele></ele><time>2017-9-19T6:0:46Z</time></trkpt>
<trkpt lat="48.460229" lon="2.661248"><ele></ele><time>2017-9-19T6:0:49Z</time></trkpt>
<trkpt lat="48.460143" lon="2.661342"><ele></ele><time>2017-9-19T6:0:52Z</time></trkpt>
<trkpt lat="48.460032" lon="2.661398"><ele></ele><time>2017-9-19T6:0:55Z</time></trkpt>
<trkpt lat="48.459907" lon="2.661419"><ele></ele><time>2017-9-19T6:0:58Z</time></trkpt>
<trkpt lat="48.459809" lon="2.661407"><ele></ele><time>2017-9-19T6:1:1Z</time></trkpt>
<trkpt lat="48.459691" lon="2.661362"><ele></ele><time>2017-9-19T6:1:4Z</time></trkpt>
<trkpt lat="48.459563" lon="2.661325"><ele></ele><time>2017-9-19T6:1:7Z</time></trkpt>
<trkpt lat="48.459476" lon="2.661292"><ele></ele><time>2017-9-19T6:1:10Z</time></trkpt>
<trkpt lat="48.459388" lon="2.661204"><ele></ele><time>2017-9-19T6:1:13Z</time></trkpt>
<trkpt lat="48.459297" lon="2.661149"><ele></ele><time>2017-9-19T6:1:16Z</time></trkpt>
<trkpt lat="48.459201" lon="2.66108"><ele></ele><time>2017-9-19T6:1:19Z</time></trkpt>
<trkpt lat="48.459112" lon="2.66101"><ele></ele><time>2017-9-19T6:1:22Z</time></trkpt>
<trkpt lat="48.45902" lon="2.660927"><ele></ele><time>2017-9-19T6:1:25Z</time></trkpt>
<trkpt lat="48.458937" lon="2.660853"><ele></ele><time>2017-9-19T6:1:28Z</time></trkpt>
<trkpt lat="48.458827" lon="2.660791"><ele></ele><time>2017-9-19T6:1:31Z</time></trkpt>
<trkpt lat="48.45873" lon="2.660734"><ele></ele><time>2017-9-19T6:1:34Z</time></trkpt>
<trkpt lat="48.458578" lon="2.660592"><ele></ele><time>2017-9-19T6:1:37Z</time></trkpt>
<trkpt lat="48.458516" lon="2.66047"><ele></ele><time>2017-9-19T6:1:40Z</time></trkpt>
<trkpt lat="48.458483" lon="2.66034"><ele></ele><time>2017-9-19T6:1:43Z</time></trkpt>
<trkpt lat="48.458449" lon="2.660209"><ele></ele><time>2017-9-19T6:1:46Z</time></trkpt>
<trkpt lat="48.458463" lon="2.660064"><ele></ele><time>2017-9-19T6:1:49Z</time></trkpt>
<trkpt lat="48.458426" lon="2.659921"><ele></ele><time>2017-9-19T6:1:52Z</time></trkpt>
<trkpt lat="48.458415" lon="2.659765"><ele></ele><time>2017-9-19T6:1:55Z</time></trkpt>
<trkpt lat="48.458414" lon="2.659627"><ele></ele><time>2017-9-19T6:1:58Z</time></trkpt>
<trkpt lat="48.458386" lon="2.659487"><ele></ele><time>2017-9-19T6:2:1Z</time></trkpt>
<trkpt lat="48.458305" lon="2.65923"><ele></ele><time>2017-9-19T6:2:4Z</time></trkpt>
<trkpt lat="48.458254" lon="2.659104"><ele></ele><time>2017-9-19T6:2:7Z</time></trkpt>
<trkpt lat="48.458212" lon="2.658977"><ele></ele><time>2017-9-19T6:2:10Z</time></trkpt>
<trkpt lat="48.458164" lon="2.65884"><ele></ele><time>2017-9-19T6:2:13Z</time></trkpt>
<trkpt lat="48.4581" lon="2.65871"><ele></ele><time>2017-9-19T6:2:16Z</time></trkpt>
<trkpt lat="48.45803" lon="2.658609"><ele></ele><time>2017-9-19T6:2:19Z</time></trkpt>
<trkpt lat="48.45796" lon="2.658495"><ele></ele><time>2017-9-19T6:2:22Z</time></trkpt>
<trkpt lat="48.4579" lon="2.658388"><ele></ele><time>2017-9-19T6:2:25Z</time></trkpt>
<trkpt lat="48.457846" lon="2.658265"><ele></ele><time>2017-9-19T6:2:28Z</time></trkpt>
<trkpt lat="48.457686" lon="2.658122"><ele></ele><time>2017-9-19T6:2:31Z</time></trkpt>
<trkpt lat="48.457597" lon="2.658063"><ele></ele><time>2017-9-19T6:2:34Z</time></trkpt>
<trkpt lat="48.457534" lon="2.657958"><ele></ele><time>2017-9-19T6:2:37Z</time></trkpt>
<trkpt lat="48.457481" lon="2.657841"><ele></ele><time>2017-9-19T6:2:40Z</time></trkpt>
<trkpt lat="48.457439" lon="2.65771"><ele></ele><time>2017-9-19T6:2:43Z</time></trkpt>
<trkpt lat="48.45752" lon="2.657597"><ele></ele><time>2017-9-19T6:2:46Z</time></trkpt>
<trkpt lat="48.457712" lon="2.657512"><ele></ele><time>2017-9-19T6:2:49Z</time></trkpt>
<trkpt lat="48.45782" lon="2.657482"><ele></ele><time>2017-9-19T6:2:52Z</time></trkpt>
<trkpt lat="48.457925" lon="2.657459"><ele></ele><time>2017-9-19T6:2:55Z</time></trkpt>
<trkpt lat="48.458034" lon="2.657437"><ele></ele><time>2017-9-19T6:2:58Z</time></trkpt>
<trkpt lat="48.458137" lon="2.657412"><ele></ele><time>2017-9-19T6:3:1Z</time></trkpt>
<trkpt lat="48.458247" lon="2.657393"><ele></ele><time>2017-9-19T6:3:4Z</time></trkpt>
<trkpt lat="48.458332" lon="2.657337"><ele></ele><time>2017-9-19T6:3:7Z</time></trkpt>
<trkpt lat="48.458424" lon="2.657251"><ele></ele><time>2017-9-19T6:3:10Z</time></trkpt>
<trkpt lat="48.458501" lon="2.657131"><ele></ele><time>2017-9-19T6:3:13Z</time></trkpt>
<trkpt lat="48.458565" lon="2.656988"><ele></ele><time>2017-9-19T6:3:16Z</time></trkpt>
<trkpt lat="48.45862" lon="2.656873"><ele></ele><time>2017-9-19T6:3:19Z</time></trkpt>
<trkpt lat="48.458696" lon="2.656741"><ele></ele><time>2017-9-19T6:3:22Z</time></trkpt>
<trkpt lat="48.458755" lon="2.656612"><ele></ele><time>2017-9-19T6:3:25Z</time></trkpt>
<trkpt lat="48.458822" lon="2.65648"><ele></ele><time>2017-9-19T6:3:28Z</time></trkpt>
<trkpt lat="48.458885" lon="2.656379"><ele></ele><time>2017-9-19T6:3:31Z</time></trkpt>
<trkpt lat="48.458955" lon="2.656242"><ele></ele><time>2017-9-19T6:3:34Z</time></trkpt>
<trkpt lat="48.459128" lon="2.655948"><ele></ele><time>2017-9-19T6:3:37Z</time></trkpt>
<trkpt lat="48.459169" lon="2.655814"><ele></ele><time>2017-9-19T6:3:40Z</time></trkpt>
<trkpt lat="48.459238" lon="2.6557"><ele></ele><time>2017-9-19T6:3:43Z</time></trkpt>
<trkpt lat="48.459297" lon="2.655584"><ele></ele><time>2017-9-19T6:3:46Z</time></trkpt>
<trkpt lat="48.459343" lon="2.655421"><ele></ele><time>2017-9-19T6:3:49Z</time></trkpt>
<trkpt lat="48.459397" lon="2.655244"><ele></ele><time>2017-9-19T6:3:52Z</time></trkpt>
<trkpt lat="48.459449" lon="2.655058"><ele></ele><time>2017-9-19T6:3:55Z</time></trkpt>
<trkpt lat="48.45949" lon="2.654889"><ele></ele><time>2017-9-19T6:3:58Z</time></trkpt>
<trkpt lat="48.459551" lon="2.654758"><ele></ele><time>2017-9-19T6:4:1Z</time></trkpt>
<trkpt lat="48.459606" lon="2.654566"><ele></ele><time>2017-9-19T6:4:4Z</time></trkpt>
<trkpt lat="48.459612" lon="2.654354"><ele></ele><time>2017-9-19T6:4:7Z</time></trkpt>
<trkpt lat="48.459638" lon="2.654183"><ele></ele><time>2017-9-19T6:4:10Z</time></trkpt>
<trkpt lat="48.459669" lon="2.65403"><ele></ele><time>2017-9-19T6:4:13Z</time></trkpt>
<trkpt lat="48.459585" lon="2.653928"><ele></ele><time>2017-9-19T6:4:16Z</time></trkpt>
<trkpt lat="48.45952" lon="2.653772"><ele></ele><time>2017-9-19T6:4:19Z</time></trkpt>
<trkpt lat="48.459453" lon="2.653669"><ele></ele><time>2017-9-19T6:4:22Z</time></trkpt>
<trkpt lat="48.459372" lon="2.653583"><ele></ele><time>2017-9-19T6:4:25Z</time></trkpt>
<trkpt lat="48.459268" lon="2.653499"><ele></ele><time>2017-9-19T6:4:28Z</time></trkpt>
<trkpt lat="48.459136" lon="2.653432"><ele></ele><time>2017-9-19T6:4:31Z</time></trkpt>
<trkpt lat="48.459025" lon="2.653403"><ele></ele><time>2017-9-19T6:4:34Z</time></trkpt>
<trkpt lat="48.458918" lon="2.653403"><ele></ele><time>2017-9-19T6:4:37Z</time></trkpt>
<trkpt lat="48.458799" lon="2.653399"><ele></ele><time>2017-9-19T6:4:40Z</time></trkpt>
<trkpt lat="48.458681" lon="2.653417"><ele></ele><time>2017-9-19T6:4:43Z</time></trkpt>
<trkpt lat="48.458568" lon="2.653433"><ele></ele><time>2017-9-19T6:4:46Z</time></trkpt>
<trkpt lat="48.458375" lon="2.653446"><ele></ele><time>2017-9-19T6:4:49Z</time></trkpt>
<trkpt lat="48.45827" lon="2.653435"><ele></ele><time>2017-9-19T6:4:52Z</time></trkpt>
<trkpt lat="48.458166" lon="2.653417"><ele></ele><time>2017-9-19T6:4:55Z</time></trkpt>
<trkpt lat="48.458049" lon="2.653356"><ele></ele><time>2017-9-19T6:4:58Z</time></trkpt>
<trkpt lat="48.45793" lon="2.653299"><ele></ele><time>2017-9-19T6:5:1Z</time></trkpt>
<trkpt lat="48.457811" lon="2.653194"><ele></ele><time>2017-9-19T6:5:4Z</time></trkpt>
<trkpt lat="48.45772" lon="2.653079"><ele></ele><time>2017-9-19T6:5:7Z</time></trkpt>
<trkpt lat="48.457658" lon="2.652926"><ele></ele><time>2017-9-19T6:5:10Z</time></trkpt>
<trkpt lat="48.457599" lon="2.652799"><ele></ele><time>2017-9-19T6:5:13Z</time></trkpt>
<trkpt lat="48.457574" lon="2.652664"><ele></ele><time>2017-9-19T6:5:16Z</time></trkpt>
<trkpt lat="48.457633" lon="2.652542"><ele></ele><time>2017-9-19T6:5:19Z</time></trkpt>
<trkpt lat="48.457644" lon="2.652403"><ele></ele><time>2017-9-19T6:5:22Z</time></trkpt>
<trkpt lat="48.457685" lon="2.652266"><ele></ele><time>2017-9-19T6:5:25Z</time></trkpt>
<trkpt lat="48.457746" lon="2.652074"><ele></ele><time>2017-9-19T6:5:28Z</time></trkpt>
<trkpt lat="48.457816" lon="2.651917"><ele></ele><time>2017-9-19T6:5:31Z</time></trkpt>
<trkpt lat="48.457894" lon="2.651776"><ele></ele><time>2017-9-19T6:5:34Z</time></trkpt>
<trkpt lat="48.457984" lon="2.651642"><ele></ele><time>2017-9-19T6:5:37Z</time></trkpt>
<trkpt lat="48.458084" lon="2.651556"><ele></ele><time>2017-9-19T6:5:40Z</time></trkpt>
<trkpt lat="48.45819" lon="2.651486"><ele></ele><time>2017-9-19T6:5:43Z</time></trkpt>
<trkpt lat="48.458297" lon="2.651422"><ele></ele><time>2017-9-19T6:5:46Z</time></trkpt>
<trkpt lat="48.458396" lon="2.651358"><ele></ele><time>2017-9-19T6:5:49Z</time></trkpt>
<trkpt lat="48.458486" lon="2.651285"><ele></ele><time>2017-9-19T6:5:52Z</time></trkpt>
<trkpt lat="48.458568" lon="2.651168"><ele></ele><time>2017-9-19T6:5:55Z</time></trkpt>
<trkpt lat="48.458618" lon="2.651026"><ele></ele><time>2017-9-19T6:5:58Z</time></trkpt>
<trkpt lat="48.45864" lon="2.650892"><ele></ele><time>2017-9-19T6:6:1Z</time></trkpt>
<trkpt lat="48.458634" lon="2.650733"><ele></ele><time>2017-9-19T6:6:4Z</time></trkpt>
<trkpt lat="48.458599" lon="2.650606"><ele></ele><time>2017-9-19T6:6:7Z</time></trkpt>
<trkpt lat="48.458558" lon="2.650456"><ele></ele><time>2017-9-19T6:6:10Z</time></trkpt>
<trkpt lat="48.45843" lon="2.650193"><ele></ele><time>2017-9-19T6:6:13Z</time></trkpt>
<trkpt lat="48.45837" lon="2.650074"><ele></ele><time>2017-9-19T6:6:16Z</time></trkpt>
<trkpt lat="48.458294" lon="2.649945"><ele></ele><time>2017-9-19T6:6:19Z</time></trkpt>
<trkpt lat="48.458224" lon="2.64984"><ele></ele><time>2017-9-19T6:6:22Z</time></trkpt>
<trkpt lat="48.458161" lon="2.649712"><ele></ele><time>2017-9-19T6:6:25Z</time></trkpt>
<trkpt lat="48.458102" lon="2.649577"><ele></ele><time>2017-9-19T6:6:28Z</time></trkpt>
<trkpt lat="48.458056" lon="2.649451"><ele></ele><time>2017-9-19T6:6:31Z</time></trkpt>
<trkpt lat="48.458052" lon="2.649229"><ele></ele><time>2017-9-19T6:6:34Z</time></trkpt>
<trkpt lat="48.458057" lon="2.649075"><ele></ele><time>2017-9-19T6:6:37Z</time></trkpt>
<trkpt lat="48.458093" lon="2.648912"><ele></ele><time>2017-9-19T6:6:40Z</time></trkpt>
<trkpt lat="48.458151" lon="2.648741"><ele></ele><time>2017-9-19T6:6:43Z</time></trkpt>
<trkpt lat="48.458231" lon="2.648605"><ele></ele><time>2017-9-19T6:6:46Z</time></trkpt>
<trkpt lat="48.458342" lon="2.648473"><ele></ele><time>2017-9-19T6:6:49Z</time></trkpt>
<trkpt lat="48.458455" lon="2.648407"><ele></ele><time>2017-9-19T6:6:52Z</time></trkpt>
<trkpt lat="48.458546" lon="2.648332"><ele></ele><time>2017-9-19T6:6:55Z</time></trkpt>
<trkpt lat="48.458642" lon="2.648275"><ele></ele><time>2017-9-19T6:6:58Z</time></trkpt>
<trkpt lat="48.458734" lon="2.648218"><ele></ele><time>2017-9-19T6:7:1Z</time></trkpt>
<trkpt lat="48.458829" lon="2.648169"><ele></ele><time>2017-9-19T6:7:4Z</time></trkpt>
<trkpt lat="48.458922" lon="2.648117"><ele></ele><time>2017-9-19T6:7:7Z</time></trkpt>
<trkpt lat="48.459013" lon="2.648076"><ele></ele><time>2017-9-19T6:7:10Z</time></trkpt>
<trkpt lat="48.459135" lon="2.648061"><ele></ele><time>2017-9-19T6:7:13Z</time></trkpt>
<trkpt lat="48.45924" lon="2.648002"><ele></ele><time>2017-9-19T6:7:16Z</time></trkpt>
<trkpt lat="48.459333" lon="2.647903"><ele></ele><time>2017-9-19T6:7:19Z</time></trkpt>
<trkpt lat="48.459407" lon="2.647777"><ele></ele><time>2017-9-19T6:7:22Z</time></trkpt>
<trkpt lat="48.459442" lon="2.64764"><ele></ele><time>2017-9-19T6:7:25Z</time></trkpt>
<trkpt lat="48.459476" lon="2.647493"><ele></ele><time>2017-9-19T6:7:28Z</time></trkpt>
<trkpt lat="48.459491" lon="2.647294"><ele></ele><time>2017-9-19T6:7:31Z</time></trkpt>
<trkpt lat="48.459512" lon="2.647006"><ele></ele><time>2017-9-19T6:7:34Z</time></trkpt>
<trkpt lat="48.459471" lon="2.64684"><ele></ele><time>2017-9-19T6:7:37Z</time></trkpt>
<trkpt lat="48.45948" lon="2.646682"><ele></ele><time>2017-9-19T6:7:40Z</time></trkpt>
<trkpt lat="48.459472" lon="2.646501"><ele></ele><time>2017-9-19T6:7:43Z</time></trkpt>
<trkpt lat="48.459455" lon="2.646347"><ele></ele><time>2017-9-19T6:7:46Z</time></trkpt>
<trkpt lat="48.459397" lon="2.646226"><ele></ele><time>2017-9-19T6:7:49Z</time></trkpt>
<trkpt lat="48.459376" lon="2.646071"><ele></ele><time>2017-9-19T6:7:52Z</time></trkpt>
<trkpt lat="48.459338" lon="2.645924"><ele></ele><time>2017-9-19T6:7:55Z</time></trkpt>
<trkpt lat="48.45927" lon="2.645759"><ele></ele><time>2017-9-19T6:7:58Z</time></trkpt>
<trkpt lat="48.459207" lon="2.645626"><ele></ele><time>2017-9-19T6:8:1Z</time></trkpt>
<trkpt lat="48.459172" lon="2.64549"><ele></ele><time>2017-9-19T6:8:4Z</time></trkpt>
<trkpt lat="48.459083" lon="2.645344"><ele></ele><time>2017-9-19T6:8:7Z</time></trkpt>
<trkpt lat="48.459078" lon="2.645137"><ele></ele><time>2017-9-19T6:8:10Z</time></trkpt>
<trkpt lat="48.459058" lon="2.644961"><ele></ele><time>2017-9-19T6:8:13Z</time></trkpt>
<trkpt lat="48.459029" lon="2.644782"><ele></ele><time>2017-9-19T6:8:16Z</time></trkpt>
<trkpt lat="48.458996" lon="2.644625"><ele></ele><time>2017-9-19T6:8:19Z</time></trkpt>
<trkpt lat="48.459003" lon="2.644459"><ele></ele><time>2017-9-19T6:8:22Z</time></trkpt>
<trkpt lat="48.459018" lon="2.644319"><ele></ele><time>2017-9-19T6:8:25Z</time></trkpt>
<trkpt lat="48.459029" lon="2.644175"><ele></ele><time>2017-9-19T6:8:28Z</time></trkpt>
<trkpt lat="48.459056" lon="2.644017"><ele></ele><time>2017-9-19T6:8:31Z</time></trkpt>
<trkpt lat="48.459096" lon="2.643806"><ele></ele><time>2017-9-19T6:8:34Z</time></trkpt>
<trkpt lat="48.459145" lon="2.643595"><ele></ele><time>2017-9-19T6:8:37Z</time></trkpt>
<trkpt lat="48.459193" lon="2.643434"><ele></ele><time>2017-9-19T6:8:40Z</time></trkpt>
<trkpt lat="48.459242" lon="2.643279"><ele></ele><time>2017-9-19T6:8:43Z</time></trkpt>
<trkpt lat="48.459282" lon="2.643105"><ele></ele><time>2017-9-19T6:8:46Z</time></trkpt>
<trkpt lat="48.459328" lon="2.642948"><ele></ele><time>2017-9-19T6:8:49Z</time></trkpt>
<trkpt lat="48.459366" lon="2.642781"><ele></ele><time>2017-9-19T6:8:52Z</time></trkpt>
<trkpt lat="48.459392" lon="2.642635"><ele></ele><time>2017-9-19T6:8:55Z</time></trkpt>
<trkpt lat="48.459392" lon="2.642321"><ele></ele><time>2017-9-19T6:8:58Z</time></trkpt>
<trkpt lat="48.459414" lon="2.642148"><ele></ele><time>2017-9-19T6:9:1Z</time></trkpt>
<trkpt lat="48.459452" lon="2.641976"><ele></ele><time>2017-9-19T6:9:4Z</time></trkpt>
<trkpt lat="48.459492" lon="2.641752"><ele></ele><time>2017-9-19T6:9:7Z</time></trkpt>
<trkpt lat="48.459515" lon="2.641594"><ele></ele><time>2017-9-19T6:9:10Z</time></trkpt>
<trkpt lat="48.45947" lon="2.641461"><ele></ele><time>2017-9-19T6:9:13Z</time></trkpt>
<trkpt lat="48.459389" lon="2.641306"><ele></ele><time>2017-9-19T6:9:16Z</time></trkpt>
<trkpt lat="48.459255" lon="2.641274"><ele></ele><time>2017-9-19T6:9:19Z</time></trkpt>
<trkpt lat="48.459148" lon="2.641235"><ele></ele><time>2017-9-19T6:9:22Z</time></trkpt>
<trkpt lat="48.459052" lon="2.641211"><ele></ele><time>2017-9-19T6:9:25Z</time></trkpt>
<trkpt lat="48.458953" lon="2.641184"><ele></ele><time>2017-9-19T6:9:28Z</time></trkpt>
<trkpt lat="48.458856" lon="2.641158"><ele></ele><time>2017-9-19T6:9:31Z</time></trkpt>
<trkpt lat="48.458736" lon="2.641146"><ele></ele><time>2017-9-19T6:9:34Z</time></trkpt>
<trkpt lat="48.458624" lon="2.641135"><ele></ele><time>2017-9-19T6:9:37Z</time></trkpt>
<trkpt lat="48.458509" lon="2.641138"><ele></ele><time>2017-9-19T6:9:40Z</time></trkpt>
<trkpt lat="48.458392" lon="2.641154"><ele></ele><time>2017-9-19T6:9:43Z</time></trkpt>
<trkpt lat="48.458278" lon="2.641151"><ele></ele><time>2017-9-19T6:9:46Z</time></trkpt>
<trkpt lat="48.458158" lon="2.641145"><ele></ele><time>2017-9-19T6:9:49Z</time></trkpt>
<trkpt lat="48.458072" lon="2.641105"><ele></ele><time>2017-9-19T6:9:52Z</time></trkpt>
<trkpt lat="48.45796" lon="2.641009"><ele></ele><time>2017-9-19T6:9:55Z</time></trkpt>
<trkpt lat="48.457879" lon="2.640889"><ele></ele><time>2017-9-19T6:9:58Z</time></trkpt>
<trkpt lat="48.457829" lon="2.640737"><ele></ele><time>2017-9-19T6:10:1Z</time></trkpt>
<trkpt lat="48.457708" lon="2.640445"><ele></ele><time>2017-9-19T6:10:4Z</time></trkpt>
<trkpt lat="48.45765" lon="2.64031"><ele></ele><time>2017-9-19T6:10:7Z</time></trkpt>
<trkpt lat="48.457592" lon="2.640161"><ele></ele><time>2017-9-19T6:10:10Z</time></trkpt>
<trkpt lat="48.457545" lon="2.640039"><ele></ele><time>2017-9-19T6:10:13Z</time></trkpt>
<trkpt lat="48.457506" lon="2.639881"><ele></ele><time>2017-9-19T6:10:16Z</time></trkpt>
<trkpt lat="48.457503" lon="2.639696"><ele></ele><time>2017-9-19T6:10:19Z</time></trkpt>
<trkpt lat="48.457565" lon="2.639571"><ele></ele><time>2017-9-19T6:10:22Z</time></trkpt>
<trkpt lat="48.457588" lon="2.639428"><ele></ele><time>2017-9-19T6:10:25Z</time></trkpt>
<trkpt lat="48.457603" lon="2.639287"><ele></ele><time>2017-9-19T6:10:28Z</time></trkpt>
<trkpt lat="48.457597" lon="2.639149"><ele></ele><time>2017-9-19T6:10:31Z</time></trkpt>
<trkpt lat="48.457621" lon="2.639003"><ele></ele><time>2017-9-19T6:10:34Z</time></trkpt>
<trkpt lat="48.457672" lon="2.638817"><ele></ele><time>2017-9-19T6:10:37Z</time></trkpt>
<trkpt lat="48.457683" lon="2.63866"><ele></ele><time>2017-9-19T6:10:40Z</time></trkpt>
<trkpt lat="48.457619" lon="2.638482"><ele></ele><time>2017-9-19T6:10:43Z</time></trkpt>
<trkpt lat="48.457552" lon="2.638364"><ele></ele><time>2017-9-19T6:10:46Z</time></trkpt>
<trkpt lat="48.4574" lon="2.638413"><ele></ele><time>2017-9-19T6:10:49Z</time></trkpt>
<trkpt lat="48.457315" lon="2.638519"><ele></ele><time>2017-9-19T6:10:52Z</time></trkpt>
<trkpt lat="48.457258" lon="2.638649"><ele></ele><time>2017-9-19T6:10:55Z</time></trkpt>
<trkpt lat="48.457208" lon="2.638788"><ele></ele><time>2017-9-19T6:10:58Z</time></trkpt>
<trkpt lat="48.457165" lon="2.63891"><ele></ele><time>2017-9-19T6:11:1Z</time></trkpt>
<trkpt lat="48.457086" lon="2.639066"><ele></ele><time>2017-9-19T6:11:4Z</time></trkpt>
<trkpt lat="48.457007" lon="2.639151"><ele></ele><time>2017-9-19T6:11:7Z</time></trkpt>
<trkpt lat="48.456881" lon="2.63922"><ele></ele><time>2017-9-19T6:11:10Z</time></trkpt>
<trkpt lat="48.456774" lon="2.639271"><ele></ele><time>2017-9-19T6:11:13Z</time></trkpt>
<trkpt lat="48.45668" lon="2.6393"><ele></ele><time>2017-9-19T6:11:16Z</time></trkpt>
<trkpt lat="48.456481" lon="2.639287"><ele></ele><time>2017-9-19T6:11:19Z</time></trkpt>
<trkpt lat="48.456384" lon="2.639241"><ele></ele><time>2017-9-19T6:11:22Z</time></trkpt>
<trkpt lat="48.456296" lon="2.639183"><ele></ele><time>2017-9-19T6:11:25Z</time></trkpt>
<trkpt lat="48.456242" lon="2.639051"><ele></ele><time>2017-9-19T6:11:28Z</time></trkpt>
<trkpt lat="48.456191" lon="2.638909"><ele></ele><time>2017-9-19T6:11:31Z</time></trkpt>
<trkpt lat="48.456137" lon="2.638767"><ele></ele><time>2017-9-19T6:11:34Z</time></trkpt>
<trkpt lat="48.45606" lon="2.638684"><ele></ele><time>2017-9-19T6:11:37Z</time></trkpt>
<trkpt lat="48.45595" lon="2.638696"><ele></ele><time>2017-9-19T6:11:40Z</time></trkpt>
<trkpt lat="48.455841" lon="2.638754"><ele></ele><time>2017-9-19T6:11:43Z</time></trkpt>
<trkpt lat="48.455734" lon="2.638762"><ele></ele><time>2017-9-19T6:11:46Z</time></trkpt>
<trkpt lat="48.455637" lon="2.638757"><ele></ele><time>2017-9-19T6:11:49Z</time></trkpt>
<trkpt lat="48.455532" lon="2.638625"><ele></ele><time>2017-9-19T6:11:52Z</time></trkpt>
<trkpt lat="48.455452" lon="2.638553"><ele></ele><time>2017-9-19T6:11:55Z</time></trkpt>
<trkpt lat="48.455359" lon="2.63851"><ele></ele><time>2017-9-19T6:11:58Z</time></trkpt>
<trkpt lat="48.455264" lon="2.638487"><ele></ele><time>2017-9-19T6:12:1Z</time></trkpt>
<trkpt lat="48.455171" lon="2.638474"><ele></ele><time>2017-9-19T6:12:4Z</time></trkpt>
<trkpt lat="48.455075" lon="2.638485"><ele></ele><time>2017-9-19T6:12:7Z</time></trkpt>
<trkpt lat="48.454967" lon="2.63848"><ele></ele><time>2017-9-19T6:12:10Z</time></trkpt>
<trkpt lat="48.454879" lon="2.638425"><ele></ele><time>2017-9-19T6:12:13Z</time></trkpt>
<trkpt lat="48.454809" lon="2.638325"><ele></ele><time>2017-9-19T6:12:16Z</time></trkpt>
<trkpt lat="48.454742" lon="2.638229"><ele></ele><time>2017-9-19T6:12:19Z</time></trkpt>
<trkpt lat="48.454671" lon="2.638103"><ele></ele><time>2017-9-19T6:12:22Z</time></trkpt>
<trkpt lat="48.454604" lon="2.63799"><ele></ele><time>2017-9-19T6:12:25Z</time></trkpt>
<trkpt lat="48.454541" lon="2.63788"><ele></ele><time>2017-9-19T6:12:28Z</time></trkpt>
<trkpt lat="48.454451" lon="2.637759"><ele></ele><time>2017-9-19T6:12:31Z</time></trkpt>
<trkpt lat="48.45439" lon="2.637632"><ele></ele><time>2017-9-19T6:12:34Z</time></trkpt>
<trkpt lat="48.454346" lon="2.637481"><ele></ele><time>2017-9-19T6:12:37Z</time></trkpt>
<trkpt lat="48.454324" lon="2.637295"><ele></ele><time>2017-9-19T6:12:40Z</time></trkpt>
<trkpt lat="48.454299" lon="2.637152"><ele></ele><time>2017-9-19T6:12:43Z</time></trkpt>
<trkpt lat="48.454208" lon="2.636777"><ele></ele><time>2017-9-19T6:12:46Z</time></trkpt>
<trkpt lat="48.454153" lon="2.636642"><ele></ele><time>2017-9-19T6:12:49Z</time></trkpt>
<trkpt lat="48.454071" lon="2.636515"><ele></ele><time>2017-9-19T6:12:52Z</time></trkpt>
<trkpt lat="48.454001" lon="2.636405"><ele></ele><time>2017-9-19T6:12:55Z</time></trkpt>
<trkpt lat="48.453852" lon="2.636339"><ele></ele><time>2017-9-19T6:12:58Z</time></trkpt>
<trkpt lat="48.453755" lon="2.636334"><ele></ele><time>2017-9-19T6:13:1Z</time></trkpt>
<trkpt lat="48.453646" lon="2.63635"><ele></ele><time>2017-9-19T6:13:4Z</time></trkpt>
<trkpt lat="48.453547" lon="2.636394"><ele></ele><time>2017-9-19T6:13:7Z</time></trkpt>
<trkpt lat="48.453452" lon="2.636436"><ele></ele><time>2017-9-19T6:13:10Z</time></trkpt>
<trkpt lat="48.453349" lon="2.636497"><ele></ele><time>2017-9-19T6:13:13Z</time></trkpt>
<trkpt lat="48.453249" lon="2.636557"><ele></ele><time>2017-9-19T6:13:16Z</time></trkpt>
<trkpt lat="48.453149" lon="2.636601"><ele></ele><time>2017-9-19T6:13:19Z</time></trkpt>
<trkpt lat="48.453039" lon="2.636593"><ele></ele><time>2017-9-19T6:13:22Z</time></trkpt>
<trkpt lat="48.452927" lon="2.636551"><ele></ele><time>2017-9-19T6:13:25Z</time></trkpt>
<trkpt lat="48.452845" lon="2.636438"><ele></ele><time>2017-9-19T6:13:28Z</time></trkpt>
<trkpt lat="48.45276" lon="2.636328"><ele></ele><time>2017-9-19T6:13:31Z</time></trkpt>
<trkpt lat="48.452693" lon="2.636198"><ele></ele><time>2017-9-19T6:13:34Z</time></trkpt>
<trkpt lat="48.452624" lon="2.636085"><ele></ele><time>2017-9-19T6:13:37Z</time></trkpt>
<trkpt lat="48.452531" lon="2.636002"><ele></ele><time>2017-9-19T6:13:40Z</time></trkpt>
<trkpt lat="48.452436" lon="2.636013"><ele></ele><time>2017-9-19T6:13:43Z</time></trkpt>
<trkpt lat="48.452322" lon="2.636034"><ele></ele><time>2017-9-19T6:13:46Z</time></trkpt>
<trkpt lat="48.452219" lon="2.636062"><ele></ele><time>2017-9-19T6:13:49Z</time></trkpt>
<trkpt lat="48.452105" lon="2.636053"><ele></ele><time>2017-9-19T6:13:52Z</time></trkpt>
<trkpt lat="48.452026" lon="2.635948"><ele></ele><time>2017-9-19T6:13:55Z</time></trkpt>
<trkpt lat="48.451967" lon="2.63579"><ele></ele><time>2017-9-19T6:13:58Z</time></trkpt>
<trkpt lat="48.451944" lon="2.635645"><ele></ele><time>2017-9-19T6:14:1Z</time></trkpt>
<trkpt lat="48.451973" lon="2.63546"><ele></ele><time>2017-9-19T6:14:4Z</time></trkpt>
<trkpt lat="48.451987" lon="2.635163"><ele></ele><time>2017-9-19T6:14:7Z</time></trkpt>
<trkpt lat="48.452011" lon="2.635029"><ele></ele><time>2017-9-19T6:14:10Z</time></trkpt>
<trkpt lat="48.45205" lon="2.634897"><ele></ele><time>2017-9-19T6:14:13Z</time></trkpt>
<trkpt lat="48.452078" lon="2.634729"><ele></ele><time>2017-9-19T6:14:16Z</time></trkpt>
<trkpt lat="48.452079" lon="2.634565"><ele></ele><time>2017-9-19T6:14:19Z</time></trkpt>
<trkpt lat="48.452073" lon="2.634415"><ele></ele><time>2017-9-19T6:14:22Z</time></trkpt>
<trkpt lat="48.452064" lon="2.634226"><ele></ele><time>2017-9-19T6:14:25Z</time></trkpt>
<trkpt lat="48.452046" lon="2.634032"><ele></ele><time>2017-9-19T6:14:28Z</time></trkpt>
<trkpt lat="48.452067" lon="2.633892"><ele></ele><time>2017-9-19T6:14:31Z</time></trkpt>
<trkpt lat="48.452094" lon="2.633735"><ele></ele><time>2017-9-19T6:14:34Z</time></trkpt>
<trkpt lat="48.452075" lon="2.63342"><ele></ele><time>2017-9-19T6:14:37Z</time></trkpt>
<trkpt lat="48.452088" lon="2.63341"><ele></ele><time>2017-9-19T6:14:40Z</time></trkpt>
<trkpt lat="48.452133" lon="2.633539"><ele></ele><time>2017-9-19T6:14:43Z</time></trkpt>
<trkpt lat="48.452103" lon="2.633678"><ele></ele><time>2017-9-19T6:14:46Z</time></trkpt>
<trkpt lat="48.452057" lon="2.633825"><ele></ele><time>2017-9-19T6:14:49Z</time></trkpt>
<trkpt lat="48.452015" lon="2.634004"><ele></ele><time>2017-9-19T6:14:52Z</time></trkpt>
<trkpt lat="48.451994" lon="2.634179"><ele></ele><time>2017-9-19T6:14:55Z</time></trkpt>
<trkpt lat="48.452005" lon="2.634377"><ele></ele><time>2017-9-19T6:14:58Z</time></trkpt>
<trkpt lat="48.452021" lon="2.634513"><ele></ele><time>2017-9-19T6:15:1Z</time></trkpt>
<trkpt lat="48.452035" lon="2.634658"><ele></ele><time>2017-9-19T6:15:4Z</time></trkpt>
<trkpt lat="48.452019" lon="2.634792"><ele></ele><time>2017-9-19T6:15:7Z</time></trkpt>
<trkpt lat="48.452015" lon="2.634931"><ele></ele><time>2017-9-19T6:15:10Z</time></trkpt>
<trkpt lat="48.451981" lon="2.635111"><ele></ele><time>2017-9-19T6:15:13Z</time></trkpt>
<trkpt lat="48.451937" lon="2.635231"><ele></ele><time>2017-9-19T6:15:16Z</time></trkpt>
<trkpt lat="48.451856" lon="2.635343"><ele></ele><time>2017-9-19T6:15:19Z</time></trkpt>
<trkpt lat="48.451784" lon="2.635492"><ele></ele><time>2017-9-19T6:15:22Z</time></trkpt>
<trkpt lat="48.451777" lon="2.635643"><ele></ele><time>2017-9-19T6:15:25Z</time></trkpt>
<trkpt lat="48.45178" lon="2.635782"><ele></ele><time>2017-9-19T6:15:28Z</time></trkpt>
<trkpt lat="48.451771" lon="2.63592"><ele></ele><time>2017-9-19T6:15:31Z</time></trkpt>
<trkpt lat="48.45176" lon="2.636125"><ele></ele><time>2017-9-19T6:15:34Z</time></trkpt>
<trkpt lat="48.451731" lon="2.636268"><ele></ele><time>2017-9-19T6:15:37Z</time></trkpt>
<trkpt lat="48.451633" lon="2.636369"><ele></ele><time>2017-9-19T6:15:40Z</time></trkpt>
<trkpt lat="48.451555" lon="2.636455"><ele></ele><time>2017-9-19T6:15:43Z</time></trkpt>
<trkpt lat="48.451463" lon="2.636556"><ele></ele><time>2017-9-19T6:15:46Z</time></trkpt>
<trkpt lat="48.451394" lon="2.636659"><ele></ele><time>2017-9-19T6:15:49Z</time></trkpt>
<trkpt lat="48.45133" lon="2.636757"><ele></ele><time>2017-9-19T6:15:52Z</time></trkpt>
<trkpt lat="48.451284" lon="2.636941"><ele></ele><time>2017-9-19T6:15:55Z</time></trkpt>
<trkpt lat="48.451212" lon="2.637101"><ele></ele><time>2017-9-19T6:15:58Z</time></trkpt>
<trkpt lat="48.451144" lon="2.63721"><ele></ele><time>2017-9-19T6:16:1Z</time></trkpt>
<trkpt lat="48.451107" lon="2.637347"><ele></ele><time>2017-9-19T6:16:4Z</time></trkpt>
<trkpt lat="48.451055" lon="2.637476"><ele></ele><time>2017-9-19T6:16:7Z</time></trkpt>
<trkpt lat="48.451018" lon="2.637607"><ele></ele><time>2017-9-19T6:16:10Z</time></trkpt>
<trkpt lat="48.450977" lon="2.637761"><ele></ele><time>2017-9-19T6:16:13Z</time></trkpt>
<trkpt lat="48.450948" lon="2.638057"><ele></ele><time>2017-9-19T6:16:16Z</time></trkpt>
<trkpt lat="48.45094" lon="2.638201"><ele></ele><time>2017-9-19T6:16:19Z</time></trkpt>
<trkpt lat="48.450933" lon="2.638359"><ele></ele><time>2017-9-19T6:16:22Z</time></trkpt>
<trkpt lat="48.450949" lon="2.638498"><ele></ele><time>2017-9-19T6:16:25Z</time></trkpt>
<trkpt lat="48.45094" lon="2.638701"><ele></ele><time>2017-9-19T6:16:28Z</time></trkpt>
<trkpt lat="48.450938" lon="2.638844"><ele></ele><time>2017-9-19T6:16:31Z</time></trkpt>
<trkpt lat="48.450962" lon="2.63899"><ele></ele><time>2017-9-19T6:16:34Z</time></trkpt>
<trkpt lat="48.450947" lon="2.639165"><ele></ele><time>2017-9-19T6:16:37Z</time></trkpt>
<trkpt lat="48.450975" lon="2.639298"><ele></ele><time>2017-9-19T6:16:40Z</time></trkpt>
<trkpt lat="48.450993" lon="2.639446"><ele></ele><time>2017-9-19T6:16:43Z</time></trkpt>
<trkpt lat="48.451037" lon="2.639575"><ele></ele><time>2017-9-19T6:16:46Z</time></trkpt>
<trkpt lat="48.451101" lon="2.639772"><ele></ele><time>2017-9-19T6:16:49Z</time></trkpt>
<trkpt lat="48.451141" lon="2.639954"><ele></ele><time>2017-9-19T6:16:52Z</time></trkpt>
<trkpt lat="48.451142" lon="2.640156"><ele></ele><time>2017-9-19T6:16:55Z</time></trkpt>
<trkpt lat="48.451075" lon="2.640347"><ele></ele><time>2017-9-19T6:16:58Z</time></trkpt>
<trkpt lat="48.451027" lon="2.640531"><ele></ele><time>2017-9-19T6:17:1Z</time></trkpt>
<trkpt lat="48.450955" lon="2.640706"><ele></ele><time>2017-9-19T6:17:4Z</time></trkpt>
<trkpt lat="48.450937" lon="2.640855"><ele></ele><time>2017-9-19T6:17:7Z</time></trkpt>
<trkpt lat="48.450888" lon="2.641004"><ele></ele><time>2017-9-19T6:17:10Z</time></trkpt>
<trkpt lat="48.450828" lon="2.641124"><ele></ele><time>2017-9-19T6:17:13Z</time></trkpt>
<trkpt lat="48.450763" lon="2.641254"><ele></ele><time>2017-9-19T6:17:16Z</time></trkpt>
<trkpt lat="48.45067" lon="2.641325"><ele></ele><time>2017-9-19T6:17:19Z</time></trkpt>
<trkpt lat="48.450577" lon="2.641403"><ele></ele><time>2017-9-19T6:17:22Z</time></trkpt>
<trkpt lat="48.450503" lon="2.641493"><ele></ele><time>2017-9-19T6:17:25Z</time></trkpt>
<trkpt lat="48.450415" lon="2.64164"><ele></ele><time>2017-9-19T6:17:28Z</time></trkpt>
<trkpt lat="48.45033" lon="2.641726"><ele></ele><time>2017-9-19T6:17:31Z</time></trkpt>
<trkpt lat="48.450194" lon="2.641985"><ele></ele><time>2017-9-19T6:17:34Z</time></trkpt>
<trkpt lat="48.45014" lon="2.64212"><ele></ele><time>2017-9-19T6:17:37Z</time></trkpt>
<trkpt lat="48.450056" lon="2.642238"><ele></ele><time>2017-9-19T6:17:40Z</time></trkpt>
<trkpt lat="48.449971" lon="2.642338"><ele></ele><time>2017-9-19T6:17:43Z</time></trkpt>
<trkpt lat="48.449869" lon="2.642454"><ele></ele><time>2017-9-19T6:17:46Z</time></trkpt>
<trkpt lat="48.449805" lon="2.642569"><ele></ele><time>2017-9-19T6:17:49Z</time></trkpt>
<trkpt lat="48.449715" lon="2.642647"><ele></ele><time>2017-9-19T6:17:52Z</time></trkpt>
<trkpt lat="48.449628" lon="2.642768"><ele></ele><time>2017-9-19T6:17:55Z</time></trkpt>
<trkpt lat="48.449576" lon="2.642894"><ele></ele><time>2017-9-19T6:17:58Z</time></trkpt>
<trkpt lat="48.449494" lon="2.643041"><ele></ele><time>2017-9-19T6:18:1Z</time></trkpt>
<trkpt lat="48.449422" lon="2.643177"><ele></ele><time>2017-9-19T6:18:4Z</time></trkpt>
<trkpt lat="48.449388" lon="2.643338"><ele></ele><time>2017-9-19T6:18:7Z</time></trkpt>
<trkpt lat="48.449442" lon="2.643516"><ele></ele><time>2017-9-19T6:18:10Z</time></trkpt>
<trkpt lat="48.449487" lon="2.643638"><ele></ele><time>2017-9-19T6:18:13Z</time></trkpt>
<trkpt lat="48.449531" lon="2.643825"><ele></ele><time>2017-9-19T6:18:16Z</time></trkpt>
<trkpt lat="48.449583" lon="2.643941"><ele></ele><time>2017-9-19T6:18:19Z</time></trkpt>
<trkpt lat="48.449632" lon="2.644067"><ele></ele><time>2017-9-19T6:18:22Z</time></trkpt>
<trkpt lat="48.44965" lon="2.644213"><ele></ele><time>2017-9-19T6:18:25Z</time></trkpt>
<trkpt lat="48.449672" lon="2.644369"><ele></ele><time>2017-9-19T6:18:28Z</time></trkpt>
<trkpt lat="48.449684" lon="2.64451"><ele></ele><time>2017-9-19T6:18:31Z</time></trkpt>
<trkpt lat="48.449638" lon="2.64466"><ele></ele><time>2017-9-19T6:18:34Z</time></trkpt>
<trkpt lat="48.449657" lon="2.644797"><ele></ele><time>2017-9-19T6:18:37Z</time></trkpt>
<trkpt lat="48.449652" lon="2.644949"><ele></ele><time>2017-9-19T6:18:40Z</time></trkpt>
<trkpt lat="48.449657" lon="2.645153"><ele></ele><time>2017-9-19T6:18:43Z</time></trkpt>
<trkpt lat="48.449661" lon="2.645317"><ele></ele><time>2017-9-19T6:18:46Z</time></trkpt>
<trkpt lat="48.449684" lon="2.645512"><ele></ele><time>2017-9-19T6:18:49Z</time></trkpt>
<trkpt lat="48.449708" lon="2.645675"><ele></ele><time>2017-9-19T6:18:52Z</time></trkpt>
<trkpt lat="48.449702" lon="2.645994"><ele></ele><time>2017-9-19T6:18:55Z</time></trkpt>
<trkpt lat="48.449673" lon="2.646141"><ele></ele><time>2017-9-19T6:18:58Z</time></trkpt>
<trkpt lat="48.44967" lon="2.646296"><ele></ele><time>2017-9-19T6:19:1Z</time></trkpt>
<trkpt lat="48.449661" lon="2.64651"><ele></ele><time>2017-9-19T6:19:4Z</time></trkpt>
<trkpt lat="48.449662" lon="2.646663"><ele></ele><time>2017-9-19T6:19:7Z</time></trkpt>
<trkpt lat="48.449673" lon="2.646802"><ele></ele><time>2017-9-19T6:19:10Z</time></trkpt>
<trkpt lat="48.449651" lon="2.646973"><ele></ele><time>2017-9-19T6:19:13Z</time></trkpt>
<trkpt lat="48.449664" lon="2.647125"><ele></ele><time>2017-9-19T6:19:16Z</time></trkpt>
<trkpt lat="48.44967" lon="2.647299"><ele></ele><time>2017-9-19T6:19:19Z</time></trkpt>
<trkpt lat="48.449657" lon="2.647473"><ele></ele><time>2017-9-19T6:19:22Z</time></trkpt>
<trkpt lat="48.449693" lon="2.64764"><ele></ele><time>2017-9-19T6:19:25Z</time></trkpt>
<trkpt lat="48.449705" lon="2.647778"><ele></ele><time>2017-9-19T6:19:28Z</time></trkpt>
<trkpt lat="48.449747" lon="2.647941"><ele></ele><time>2017-9-19T6:19:31Z</time></trkpt>
<trkpt lat="48.449796" lon="2.648071"><ele></ele><time>2017-9-19T6:19:34Z</time></trkpt>
<trkpt lat="48.44981" lon="2.648247"><ele></ele><time>2017-9-19T6:19:37Z</time></trkpt>
<trkpt lat="48.449843" lon="2.648426"><ele></ele><time>2017-9-19T6:19:40Z</time></trkpt>
<trkpt lat="48.449883" lon="2.648616"><ele></ele><time>2017-9-19T6:19:43Z</time></trkpt>
<trkpt lat="48.449913" lon="2.648756"><ele></ele><time>2017-9-19T6:19:46Z</time></trkpt>
<trkpt lat="48.449951" lon="2.648886"><ele></ele><time>2017-9-19T6:19:49Z</time></trkpt>
<trkpt lat="48.44998" lon="2.649059"><ele></ele><time>2017-9-19T6:19:52Z</time></trkpt>
<trkpt lat="48.450025" lon="2.649204"><ele></ele><time>2017-9-19T6:19:55Z</time></trkpt>
<trkpt lat="48.450119" lon="2.649544"><ele></ele><time>2017-9-19T6:19:58Z</time></trkpt>
<trkpt lat="48.450155" lon="2.649697"><ele></ele><time>2017-9-19T6:20:1Z</time></trkpt>
<trkpt lat="48.45021" lon="2.649886"><ele></ele><time>2017-9-19T6:20:4Z</time></trkpt>
<trkpt lat="48.450226" lon="2.650059"><ele></ele><time>2017-9-19T6:20:7Z</time></trkpt>
<trkpt lat="48.450253" lon="2.650211"><ele></ele><time>2017-9-19T6:20:10Z</time></trkpt>
<trkpt lat="48.450291" lon="2.650383"><ele></ele><time>2017-9-19T6:20:13Z</time></trkpt>
<trkpt lat="48.45032" lon="2.650587"><ele></ele><time>2017-9-19T6:20:16Z</time></trkpt>
<trkpt lat="48.450326" lon="2.650764"><ele></ele><time>2017-9-19T6:20:19Z</time></trkpt>
<trkpt lat="48.450362" lon="2.650892"><ele></ele><time>2017-9-19T6:20:22Z</time></trkpt>
<trkpt lat="48.450378" lon="2.65109"><ele></ele><time>2017-9-19T6:20:25Z</time></trkpt>
<trkpt lat="48.450418" lon="2.651252"><ele></ele><time>2017-9-19T6:20:28Z</time></trkpt>
<trkpt lat="48.45045" lon="2.651432"><ele></ele><time>2017-9-19T6:20:31Z</time></trkpt>
<trkpt lat="48.450464" lon="2.651614"><ele></ele><time>2017-9-19T6:20:34Z</time></trkpt>
<trkpt lat="48.4505" lon="2.651768"><ele></ele><time>2017-9-19T6:20:37Z</time></trkpt>
<trkpt lat="48.450548" lon="2.651934"><ele></ele><time>2017-9-19T6:20:40Z</time></trkpt>
<trkpt lat="48.450573" lon="2.65209"><ele></ele><time>2017-9-19T6:20:43Z</time></trkpt>
<trkpt lat="48.450612" lon="2.652218"><ele></ele><time>2017-9-19T6:20:46Z</time></trkpt>
<trkpt lat="48.450637" lon="2.652406"><ele></ele><time>2017-9-19T6:20:49Z</time></trkpt>
<trkpt lat="48.450674" lon="2.652564"><ele></ele><time>2017-9-19T6:20:52Z</time></trkpt>
<trkpt lat="48.450703" lon="2.652703"><ele></ele><time>2017-9-19T6:20:55Z</time></trkpt>
<trkpt lat="48.450713" lon="2.65286"><ele></ele><time>2017-9-19T6:20:58Z</time></trkpt>
<trkpt lat="48.450757" lon="2.653048"><ele></ele><time>2017-9-19T6:21:1Z</time></trkpt>
<trkpt lat="48.450796" lon="2.653273"><ele></ele><time>2017-9-19T6:21:4Z</time></trkpt>
<trkpt lat="48.45086" lon="2.653562"><ele></ele><time>2017-9-19T6:21:7Z</time></trkpt>
<trkpt lat="48.450885" lon="2.653692"><ele></ele><time>2017-9-19T6:21:10Z</time></trkpt>
<trkpt lat="48.4509" lon="2.653859"><ele></ele><time>2017-9-19T6:21:13Z</time></trkpt>
<trkpt lat="48.450931" lon="2.653989"><ele></ele><time>2017-9-19T6:21:16Z</time></trkpt>
<trkpt lat="48.450963" lon="2.654144"><ele></ele><time>2017-9-19T6:21:19Z</time></trkpt>
<trkpt lat="48.451002" lon="2.654319"><ele></ele><time>2017-9-19T6:21:22Z</time></trkpt>
<trkpt lat="48.451035" lon="2.654489"><ele></ele><time>2017-9-19T6:21:25Z</time></trkpt>
<trkpt lat="48.451085" lon="2.654664"><ele></ele><time>2017-9-19T6:21:28Z</time></trkpt>
<trkpt lat="48.451135" lon="2.654826"><ele></ele><time>2017-9-19T6:21:31Z</time></trkpt>
<trkpt lat="48.451181" lon="2.65501"><ele></ele><time>2017-9-19T6:21:34Z</time></trkpt>
<trkpt lat="48.451223" lon="2.655198"><ele></ele><time>2017-9-19T6:21:37Z</time></trkpt>
<trkpt lat="48.451244" lon="2.655384"><ele></ele><time>2017-9-19T6:21:40Z</time></trkpt>
<trkpt lat="48.451292" lon="2.655516"><ele></ele><time>2017-9-19T6:21:43Z</time></trkpt>
<trkpt lat="48.451358" lon="2.655659"><ele></ele><time>2017-9-19T6:21:46Z</time></trkpt>
<trkpt lat="48.451379" lon="2.655886"><ele></ele><time>2017-9-19T6:21:49Z</time></trkpt>
<trkpt lat="48.451423" lon="2.656021"><ele></ele><time>2017-9-19T6:21:52Z</time></trkpt>
<trkpt lat="48.451449" lon="2.656196"><ele></ele><time>2017-9-19T6:21:55Z</time></trkpt>
<trkpt lat="48.451477" lon="2.656351"><ele></ele><time>2017-9-19T6:21:58Z</time></trkpt>
<trkpt lat="48.451491" lon="2.656486"><ele></ele><time>2017-9-19T6:22:1Z</time></trkpt>
<trkpt lat="48.451526" lon="2.656668"><ele></ele><time>2017-9-19T6:22:4Z</time></trkpt>
<trkpt lat="48.451575" lon="2.656849"><ele></ele><time>2017-9-19T6:22:7Z</time></trkpt>
<trkpt lat="48.451598" lon="2.656988"><ele></ele><time>2017-9-19T6:22:10Z</time></trkpt>
<trkpt lat="48.451623" lon="2.657193"><ele></ele><time>2017-9-19T6:22:13Z</time></trkpt>
<trkpt lat="48.451694" lon="2.657488"><ele></ele><time>2017-9-19T6:22:16Z</time></trkpt>
<trkpt lat="48.451695" lon="2.657643"><ele></ele><time>2017-9-19T6:22:19Z</time></trkpt>
<trkpt lat="48.451706" lon="2.657779"><ele></ele><time>2017-9-19T6:22:22Z</time></trkpt>
<trkpt lat="48.451717" lon="2.657922"><ele></ele><time>2017-9-19T6:22:25Z</time></trkpt>
<trkpt lat="48.451749" lon="2.658085"><ele></ele><time>2017-9-19T6:22:28Z</time></trkpt>
<trkpt lat="48.451807" lon="2.658218"><ele></ele><time>2017-9-19T6:22:31Z</time></trkpt>
<trkpt lat="48.451838" lon="2.658373"><ele></ele><time>2017-9-19T6:22:34Z</time></trkpt>
<trkpt lat="48.451878" lon="2.658512"><ele></ele><time>2017-9-19T6:22:37Z</time></trkpt>
<trkpt lat="48.4519" lon="2.658669"><ele></ele><time>2017-9-19T6:22:40Z</time></trkpt>
<trkpt lat="48.45195" lon="2.658783"><ele></ele><time>2017-9-19T6:22:43Z</time></trkpt>
<trkpt lat="48.451978" lon="2.658959"><ele></ele><time>2017-9-19T6:22:46Z</time></trkpt>
<trkpt lat="48.451983" lon="2.659122"><ele></ele><time>2017-9-19T6:22:49Z</time></trkpt>
<trkpt lat="48.451992" lon="2.659307"><ele></ele><time>2017-9-19T6:22:52Z</time></trkpt>
<trkpt lat="48.451994" lon="2.659461"><ele></ele><time>2017-9-19T6:22:55Z</time></trkpt>
<trkpt lat="48.45198" lon="2.6596"><ele></ele><time>2017-9-19T6:22:58Z</time></trkpt>
<trkpt lat="48.451973" lon="2.659772"><ele></ele><time>2017-9-19T6:23:1Z</time></trkpt>
<trkpt lat="48.451976" lon="2.659936"><ele></ele><time>2017-9-19T6:23:4Z</time></trkpt>
<trkpt lat="48.451939" lon="2.660099"><ele></ele><time>2017-9-19T6:23:7Z</time></trkpt>
<trkpt lat="48.451902" lon="2.660239"><ele></ele><time>2017-9-19T6:23:10Z</time></trkpt>
<trkpt lat="48.451861" lon="2.660406"><ele></ele><time>2017-9-19T6:23:13Z</time></trkpt>
<trkpt lat="48.451799" lon="2.660751"><ele></ele><time>2017-9-19T6:23:16Z</time></trkpt>
<trkpt lat="48.451773" lon="2.660881"><ele></ele><time>2017-9-19T6:23:19Z</time></trkpt>
<trkpt lat="48.451714" lon="2.660987"><ele></ele><time>2017-9-19T6:23:22Z</time></trkpt>
<trkpt lat="48.451695" lon="2.661131"><ele></ele><time>2017-9-19T6:23:25Z</time></trkpt>
<trkpt lat="48.45163" lon="2.661257"><ele></ele><time>2017-9-19T6:23:28Z</time></trkpt>
<trkpt lat="48.451601" lon="2.661404"><ele></ele><time>2017-9-19T6:23:31Z</time></trkpt>
<trkpt lat="48.451558" lon="2.661525"><ele></ele><time>2017-9-19T6:23:34Z</time></trkpt>
<trkpt lat="48.451519" lon="2.661722"><ele></ele><time>2017-9-19T6:23:37Z</time></trkpt>
<trkpt lat="48.451483" lon="2.661851"><ele></ele><time>2017-9-19T6:23:40Z</time></trkpt>
<trkpt lat="48.4514" lon="2.661998"><ele></ele><time>2017-9-19T6:23:43Z</time></trkpt>
<trkpt lat="48.451369" lon="2.662145"><ele></ele><time>2017-9-19T6:23:46Z</time></trkpt>
<trkpt lat="48.451336" lon="2.662334"><ele></ele><time>2017-9-19T6:23:49Z</time></trkpt>
<trkpt lat="48.451291" lon="2.662455"><ele></ele><time>2017-9-19T6:23:52Z</time></trkpt>
<trkpt lat="48.451237" lon="2.662638"><ele></ele><time>2017-9-19T6:23:55Z</time></trkpt>
<trkpt lat="48.451199" lon="2.662832"><ele></ele><time>2017-9-19T6:23:58Z</time></trkpt>
<trkpt lat="48.451155" lon="2.663008"><ele></ele><time>2017-9-19T6:24:1Z</time></trkpt>
<trkpt lat="48.451132" lon="2.663166"><ele></ele><time>2017-9-19T6:24:4Z</time></trkpt>
<trkpt lat="48.451102" lon="2.663317"><ele></ele><time>2017-9-19T6:24:7Z</time></trkpt>
<trkpt lat="48.451054" lon="2.663438"><ele></ele><time>2017-9-19T6:24:10Z</time></trkpt>
<trkpt lat="48.450995" lon="2.663596"><ele></ele><time>2017-9-19T6:24:13Z</time></trkpt>
<trkpt lat="48.450963" lon="2.663729"><ele></ele><time>2017-9-19T6:24:16Z</time></trkpt>
<trkpt lat="48.450888" lon="2.663897"><ele></ele><time>2017-9-19T6:24:19Z</time></trkpt>
<trkpt lat="48.450865" lon="2.664039"><ele></ele><time>2017-9-19T6:24:22Z</time></trkpt>
<trkpt lat="48.450817" lon="2.664228"><ele></ele><time>2017-9-19T6:24:25Z</time></trkpt>
<trkpt lat="48.450793" lon="2.664371"><ele></ele><time>2017-9-19T6:24:28Z</time></trkpt>
<trkpt lat="48.450741" lon="2.664707"><ele></ele><time>2017-9-19T6:24:31Z</time></trkpt>
<trkpt lat="48.450725" lon="2.664845"><ele></ele><time>2017-9-19T6:24:34Z</time></trkpt>
<trkpt lat="48.450699" lon="2.664985"><ele></ele><time>2017-9-19T6:24:37Z</time></trkpt>
<trkpt lat="48.450656" lon="2.665115"><ele></ele><time>2017-9-19T6:24:40Z</time></trkpt>
<trkpt lat="48.450563" lon="2.665278"><ele></ele><time>2017-9-19T6:24:43Z</time></trkpt>
<trkpt lat="48.450524" lon="2.665435"><ele></ele><time>2017-9-19T6:24:46Z</time></trkpt>
<trkpt lat="48.450498" lon="2.665583"><ele></ele><time>2017-9-19T6:24:49Z</time></trkpt>
<trkpt lat="48.450465" lon="2.665725"><ele></ele><time>2017-9-19T6:24:52Z</time></trkpt>
<trkpt lat="48.450416" lon="2.665847"><ele></ele><time>2017-9-19T6:24:55Z</time></trkpt>
<trkpt lat="48.450348" lon="2.665998"><ele></ele><time>2017-9-19T6:24:58Z</time></trkpt>
<trkpt lat="48.450298" lon="2.666125"><ele></ele><time>2017-9-19T6:25:1Z</time></trkpt>
<trkpt lat="48.450241" lon="2.666258"><ele></ele><time>2017-9-19T6:25:4Z</time></trkpt>
<trkpt lat="48.450216" lon="2.666428"><ele></ele><time>2017-9-19T6:25:7Z</time></trkpt>
<trkpt lat="48.45027" lon="2.666556"><ele></ele><time>2017-9-19T6:25:10Z</time></trkpt>
<trkpt lat="48.450341" lon="2.666652"><ele></ele><time>2017-9-19T6:25:13Z</time></trkpt>
<trkpt lat="48.450446" lon="2.666767"><ele></ele><time>2017-9-19T6:25:16Z</time></trkpt>
<trkpt lat="48.450558" lon="2.666867"><ele></ele><time>2017-9-19T6:25:19Z</time></trkpt>
<trkpt lat="48.450636" lon="2.666939"><ele></ele><time>2017-9-19T6:25:22Z</time></trkpt>
<trkpt lat="48.450714" lon="2.66701"><ele></ele><time>2017-9-19T6:25:25Z</time></trkpt>
<trkpt lat="48.450812" lon="2.667091"><ele></ele><time>2017-9-19T6:25:28Z</time></trkpt>
<trkpt lat="48.45092" lon="2.667207"><ele></ele><time>2017-9-19T6:25:31Z</time></trkpt>
<trkpt lat="48.451001" lon="2.667313"><ele></ele><time>2017-9-19T6:25:34Z</time></trkpt>
<trkpt lat="48.451103" lon="2.667441"><ele></ele><time>2017-9-19T6:25:37Z</time></trkpt>
<trkpt lat="48.451242" lon="2.66754"><ele></ele><time>2017-9-19T6:25:40Z</time></trkpt>
<trkpt lat="48.451326" lon="2.667611"><ele></ele><time>2017-9-19T6:25:43Z</time></trkpt>
<trkpt lat="48.451524" lon="2.667855"><ele></ele><time>2017-9-19T6:25:46Z</time></trkpt>
<trkpt lat="48.451602" lon="2.667939"><ele></ele><time>2017-9-19T6:25:49Z</time></trkpt>
<trkpt lat="48.451706" lon="2.667989"><ele></ele><time>2017-9-19T6:25:52Z</time></trkpt>
<trkpt lat="48.451815" lon="2.668087"><ele></ele><time>2017-9-19T6:25:55Z</time></trkpt>
<trkpt lat="48.451897" lon="2.668163"><ele></ele><time>2017-9-19T6:25:58Z</time></trkpt>
<trkpt lat="48.451976" lon="2.668251"><ele></ele><time>2017-9-19T6:26:1Z</time></trkpt>
<trkpt lat="48.452065" lon="2.668341"><ele></ele><time>2017-9-19T6:26:4Z</time></trkpt>
<trkpt lat="48.452188" lon="2.66847"><ele></ele><time>2017-9-19T6:26:7Z</time></trkpt>
<trkpt lat="48.452299" lon="2.668607"><ele></ele><time>2017-9-19T6:26:10Z</time></trkpt>
<trkpt lat="48.452391" lon="2.668696"><ele></ele><time>2017-9-19T6:26:13Z</time></trkpt>
<trkpt lat="48.45247" lon="2.66878"><ele></ele><time>2017-9-19T6:26:16Z</time></trkpt>
<trkpt lat="48.452576" lon="2.668893"><ele></ele><time>2017-9-19T6:26:19Z</time></trkpt>
<trkpt lat="48.452683" lon="2.669008"><ele></ele><time>2017-9-19T6:26:22Z</time></trkpt>
<trkpt lat="48.452746" lon="2.669114"><ele></ele><time>2017-9-19T6:26:25Z</time></trkpt>
<trkpt lat="48.4528" lon="2.669249"><ele></ele><time>2017-9-19T6:26:28Z</time></trkpt>
<trkpt lat="48.452855" lon="2.669422"><ele></ele><time>2017-9-19T6:26:31Z</time></trkpt>
<trkpt lat="48.452895" lon="2.669579"><ele></ele><time>2017-9-19T6:26:34Z</time></trkpt>
<trkpt lat="48.452924" lon="2.669731"><ele></ele><time>2017-9-19T6:26:37Z</time></trkpt>
<trkpt lat="48.452963" lon="2.669904"><ele></ele><time>2017-9-19T6:26:40Z</time></trkpt>
<trkpt lat="48.452996" lon="2.670047"><ele></ele><time>2017-9-19T6:26:43Z</time></trkpt>
<trkpt lat="48.453018" lon="2.670196"><ele></ele><time>2017-9-19T6:26:46Z</time></trkpt>
<trkpt lat="48.453056" lon="2.670356"><ele></ele><time>2017-9-19T6:26:49Z</time></trkpt>
<trkpt lat="48.45309" lon="2.670655"><ele></ele><time>2017-9-19T6:26:52Z</time></trkpt>
<trkpt lat="48.453114" lon="2.670812"><ele></ele><time>2017-9-19T6:26:55Z</time></trkpt>
<trkpt lat="48.453114" lon="2.670971"><ele></ele><time>2017-9-19T6:26:58Z</time></trkpt>
<trkpt lat="48.453121" lon="2.671165"><ele></ele><time>2017-9-19T6:27:1Z</time></trkpt>
<trkpt lat="48.453145" lon="2.67131"><ele></ele><time>2017-9-19T6:27:4Z</time></trkpt>
<trkpt lat="48.453177" lon="2.671438"><ele></ele><time>2017-9-19T6:27:7Z</time></trkpt>
<trkpt lat="48.453196" lon="2.671607"><ele></ele><time>2017-9-19T6:27:10Z</time></trkpt>
<trkpt lat="48.453214" lon="2.67176"><ele></ele><time>2017-9-19T6:27:13Z</time></trkpt>
<trkpt lat="48.453243" lon="2.671896"><ele></ele><time>2017-9-19T6:27:16Z</time></trkpt>
<trkpt lat="48.453288" lon="2.67207"><ele></ele><time>2017-9-19T6:27:19Z</time></trkpt>
<trkpt lat="48.453336" lon="2.672228"><ele></ele><time>2017-9-19T6:27:22Z</time></trkpt>
<trkpt lat="48.453373" lon="2.672403"><ele></ele><time>2017-9-19T6:27:25Z</time></trkpt>
<trkpt lat="48.453412" lon="2.672565"><ele></ele><time>2017-9-19T6:27:28Z</time></trkpt>
<trkpt lat="48.453451" lon="2.672696"><ele></ele><time>2017-9-19T6:27:31Z</time></trkpt>
<trkpt lat="48.453506" lon="2.672814"><ele></ele><time>2017-9-19T6:27:34Z</time></trkpt>
<trkpt lat="48.453573" lon="2.672953"><ele></ele><time>2017-9-19T6:27:37Z</time></trkpt>
<trkpt lat="48.453628" lon="2.673114"><ele></ele><time>2017-9-19T6:27:40Z</time></trkpt>
<trkpt lat="48.453694" lon="2.673284"><ele></ele><time>2017-9-19T6:27:43Z</time></trkpt>
<trkpt lat="48.453781" lon="2.673432"><ele></ele><time>2017-9-19T6:27:46Z</time></trkpt>
<trkpt lat="48.453863" lon="2.673578"><ele></ele><time>2017-9-19T6:27:49Z</time></trkpt>
<trkpt lat="48.454027" lon="2.673906"><ele></ele><time>2017-9-19T6:27:52Z</time></trkpt>
<trkpt lat="48.454083" lon="2.67406"><ele></ele><time>2017-9-19T6:27:55Z</time></trkpt>
<trkpt lat="48.454145" lon="2.674206"><ele></ele><time>2017-9-19T6:27:58Z</time></trkpt>
<trkpt lat="48.454206" lon="2.674352"><ele></ele><time>2017-9-19T6:28:1Z</time></trkpt>
<trkpt lat="48.454273" lon="2.674475"><ele></ele><time>2017-9-19T6:28:4Z</time></trkpt>
<trkpt lat="48.454384" lon="2.674646"><ele></ele><time>2017-9-19T6:28:7Z</time></trkpt>
<trkpt lat="48.454477" lon="2.674746"><ele></ele><time>2017-9-19T6:28:10Z</time></trkpt>
<trkpt lat="48.454571" lon="2.674873"><ele></ele><time>2017-9-19T6:28:13Z</time></trkpt>
<trkpt lat="48.454662" lon="2.674956"><ele></ele><time>2017-9-19T6:28:16Z</time></trkpt>
<trkpt lat="48.45475" lon="2.675034"><ele></ele><time>2017-9-19T6:28:19Z</time></trkpt>
<trkpt lat="48.454852" lon="2.675045"><ele></ele><time>2017-9-19T6:28:22Z</time></trkpt>
<trkpt lat="48.454949" lon="2.675095"><ele></ele><time>2017-9-19T6:28:25Z</time></trkpt>
<trkpt lat="48.455064" lon="2.675192"><ele></ele><time>2017-9-19T6:28:28Z</time></trkpt>
<trkpt lat="48.455176" lon="2.675284"><ele></ele><time>2017-9-19T6:28:31Z</time></trkpt>
<trkpt lat="48.455274" lon="2.67538"><ele></ele><time>2017-9-19T6:28:34Z</time></trkpt>
<trkpt lat="48.455359" lon="2.675454"><ele></ele><time>2017-9-19T6:28:37Z</time></trkpt>
<trkpt lat="48.455455" lon="2.675539"><ele></ele><time>2017-9-19T6:28:40Z</time></trkpt>
<trkpt lat="48.455576" lon="2.675634"><ele></ele><time>2017-9-19T6:28:43Z</time></trkpt>
<trkpt lat="48.455663" lon="2.675682"><ele></ele><time>2017-9-19T6:28:46Z</time></trkpt>
<trkpt lat="48.455759" lon="2.675748"><ele></ele><time>2017-9-19T6:28:49Z</time></trkpt>
<trkpt lat="48.455873" lon="2.675861"><ele></ele><time>2017-9-19T6:28:52Z</time></trkpt>
<trkpt lat="48.45596" lon="2.675922"><ele></ele><time>2017-9-19T6:28:55Z</time></trkpt>
<trkpt lat="48.456134" lon="2.676084"><ele></ele><time>2017-9-19T6:28:58Z</time></trkpt>
<trkpt lat="48.456241" lon="2.676166"><ele></ele><time>2017-9-19T6:29:1Z</time></trkpt>
<trkpt lat="48.456353" lon="2.676241"><ele></ele><time>2017-9-19T6:29:4Z</time></trkpt>
<trkpt lat="48.456446" lon="2.676293"><ele></ele><time>2017-9-19T6:29:7Z</time></trkpt>
<trkpt lat="48.456528" lon="2.67636"><ele></ele><time>2017-9-19T6:29:10Z</time></trkpt>
<trkpt lat="48.456612" lon="2.676438"><ele></ele><time>2017-9-19T6:29:13Z</time></trkpt>
<trkpt lat="48.456722" lon="2.676506"><ele></ele><time>2017-9-19T6:29:16Z</time></trkpt>
<trkpt lat="48.456809" lon="2.676573"><ele></ele><time>2017-9-19T6:29:19Z</time></trkpt>
<trkpt lat="48.456922" lon="2.676673"><ele></ele><time>2017-9-19T6:29:22Z</time></trkpt>
<trkpt lat="48.457002" lon="2.676753"><ele></ele><time>2017-9-19T6:29:25Z</time></trkpt>
<trkpt lat="48.457086" lon="2.676855"><ele></ele><time>2017-9-19T6:29:28Z</time></trkpt>
<trkpt lat="48.457168" lon="2.676941"><ele></ele><time>2017-9-19T6:29:31Z</time></trkpt>
<trkpt lat="48.457259" lon="2.677019"><ele></ele><time>2017-9-19T6:29:34Z</time></trkpt>
<trkpt lat="48.457355" lon="2.677103"><ele></ele><time>2017-9-19T6:29:37Z</time></trkpt>
<trkpt lat="48.457445" lon="2.677176"><ele></ele><time>2017-9-19T6:29:40Z</time></trkpt>
<trkpt lat="48.457537" lon="2.677245"><ele></ele><time>2017-9-19T6:29:43Z</time></trkpt>
<trkpt lat="48.457647" lon="2.67736"><ele></ele><time>2017-9-19T6:29:46Z</time></trkpt>
<trkpt lat="48.457733" lon="2.677415"><ele></ele><time>2017-9-19T6:29:49Z</time></trkpt>
<trkpt lat="48.457845" lon="2.677511"><ele></ele><time>2017-9-19T6:29:52Z</time></trkpt>
<trkpt lat="48.457967" lon="2.677581"><ele></ele><time>2017-9-19T6:29:55Z</time></trkpt>
<trkpt lat="48.458045" lon="2.677649"><ele></ele><time>2017-9-19T6:29:58Z</time></trkpt>
<trkpt lat="48.458161" lon="2.677731"><ele></ele><time>2017-9-19T6:30:1Z</time></trkpt>
<trkpt lat="48.458273" lon="2.677809"><ele></ele><time>2017-9-19T6:30:4Z</time></trkpt>
<trkpt lat="48.458359" lon="2.677907"><ele></ele><time>2017-9-19T6:30:7Z</time></trkpt>
<trkpt lat="48.458518" lon="2.678055"><ele></ele><time>2017-9-19T6:30:10Z</time></trkpt>
<trkpt lat="48.458613" lon="2.678101"><ele></ele><time>2017-9-19T6:30:13Z</time></trkpt>
<trkpt lat="48.458696" lon="2.678162"><ele></ele><time>2017-9-19T6:30:16Z</time></trkpt>
<trkpt lat="48.458752" lon="2.678328"><ele></ele><time>2017-9-19T6:30:19Z</time></trkpt>
<trkpt lat="48.458812" lon="2.678463"><ele></ele><time>2017-9-19T6:30:22Z</time></trkpt>
<trkpt lat="48.458859" lon="2.678592"><ele></ele><time>2017-9-19T6:30:25Z</time></trkpt>
<trkpt lat="48.458916" lon="2.678739"><ele></ele><time>2017-9-19T6:30:28Z</time></trkpt>
<trkpt lat="48.45896" lon="2.678861"><ele></ele><time>2017-9-19T6:30:31Z</time></trkpt>
<trkpt lat="48.459004" lon="2.678992"><ele></ele><time>2017-9-19T6:30:34Z</time></trkpt>
<trkpt lat="48.459032" lon="2.679143"><ele></ele><time>2017-9-19T6:30:37Z</time></trkpt>
<trkpt lat="48.459069" lon="2.679282"><ele></ele><time>2017-9-19T6:30:40Z</time></trkpt>
<trkpt lat="48.45912" lon="2.679408"><ele></ele><time>2017-9-19T6:30:43Z</time></trkpt>
<trkpt lat="48.459179" lon="2.67953"><ele></ele><time>2017-9-19T6:30:46Z</time></trkpt>
<trkpt lat="48.459267" lon="2.679607"><ele></ele><time>2017-9-19T6:30:49Z</time></trkpt>
<trkpt lat="48.459317" lon="2.679725"><ele></ele><time>2017-9-19T6:30:52Z</time></trkpt>
<trkpt lat="48.459312" lon="2.679869"><ele></ele><time>2017-9-19T6:30:55Z</time></trkpt>
<trkpt lat="48.45932" lon="2.680182"><ele></ele><time>2017-9-19T6:30:58Z</time></trkpt>
<trkpt lat="48.459309" lon="2.680359"><ele></ele><time>2017-9-19T6:31:1Z</time></trkpt>
<trkpt lat="48.459294" lon="2.680521"><ele></ele><time>2017-9-19T6:31:4Z</time></trkpt>
<trkpt lat="48.459294" lon="2.680663"><ele></ele><time>2017-9-19T6:31:7Z</time></trkpt>
<trkpt lat="48.459275" lon="2.68081"><ele></ele><time>2017-9-19T6:31:10Z</time></trkpt>
<trkpt lat="48.45933" lon="2.681009"><ele></ele><time>2017-9-19T6:31:13Z</time></trkpt>
<trkpt lat="48.459352" lon="2.681154"><ele></ele><time>2017-9-19T6:31:16Z</time></trkpt>
<trkpt lat="48.459367" lon="2.6813"><ele></ele><time>2017-9-19T6:31:19Z</time></trkpt>
<trkpt lat="48.459384" lon="2.681448"><ele></ele><time>2017-9-19T6:31:22Z</time></trkpt>
<trkpt lat="48.459397" lon="2.681585"><ele></ele><time>2017-9-19T6:31:25Z</time></trkpt>
<trkpt lat="48.459453" lon="2.681731"><ele></ele><time>2017-9-19T6:31:28Z</time></trkpt>
<trkpt lat="48.459529" lon="2.68183"><ele></ele><time>2017-9-19T6:31:31Z</time></trkpt>
<trkpt lat="48.459636" lon="2.681901"><ele></ele><time>2017-9-19T6:31:34Z</time></trkpt>
<trkpt lat="48.459808" lon="2.682093"><ele></ele><time>2017-9-19T6:31:37Z</time></trkpt>
<trkpt lat="48.459911" lon="2.682206"><ele></ele><time>2017-9-19T6:31:40Z</time></trkpt>
<trkpt lat="48.460001" lon="2.682306"><ele></ele><time>2017-9-19T6:31:43Z</time></trkpt>
<trkpt lat="48.460098" lon="2.682388"><ele></ele><time>2017-9-19T6:31:46Z</time></trkpt>
<trkpt lat="48.460204" lon="2.682447"><ele></ele><time>2017-9-19T6:31:49Z</time></trkpt>
<trkpt lat="48.460289" lon="2.682574"><ele></ele><time>2017-9-19T6:31:52Z</time></trkpt>
<trkpt lat="48.460381" lon="2.682673"><ele></ele><time>2017-9-19T6:31:55Z</time></trkpt>
<trkpt lat="48.460458" lon="2.68278"><ele></ele><time>2017-9-19T6:31:58Z</time></trkpt>
<trkpt lat="48.4605" lon="2.68291"><ele></ele><time>2017-9-19T6:32:1Z</time></trkpt>
<trkpt lat="48.460603" lon="2.682986"><ele></ele><time>2017-9-19T6:32:4Z</time></trkpt>
<trkpt lat="48.460621" lon="2.68312"><ele></ele><time>2017-9-19T6:32:7Z</time></trkpt>
<trkpt lat="48.460641" lon="2.683426"><ele></ele><time>2017-9-19T6:32:10Z</time></trkpt>
<trkpt lat="48.460641" lon="2.683639"><ele></ele><time>2017-9-19T6:32:13Z</time></trkpt>
<trkpt lat="48.460611" lon="2.683842"><ele></ele><time>2017-9-19T6:32:16Z</time></trkpt>
<trkpt lat="48.460618" lon="2.684023"><ele></ele><time>2017-9-19T6:32:19Z</time></trkpt>
<trkpt lat="48.460607" lon="2.684225"><ele></ele><time>2017-9-19T6:32:22Z</time></trkpt>
<trkpt lat="48.460559" lon="2.684387"><ele></ele><time>2017-9-19T6:32:25Z</time></trkpt>
<trkpt lat="48.460506" lon="2.684596"><ele></ele><time>2017-9-19T6:32:28Z</time></trkpt>
<trkpt lat="48.460514" lon="2.684777"><ele></ele><time>2017-9-19T6:32:31Z</time></trkpt>
<trkpt lat="48.460504" lon="2.684919"><ele></ele><time>2017-9-19T6:32:34Z</time></trkpt>
<trkpt lat="48.46048" lon="2.685116"><ele></ele><time>2017-9-19T6:32:37Z</time></trkpt>
<trkpt lat="48.460451" lon="2.685245"><ele></ele><time>2017-9-19T6:32:40Z</time></trkpt>
<trkpt lat="48.460437" lon="2.685382"><ele></ele><time>2017-9-19T6:32:43Z</time></trkpt>
<trkpt lat="48.460385" lon="2.685568"><ele></ele><time>2017-9-19T6:32:46Z</time></trkpt>
<trkpt lat="48.460378" lon="2.685739"><ele></ele><time>2017-9-19T6:32:49Z</time></trkpt>
<trkpt lat="48.460364" lon="2.685907"><ele></ele><time>2017-9-19T6:32:52Z</time></trkpt>
<trkpt lat="48.460324" lon="2.686087"><ele></ele><time>2017-9-19T6:32:55Z</time></trkpt>
<trkpt lat="48.460296" lon="2.686247"><ele></ele><time>2017-9-19T6:32:58Z</time></trkpt>
<trkpt lat="48.460284" lon="2.686398"><ele></ele><time>2017-9-19T6:33:1Z</time></trkpt>
<trkpt lat="48.460286" lon="2.686539"><ele></ele><time>2017-9-19T6:33:4Z</time></trkpt>
<trkpt lat="48.460261" lon="2.686735"><ele></ele><time>2017-9-19T6:33:7Z</time></trkpt>
<trkpt lat="48.460238" lon="2.686904"><ele></ele><time>2017-9-19T6:33:10Z</time></trkpt>
<trkpt lat="48.460196" lon="2.687084"><ele></ele><time>2017-9-19T6:33:13Z</time></trkpt>
<trkpt lat="48.460156" lon="2.687405"><ele></ele><time>2017-9-19T6:33:16Z</time></trkpt>
<trkpt lat="48.460131" lon="2.6876"><ele></ele><time>2017-9-19T6:33:19Z</time></trkpt>
<trkpt lat="48.460117" lon="2.687795"><ele></ele><time>2017-9-19T6:33:22Z</time></trkpt>
<trkpt lat="48.460096" lon="2.68799"><ele></ele><time>2017-9-19T6:33:25Z</time></trkpt>
<trkpt lat="48.460087" lon="2.688176"><ele></ele><time>2017-9-19T6:33:28Z</time></trkpt>
<trkpt lat="48.460066" lon="2.688353"><ele></ele><time>2017-9-19T6:33:31Z</time></trkpt>
<trkpt lat="48.460025" lon="2.688481"><ele></ele><time>2017-9-19T6:33:34Z</time></trkpt>
<trkpt lat="48.460013" lon="2.688644"><ele></ele><time>2017-9-19T6:33:37Z</time></trkpt>
<trkpt lat="48.459954" lon="2.688834"><ele></ele><time>2017-9-19T6:33:40Z</time></trkpt>
<trkpt lat="48.459917" lon="2.688965"><ele></ele><time>2017-9-19T6:33:43Z</time></trkpt>
<trkpt lat="48.459912" lon="2.689132"><ele></ele><time>2017-9-19T6:33:46Z</time></trkpt>
<trkpt lat="48.459892" lon="2.689295"><ele></ele><time>2017-9-19T6:33:49Z</time></trkpt>
<trkpt lat="48.459879" lon="2.689445"><ele></ele><time>2017-9-19T6:33:52Z</time></trkpt>
<trkpt lat="48.459838" lon="2.689589"><ele></ele><time>2017-9-19T6:33:55Z</time></trkpt>
<trkpt lat="48.459828" lon="2.689751"><ele></ele><time>2017-9-19T6:33:58Z</time></trkpt>
<trkpt lat="48.459816" lon="2.689939"><ele></ele><time>2017-9-19T6:34:1Z</time></trkpt>
<trkpt lat="48.459761" lon="2.690141"><ele></ele><time>2017-9-19T6:34:4Z</time></trkpt>
<trkpt lat="48.459751" lon="2.690288"><ele></ele><time>2017-9-19T6:34:7Z</time></trkpt>
<trkpt lat="48.459713" lon="2.690435"><ele></ele><time>2017-9-19T6:34:10Z</time></trkpt>
<trkpt lat="48.459685" lon="2.690572"><ele></ele><time>2017-9-19T6:34:13Z</time></trkpt>
<trkpt lat="48.459662" lon="2.690727"><ele></ele><time>2017-9-19T6:34:16Z</time></trkpt>
<trkpt lat="48.459647" lon="2.690919"><ele></ele><time>2017-9-19T6:34:19Z</time></trkpt>
<trkpt lat="48.459623" lon="2.691078"><ele></ele><time>2017-9-19T6:34:22Z</time></trkpt>
<trkpt lat="48.459596" lon="2.691244"><ele></ele><time>2017-9-19T6:34:25Z</time></trkpt>
<trkpt lat="48.459573" lon="2.691586"><ele></ele><time>2017-9-19T6:34:28Z</time></trkpt>
<trkpt lat="48.459546" lon="2.691767"><ele></ele><time>2017-9-19T6:34:31Z</time></trkpt>
<trkpt lat="48.459516" lon="2.691909"><ele></ele><time>2017-9-19T6:34:34Z</time></trkpt>
<trkpt lat="48.459526" lon="2.692068"><ele></ele><time>2017-9-19T6:34:37Z</time></trkpt>
<trkpt lat="48.459528" lon="2.692235"><ele></ele><time>2017-9-19T6:34:40Z</time></trkpt>
<trkpt lat="48.459497" lon="2.692526"><ele></ele><time>2017-9-19T6:34:43Z</time></trkpt>
<trkpt lat="48.45945" lon="2.692725"><ele></ele><time>2017-9-19T6:34:46Z</time></trkpt>
<trkpt lat="48.459408" lon="2.692857"><ele></ele><time>2017-9-19T6:34:49Z</time></trkpt>
<trkpt lat="48.45939" lon="2.693014"><ele></ele><time>2017-9-19T6:34:52Z</time></trkpt>
<trkpt lat="48.459345" lon="2.693214"><ele></ele><time>2017-9-19T6:34:55Z</time></trkpt>
<trkpt lat="48.459318" lon="2.693386"><ele></ele><time>2017-9-19T6:34:58Z</time></trkpt>
<trkpt lat="48.459298" lon="2.693544"><ele></ele><time>2017-9-19T6:35:1Z</time></trkpt>
<trkpt lat="48.459281" lon="2.693732"><ele></ele><time>2017-9-19T6:35:4Z</time></trkpt>
<trkpt lat="48.459245" lon="2.693876"><ele></ele><time>2017-9-19T6:35:7Z</time></trkpt>
<trkpt lat="48.459224" lon="2.694051"><ele></ele><time>2017-9-19T6:35:10Z</time></trkpt>
<trkpt lat="48.459187" lon="2.694229"><ele></ele><time>2017-9-19T6:35:13Z</time></trkpt>
<trkpt lat="48.459176" lon="2.694387"><ele></ele><time>2017-9-19T6:35:16Z</time></trkpt>
<trkpt lat="48.459139" lon="2.694548"><ele></ele><time>2017-9-19T6:35:19Z</time></trkpt>
<trkpt lat="48.459125" lon="2.694772"><ele></ele><time>2017-9-19T6:35:22Z</time></trkpt>
<trkpt lat="48.45911" lon="2.694965"><ele></ele><time>2017-9-19T6:35:25Z</time></trkpt>
<trkpt lat="48.459086" lon="2.695156"><ele></ele><time>2017-9-19T6:35:28Z</time></trkpt>
<trkpt lat="48.459043" lon="2.695373"><ele></ele><time>2017-9-19T6:35:31Z</time></trkpt>
<trkpt lat="48.458988" lon="2.695728"><ele></ele><time>2017-9-19T6:35:34Z</time></trkpt>
<trkpt lat="48.458978" lon="2.695924"><ele></ele><time>2017-9-19T6:35:37Z</time></trkpt>
<trkpt lat="48.458955" lon="2.696121"><ele></ele><time>2017-9-19T6:35:40Z</time></trkpt>
<trkpt lat="48.458913" lon="2.696281"><ele></ele><time>2017-9-19T6:35:43Z</time></trkpt>
<trkpt lat="48.458874" lon="2.69646"><ele></ele><time>2017-9-19T6:35:46Z</time></trkpt>
<trkpt lat="48.458847" lon="2.696597"><ele></ele><time>2017-9-19T6:35:49Z</time></trkpt>
<trkpt lat="48.458831" lon="2.696777"><ele></ele><time>2017-9-19T6:35:52Z</time></trkpt>
<trkpt lat="48.458815" lon="2.696924"><ele></ele><time>2017-9-19T6:35:55Z</time></trkpt>
<trkpt lat="48.4588" lon="2.697077"><ele></ele><time>2017-9-19T6:35:58Z</time></trkpt>
<trkpt lat="48.458783" lon="2.697214"><ele></ele><time>2017-9-19T6:36:1Z</time></trkpt>
<trkpt lat="48.458762" lon="2.697369"><ele></ele><time>2017-9-19T6:36:4Z</time></trkpt>
<trkpt lat="48.458739" lon="2.697523"><ele></ele><time>2017-9-19T6:36:7Z</time></trkpt>
<trkpt lat="48.458703" lon="2.697686"><ele></ele><time>2017-9-19T6:36:10Z</time></trkpt>
<trkpt lat="48.458695" lon="2.697847"><ele></ele><time>2017-9-19T6:36:13Z</time></trkpt>
<trkpt lat="48.458675" lon="2.698055"><ele></ele><time>2017-9-19T6:36:16Z</time></trkpt>
<trkpt lat="48.45866" lon="2.698241"><ele></ele><time>2017-9-19T6:36:19Z</time></trkpt>
<trkpt lat="48.458641" lon="2.698415"><ele></ele><time>2017-9-19T6:36:22Z</time></trkpt>
<trkpt lat="48.458618" lon="2.698562"><ele></ele><time>2017-9-19T6:36:25Z</time></trkpt>
<trkpt lat="48.458583" lon="2.698735"><ele></ele><time>2017-9-19T6:36:28Z</time></trkpt>
<trkpt lat="48.458559" lon="2.698867"><ele></ele><time>2017-9-19T6:36:31Z</time></trkpt>
<trkpt lat="48.458528" lon="2.699067"><ele></ele><time>2017-9-19T6:36:34Z</time></trkpt>
<trkpt lat="48.458508" lon="2.699254"><ele></ele><time>2017-9-19T6:36:37Z</time></trkpt>
<trkpt lat="48.458475" lon="2.699433"><ele></ele><time>2017-9-19T6:36:40Z</time></trkpt>
<trkpt lat="48.458423" lon="2.699772"><ele></ele><time>2017-9-19T6:36:43Z</time></trkpt>
<trkpt lat="48.458396" lon="2.699917"><ele></ele><time>2017-9-19T6:36:46Z</time></trkpt>
<trkpt lat="48.458354" lon="2.700053"><ele></ele><time>2017-9-19T6:36:49Z</time></trkpt>
<trkpt lat="48.458289" lon="2.700166"><ele></ele><time>2017-9-19T6:36:52Z</time></trkpt>
<trkpt lat="48.458253" lon="2.700336"><ele></ele><time>2017-9-19T6:36:55Z</time></trkpt>
<trkpt lat="48.4582" lon="2.70045"><ele></ele><time>2017-9-19T6:36:58Z</time></trkpt>
<trkpt lat="48.458214" lon="2.700619"><ele></ele><time>2017-9-19T6:37:1Z</time></trkpt>
<trkpt lat="48.458198" lon="2.700754"><ele></ele><time>2017-9-19T6:37:4Z</time></trkpt>
<trkpt lat="48.458228" lon="2.700931"><ele></ele><time>2017-9-19T6:37:7Z</time></trkpt>
<trkpt lat="48.458203" lon="2.701069"><ele></ele><time>2017-9-19T6:37:10Z</time></trkpt>
<trkpt lat="48.458158" lon="2.701235"><ele></ele><time>2017-9-19T6:37:13Z</time></trkpt>
<trkpt lat="48.45814" lon="2.701415"><ele></ele><time>2017-9-19T6:37:16Z</time></trkpt>
<trkpt lat="48.458126" lon="2.701597"><ele></ele><time>2017-9-19T6:37:19Z</time></trkpt>
<trkpt lat="48.458115" lon="2.701759"><ele></ele><time>2017-9-19T6:37:22Z</time></trkpt>
<trkpt lat="48.458086" lon="2.701937"><ele></ele><time>2017-9-19T6:37:25Z</time></trkpt>
<trkpt lat="48.458085" lon="2.702081"><ele></ele><time>2017-9-19T6:37:28Z</time></trkpt>
<trkpt lat="48.458034" lon="2.702407"><ele></ele><time>2017-9-19T6:37:31Z</time></trkpt>
<trkpt lat="48.458012" lon="2.702599"><ele></ele><time>2017-9-19T6:37:34Z</time></trkpt>
<trkpt lat="48.45801" lon="2.702761"><ele></ele><time>2017-9-19T6:37:37Z</time></trkpt>
<trkpt lat="48.457982" lon="2.702893"><ele></ele><time>2017-9-19T6:37:40Z</time></trkpt>
<trkpt lat="48.45797" lon="2.703049"><ele></ele><time>2017-9-19T6:37:43Z</time></trkpt>
<trkpt lat="48.457961" lon="2.703204"><ele></ele><time>2017-9-19T6:37:46Z</time></trkpt>
<trkpt lat="48.457946" lon="2.703381"><ele></ele><time>2017-9-19T6:37:49Z</time></trkpt>
<trkpt lat="48.457929" lon="2.703524"><ele></ele><time>2017-9-19T6:37:52Z</time></trkpt>
<trkpt lat="48.457906" lon="2.70367"><ele></ele><time>2017-9-19T6:37:55Z</time></trkpt>
<trkpt lat="48.457863" lon="2.70386"><ele></ele><time>2017-9-19T6:37:58Z</time></trkpt>
<trkpt lat="48.457857" lon="2.704003"><ele></ele><time>2017-9-19T6:38:1Z</time></trkpt>
<trkpt lat="48.457846" lon="2.704163"><ele></ele><time>2017-9-19T6:38:4Z</time></trkpt>
<trkpt lat="48.457836" lon="2.704306"><ele></ele><time>2017-9-19T6:38:7Z</time></trkpt>
<trkpt lat="48.457819" lon="2.704507"><ele></ele><time>2017-9-19T6:38:10Z</time></trkpt>
<trkpt lat="48.457787" lon="2.704704"><ele></ele><time>2017-9-19T6:38:13Z</time></trkpt>
<trkpt lat="48.457752" lon="2.704888"><ele></ele><time>2017-9-19T6:38:16Z</time></trkpt>
<trkpt lat="48.457737" lon="2.705068"><ele></ele><time>2017-9-19T6:38:19Z</time></trkpt>
<trkpt lat="48.45771" lon="2.705222"><ele></ele><time>2017-9-19T6:38:22Z</time></trkpt>
<trkpt lat="48.457695" lon="2.705365"><ele></ele><time>2017-9-19T6:38:25Z</time></trkpt>
<trkpt lat="48.457648" lon="2.705494"><ele></ele><time>2017-9-19T6:38:28Z</time></trkpt>
<trkpt lat="48.457654" lon="2.705671"><ele></ele><time>2017-9-19T6:38:31Z</time></trkpt>
<trkpt lat="48.457636" lon="2.705845"><ele></ele><time>2017-9-19T6:38:34Z</time></trkpt>
<trkpt lat="48.457581" lon="2.705977"><ele></ele><time>2017-9-19T6:38:37Z</time></trkpt>
<trkpt lat="48.457543" lon="2.706112"><ele></ele><time>2017-9-19T6:38:40Z</time></trkpt>
<trkpt lat="48.45754" lon="2.706298"><ele></ele><time>2017-9-19T6:38:43Z</time></trkpt>
<trkpt lat="48.457519" lon="2.706477"><ele></ele><time>2017-9-19T6:38:46Z</time></trkpt>
<trkpt lat="48.457489" lon="2.706834"><ele></ele><time>2017-9-19T6:38:49Z</time></trkpt>
<trkpt lat="48.457479" lon="2.706971"><ele></ele><time>2017-9-19T6:38:52Z</time></trkpt>
<trkpt lat="48.457471" lon="2.707116"><ele></ele><time>2017-9-19T6:38:55Z</time></trkpt>
<trkpt lat="48.457508" lon="2.707278"><ele></ele><time>2017-9-19T6:38:58Z</time></trkpt>
<trkpt lat="48.457576" lon="2.707418"><ele></ele><time>2017-9-19T6:39:1Z</time></trkpt>
<trkpt lat="48.457631" lon="2.70755"><ele></ele><time>2017-9-19T6:39:4Z</time></trkpt>
<trkpt lat="48.45771" lon="2.707675"><ele></ele><time>2017-9-19T6:39:7Z</time></trkpt>
<trkpt lat="48.45778" lon="2.707771"><ele></ele><time>2017-9-19T6:39:10Z</time></trkpt>
<trkpt lat="48.457853" lon="2.707909"><ele></ele><time>2017-9-19T6:39:13Z</time></trkpt>
<trkpt lat="48.457912" lon="2.708037"><ele></ele><time>2017-9-19T6:39:16Z</time></trkpt>
<trkpt lat="48.457979" lon="2.708168"><ele></ele><time>2017-9-19T6:39:19Z</time></trkpt>
<trkpt lat="48.458046" lon="2.708287"><ele></ele><time>2017-9-19T6:39:22Z</time></trkpt>
<trkpt lat="48.458111" lon="2.708408"><ele></ele><time>2017-9-19T6:39:25Z</time></trkpt>
<trkpt lat="48.458177" lon="2.708542"><ele></ele><time>2017-9-19T6:39:28Z</time></trkpt>
<trkpt lat="48.458229" lon="2.708666"><ele></ele><time>2017-9-19T6:39:31Z</time></trkpt>
<trkpt lat="48.458303" lon="2.70879"><ele></ele><time>2017-9-19T6:39:34Z</time></trkpt>
<trkpt lat="48.458355" lon="2.708918"><ele></ele><time>2017-9-19T6:39:37Z</time></trkpt>
<trkpt lat="48.458427" lon="2.709044"><ele></ele><time>2017-9-19T6:39:40Z</time></trkpt>
<trkpt lat="48.458495" lon="2.709143"><ele></ele><time>2017-9-19T6:39:43Z</time></trkpt>
<trkpt lat="48.458561" lon="2.709265"><ele></ele><time>2017-9-19T6:39:46Z</time></trkpt>
<trkpt lat="48.458657" lon="2.709419"><ele></ele><time>2017-9-19T6:39:49Z</time></trkpt>
<trkpt lat="48.458725" lon="2.709545"><ele></ele><time>2017-9-19T6:39:52Z</time></trkpt>
<trkpt lat="48.458818" lon="2.709679"><ele></ele><time>2017-9-19T6:39:55Z</time></trkpt>
<trkpt lat="48.458889" lon="2.709805"><ele></ele><time>2017-9-19T6:39:58Z</time></trkpt>
<trkpt lat="48.45895" lon="2.709923"><ele></ele><time>2017-9-19T6:40:1Z</time></trkpt>
<trkpt lat="48.459025" lon="2.710056"><ele></ele><time>2017-9-19T6:40:4Z</time></trkpt>
<trkpt lat="48.459147" lon="2.71032"><ele></ele><time>2017-9-19T6:40:7Z</time></trkpt>
<trkpt lat="48.459223" lon="2.710445"><ele></ele><time>2017-9-19T6:40:10Z</time></trkpt>
<trkpt lat="48.459289" lon="2.710572"><ele></ele><time>2017-9-19T6:40:13Z</time></trkpt>
<trkpt lat="48.459352" lon="2.710701"><ele></ele><time>2017-9-19T6:40:16Z</time></trkpt>
<trkpt lat="48.45942" lon="2.71083"><ele></ele><time>2017-9-19T6:40:19Z</time></trkpt>
<trkpt lat="48.459481" lon="2.710969"><ele></ele><time>2017-9-19T6:40:22Z</time></trkpt>
<trkpt lat="48.459548" lon="2.711101"><ele></ele><time>2017-9-19T6:40:25Z</time></trkpt>
<trkpt lat="48.459609" lon="2.711238"><ele></ele><time>2017-9-19T6:40:28Z</time></trkpt>
<trkpt lat="48.459668" lon="2.711362"><ele></ele><time>2017-9-19T6:40:31Z</time></trkpt>
<trkpt lat="48.459732" lon="2.711486"><ele></ele><time>2017-9-19T6:40:34Z</time></trkpt>
<trkpt lat="48.459823" lon="2.711631"><ele></ele><time>2017-9-19T6:40:37Z</time></trkpt>
<trkpt lat="48.459882" lon="2.711747"><ele></ele><time>2017-9-19T6:40:40Z</time></trkpt>
<trkpt lat="48.459952" lon="2.711894"><ele></ele><time>2017-9-19T6:40:43Z</time></trkpt>
<trkpt lat="48.460011" lon="2.71201"><ele></ele><time>2017-9-19T6:40:46Z</time></trkpt>
<trkpt lat="48.460067" lon="2.712138"><ele></ele><time>2017-9-19T6:40:49Z</time></trkpt>
<trkpt lat="48.460134" lon="2.712263"><ele></ele><time>2017-9-19T6:40:52Z</time></trkpt>
<trkpt lat="48.460208" lon="2.71241"><ele></ele><time>2017-9-19T6:40:55Z</time></trkpt>
<trkpt lat="48.460287" lon="2.712571"><ele></ele><time>2017-9-19T6:40:58Z</time></trkpt>
<trkpt lat="48.460352" lon="2.712681"><ele></ele><time>2017-9-19T6:41:1Z</time></trkpt>
<trkpt lat="48.460405" lon="2.712802"><ele></ele><time>2017-9-19T6:41:4Z</time></trkpt>
<trkpt lat="48.460481" lon="2.712917"><ele></ele><time>2017-9-19T6:41:7Z</time></trkpt>
<trkpt lat="48.460559" lon="2.713059"><ele></ele><time>2017-9-19T6:41:10Z</time></trkpt>
<trkpt lat="48.460642" lon="2.71319"><ele></ele><time>2017-9-19T6:41:13Z</time></trkpt>
<trkpt lat="48.460709" lon="2.713326"><ele></ele><time>2017-9-19T6:41:16Z</time></trkpt>
<trkpt lat="48.460759" lon="2.713454"><ele></ele><time>2017-9-19T6:41:19Z</time></trkpt>
<trkpt lat="48.460843" lon="2.713597"><ele></ele><time>2017-9-19T6:41:22Z</time></trkpt>
<trkpt lat="48.461019" lon="2.713894"><ele></ele><time>2017-9-19T6:41:25Z</time></trkpt>
<trkpt lat="48.461086" lon="2.714029"><ele></ele><time>2017-9-19T6:41:28Z</time></trkpt>
<trkpt lat="48.46118" lon="2.714174"><ele></ele><time>2017-9-19T6:41:31Z</time></trkpt>
<trkpt lat="48.461269" lon="2.714307"><ele></ele><time>2017-9-19T6:41:34Z</time></trkpt>
<trkpt lat="48.461355" lon="2.714445"><ele></ele><time>2017-9-19T6:41:37Z</time></trkpt>
<trkpt lat="48.461435" lon="2.714601"><ele></ele><time>2017-9-19T6:41:40Z</time></trkpt>
<trkpt lat="48.461503" lon="2.714721"><ele></ele><time>2017-9-19T6:41:43Z</time></trkpt>
<trkpt lat="48.461579" lon="2.71486"><ele></ele><time>2017-9-19T6:41:46Z</time></trkpt>
<trkpt lat="48.461636" lon="2.714973"><ele></ele><time>2017-9-19T6:41:49Z</time></trkpt>
<trkpt lat="48.461706" lon="2.715105"><ele></ele><time>2017-9-19T6:41:52Z</time></trkpt>
<trkpt lat="48.461757" lon="2.7153"><ele></ele><time>2017-9-19T6:41:55Z</time></trkpt>
<trkpt lat="48.461822" lon="2.715422"><ele></ele><time>2017-9-19T6:41:58Z</time></trkpt>
<trkpt lat="48.461892" lon="2.715544"><ele></ele><time>2017-9-19T6:42:1Z</time></trkpt>
<trkpt lat="48.461963" lon="2.715661"><ele></ele><time>2017-9-19T6:42:4Z</time></trkpt>
<trkpt lat="48.462021" lon="2.715838"><ele></ele><time>2017-9-19T6:42:7Z</time></trkpt>
<trkpt lat="48.462078" lon="2.715946"><ele></ele><time>2017-9-19T6:42:10Z</time></trkpt>
<trkpt lat="48.462148" lon="2.716054"><ele></ele><time>2017-9-19T6:42:13Z</time></trkpt>
<trkpt lat="48.462235" lon="2.716204"><ele></ele><time>2017-9-19T6:42:16Z</time></trkpt>
<trkpt lat="48.462302" lon="2.716333"><ele></ele><time>2017-9-19T6:42:19Z</time></trkpt>
<trkpt lat="48.462355" lon="2.716449"><ele></ele><time>2017-9-19T6:42:22Z</time></trkpt>
<trkpt lat="48.462433" lon="2.716595"><ele></ele><time>2017-9-19T6:42:25Z</time></trkpt>
<trkpt lat="48.462499" lon="2.716717"><ele></ele><time>2017-9-19T6:42:28Z</time></trkpt>
<trkpt lat="48.462564" lon="2.716839"><ele></ele><time>2017-9-19T6:42:31Z</time></trkpt>
<trkpt lat="48.46265" lon="2.716975"><ele></ele><time>2017-9-19T6:42:34Z</time></trkpt>
<trkpt lat="48.462706" lon="2.717095"><ele></ele><time>2017-9-19T6:42:37Z</time></trkpt>
<trkpt lat="48.462764" lon="2.717203"><ele></ele><time>2017-9-19T6:42:40Z</time></trkpt>
<trkpt lat="48.46287" lon="2.717454"><ele></ele><time>2017-9-19T6:42:43Z</time></trkpt>
<trkpt lat="48.462921" lon="2.717578"><ele></ele><time>2017-9-19T6:42:46Z</time></trkpt>
<trkpt lat="48.46298" lon="2.71772"><ele></ele><time>2017-9-19T6:42:49Z</time></trkpt>
<trkpt lat="48.463043" lon="2.71784"><ele></ele><time>2017-9-19T6:42:52Z</time></trkpt>
<trkpt lat="48.463089" lon="2.717962"><ele></ele><time>2017-9-19T6:42:55Z</time></trkpt>
<trkpt lat="48.463178" lon="2.718097"><ele></ele><time>2017-9-19T6:42:58Z</time></trkpt>
<trkpt lat="48.463258" lon="2.718232"><ele></ele><time>2017-9-19T6:43:1Z</time></trkpt>
<trkpt lat="48.463338" lon="2.718369"><ele></ele><time>2017-9-19T6:43:4Z</time></trkpt>
<trkpt lat="48.463409" lon="2.718493"><ele></ele><time>2017-9-19T6:43:7Z</time></trkpt>
<trkpt lat="48.463466" lon="2.718605"><ele></ele><time>2017-9-19T6:43:10Z</time></trkpt>
<trkpt lat="48.463532" lon="2.718705"><ele></ele><time>2017-9-19T6:43:13Z</time></trkpt>
<trkpt lat="48.463617" lon="2.71884"><ele></ele><time>2017-9-19T6:43:16Z</time></trkpt>
<trkpt lat="48.463692" lon="2.718959"><ele></ele><time>2017-9-19T6:43:19Z</time></trkpt>
<trkpt lat="48.463775" lon="2.719099"><ele></ele><time>2017-9-19T6:43:22Z</time></trkpt>
<trkpt lat="48.463848" lon="2.719224"><ele></ele><time>2017-9-19T6:43:25Z</time></trkpt>
<trkpt lat="48.463898" lon="2.719346"><ele></ele><time>2017-9-19T6:43:28Z</time></trkpt>
<trkpt lat="48.463963" lon="2.719467"><ele></ele><time>2017-9-19T6:43:31Z</time></trkpt>
<trkpt lat="48.464035" lon="2.719582"><ele></ele><time>2017-9-19T6:43:34Z</time></trkpt>
<trkpt lat="48.464104" lon="2.71974"><ele></ele><time>2017-9-19T6:43:37Z</time></trkpt>
<trkpt lat="48.464177" lon="2.719878"><ele></ele><time>2017-9-19T6:43:40Z</time></trkpt>
<trkpt lat="48.464252" lon="2.719974"><ele></ele><time>2017-9-19T6:43:43Z</time></trkpt>
<trkpt lat="48.464334" lon="2.720064"><ele></ele><time>2017-9-19T6:43:46Z</time></trkpt>
<trkpt lat="48.464396" lon="2.720184"><ele></ele><time>2017-9-19T6:43:49Z</time></trkpt>
<trkpt lat="48.464468" lon="2.720316"><ele></ele><time>2017-9-19T6:43:52Z</time></trkpt>
<trkpt lat="48.464534" lon="2.720446"><ele></ele><time>2017-9-19T6:43:55Z</time></trkpt>
<trkpt lat="48.464598" lon="2.720577"><ele></ele><time>2017-9-19T6:43:58Z</time></trkpt>
<trkpt lat="48.464673" lon="2.720682"><ele></ele><time>2017-9-19T6:44:1Z</time></trkpt>
<trkpt lat="48.464739" lon="2.720805"><ele></ele><time>2017-9-19T6:44:4Z</time></trkpt>
<trkpt lat="48.464828" lon="2.720948"><ele></ele><time>2017-9-19T6:44:7Z</time></trkpt>
<trkpt lat="48.464958" lon="2.72121"><ele></ele><time>2017-9-19T6:44:10Z</time></trkpt>
<trkpt lat="48.465033" lon="2.721352"><ele></ele><time>2017-9-19T6:44:13Z</time></trkpt>
<trkpt lat="48.465105" lon="2.721497"><ele></ele><time>2017-9-19T6:44:16Z</time></trkpt>
<trkpt lat="48.465176" lon="2.721625"><ele></ele><time>2017-9-19T6:44:19Z</time></trkpt>
<trkpt lat="48.465237" lon="2.721742"><ele></ele><time>2017-9-19T6:44:22Z</time></trkpt>
<trkpt lat="48.465296" lon="2.721869"><ele></ele><time>2017-9-19T6:44:25Z</time></trkpt>
<trkpt lat="48.465371" lon="2.722005"><ele></ele><time>2017-9-19T6:44:28Z</time></trkpt>
<trkpt lat="48.465458" lon="2.722145"><ele></ele><time>2017-9-19T6:44:31Z</time></trkpt>
<trkpt lat="48.465533" lon="2.722277"><ele></ele><time>2017-9-19T6:44:34Z</time></trkpt>
<trkpt lat="48.4656" lon="2.722441"><ele></ele><time>2017-9-19T6:44:37Z</time></trkpt>
<trkpt lat="48.465668" lon="2.722589"><ele></ele><time>2017-9-19T6:44:40Z</time></trkpt>
<trkpt lat="48.465715" lon="2.722712"><ele></ele><time>2017-9-19T6:44:43Z</time></trkpt>
<trkpt lat="48.465799" lon="2.722855"><ele></ele><time>2017-9-19T6:44:46Z</time></trkpt>
<trkpt lat="48.465881" lon="2.723004"><ele></ele><time>2017-9-19T6:44:49Z</time></trkpt>
<trkpt lat="48.465961" lon="2.723148"><ele></ele><time>2017-9-19T6:44:52Z</time></trkpt>
<trkpt lat="48.466055" lon="2.723296"><ele></ele><time>2017-9-19T6:44:55Z</time></trkpt>
<trkpt lat="48.466135" lon="2.723435"><ele></ele><time>2017-9-19T6:44:58Z</time></trkpt>
<trkpt lat="48.466206" lon="2.723621"><ele></ele><time>2017-9-19T6:45:1Z</time></trkpt>
<trkpt lat="48.466281" lon="2.723762"><ele></ele><time>2017-9-19T6:45:4Z</time></trkpt>
<trkpt lat="48.466373" lon="2.723906"><ele></ele><time>2017-9-19T6:45:7Z</time></trkpt>
<trkpt lat="48.466445" lon="2.724049"><ele></ele><time>2017-9-19T6:45:10Z</time></trkpt>
<trkpt lat="48.466488" lon="2.724194"><ele></ele><time>2017-9-19T6:45:13Z</time></trkpt>
<trkpt lat="48.466587" lon="2.724386"><ele></ele><time>2017-9-19T6:45:16Z</time></trkpt>
<trkpt lat="48.466683" lon="2.724544"><ele></ele><time>2017-9-19T6:45:19Z</time></trkpt>
<trkpt lat="48.466776" lon="2.724701"><ele></ele><time>2017-9-19T6:45:22Z</time></trkpt>
<trkpt lat="48.466861" lon="2.724866"><ele></ele><time>2017-9-19T6:45:25Z</time></trkpt>
<trkpt lat="48.466956" lon="2.725029"><ele></ele><time>2017-9-19T6:45:28Z</time></trkpt>
<trkpt lat="48.467051" lon="2.725204"><ele></ele><time>2017-9-19T6:45:31Z</time></trkpt>
<trkpt lat="48.467133" lon="2.725359"><ele></ele><time>2017-9-19T6:45:34Z</time></trkpt>
<trkpt lat="48.467331" lon="2.725715"><ele></ele><time>2017-9-19T6:45:37Z</time></trkpt>
<trkpt lat="48.467426" lon="2.725904"><ele></ele><time>2017-9-19T6:45:40Z</time></trkpt>
<trkpt lat="48.46752" lon="2.72608"><ele></ele><time>2017-9-19T6:45:43Z</time></trkpt>
<trkpt lat="48.467612" lon="2.726262"><ele></ele><time>2017-9-19T6:45:46Z</time></trkpt>
<trkpt lat="48.467707" lon="2.726447"><ele></ele><time>2017-9-19T6:45:49Z</time></trkpt>
<trkpt lat="48.467809" lon="2.726634"><ele></ele><time>2017-9-19T6:45:52Z</time></trkpt>
<trkpt lat="48.467914" lon="2.726809"><ele></ele><time>2017-9-19T6:45:55Z</time></trkpt>
<trkpt lat="48.468004" lon="2.726989"><ele></ele><time>2017-9-19T6:45:58Z</time></trkpt>
<trkpt lat="48.46811" lon="2.727178"><ele></ele><time>2017-9-19T6:46:1Z</time></trkpt>
<trkpt lat="48.468209" lon="2.727365"><ele></ele><time>2017-9-19T6:46:4Z</time></trkpt>
<trkpt lat="48.468309" lon="2.727534"><ele></ele><time>2017-9-19T6:46:7Z</time></trkpt>
<trkpt lat="48.468413" lon="2.727711"><ele></ele><time>2017-9-19T6:46:10Z</time></trkpt>
<trkpt lat="48.468502" lon="2.727889"><ele></ele><time>2017-9-19T6:46:13Z</time></trkpt>
<trkpt lat="48.468592" lon="2.728072"><ele></ele><time>2017-9-19T6:46:16Z</time></trkpt>
<trkpt lat="48.468696" lon="2.728262"><ele></ele><time>2017-9-19T6:46:19Z</time></trkpt>
<trkpt lat="48.468782" lon="2.728428"><ele></ele><time>2017-9-19T6:46:22Z</time></trkpt>
<trkpt lat="48.468865" lon="2.72861"><ele></ele><time>2017-9-19T6:46:25Z</time></trkpt>
<trkpt lat="48.468955" lon="2.728774"><ele></ele><time>2017-9-19T6:46:28Z</time></trkpt>
<trkpt lat="48.469038" lon="2.72892"><ele></ele><time>2017-9-19T6:46:31Z</time></trkpt>
<trkpt lat="48.469184" lon="2.7292"><ele></ele><time>2017-9-19T6:46:34Z</time></trkpt>
<trkpt lat="48.469272" lon="2.729355"><ele></ele><time>2017-9-19T6:46:37Z</time></trkpt>
<trkpt lat="48.469361" lon="2.729531"><ele></ele><time>2017-9-19T6:46:40Z</time></trkpt>
<trkpt lat="48.469488" lon="2.729818"><ele></ele><time>2017-9-19T6:46:43Z</time></trkpt>
<trkpt lat="48.469575" lon="2.729986"><ele></ele><time>2017-9-19T6:46:46Z</time></trkpt>
<trkpt lat="48.469665" lon="2.730153"><ele></ele><time>2017-9-19T6:46:49Z</time></trkpt>
<trkpt lat="48.469741" lon="2.730314"><ele></ele><time>2017-9-19T6:46:52Z</time></trkpt>
<trkpt lat="48.469821" lon="2.730462"><ele></ele><time>2017-9-19T6:46:55Z</time></trkpt>
<trkpt lat="48.469899" lon="2.730595"><ele></ele><time>2017-9-19T6:46:58Z</time></trkpt>
<trkpt lat="48.469977" lon="2.730724"><ele></ele><time>2017-9-19T6:47:1Z</time></trkpt>
<trkpt lat="48.470116" lon="2.731007"><ele></ele><time>2017-9-19T6:47:4Z</time></trkpt>
<trkpt lat="48.470178" lon="2.731133"><ele></ele><time>2017-9-19T6:47:7Z</time></trkpt>
<trkpt lat="48.470277" lon="2.731246"><ele></ele><time>2017-9-19T6:47:10Z</time></trkpt>
<trkpt lat="48.470355" lon="2.731358"><ele></ele><time>2017-9-19T6:47:13Z</time></trkpt>
<trkpt lat="48.470416" lon="2.731517"><ele></ele><time>2017-9-19T6:47:16Z</time></trkpt>
<trkpt lat="48.470475" lon="2.73162"><ele></ele><time>2017-9-19T6:47:19Z</time></trkpt>
<trkpt lat="48.470544" lon="2.731718"><ele></ele><time>2017-9-19T6:47:22Z</time></trkpt>
<trkpt lat="48.470599" lon="2.731831"><ele></ele><time>2017-9-19T6:47:25Z</time></trkpt>
<trkpt lat="48.470663" lon="2.731977"><ele></ele><time>2017-9-19T6:47:28Z</time></trkpt>
<trkpt lat="48.470726" lon="2.732108"><ele></ele><time>2017-9-19T6:47:31Z</time></trkpt>
<trkpt lat="48.470775" lon="2.732285"><ele></ele><time>2017-9-19T6:47:34Z</time></trkpt>
<trkpt lat="48.470849" lon="2.732429"><ele></ele><time>2017-9-19T6:47:37Z</time></trkpt>
<trkpt lat="48.470916" lon="2.732571"><ele></ele><time>2017-9-19T6:47:40Z</time></trkpt>
<trkpt lat="48.470978" lon="2.732764"><ele></ele><time>2017-9-19T6:47:43Z</time></trkpt>
<trkpt lat="48.471059" lon="2.732922"><ele></ele><time>2017-9-19T6:47:46Z</time></trkpt>
<trkpt lat="48.471125" lon="2.733078"><ele></ele><time>2017-9-19T6:47:49Z</time></trkpt>
<trkpt lat="48.471252" lon="2.733296"><ele></ele><time>2017-9-19T6:47:52Z</time></trkpt>
<trkpt lat="48.471289" lon="2.733521"><ele></ele><time>2017-9-19T6:47:55Z</time></trkpt>
<trkpt lat="48.471353" lon="2.733712"><ele></ele><time>2017-9-19T6:47:58Z</time></trkpt>
<trkpt lat="48.471426" lon="2.733899"><ele></ele><time>2017-9-19T6:48:1Z</time></trkpt>
<trkpt lat="48.471472" lon="2.734079"><ele></ele><time>2017-9-19T6:48:4Z</time></trkpt>
<trkpt lat="48.471525" lon="2.734245"><ele></ele><time>2017-9-19T6:48:7Z</time></trkpt>
<trkpt lat="48.47159" lon="2.734408"><ele></ele><time>2017-9-19T6:48:10Z</time></trkpt>
<trkpt lat="48.471694" lon="2.734607"><ele></ele><time>2017-9-19T6:48:13Z</time></trkpt>
<trkpt lat="48.471739" lon="2.734773"><ele></ele><time>2017-9-19T6:48:16Z</time></trkpt>
<trkpt lat="48.471792" lon="2.734958"><ele></ele><time>2017-9-19T6:48:19Z</time></trkpt>
<trkpt lat="48.471905" lon="2.735282"><ele></ele><time>2017-9-19T6:48:22Z</time></trkpt>
<trkpt lat="48.471979" lon="2.735454"><ele></ele><time>2017-9-19T6:48:25Z</time></trkpt>
<trkpt lat="48.472052" lon="2.735613"><ele></ele><time>2017-9-19T6:48:28Z</time></trkpt>
<trkpt lat="48.472143" lon="2.735843"><ele></ele><time>2017-9-19T6:48:31Z</time></trkpt>
<trkpt lat="48.472192" lon="2.736001"><ele></ele><time>2017-9-19T6:48:34Z</time></trkpt>
<trkpt lat="48.472252" lon="2.736131"><ele></ele><time>2017-9-19T6:48:37Z</time></trkpt>
<trkpt lat="48.472337" lon="2.736397"><ele></ele><time>2017-9-19T6:48:40Z</time></trkpt>
<trkpt lat="48.472373" lon="2.736539"><ele></ele><time>2017-9-19T6:48:43Z</time></trkpt>
<trkpt lat="48.472441" lon="2.736707"><ele></ele><time>2017-9-19T6:48:46Z</time></trkpt>
<trkpt lat="48.472506" lon="2.736882"><ele></ele><time>2017-9-19T6:48:49Z</time></trkpt>
<trkpt lat="48.472579" lon="2.737016"><ele></ele><time>2017-9-19T6:48:52Z</time></trkpt>
<trkpt lat="48.47263" lon="2.737141"><ele></ele><time>2017-9-19T6:48:55Z</time></trkpt>
<trkpt lat="48.472713" lon="2.737296"><ele></ele><time>2017-9-19T6:48:58Z</time></trkpt>
<trkpt lat="48.472798" lon="2.737482"><ele></ele><time>2017-9-19T6:49:1Z</time></trkpt>
<trkpt lat="48.472864" lon="2.737602"><ele></ele><time>2017-9-19T6:49:4Z</time></trkpt>
<trkpt lat="48.472907" lon="2.737757"><ele></ele><time>2017-9-19T6:49:7Z</time></trkpt>
<trkpt lat="48.472966" lon="2.737897"><ele></ele><time>2017-9-19T6:49:10Z</time></trkpt>
<trkpt lat="48.473001" lon="2.738038"><ele></ele><time>2017-9-19T6:49:13Z</time></trkpt>
<trkpt lat="48.473065" lon="2.738167"><ele></ele><time>2017-9-19T6:49:16Z</time></trkpt>
<trkpt lat="48.473142" lon="2.738337"><ele></ele><time>2017-9-19T6:49:19Z</time></trkpt>
<trkpt lat="48.473205" lon="2.73846"><ele></ele><time>2017-9-19T6:49:22Z</time></trkpt>
<trkpt lat="48.473262" lon="2.738594"><ele></ele><time>2017-9-19T6:49:25Z</time></trkpt>
<trkpt lat="48.473286" lon="2.738725"><ele></ele><time>2017-9-19T6:49:28Z</time></trkpt>
<trkpt lat="48.473372" lon="2.738989"><ele></ele><time>2017-9-19T6:49:31Z</time></trkpt>
<trkpt lat="48.473441" lon="2.739136"><ele></ele><time>2017-9-19T6:49:34Z</time></trkpt>
<trkpt lat="48.4735" lon="2.73925"><ele></ele><time>2017-9-19T6:49:37Z</time></trkpt>
<trkpt lat="48.473553" lon="2.73938"><ele></ele><time>2017-9-19T6:49:40Z</time></trkpt>
<trkpt lat="48.473604" lon="2.739551"><ele></ele><time>2017-9-19T6:49:43Z</time></trkpt>
<trkpt lat="48.473649" lon="2.739675"><ele></ele><time>2017-9-19T6:49:46Z</time></trkpt>
<trkpt lat="48.473706" lon="2.73983"><ele></ele><time>2017-9-19T6:49:49Z</time></trkpt>
<trkpt lat="48.473747" lon="2.73997"><ele></ele><time>2017-9-19T6:49:52Z</time></trkpt>
<trkpt lat="48.473811" lon="2.740106"><ele></ele><time>2017-9-19T6:49:55Z</time></trkpt>
<trkpt lat="48.47386" lon="2.740244"><ele></ele><time>2017-9-19T6:49:58Z</time></trkpt>
<trkpt lat="48.473915" lon="2.740377"><ele></ele><time>2017-9-19T6:50:1Z</time></trkpt>
<trkpt lat="48.47399" lon="2.740505"><ele></ele><time>2017-9-19T6:50:4Z</time></trkpt>
<trkpt lat="48.474035" lon="2.740663"><ele></ele><time>2017-9-19T6:50:7Z</time></trkpt>
<trkpt lat="48.474081" lon="2.740787"><ele></ele><time>2017-9-19T6:50:10Z</time></trkpt>
<trkpt lat="48.47414" lon="2.740923"><ele></ele><time>2017-9-19T6:50:13Z</time></trkpt>
<trkpt lat="48.474191" lon="2.741037"><ele></ele><time>2017-9-19T6:50:16Z</time></trkpt>
<trkpt lat="48.474228" lon="2.741161"><ele></ele><time>2017-9-19T6:50:19Z</time></trkpt>
<trkpt lat="48.474284" lon="2.741283"><ele></ele><time>2017-9-19T6:50:22Z</time></trkpt>
<trkpt lat="48.474317" lon="2.741414"><ele></ele><time>2017-9-19T6:50:25Z</time></trkpt>
<trkpt lat="48.474361" lon="2.741602"><ele></ele><time>2017-9-19T6:50:28Z</time></trkpt>
<trkpt lat="48.474394" lon="2.741756"><ele></ele><time>2017-9-19T6:50:31Z</time></trkpt>
<trkpt lat="48.47445" lon="2.741897"><ele></ele><time>2017-9-19T6:50:34Z</time></trkpt>
<trkpt lat="48.474509" lon="2.742043"><ele></ele><time>2017-9-19T6:50:37Z</time></trkpt>
<trkpt lat="48.474565" lon="2.742161"><ele></ele><time>2017-9-19T6:50:40Z</time></trkpt>
<trkpt lat="48.474706" lon="2.74249"><ele></ele><time>2017-9-19T6:50:43Z</time></trkpt>
<trkpt lat="48.47477" lon="2.742591"><ele></ele><time>2017-9-19T6:50:46Z</time></trkpt>
<trkpt lat="48.474846" lon="2.742767"><ele></ele><time>2017-9-19T6:50:49Z</time></trkpt>
<trkpt lat="48.474899" lon="2.742906"><ele></ele><time>2017-9-19T6:50:52Z</time></trkpt>
<trkpt lat="48.474963" lon="2.743075"><ele></ele><time>2017-9-19T6:50:55Z</time></trkpt>
<trkpt lat="48.474997" lon="2.743218"><ele></ele><time>2017-9-19T6:50:58Z</time></trkpt>
<trkpt lat="48.475046" lon="2.743344"><ele></ele><time>2017-9-19T6:51:1Z</time></trkpt>
<trkpt lat="48.475093" lon="2.743467"><ele></ele><time>2017-9-19T6:51:4Z</time></trkpt>
<trkpt lat="48.475153" lon="2.743609"><ele></ele><time>2017-9-19T6:51:7Z</time></trkpt>
<trkpt lat="48.47521" lon="2.743742"><ele></ele><time>2017-9-19T6:51:10Z</time></trkpt>
<trkpt lat="48.475272" lon="2.74389"><ele></ele><time>2017-9-19T6:51:13Z</time></trkpt>
<trkpt lat="48.475321" lon="2.744042"><ele></ele><time>2017-9-19T6:51:16Z</time></trkpt>
<trkpt lat="48.475386" lon="2.744181"><ele></ele><time>2017-9-19T6:51:19Z</time></trkpt>
<trkpt lat="48.475447" lon="2.744328"><ele></ele><time>2017-9-19T6:51:22Z</time></trkpt>
<trkpt lat="48.4755" lon="2.744495"><ele></ele><time>2017-9-19T6:51:25Z</time></trkpt>
<trkpt lat="48.475572" lon="2.744657"><ele></ele><time>2017-9-19T6:51:28Z</time></trkpt>
<trkpt lat="48.475637" lon="2.744803"><ele></ele><time>2017-9-19T6:51:31Z</time></trkpt>
<trkpt lat="48.475694" lon="2.744929"><ele></ele><time>2017-9-19T6:51:34Z</time></trkpt>
<trkpt lat="48.475757" lon="2.745093"><ele></ele><time>2017-9-19T6:51:37Z</time></trkpt>
<trkpt lat="48.475812" lon="2.745223"><ele></ele><time>2017-9-19T6:51:40Z</time></trkpt>
<trkpt lat="48.475866" lon="2.745391"><ele></ele><time>2017-9-19T6:51:43Z</time></trkpt>
<trkpt lat="48.475933" lon="2.745522"><ele></ele><time>2017-9-19T6:51:46Z</time></trkpt>
<trkpt lat="48.475991" lon="2.74564"><ele></ele><time>2017-9-19T6:51:49Z</time></trkpt>
<trkpt lat="48.476049" lon="2.745801"><ele></ele><time>2017-9-19T6:51:52Z</time></trkpt>
<trkpt lat="48.476101" lon="2.745942"><ele></ele><time>2017-9-19T6:51:55Z</time></trkpt>
<trkpt lat="48.476156" lon="2.746099"><ele></ele><time>2017-9-19T6:51:58Z</time></trkpt>
<trkpt lat="48.476216" lon="2.746263"><ele></ele><time>2017-9-19T6:52:1Z</time></trkpt>
<trkpt lat="48.47627" lon="2.746385"><ele></ele><time>2017-9-19T6:52:4Z</time></trkpt>
<trkpt lat="48.476388" lon="2.746677"><ele></ele><time>2017-9-19T6:52:7Z</time></trkpt>
<trkpt lat="48.476426" lon="2.746806"><ele></ele><time>2017-9-19T6:52:10Z</time></trkpt>
<trkpt lat="48.476491" lon="2.746993"><ele></ele><time>2017-9-19T6:52:13Z</time></trkpt>
<trkpt lat="48.476549" lon="2.747157"><ele></ele><time>2017-9-19T6:52:16Z</time></trkpt>
<trkpt lat="48.476609" lon="2.747309"><ele></ele><time>2017-9-19T6:52:19Z</time></trkpt>
<trkpt lat="48.476676" lon="2.747461"><ele></ele><time>2017-9-19T6:52:22Z</time></trkpt>
<trkpt lat="48.476744" lon="2.747596"><ele></ele><time>2017-9-19T6:52:25Z</time></trkpt>
<trkpt lat="48.476792" lon="2.747741"><ele></ele><time>2017-9-19T6:52:28Z</time></trkpt>
<trkpt lat="48.476844" lon="2.747903"><ele></ele><time>2017-9-19T6:52:31Z</time></trkpt>
<trkpt lat="48.476888" lon="2.748026"><ele></ele><time>2017-9-19T6:52:34Z</time></trkpt>
<trkpt lat="48.476948" lon="2.748174"><ele></ele><time>2017-9-19T6:52:37Z</time></trkpt>
<trkpt lat="48.476996" lon="2.748333"><ele></ele><time>2017-9-19T6:52:40Z</time></trkpt>
<trkpt lat="48.477052" lon="2.748481"><ele></ele><time>2017-9-19T6:52:43Z</time></trkpt>
<trkpt lat="48.477126" lon="2.748628"><ele></ele><time>2017-9-19T6:52:46Z</time></trkpt>
<trkpt lat="48.477178" lon="2.748756"><ele></ele><time>2017-9-19T6:52:49Z</time></trkpt>
<trkpt lat="48.477214" lon="2.748918"><ele></ele><time>2017-9-19T6:52:52Z</time></trkpt>
<trkpt lat="48.477266" lon="2.749091"><ele></ele><time>2017-9-19T6:52:55Z</time></trkpt>
<trkpt lat="48.477334" lon="2.749219"><ele></ele><time>2017-9-19T6:52:58Z</time></trkpt>
<trkpt lat="48.477393" lon="2.749373"><ele></ele><time>2017-9-19T6:53:1Z</time></trkpt>
<trkpt lat="48.477452" lon="2.749569"><ele></ele><time>2017-9-19T6:53:4Z</time></trkpt>
<trkpt lat="48.477512" lon="2.749742"><ele></ele><time>2017-9-19T6:53:7Z</time></trkpt>
<trkpt lat="48.477573" lon="2.749893"><ele></ele><time>2017-9-19T6:53:10Z</time></trkpt>
<trkpt lat="48.47765" lon="2.75005"><ele></ele><time>2017-9-19T6:53:13Z</time></trkpt>
<trkpt lat="48.477701" lon="2.750194"><ele></ele><time>2017-9-19T6:53:16Z</time></trkpt>
<trkpt lat="48.477762" lon="2.750348"><ele></ele><time>2017-9-19T6:53:19Z</time></trkpt>
<trkpt lat="48.477826" lon="2.750519"><ele></ele><time>2017-9-19T6:53:22Z</time></trkpt>
<trkpt lat="48.477889" lon="2.750698"><ele></ele><time>2017-9-19T6:53:25Z</time></trkpt>
<trkpt lat="48.477939" lon="2.75082"><ele></ele><time>2017-9-19T6:53:28Z</time></trkpt>
<trkpt lat="48.477983" lon="2.750953"><ele></ele><time>2017-9-19T6:53:31Z</time></trkpt>
<trkpt lat="48.478131" lon="2.751267"><ele></ele><time>2017-9-19T6:53:34Z</time></trkpt>
<trkpt lat="48.47819" lon="2.751404"><ele></ele><time>2017-9-19T6:53:37Z</time></trkpt>
<trkpt lat="48.478262" lon="2.751591"><ele></ele><time>2017-9-19T6:53:40Z</time></trkpt>
<trkpt lat="48.478317" lon="2.751739"><ele></ele><time>2017-9-19T6:53:43Z</time></trkpt>
<trkpt lat="48.478373" lon="2.751902"><ele></ele><time>2017-9-19T6:53:46Z</time></trkpt>
<trkpt lat="48.478443" lon="2.752061"><ele></ele><time>2017-9-19T6:53:49Z</time></trkpt>
<trkpt lat="48.478514" lon="2.75225"><ele></ele><time>2017-9-19T6:53:52Z</time></trkpt>
<trkpt lat="48.478583" lon="2.752402"><ele></ele><time>2017-9-19T6:53:55Z</time></trkpt>
<trkpt lat="48.478652" lon="2.752582"><ele></ele><time>2017-9-19T6:53:58Z</time></trkpt>
<trkpt lat="48.47871" lon="2.752766"><ele></ele><time>2017-9-19T6:54:1Z</time></trkpt>
<trkpt lat="48.478749" lon="2.752926"><ele></ele><time>2017-9-19T6:54:4Z</time></trkpt>
<trkpt lat="48.478823" lon="2.753109"><ele></ele><time>2017-9-19T6:54:7Z</time></trkpt>
<trkpt lat="48.478903" lon="2.753295"><ele></ele><time>2017-9-19T6:54:10Z</time></trkpt>
<trkpt lat="48.47896" lon="2.753434"><ele></ele><time>2017-9-19T6:54:13Z</time></trkpt>
<trkpt lat="48.479026" lon="2.753581"><ele></ele><time>2017-9-19T6:54:16Z</time></trkpt>
<trkpt lat="48.479095" lon="2.753737"><ele></ele><time>2017-9-19T6:54:19Z</time></trkpt>
<trkpt lat="48.479182" lon="2.753871"><ele></ele><time>2017-9-19T6:54:22Z</time></trkpt>
<trkpt lat="48.479259" lon="2.754046"><ele></ele><time>2017-9-19T6:54:25Z</time></trkpt>
<trkpt lat="48.47932" lon="2.754196"><ele></ele><time>2017-9-19T6:54:28Z</time></trkpt>
<trkpt lat="48.479363" lon="2.754362"><ele></ele><time>2017-9-19T6:54:31Z</time></trkpt>
<trkpt lat="48.479434" lon="2.754507"><ele></ele><time>2017-9-19T6:54:34Z</time></trkpt>
<trkpt lat="48.479507" lon="2.7547"><ele></ele><time>2017-9-19T6:54:37Z</time></trkpt>
<trkpt lat="48.479554" lon="2.754848"><ele></ele><time>2017-9-19T6:54:40Z</time></trkpt>
<trkpt lat="48.479625" lon="2.754989"><ele></ele><time>2017-9-19T6:54:43Z</time></trkpt>
<trkpt lat="48.479663" lon="2.755159"><ele></ele><time>2017-9-19T6:54:46Z</time></trkpt>
<trkpt lat="48.479716" lon="2.755328"><ele></ele><time>2017-9-19T6:54:49Z</time></trkpt>
<trkpt lat="48.47977" lon="2.755473"><ele></ele><time>2017-9-19T6:54:52Z</time></trkpt>
<trkpt lat="48.479895" lon="2.755761"><ele></ele><time>2017-9-19T6:54:55Z</time></trkpt>
<trkpt lat="48.479968" lon="2.755914"><ele></ele><time>2017-9-19T6:54:58Z</time></trkpt>
<trkpt lat="48.480047" lon="2.756062"><ele></ele><time>2017-9-19T6:55:1Z</time></trkpt>
<trkpt lat="48.480087" lon="2.756217"><ele></ele><time>2017-9-19T6:55:4Z</time></trkpt>
<trkpt lat="48.480139" lon="2.756375"><ele></ele><time>2017-9-19T6:55:7Z</time></trkpt>
<trkpt lat="48.480205" lon="2.756555"><ele></ele><time>2017-9-19T6:55:10Z</time></trkpt>
<trkpt lat="48.480292" lon="2.756752"><ele></ele><time>2017-9-19T6:55:13Z</time></trkpt>
<trkpt lat="48.480356" lon="2.75695"><ele></ele><time>2017-9-19T6:55:16Z</time></trkpt>
<trkpt lat="48.48042" lon="2.757101"><ele></ele><time>2017-9-19T6:55:19Z</time></trkpt>
<trkpt lat="48.480467" lon="2.757256"><ele></ele><time>2017-9-19T6:55:22Z</time></trkpt>
<trkpt lat="48.480549" lon="2.757408"><ele></ele><time>2017-9-19T6:55:25Z</time></trkpt>
<trkpt lat="48.480623" lon="2.757543"><ele></ele><time>2017-9-19T6:55:28Z</time></trkpt>
<trkpt lat="48.48069" lon="2.75771"><ele></ele><time>2017-9-19T6:55:31Z</time></trkpt>
<trkpt lat="48.480727" lon="2.757891"><ele></ele><time>2017-9-19T6:55:34Z</time></trkpt>
<trkpt lat="48.480779" lon="2.758044"><ele></ele><time>2017-9-19T6:55:37Z</time></trkpt>
<trkpt lat="48.480835" lon="2.758189"><ele></ele><time>2017-9-19T6:55:40Z</time></trkpt>
<trkpt lat="48.480899" lon="2.758363"><ele></ele><time>2017-9-19T6:55:43Z</time></trkpt>
<trkpt lat="48.480946" lon="2.758541"><ele></ele><time>2017-9-19T6:55:46Z</time></trkpt>
<trkpt lat="48.481026" lon="2.758729"><ele></ele><time>2017-9-19T6:55:49Z</time></trkpt>
<trkpt lat="48.481092" lon="2.758913"><ele></ele><time>2017-9-19T6:55:52Z</time></trkpt>
<trkpt lat="48.481169" lon="2.759083"><ele></ele><time>2017-9-19T6:55:55Z</time></trkpt>
<trkpt lat="48.481252" lon="2.759234"><ele></ele><time>2017-9-19T6:55:58Z</time></trkpt>
<trkpt lat="48.481314" lon="2.759384"><ele></ele><time>2017-9-19T6:56:1Z</time></trkpt>
<trkpt lat="48.481357" lon="2.759541"><ele></ele><time>2017-9-19T6:56:4Z</time></trkpt>
<trkpt lat="48.481403" lon="2.759694"><ele></ele><time>2017-9-19T6:56:7Z</time></trkpt>
<trkpt lat="48.48145" lon="2.75994"><ele></ele><time>2017-9-19T6:56:10Z</time></trkpt>
<trkpt lat="48.481517" lon="2.760051"><ele></ele><time>2017-9-19T6:56:13Z</time></trkpt>
<trkpt lat="48.481576" lon="2.760206"><ele></ele><time>2017-9-19T6:56:16Z</time></trkpt>
<trkpt lat="48.481658" lon="2.760297"><ele></ele><time>2017-9-19T6:56:19Z</time></trkpt>
<trkpt lat="48.48178" lon="2.760081"><ele></ele><time>2017-9-19T6:56:22Z</time></trkpt>
<trkpt lat="48.48185" lon="2.759935"><ele></ele><time>2017-9-19T6:56:25Z</time></trkpt>
<trkpt lat="48.481929" lon="2.759801"><ele></ele><time>2017-9-19T6:56:28Z</time></trkpt>
<trkpt lat="48.481996" lon="2.759696"><ele></ele><time>2017-9-19T6:56:31Z</time></trkpt>
<trkpt lat="48.482079" lon="2.759518"><ele></ele><time>2017-9-19T6:56:34Z</time></trkpt>
<trkpt lat="48.482148" lon="2.759366"><ele></ele><time>2017-9-19T6:56:37Z</time></trkpt>
<trkpt lat="48.482217" lon="2.759254"><ele></ele><time>2017-9-19T6:56:40Z</time></trkpt>
<trkpt lat="48.482309" lon="2.759132"><ele></ele><time>2017-9-19T6:56:43Z</time></trkpt>
<trkpt lat="48.48238" lon="2.758985"><ele></ele><time>2017-9-19T6:56:46Z</time></trkpt>
<trkpt lat="48.482436" lon="2.758829"><ele></ele><time>2017-9-19T6:56:49Z</time></trkpt>
<trkpt lat="48.482507" lon="2.758696"><ele></ele><time>2017-9-19T6:56:52Z</time></trkpt>
<trkpt lat="48.48258" lon="2.758584"><ele></ele><time>2017-9-19T6:56:55Z</time></trkpt>
<trkpt lat="48.482641" lon="2.758424"><ele></ele><time>2017-9-19T6:56:58Z</time></trkpt>
<trkpt lat="48.48266" lon="2.758251"><ele></ele><time>2017-9-19T6:57:1Z</time></trkpt>
<trkpt lat="48.482685" lon="2.758114"><ele></ele><time>2017-9-19T6:57:4Z</time></trkpt>
<trkpt lat="48.482753" lon="2.757991"><ele></ele><time>2017-9-19T6:57:7Z</time></trkpt>
<trkpt lat="48.482816" lon="2.757883"><ele></ele><time>2017-9-19T6:57:10Z</time></trkpt>
<trkpt lat="48.482864" lon="2.757734"><ele></ele><time>2017-9-19T6:57:13Z</time></trkpt>
<trkpt lat="48.482916" lon="2.757561"><ele></ele><time>2017-9-19T6:57:16Z</time></trkpt>
<trkpt lat="48.48297" lon="2.75744"><ele></ele><time>2017-9-19T6:57:19Z</time></trkpt>
<trkpt lat="48.483024" lon="2.757308"><ele></ele><time>2017-9-19T6:57:22Z</time></trkpt>
<trkpt lat="48.483081" lon="2.757121"><ele></ele><time>2017-9-19T6:57:25Z</time></trkpt>
<trkpt lat="48.483222" lon="2.756825"><ele></ele><time>2017-9-19T6:57:28Z</time></trkpt>
<trkpt lat="48.483267" lon="2.7567"><ele></ele><time>2017-9-19T6:57:31Z</time></trkpt>
<trkpt lat="48.483328" lon="2.756586"><ele></ele><time>2017-9-19T6:57:34Z</time></trkpt>
<trkpt lat="48.48341" lon="2.756508"><ele></ele><time>2017-9-19T6:57:37Z</time></trkpt>
<trkpt lat="48.483502" lon="2.756248"><ele></ele><time>2017-9-19T6:57:40Z</time></trkpt>
<trkpt lat="48.483549" lon="2.756131"><ele></ele><time>2017-9-19T6:57:43Z</time></trkpt>
<trkpt lat="48.483591" lon="2.756004"><ele></ele><time>2017-9-19T6:57:46Z</time></trkpt>
<trkpt lat="48.483634" lon="2.755852"><ele></ele><time>2017-9-19T6:57:49Z</time></trkpt>
<trkpt lat="48.483691" lon="2.755709"><ele></ele><time>2017-9-19T6:57:52Z</time></trkpt>
<trkpt lat="48.48377" lon="2.755586"><ele></ele><time>2017-9-19T6:57:55Z</time></trkpt>
<trkpt lat="48.48387" lon="2.755481"><ele></ele><time>2017-9-19T6:57:58Z</time></trkpt>
<trkpt lat="48.483938" lon="2.755357"><ele></ele><time>2017-9-19T6:58:1Z</time></trkpt>
<trkpt lat="48.483986" lon="2.755235"><ele></ele><time>2017-9-19T6:58:4Z</time></trkpt>
<trkpt lat="48.484006" lon="2.755102"><ele></ele><time>2017-9-19T6:58:7Z</time></trkpt>
<trkpt lat="48.484038" lon="2.754922"><ele></ele><time>2017-9-19T6:58:10Z</time></trkpt>
<trkpt lat="48.484075" lon="2.754761"><ele></ele><time>2017-9-19T6:58:13Z</time></trkpt>
<trkpt lat="48.484153" lon="2.754557"><ele></ele><time>2017-9-19T6:58:16Z</time></trkpt>
<trkpt lat="48.484205" lon="2.75444"><ele></ele><time>2017-9-19T6:58:19Z</time></trkpt>
<trkpt lat="48.48422" lon="2.754255"><ele></ele><time>2017-9-19T6:58:22Z</time></trkpt>
<trkpt lat="48.484292" lon="2.754056"><ele></ele><time>2017-9-19T6:58:25Z</time></trkpt>
<trkpt lat="48.484356" lon="2.753896"><ele></ele><time>2017-9-19T6:58:28Z</time></trkpt>
<trkpt lat="48.484416" lon="2.753679"><ele></ele><time>2017-9-19T6:58:31Z</time></trkpt>
<trkpt lat="48.484479" lon="2.753506"><ele></ele><time>2017-9-19T6:58:34Z</time></trkpt>
<trkpt lat="48.48453" lon="2.753382"><ele></ele><time>2017-9-19T6:58:37Z</time></trkpt>
<trkpt lat="48.48458" lon="2.753262"><ele></ele><time>2017-9-19T6:58:40Z</time></trkpt>
<trkpt lat="48.484646" lon="2.753147"><ele></ele><time>2017-9-19T6:58:43Z</time></trkpt>
<trkpt lat="48.484739" lon="2.752817"><ele></ele><time>2017-9-19T6:58:46Z</time></trkpt>
<trkpt lat="48.484755" lon="2.752654"><ele></ele><time>2017-9-19T6:58:49Z</time></trkpt>
<trkpt lat="48.484793" lon="2.752522"><ele></ele><time>2017-9-19T6:58:52Z</time></trkpt>
<trkpt lat="48.484837" lon="2.75238"><ele></ele><time>2017-9-19T6:58:55Z</time></trkpt>
<trkpt lat="48.484806" lon="2.752227"><ele></ele><time>2017-9-19T6:58:58Z</time></trkpt>
<trkpt lat="48.484733" lon="2.752067"><ele></ele><time>2017-9-19T6:59:1Z</time></trkpt>
<trkpt lat="48.48467" lon="2.75197"><ele></ele><time>2017-9-19T6:59:4Z</time></trkpt>
<trkpt lat="48.484606" lon="2.751865"><ele></ele><time>2017-9-19T6:59:7Z</time></trkpt>
<trkpt lat="48.484498" lon="2.75169"><ele></ele><time>2017-9-19T6:59:10Z</time></trkpt>
<trkpt lat="48.484409" lon="2.751578"><ele></ele><time>2017-9-19T6:59:13Z</time></trkpt>
<trkpt lat="48.484296" lon="2.751454"><ele></ele><time>2017-9-19T6:59:16Z</time></trkpt>
<trkpt lat="48.484414" lon="2.751471"><ele></ele><time>2017-9-19T6:59:19Z</time></trkpt>
<trkpt lat="48.484521" lon="2.751514"><ele></ele><time>2017-9-19T6:59:22Z</time></trkpt>
<trkpt lat="48.484635" lon="2.751567"><ele></ele><time>2017-9-19T6:59:25Z</time></trkpt>
<trkpt lat="48.484732" lon="2.751591"><ele></ele><time>2017-9-19T6:59:28Z</time></trkpt>
<trkpt lat="48.484831" lon="2.751602"><ele></ele><time>2017-9-19T6:59:31Z</time></trkpt>
<trkpt lat="48.484946" lon="2.751729"><ele></ele><time>2017-9-19T6:59:34Z</time></trkpt>
<trkpt lat="48.485154" lon="2.751835"><ele></ele><time>2017-9-19T6:59:37Z</time></trkpt>
<trkpt lat="48.485262" lon="2.751894"><ele></ele><time>2017-9-19T6:59:40Z</time></trkpt>
<trkpt lat="48.485384" lon="2.751942"><ele></ele><time>2017-9-19T6:59:43Z</time></trkpt>
<trkpt lat="48.485491" lon="2.752006"><ele></ele><time>2017-9-19T6:59:46Z</time></trkpt>
<trkpt lat="48.48561" lon="2.752079"><ele></ele><time>2017-9-19T6:59:49Z</time></trkpt>
<trkpt lat="48.485705" lon="2.752122"><ele></ele><time>2017-9-19T6:59:52Z</time></trkpt>
<trkpt lat="48.485792" lon="2.752171"><ele></ele><time>2017-9-19T6:59:55Z</time></trkpt>
<trkpt lat="48.485921" lon="2.752239"><ele></ele><time>2017-9-19T6:59:58Z</time></trkpt>
<trkpt lat="48.486057" lon="2.75232"><ele></ele><time>2017-9-19T7:0:1Z</time></trkpt>
<trkpt lat="48.486151" lon="2.752383"><ele></ele><time>2017-9-19T7:0:4Z</time></trkpt>
<trkpt lat="48.486303" lon="2.752462"><ele></ele><time>2017-9-19T7:0:7Z</time></trkpt>
<trkpt lat="48.48641" lon="2.752526"><ele></ele><time>2017-9-19T7:0:10Z</time></trkpt>
<trkpt lat="48.486517" lon="2.752576"><ele></ele><time>2017-9-19T7:0:13Z</time></trkpt>
<trkpt lat="48.486614" lon="2.752655"><ele></ele><time>2017-9-19T7:0:16Z</time></trkpt>
<trkpt lat="48.486731" lon="2.752707"><ele></ele><time>2017-9-19T7:0:19Z</time></trkpt>
<trkpt lat="48.486828" lon="2.752756"><ele></ele><time>2017-9-19T7:0:22Z</time></trkpt>
<trkpt lat="48.486924" lon="2.752782"><ele></ele><time>2017-9-19T7:0:25Z</time></trkpt>
<trkpt lat="48.487043" lon="2.752788"><ele></ele><time>2017-9-19T7:0:28Z</time></trkpt>
<trkpt lat="48.487143" lon="2.752767"><ele></ele><time>2017-9-19T7:0:31Z</time></trkpt>
<trkpt lat="48.487251" lon="2.75269"><ele></ele><time>2017-9-19T7:0:34Z</time></trkpt>
<trkpt lat="48.48735" lon="2.752606"><ele></ele><time>2017-9-19T7:0:37Z</time></trkpt>
<trkpt lat="48.487436" lon="2.752508"><ele></ele><time>2017-9-19T7:0:40Z</time></trkpt>
<trkpt lat="48.48757" lon="2.752233"><ele></ele><time>2017-9-19T7:0:43Z</time></trkpt>
<trkpt lat="48.48761" lon="2.752081"><ele></ele><time>2017-9-19T7:0:46Z</time></trkpt>
<trkpt lat="48.487637" lon="2.751901"><ele></ele><time>2017-9-19T7:0:49Z</time></trkpt>
<trkpt lat="48.487632" lon="2.75174"><ele></ele><time>2017-9-19T7:0:52Z</time></trkpt>
<trkpt lat="48.487652" lon="2.751604"><ele></ele><time>2017-9-19T7:0:55Z</time></trkpt>
<trkpt lat="48.487666" lon="2.751456"><ele></ele><time>2017-9-19T7:0:58Z</time></trkpt>
<trkpt lat="48.487687" lon="2.751276"><ele></ele><time>2017-9-19T7:1:1Z</time></trkpt>
<trkpt lat="48.487709" lon="2.751133"><ele></ele><time>2017-9-19T7:1:4Z</time></trkpt>
<trkpt lat="48.487733" lon="2.750959"><ele></ele><time>2017-9-19T7:1:7Z</time></trkpt>
<trkpt lat="48.487809" lon="2.750839"><ele></ele><time>2017-9-19T7:1:10Z</time></trkpt>
<trkpt lat="48.487859" lon="2.750722"><ele></ele><time>2017-9-19T7:1:13Z</time></trkpt>
<trkpt lat="48.487911" lon="2.750575"><ele></ele><time>2017-9-19T7:1:16Z</time></trkpt>
<trkpt lat="48.487948" lon="2.750443"><ele></ele><time>2017-9-19T7:1:19Z</time></trkpt>
<trkpt lat="48.487987" lon="2.750316"><ele></ele><time>2017-9-19T7:1:22Z</time></trkpt>
<trkpt lat="48.488032" lon="2.750154"><ele></ele><time>2017-9-19T7:1:25Z</time></trkpt>
<trkpt lat="48.488071" lon="2.749987"><ele></ele><time>2017-9-19T7:1:28Z</time></trkpt>
<trkpt lat="48.488106" lon="2.749839"><ele></ele><time>2017-9-19T7:1:31Z</time></trkpt>
<trkpt lat="48.488235" lon="2.74956"><ele></ele><time>2017-9-19T7:1:34Z</time></trkpt>
<trkpt lat="48.488322" lon="2.749473"><ele></ele><time>2017-9-19T7:1:37Z</time></trkpt>
<trkpt lat="48.488431" lon="2.749487"><ele></ele><time>2017-9-19T7:1:40Z</time></trkpt>
<trkpt lat="48.488537" lon="2.749539"><ele></ele><time>2017-9-19T7:1:43Z</time></trkpt>
<trkpt lat="48.48863" lon="2.749609"><ele></ele><time>2017-9-19T7:1:46Z</time></trkpt>
<trkpt lat="48.488701" lon="2.749741"><ele></ele><time>2017-9-19T7:1:49Z</time></trkpt>
<trkpt lat="48.488758" lon="2.749846"><ele></ele><time>2017-9-19T7:1:52Z</time></trkpt>
<trkpt lat="48.4888" lon="2.749987"><ele></ele><time>2017-9-19T7:1:55Z</time></trkpt>
<trkpt lat="48.488854" lon="2.750131"><ele></ele><time>2017-9-19T7:1:58Z</time></trkpt>
<trkpt lat="48.488908" lon="2.750267"><ele></ele><time>2017-9-19T7:2:1Z</time></trkpt>
<trkpt lat="48.488883" lon="2.750417"><ele></ele><time>2017-9-19T7:2:4Z</time></trkpt>
<trkpt lat="48.488901" lon="2.750576"><ele></ele><time>2017-9-19T7:2:7Z</time></trkpt>
<trkpt lat="48.488948" lon="2.750728"><ele></ele><time>2017-9-19T7:2:10Z</time></trkpt>
<trkpt lat="48.488994" lon="2.750872"><ele></ele><time>2017-9-19T7:2:13Z</time></trkpt>
<trkpt lat="48.489054" lon="2.751023"><ele></ele><time>2017-9-19T7:2:16Z</time></trkpt>
<trkpt lat="48.489127" lon="2.751313"><ele></ele><time>2017-9-19T7:2:19Z</time></trkpt>
<trkpt lat="48.489127" lon="2.751477"><ele></ele><time>2017-9-19T7:2:22Z</time></trkpt>
<trkpt lat="48.489147" lon="2.751616"><ele></ele><time>2017-9-19T7:2:25Z</time></trkpt>
<trkpt lat="48.489154" lon="2.751757"><ele></ele><time>2017-9-19T7:2:28Z</time></trkpt>
<trkpt lat="48.489186" lon="2.751886"><ele></ele><time>2017-9-19T7:2:31Z</time></trkpt>
<trkpt lat="48.48923" lon="2.752045"><ele></ele><time>2017-9-19T7:2:34Z</time></trkpt>
<trkpt lat="48.489232" lon="2.752216"><ele></ele><time>2017-9-19T7:2:37Z</time></trkpt>
<trkpt lat="48.489254" lon="2.752377"><ele></ele><time>2017-9-19T7:2:40Z</time></trkpt>
<trkpt lat="48.489284" lon="2.75252"><ele></ele><time>2017-9-19T7:2:43Z</time></trkpt>
<trkpt lat="48.489286" lon="2.752665"><ele></ele><time>2017-9-19T7:2:46Z</time></trkpt>
<trkpt lat="48.489295" lon="2.752837"><ele></ele><time>2017-9-19T7:2:49Z</time></trkpt>
<trkpt lat="48.489288" lon="2.753002"><ele></ele><time>2017-9-19T7:2:52Z</time></trkpt>
<trkpt lat="48.489284" lon="2.753151"><ele></ele><time>2017-9-19T7:2:55Z</time></trkpt>
<trkpt lat="48.48928" lon="2.753296"><ele></ele><time>2017-9-19T7:2:58Z</time></trkpt>
<trkpt lat="48.489269" lon="2.753453"><ele></ele><time>2017-9-19T7:3:1Z</time></trkpt>
<trkpt lat="48.48926" lon="2.753631"><ele></ele><time>2017-9-19T7:3:4Z</time></trkpt>
<trkpt lat="48.489253" lon="2.754013"><ele></ele><time>2017-9-19T7:3:7Z</time></trkpt>
<trkpt lat="48.489257" lon="2.754156"><ele></ele><time>2017-9-19T7:3:10Z</time></trkpt>
<trkpt lat="48.489235" lon="2.754367"><ele></ele><time>2017-9-19T7:3:13Z</time></trkpt>
<trkpt lat="48.489223" lon="2.754504"><ele></ele><time>2017-9-19T7:3:16Z</time></trkpt>
<trkpt lat="48.489216" lon="2.754662"><ele></ele><time>2017-9-19T7:3:19Z</time></trkpt>
<trkpt lat="48.489205" lon="2.754805"><ele></ele><time>2017-9-19T7:3:22Z</time></trkpt>
<trkpt lat="48.489194" lon="2.754941"><ele></ele><time>2017-9-19T7:3:25Z</time></trkpt>
<trkpt lat="48.489191" lon="2.75508"><ele></ele><time>2017-9-19T7:3:28Z</time></trkpt>
<trkpt lat="48.489176" lon="2.755224"><ele></ele><time>2017-9-19T7:3:31Z</time></trkpt>
<trkpt lat="48.489149" lon="2.755404"><ele></ele><time>2017-9-19T7:3:34Z</time></trkpt>
<trkpt lat="48.489141" lon="2.755553"><ele></ele><time>2017-9-19T7:3:37Z</time></trkpt>
<trkpt lat="48.489137" lon="2.755704"><ele></ele><time>2017-9-19T7:3:40Z</time></trkpt>
<trkpt lat="48.489132" lon="2.755852"><ele></ele><time>2017-9-19T7:3:43Z</time></trkpt>
<trkpt lat="48.489157" lon="2.755986"><ele></ele><time>2017-9-19T7:3:46Z</time></trkpt>
<trkpt lat="48.489194" lon="2.756206"><ele></ele><time>2017-9-19T7:3:49Z</time></trkpt>
<trkpt lat="48.489296" lon="2.75635"><ele></ele><time>2017-9-19T7:3:52Z</time></trkpt>
<trkpt lat="48.489378" lon="2.75644"><ele></ele><time>2017-9-19T7:3:55Z</time></trkpt>
<trkpt lat="48.489461" lon="2.756519"><ele></ele><time>2017-9-19T7:3:58Z</time></trkpt>
<trkpt lat="48.489573" lon="2.756651"><ele></ele><time>2017-9-19T7:4:1Z</time></trkpt>
<trkpt lat="48.48966" lon="2.756759"><ele></ele><time>2017-9-19T7:4:4Z</time></trkpt>
<trkpt lat="48.489725" lon="2.756856"><ele></ele><time>2017-9-19T7:4:7Z</time></trkpt>
<trkpt lat="48.489783" lon="2.756966"><ele></ele><time>2017-9-19T7:4:10Z</time></trkpt>
<trkpt lat="48.489866" lon="2.757113"><ele></ele><time>2017-9-19T7:4:13Z</time></trkpt>
<trkpt lat="48.489954" lon="2.757276"><ele></ele><time>2017-9-19T7:4:16Z</time></trkpt>
<trkpt lat="48.490006" lon="2.757413"><ele></ele><time>2017-9-19T7:4:19Z</time></trkpt>
<trkpt lat="48.490093" lon="2.757798"><ele></ele><time>2017-9-19T7:4:22Z</time></trkpt>
<trkpt lat="48.490129" lon="2.757936"><ele></ele><time>2017-9-19T7:4:25Z</time></trkpt>
<trkpt lat="48.490169" lon="2.75808"><ele></ele><time>2017-9-19T7:4:28Z</time></trkpt>
<trkpt lat="48.49019" lon="2.758242"><ele></ele><time>2017-9-19T7:4:31Z</time></trkpt>
<trkpt lat="48.490204" lon="2.758413"><ele></ele><time>2017-9-19T7:4:34Z</time></trkpt>
<trkpt lat="48.490224" lon="2.758555"><ele></ele><time>2017-9-19T7:4:37Z</time></trkpt>
<trkpt lat="48.490257" lon="2.758688"><ele></ele><time>2017-9-19T7:4:40Z</time></trkpt>
<trkpt lat="48.490303" lon="2.758874"><ele></ele><time>2017-9-19T7:4:43Z</time></trkpt>
<trkpt lat="48.490346" lon="2.759062"><ele></ele><time>2017-9-19T7:4:46Z</time></trkpt>
<trkpt lat="48.490412" lon="2.759181"><ele></ele><time>2017-9-19T7:4:49Z</time></trkpt>
<trkpt lat="48.490468" lon="2.759294"><ele></ele><time>2017-9-19T7:4:52Z</time></trkpt>
<trkpt lat="48.490522" lon="2.759427"><ele></ele><time>2017-9-19T7:4:55Z</time></trkpt>
<trkpt lat="48.490627" lon="2.759574"><ele></ele><time>2017-9-19T7:4:58Z</time></trkpt>
<trkpt lat="48.490703" lon="2.759655"><ele></ele><time>2017-9-19T7:5:1Z</time></trkpt>
<trkpt lat="48.490806" lon="2.759763"><ele></ele><time>2017-9-19T7:5:4Z</time></trkpt>
<trkpt lat="48.4909" lon="2.759867"><ele></ele><time>2017-9-19T7:5:7Z</time></trkpt>
<trkpt lat="48.49098" lon="2.759941"><ele></ele><time>2017-9-19T7:5:10Z</time></trkpt>
<trkpt lat="48.491087" lon="2.760073"><ele></ele><time>2017-9-19T7:5:13Z</time></trkpt>
<trkpt lat="48.491156" lon="2.760179"><ele></ele><time>2017-9-19T7:5:16Z</time></trkpt>
<trkpt lat="48.491222" lon="2.760288"><ele></ele><time>2017-9-19T7:5:19Z</time></trkpt>
<trkpt lat="48.491282" lon="2.760397"><ele></ele><time>2017-9-19T7:5:22Z</time></trkpt>
<trkpt lat="48.491364" lon="2.760563"><ele></ele><time>2017-9-19T7:5:25Z</time></trkpt>
<trkpt lat="48.49142" lon="2.760694"><ele></ele><time>2017-9-19T7:5:28Z</time></trkpt>
<trkpt lat="48.491475" lon="2.760811"><ele></ele><time>2017-9-19T7:5:31Z</time></trkpt>
<trkpt lat="48.491512" lon="2.760956"><ele></ele><time>2017-9-19T7:5:34Z</time></trkpt>
<trkpt lat="48.491631" lon="2.761273"><ele></ele><time>2017-9-19T7:5:37Z</time></trkpt>
<trkpt lat="48.491685" lon="2.761389"><ele></ele><time>2017-9-19T7:5:40Z</time></trkpt>
<trkpt lat="48.491746" lon="2.76154"><ele></ele><time>2017-9-19T7:5:43Z</time></trkpt>
<trkpt lat="48.491837" lon="2.761748"><ele></ele><time>2017-9-19T7:5:46Z</time></trkpt>
<trkpt lat="48.491888" lon="2.761893"><ele></ele><time>2017-9-19T7:5:49Z</time></trkpt>
<trkpt lat="48.491947" lon="2.76201"><ele></ele><time>2017-9-19T7:5:52Z</time></trkpt>
<trkpt lat="48.492041" lon="2.762277"><ele></ele><time>2017-9-19T7:5:55Z</time></trkpt>
<trkpt lat="48.492122" lon="2.762447"><ele></ele><time>2017-9-19T7:5:58Z</time></trkpt>
<trkpt lat="48.492216" lon="2.7627"><ele></ele><time>2017-9-19T7:6:1Z</time></trkpt>
<trkpt lat="48.492259" lon="2.762857"><ele></ele><time>2017-9-19T7:6:4Z</time></trkpt>
<trkpt lat="48.492326" lon="2.763073"><ele></ele><time>2017-9-19T7:6:7Z</time></trkpt>
<trkpt lat="48.492356" lon="2.763375"><ele></ele><time>2017-9-19T7:6:10Z</time></trkpt>
<trkpt lat="48.492383" lon="2.763543"><ele></ele><time>2017-9-19T7:6:13Z</time></trkpt>
<trkpt lat="48.492419" lon="2.763696"><ele></ele><time>2017-9-19T7:6:16Z</time></trkpt>
<trkpt lat="48.492437" lon="2.76385"><ele></ele><time>2017-9-19T7:6:19Z</time></trkpt>
<trkpt lat="48.492469" lon="2.763993"><ele></ele><time>2017-9-19T7:6:22Z</time></trkpt>
<trkpt lat="48.492489" lon="2.764134"><ele></ele><time>2017-9-19T7:6:25Z</time></trkpt>
<trkpt lat="48.492516" lon="2.764282"><ele></ele><time>2017-9-19T7:6:28Z</time></trkpt>
<trkpt lat="48.492541" lon="2.76444"><ele></ele><time>2017-9-19T7:6:31Z</time></trkpt>
<trkpt lat="48.492572" lon="2.764579"><ele></ele><time>2017-9-19T7:6:34Z</time></trkpt>
<trkpt lat="48.492602" lon="2.764726"><ele></ele><time>2017-9-19T7:6:37Z</time></trkpt>
<trkpt lat="48.492629" lon="2.764921"><ele></ele><time>2017-9-19T7:6:40Z</time></trkpt>
<trkpt lat="48.492652" lon="2.765114"><ele></ele><time>2017-9-19T7:6:43Z</time></trkpt>
<trkpt lat="48.492693" lon="2.765298"><ele></ele><time>2017-9-19T7:6:46Z</time></trkpt>
<trkpt lat="48.492743" lon="2.765592"><ele></ele><time>2017-9-19T7:6:49Z</time></trkpt>
<trkpt lat="48.492768" lon="2.765746"><ele></ele><time>2017-9-19T7:6:52Z</time></trkpt>
<trkpt lat="48.492788" lon="2.765888"><ele></ele><time>2017-9-19T7:6:55Z</time></trkpt>
<trkpt lat="48.492819" lon="2.766026"><ele></ele><time>2017-9-19T7:6:58Z</time></trkpt>
<trkpt lat="48.492848" lon="2.76618"><ele></ele><time>2017-9-19T7:7:1Z</time></trkpt>
<trkpt lat="48.492869" lon="2.766336"><ele></ele><time>2017-9-19T7:7:4Z</time></trkpt>
<trkpt lat="48.49289" lon="2.766481"><ele></ele><time>2017-9-19T7:7:7Z</time></trkpt>
<trkpt lat="48.492915" lon="2.766632"><ele></ele><time>2017-9-19T7:7:10Z</time></trkpt>
<trkpt lat="48.492947" lon="2.76678"><ele></ele><time>2017-9-19T7:7:13Z</time></trkpt>
<trkpt lat="48.492969" lon="2.766934"><ele></ele><time>2017-9-19T7:7:16Z</time></trkpt>
<trkpt lat="48.49299" lon="2.767098"><ele></ele><time>2017-9-19T7:7:19Z</time></trkpt>
<trkpt lat="48.493014" lon="2.767256"><ele></ele><time>2017-9-19T7:7:22Z</time></trkpt>
<trkpt lat="48.493029" lon="2.767423"><ele></ele><time>2017-9-19T7:7:25Z</time></trkpt>
<trkpt lat="48.493049" lon="2.767587"><ele></ele><time>2017-9-19T7:7:28Z</time></trkpt>
<trkpt lat="48.493075" lon="2.767755"><ele></ele><time>2017-9-19T7:7:31Z</time></trkpt>
<trkpt lat="48.493094" lon="2.76791"><ele></ele><time>2017-9-19T7:7:34Z</time></trkpt>
<trkpt lat="48.493103" lon="2.768048"><ele></ele><time>2017-9-19T7:7:37Z</time></trkpt>
<trkpt lat="48.493112" lon="2.768194"><ele></ele><time>2017-9-19T7:7:40Z</time></trkpt>
<trkpt lat="48.493128" lon="2.768365"><ele></ele><time>2017-9-19T7:7:43Z</time></trkpt>
<trkpt lat="48.493135" lon="2.768519"><ele></ele><time>2017-9-19T7:7:46Z</time></trkpt>
<trkpt lat="48.493147" lon="2.768659"><ele></ele><time>2017-9-19T7:7:49Z</time></trkpt>
<trkpt lat="48.493142" lon="2.768801"><ele></ele><time>2017-9-19T7:7:52Z</time></trkpt>
<trkpt lat="48.493136" lon="2.768963"><ele></ele><time>2017-9-19T7:7:55Z</time></trkpt>
<trkpt lat="48.493151" lon="2.769113"><ele></ele><time>2017-9-19T7:7:58Z</time></trkpt>
<trkpt lat="48.493167" lon="2.76927"><ele></ele><time>2017-9-19T7:8:1Z</time></trkpt>
<trkpt lat="48.493172" lon="2.769432"><ele></ele><time>2017-9-19T7:8:4Z</time></trkpt>
<trkpt lat="48.493181" lon="2.769593"><ele></ele><time>2017-9-19T7:8:7Z</time></trkpt>
<trkpt lat="48.493194" lon="2.769768"><ele></ele><time>2017-9-19T7:8:10Z</time></trkpt>
<trkpt lat="48.493215" lon="2.769917"><ele></ele><time>2017-9-19T7:8:13Z</time></trkpt>
<trkpt lat="48.493231" lon="2.770071"><ele></ele><time>2017-9-19T7:8:16Z</time></trkpt>
<trkpt lat="48.493291" lon="2.770348"><ele></ele><time>2017-9-19T7:8:19Z</time></trkpt>
<trkpt lat="48.493281" lon="2.77052"><ele></ele><time>2017-9-19T7:8:22Z</time></trkpt>
<trkpt lat="48.493286" lon="2.770689"><ele></ele><time>2017-9-19T7:8:25Z</time></trkpt>
<trkpt lat="48.493341" lon="2.770855"><ele></ele><time>2017-9-19T7:8:28Z</time></trkpt>
<trkpt lat="48.493407" lon="2.771072"><ele></ele><time>2017-9-19T7:8:31Z</time></trkpt>
<trkpt lat="48.493458" lon="2.771221"><ele></ele><time>2017-9-19T7:8:34Z</time></trkpt>
<trkpt lat="48.493503" lon="2.771376"><ele></ele><time>2017-9-19T7:8:37Z</time></trkpt>
<trkpt lat="48.493558" lon="2.771507"><ele></ele><time>2017-9-19T7:8:40Z</time></trkpt>
<trkpt lat="48.493614" lon="2.771638"><ele></ele><time>2017-9-19T7:8:43Z</time></trkpt>
<trkpt lat="48.493661" lon="2.771771"><ele></ele><time>2017-9-19T7:8:46Z</time></trkpt>
<trkpt lat="48.493725" lon="2.77191"><ele></ele><time>2017-9-19T7:8:49Z</time></trkpt>
<trkpt lat="48.493768" lon="2.772046"><ele></ele><time>2017-9-19T7:8:52Z</time></trkpt>
<trkpt lat="48.493813" lon="2.772175"><ele></ele><time>2017-9-19T7:8:55Z</time></trkpt>
<trkpt lat="48.493867" lon="2.772314"><ele></ele><time>2017-9-19T7:8:58Z</time></trkpt>
<trkpt lat="48.493924" lon="2.772435"><ele></ele><time>2017-9-19T7:9:1Z</time></trkpt>
<trkpt lat="48.493979" lon="2.772555"><ele></ele><time>2017-9-19T7:9:4Z</time></trkpt>
<trkpt lat="48.494018" lon="2.772679"><ele></ele><time>2017-9-19T7:9:7Z</time></trkpt>
<trkpt lat="48.494067" lon="2.772824"><ele></ele><time>2017-9-19T7:9:10Z</time></trkpt>
<trkpt lat="48.494129" lon="2.772988"><ele></ele><time>2017-9-19T7:9:13Z</time></trkpt>
<trkpt lat="48.494202" lon="2.773165"><ele></ele><time>2017-9-19T7:9:16Z</time></trkpt>
<trkpt lat="48.494247" lon="2.773308"><ele></ele><time>2017-9-19T7:9:19Z</time></trkpt>
<trkpt lat="48.494291" lon="2.773427"><ele></ele><time>2017-9-19T7:9:22Z</time></trkpt>
<trkpt lat="48.494357" lon="2.773597"><ele></ele><time>2017-9-19T7:9:25Z</time></trkpt>
<trkpt lat="48.494416" lon="2.773718"><ele></ele><time>2017-9-19T7:9:28Z</time></trkpt>
<trkpt lat="48.494463" lon="2.773835"><ele></ele><time>2017-9-19T7:9:31Z</time></trkpt>
<trkpt lat="48.494503" lon="2.773977"><ele></ele><time>2017-9-19T7:9:34Z</time></trkpt>
<trkpt lat="48.494553" lon="2.77412"><ele></ele><time>2017-9-19T7:9:37Z</time></trkpt>
<trkpt lat="48.494664" lon="2.774437"><ele></ele><time>2017-9-19T7:9:40Z</time></trkpt>
<trkpt lat="48.494716" lon="2.774572"><ele></ele><time>2017-9-19T7:9:43Z</time></trkpt>
<trkpt lat="48.494765" lon="2.774701"><ele></ele><time>2017-9-19T7:9:46Z</time></trkpt>
<trkpt lat="48.494818" lon="2.774825"><ele></ele><time>2017-9-19T7:9:49Z</time></trkpt>
<trkpt lat="48.494897" lon="2.775001"><ele></ele><time>2017-9-19T7:9:52Z</time></trkpt>
<trkpt lat="48.494959" lon="2.77513"><ele></ele><time>2017-9-19T7:9:55Z</time></trkpt>
<trkpt lat="48.495023" lon="2.775253"><ele></ele><time>2017-9-19T7:9:58Z</time></trkpt>
<trkpt lat="48.49509" lon="2.775379"><ele></ele><time>2017-9-19T7:10:1Z</time></trkpt>
<trkpt lat="48.495153" lon="2.775512"><ele></ele><time>2017-9-19T7:10:4Z</time></trkpt>
<trkpt lat="48.495222" lon="2.775637"><ele></ele><time>2017-9-19T7:10:7Z</time></trkpt>
<trkpt lat="48.4953" lon="2.775752"><ele></ele><time>2017-9-19T7:10:10Z</time></trkpt>
<trkpt lat="48.49537" lon="2.775856"><ele></ele><time>2017-9-19T7:10:13Z</time></trkpt>
<trkpt lat="48.49547" lon="2.776049"><ele></ele><time>2017-9-19T7:10:16Z</time></trkpt>
<trkpt lat="48.495548" lon="2.776165"><ele></ele><time>2017-9-19T7:10:19Z</time></trkpt>
<trkpt lat="48.495662" lon="2.776324"><ele></ele><time>2017-9-19T7:10:22Z</time></trkpt>
<trkpt lat="48.495731" lon="2.776432"><ele></ele><time>2017-9-19T7:10:25Z</time></trkpt>
<trkpt lat="48.495859" lon="2.776632"><ele></ele><time>2017-9-19T7:10:28Z</time></trkpt>
<trkpt lat="48.495946" lon="2.776806"><ele></ele><time>2017-9-19T7:10:31Z</time></trkpt>
<trkpt lat="48.496063" lon="2.776978"><ele></ele><time>2017-9-19T7:10:34Z</time></trkpt>
<trkpt lat="48.496183" lon="2.777129"><ele></ele><time>2017-9-19T7:10:37Z</time></trkpt>
<trkpt lat="48.496252" lon="2.77725"><ele></ele><time>2017-9-19T7:10:40Z</time></trkpt>
<trkpt lat="48.496345" lon="2.77737"><ele></ele><time>2017-9-19T7:10:43Z</time></trkpt>
<trkpt lat="48.496408" lon="2.77751"><ele></ele><time>2017-9-19T7:10:46Z</time></trkpt>
<trkpt lat="48.496493" lon="2.777654"><ele></ele><time>2017-9-19T7:10:49Z</time></trkpt>
<trkpt lat="48.496566" lon="2.777777"><ele></ele><time>2017-9-19T7:10:52Z</time></trkpt>
<trkpt lat="48.496647" lon="2.777895"><ele></ele><time>2017-9-19T7:10:55Z</time></trkpt>
<trkpt lat="48.496746" lon="2.77803"><ele></ele><time>2017-9-19T7:10:58Z</time></trkpt>
<trkpt lat="48.496913" lon="2.77829"><ele></ele><time>2017-9-19T7:11:1Z</time></trkpt>
<trkpt lat="48.497001" lon="2.778422"><ele></ele><time>2017-9-19T7:11:4Z</time></trkpt>
<trkpt lat="48.497088" lon="2.778564"><ele></ele><time>2017-9-19T7:11:7Z</time></trkpt>
<trkpt lat="48.497175" lon="2.778706"><ele></ele><time>2017-9-19T7:11:10Z</time></trkpt>
<trkpt lat="48.497259" lon="2.778863"><ele></ele><time>2017-9-19T7:11:13Z</time></trkpt>
<trkpt lat="48.497336" lon="2.77903"><ele></ele><time>2017-9-19T7:11:16Z</time></trkpt>
<trkpt lat="48.497408" lon="2.779195"><ele></ele><time>2017-9-19T7:11:19Z</time></trkpt>
<trkpt lat="48.49748" lon="2.779343"><ele></ele><time>2017-9-19T7:11:22Z</time></trkpt>
<trkpt lat="48.497553" lon="2.779473"><ele></ele><time>2017-9-19T7:11:25Z</time></trkpt>
<trkpt lat="48.497641" lon="2.779591"><ele></ele><time>2017-9-19T7:11:28Z</time></trkpt>
<trkpt lat="48.497735" lon="2.779705"><ele></ele><time>2017-9-19T7:11:31Z</time></trkpt>
<trkpt lat="48.497738" lon="2.779877"><ele></ele><time>2017-9-19T7:11:34Z</time></trkpt>
<trkpt lat="48.497773" lon="2.780049"><ele></ele><time>2017-9-19T7:11:37Z</time></trkpt>
<trkpt lat="48.497824" lon="2.780213"><ele></ele><time>2017-9-19T7:11:40Z</time></trkpt>
<trkpt lat="48.497887" lon="2.78039"><ele></ele><time>2017-9-19T7:11:43Z</time></trkpt>
<trkpt lat="48.497957" lon="2.780531"><ele></ele><time>2017-9-19T7:11:46Z</time></trkpt>
<trkpt lat="48.49804" lon="2.780702"><ele></ele><time>2017-9-19T7:11:49Z</time></trkpt>
<trkpt lat="48.498108" lon="2.780878"><ele></ele><time>2017-9-19T7:11:52Z</time></trkpt>
<trkpt lat="48.498178" lon="2.781051"><ele></ele><time>2017-9-19T7:11:55Z</time></trkpt>
<trkpt lat="48.498248" lon="2.781234"><ele></ele><time>2017-9-19T7:11:58Z</time></trkpt>
<trkpt lat="48.49833" lon="2.781419"><ele></ele><time>2017-9-19T7:12:1Z</time></trkpt>
<trkpt lat="48.498402" lon="2.781617"><ele></ele><time>2017-9-19T7:12:4Z</time></trkpt>
<trkpt lat="48.498483" lon="2.78179"><ele></ele><time>2017-9-19T7:12:7Z</time></trkpt>
<trkpt lat="48.498556" lon="2.781953"><ele></ele><time>2017-9-19T7:12:10Z</time></trkpt>
<trkpt lat="48.498651" lon="2.782207"><ele></ele><time>2017-9-19T7:12:13Z</time></trkpt>
<trkpt lat="48.498718" lon="2.782373"><ele></ele><time>2017-9-19T7:12:16Z</time></trkpt>
<trkpt lat="48.49878" lon="2.782527"><ele></ele><time>2017-9-19T7:12:19Z</time></trkpt>
<trkpt lat="48.498846" lon="2.782683"><ele></ele><time>2017-9-19T7:12:22Z</time></trkpt>
<trkpt lat="48.49891" lon="2.782825"><ele></ele><time>2017-9-19T7:12:25Z</time></trkpt>
<trkpt lat="48.499048" lon="2.783136"><ele></ele><time>2017-9-19T7:12:28Z</time></trkpt>
<trkpt lat="48.499108" lon="2.783275"><ele></ele><time>2017-9-19T7:12:31Z</time></trkpt>
<trkpt lat="48.499189" lon="2.783412"><ele></ele><time>2017-9-19T7:12:34Z</time></trkpt>
<trkpt lat="48.499264" lon="2.783555"><ele></ele><time>2017-9-19T7:12:37Z</time></trkpt>
<trkpt lat="48.499351" lon="2.783667"><ele></ele><time>2017-9-19T7:12:40Z</time></trkpt>
<trkpt lat="48.499439" lon="2.783779"><ele></ele><time>2017-9-19T7:12:43Z</time></trkpt>
<trkpt lat="48.499532" lon="2.783876"><ele></ele><time>2017-9-19T7:12:46Z</time></trkpt>
<trkpt lat="48.499612" lon="2.783975"><ele></ele><time>2017-9-19T7:12:49Z</time></trkpt>
<trkpt lat="48.499692" lon="2.784066"><ele></ele><time>2017-9-19T7:12:52Z</time></trkpt>
<trkpt lat="48.499772" lon="2.784165"><ele></ele><time>2017-9-19T7:12:55Z</time></trkpt>
<trkpt lat="48.499853" lon="2.784265"><ele></ele><time>2017-9-19T7:12:58Z</time></trkpt>
<trkpt lat="48.499946" lon="2.784391"><ele></ele><time>2017-9-19T7:13:1Z</time></trkpt>
<trkpt lat="48.500007" lon="2.784525"><ele></ele><time>2017-9-19T7:13:4Z</time></trkpt>
<trkpt lat="48.500078" lon="2.78467"><ele></ele><time>2017-9-19T7:13:7Z</time></trkpt>
<trkpt lat="48.500141" lon="2.784813"><ele></ele><time>2017-9-19T7:13:10Z</time></trkpt>
<trkpt lat="48.500209" lon="2.784954"><ele></ele><time>2017-9-19T7:13:13Z</time></trkpt>
<trkpt lat="48.500271" lon="2.78509"><ele></ele><time>2017-9-19T7:13:16Z</time></trkpt>
<trkpt lat="48.500336" lon="2.785218"><ele></ele><time>2017-9-19T7:13:19Z</time></trkpt>
<trkpt lat="48.500391" lon="2.785359"><ele></ele><time>2017-9-19T7:13:22Z</time></trkpt>
<trkpt lat="48.500455" lon="2.785487"><ele></ele><time>2017-9-19T7:13:25Z</time></trkpt>
<trkpt lat="48.500524" lon="2.785604"><ele></ele><time>2017-9-19T7:13:28Z</time></trkpt>
<trkpt lat="48.50063" lon="2.78579"><ele></ele><time>2017-9-19T7:13:31Z</time></trkpt>
<trkpt lat="48.500699" lon="2.785907"><ele></ele><time>2017-9-19T7:13:34Z</time></trkpt>
<trkpt lat="48.500792" lon="2.786112"><ele></ele><time>2017-9-19T7:13:37Z</time></trkpt>
<trkpt lat="48.500879" lon="2.78633"><ele></ele><time>2017-9-19T7:13:40Z</time></trkpt>
<trkpt lat="48.50093" lon="2.786468"><ele></ele><time>2017-9-19T7:13:43Z</time></trkpt>
<trkpt lat="48.500975" lon="2.786622"><ele></ele><time>2017-9-19T7:13:46Z</time></trkpt>
<trkpt lat="48.501012" lon="2.786774"><ele></ele><time>2017-9-19T7:13:49Z</time></trkpt>
<trkpt lat="48.50111" lon="2.78706"><ele></ele><time>2017-9-19T7:13:52Z</time></trkpt>
<trkpt lat="48.501156" lon="2.787201"><ele></ele><time>2017-9-19T7:13:55Z</time></trkpt>
<trkpt lat="48.501198" lon="2.787344"><ele></ele><time>2017-9-19T7:13:58Z</time></trkpt>
<trkpt lat="48.501242" lon="2.78749"><ele></ele><time>2017-9-19T7:14:1Z</time></trkpt>
<trkpt lat="48.501283" lon="2.787632"><ele></ele><time>2017-9-19T7:14:4Z</time></trkpt>
<trkpt lat="48.501296" lon="2.78779"><ele></ele><time>2017-9-19T7:14:7Z</time></trkpt>
<trkpt lat="48.501353" lon="2.787924"><ele></ele><time>2017-9-19T7:14:10Z</time></trkpt>
<trkpt lat="48.501412" lon="2.788045"><ele></ele><time>2017-9-19T7:14:13Z</time></trkpt>
<trkpt lat="48.501485" lon="2.788149"><ele></ele><time>2017-9-19T7:14:16Z</time></trkpt>
<trkpt lat="48.501582" lon="2.788289"><ele></ele><time>2017-9-19T7:14:19Z</time></trkpt>
<trkpt lat="48.501652" lon="2.788376"><ele></ele><time>2017-9-19T7:14:22Z</time></trkpt>
<trkpt lat="48.501762" lon="2.788488"><ele></ele><time>2017-9-19T7:14:25Z</time></trkpt>
<trkpt lat="48.501872" lon="2.788589"><ele></ele><time>2017-9-19T7:14:28Z</time></trkpt>
<trkpt lat="48.501998" lon="2.788672"><ele></ele><time>2017-9-19T7:14:31Z</time></trkpt>
<trkpt lat="48.502088" lon="2.788756"><ele></ele><time>2017-9-19T7:14:34Z</time></trkpt>
<trkpt lat="48.502173" lon="2.788849"><ele></ele><time>2017-9-19T7:14:37Z</time></trkpt>
<trkpt lat="48.502264" lon="2.78896"><ele></ele><time>2017-9-19T7:14:40Z</time></trkpt>
<trkpt lat="48.502336" lon="2.789082"><ele></ele><time>2017-9-19T7:14:43Z</time></trkpt>
<trkpt lat="48.50241" lon="2.789199"><ele></ele><time>2017-9-19T7:14:46Z</time></trkpt>
<trkpt lat="48.502485" lon="2.789311"><ele></ele><time>2017-9-19T7:14:49Z</time></trkpt>
<trkpt lat="48.502564" lon="2.789436"><ele></ele><time>2017-9-19T7:14:52Z</time></trkpt>
<trkpt lat="48.502649" lon="2.789551"><ele></ele><time>2017-9-19T7:14:55Z</time></trkpt>
<trkpt lat="48.502725" lon="2.789663"><ele></ele><time>2017-9-19T7:14:58Z</time></trkpt>
<trkpt lat="48.502799" lon="2.789793"><ele></ele><time>2017-9-19T7:15:1Z</time></trkpt>
<trkpt lat="48.502865" lon="2.789937"><ele></ele><time>2017-9-19T7:15:4Z</time></trkpt>
<trkpt lat="48.502934" lon="2.790061"><ele></ele><time>2017-9-19T7:15:7Z</time></trkpt>
<trkpt lat="48.503011" lon="2.790184"><ele></ele><time>2017-9-19T7:15:10Z</time></trkpt>
<trkpt lat="48.503093" lon="2.79029"><ele></ele><time>2017-9-19T7:15:13Z</time></trkpt>
<trkpt lat="48.50325" lon="2.790528"><ele></ele><time>2017-9-19T7:15:16Z</time></trkpt>
<trkpt lat="48.503323" lon="2.790642"><ele></ele><time>2017-9-19T7:15:19Z</time></trkpt>
<trkpt lat="48.5034" lon="2.790766"><ele></ele><time>2017-9-19T7:15:22Z</time></trkpt>
<trkpt lat="48.50347" lon="2.790892"><ele></ele><time>2017-9-19T7:15:25Z</time></trkpt>
<trkpt lat="48.503535" lon="2.791022"><ele></ele><time>2017-9-19T7:15:28Z</time></trkpt>
<trkpt lat="48.503625" lon="2.791214"><ele></ele><time>2017-9-19T7:15:31Z</time></trkpt>
<trkpt lat="48.503684" lon="2.791362"><ele></ele><time>2017-9-19T7:15:34Z</time></trkpt>
<trkpt lat="48.503742" lon="2.791511"><ele></ele><time>2017-9-19T7:15:37Z</time></trkpt>
<trkpt lat="48.503801" lon="2.791669"><ele></ele><time>2017-9-19T7:15:40Z</time></trkpt>
<trkpt lat="48.503856" lon="2.791795"><ele></ele><time>2017-9-19T7:15:43Z</time></trkpt>
<trkpt lat="48.503913" lon="2.791923"><ele></ele><time>2017-9-19T7:15:46Z</time></trkpt>
<trkpt lat="48.503951" lon="2.792057"><ele></ele><time>2017-9-19T7:15:49Z</time></trkpt>
<trkpt lat="48.504009" lon="2.792224"><ele></ele><time>2017-9-19T7:15:52Z</time></trkpt>
<trkpt lat="48.504068" lon="2.79237"><ele></ele><time>2017-9-19T7:15:55Z</time></trkpt>
<trkpt lat="48.504055" lon="2.792527"><ele></ele><time>2017-9-19T7:15:58Z</time></trkpt>
<trkpt lat="48.504068" lon="2.792674"><ele></ele><time>2017-9-19T7:16:1Z</time></trkpt>
<trkpt lat="48.503991" lon="2.792974"><ele></ele><time>2017-9-19T7:16:4Z</time></trkpt>
<trkpt lat="48.503845" lon="2.793173"><ele></ele><time>2017-9-19T7:16:7Z</time></trkpt>
<trkpt lat="48.503738" lon="2.793301"><ele></ele><time>2017-9-19T7:16:10Z</time></trkpt>
<trkpt lat="48.503636" lon="2.79345"><ele></ele><time>2017-9-19T7:16:13Z</time></trkpt>
<trkpt lat="48.503518" lon="2.793583"><ele></ele><time>2017-9-19T7:16:16Z</time></trkpt>
<trkpt lat="48.503391" lon="2.793728"><ele></ele><time>2017-9-19T7:16:19Z</time></trkpt>
<trkpt lat="48.50326" lon="2.793894"><ele></ele><time>2017-9-19T7:16:22Z</time></trkpt>
<trkpt lat="48.503126" lon="2.794057"><ele></ele><time>2017-9-19T7:16:25Z</time></trkpt>
<trkpt lat="48.503006" lon="2.794239"><ele></ele><time>2017-9-19T7:16:28Z</time></trkpt>
<trkpt lat="48.502909" lon="2.794391"><ele></ele><time>2017-9-19T7:16:31Z</time></trkpt>
<trkpt lat="48.502786" lon="2.794475"><ele></ele><time>2017-9-19T7:16:34Z</time></trkpt>
<trkpt lat="48.502694" lon="2.794469"><ele></ele><time>2017-9-19T7:16:37Z</time></trkpt>
<trkpt lat="48.502489" lon="2.794523"><ele></ele><time>2017-9-19T7:16:40Z</time></trkpt>
<trkpt lat="48.502374" lon="2.794491"><ele></ele><time>2017-9-19T7:16:43Z</time></trkpt>
<trkpt lat="48.502278" lon="2.794446"><ele></ele><time>2017-9-19T7:16:46Z</time></trkpt>
<trkpt lat="48.502178" lon="2.794404"><ele></ele><time>2017-9-19T7:16:49Z</time></trkpt>
<trkpt lat="48.502061" lon="2.794402"><ele></ele><time>2017-9-19T7:16:52Z</time></trkpt>
<trkpt lat="48.50192" lon="2.794339"><ele></ele><time>2017-9-19T7:16:55Z</time></trkpt>
<trkpt lat="48.501828" lon="2.794301"><ele></ele><time>2017-9-19T7:16:58Z</time></trkpt>
<trkpt lat="48.501718" lon="2.794287"><ele></ele><time>2017-9-19T7:17:1Z</time></trkpt>
<trkpt lat="48.501627" lon="2.794244"><ele></ele><time>2017-9-19T7:17:4Z</time></trkpt>
<trkpt lat="48.501513" lon="2.794235"><ele></ele><time>2017-9-19T7:17:7Z</time></trkpt>
<trkpt lat="48.501302" lon="2.794256"><ele></ele><time>2017-9-19T7:17:10Z</time></trkpt>
<trkpt lat="48.501209" lon="2.794273"><ele></ele><time>2017-9-19T7:17:13Z</time></trkpt>
<trkpt lat="48.501099" lon="2.794283"><ele></ele><time>2017-9-19T7:17:16Z</time></trkpt>
<trkpt lat="48.500989" lon="2.794291"><ele></ele><time>2017-9-19T7:17:19Z</time></trkpt>
<trkpt lat="48.500875" lon="2.794305"><ele></ele><time>2017-9-19T7:17:22Z</time></trkpt>
<trkpt lat="48.500764" lon="2.794277"><ele></ele><time>2017-9-19T7:17:25Z</time></trkpt>
<trkpt lat="48.500651" lon="2.794217"><ele></ele><time>2017-9-19T7:17:28Z</time></trkpt>
<trkpt lat="48.500532" lon="2.79415"><ele></ele><time>2017-9-19T7:17:31Z</time></trkpt>
<trkpt lat="48.500413" lon="2.794086"><ele></ele><time>2017-9-19T7:17:34Z</time></trkpt>
<trkpt lat="48.500291" lon="2.794007"><ele></ele><time>2017-9-19T7:17:37Z</time></trkpt>
<trkpt lat="48.500208" lon="2.793949"><ele></ele><time>2017-9-19T7:17:40Z</time></trkpt>
<trkpt lat="48.500124" lon="2.793881"><ele></ele><time>2017-9-19T7:17:43Z</time></trkpt>
<trkpt lat="48.500001" lon="2.793787"><ele></ele><time>2017-9-19T7:17:46Z</time></trkpt>
<trkpt lat="48.499879" lon="2.793705"><ele></ele><time>2017-9-19T7:17:49Z</time></trkpt>
<trkpt lat="48.499755" lon="2.793619"><ele></ele><time>2017-9-19T7:17:52Z</time></trkpt>
<trkpt lat="48.499668" lon="2.793578"><ele></ele><time>2017-9-19T7:17:55Z</time></trkpt>
<trkpt lat="48.499575" lon="2.79351"><ele></ele><time>2017-9-19T7:17:58Z</time></trkpt>
<trkpt lat="48.499486" lon="2.793444"><ele></ele><time>2017-9-19T7:18:1Z</time></trkpt>
<trkpt lat="48.499388" lon="2.793375"><ele></ele><time>2017-9-19T7:18:4Z</time></trkpt>
<trkpt lat="48.49929" lon="2.793299"><ele></ele><time>2017-9-19T7:18:7Z</time></trkpt>
<trkpt lat="48.499195" lon="2.793224"><ele></ele><time>2017-9-19T7:18:10Z</time></trkpt>
<trkpt lat="48.499044" lon="2.79311"><ele></ele><time>2017-9-19T7:18:13Z</time></trkpt>
<trkpt lat="48.498867" lon="2.79296"><ele></ele><time>2017-9-19T7:18:16Z</time></trkpt>
<trkpt lat="48.498737" lon="2.79287"><ele></ele><time>2017-9-19T7:18:19Z</time></trkpt>
<trkpt lat="48.498607" lon="2.7928"><ele></ele><time>2017-9-19T7:18:22Z</time></trkpt>
<trkpt lat="48.498491" lon="2.792723"><ele></ele><time>2017-9-19T7:18:25Z</time></trkpt>
<trkpt lat="48.498396" lon="2.792606"><ele></ele><time>2017-9-19T7:18:28Z</time></trkpt>
<trkpt lat="48.498296" lon="2.792549"><ele></ele><time>2017-9-19T7:18:31Z</time></trkpt>
<trkpt lat="48.498261" lon="2.79242"><ele></ele><time>2017-9-19T7:18:34Z</time></trkpt>
<trkpt lat="48.498222" lon="2.792285"><ele></ele><time>2017-9-19T7:18:37Z</time></trkpt>
<trkpt lat="48.498132" lon="2.792148"><ele></ele><time>2017-9-19T7:18:40Z</time></trkpt>
<trkpt lat="48.498047" lon="2.792008"><ele></ele><time>2017-9-19T7:18:43Z</time></trkpt>
<trkpt lat="48.497983" lon="2.791894"><ele></ele><time>2017-9-19T7:18:46Z</time></trkpt>
<trkpt lat="48.497917" lon="2.791785"><ele></ele><time>2017-9-19T7:18:49Z</time></trkpt>
<trkpt lat="48.497848" lon="2.791696"><ele></ele><time>2017-9-19T7:18:52Z</time></trkpt>
<trkpt lat="48.497785" lon="2.791583"><ele></ele><time>2017-9-19T7:18:55Z</time></trkpt>
<trkpt lat="48.497755" lon="2.791449"><ele></ele><time>2017-9-19T7:18:58Z</time></trkpt>
<trkpt lat="48.497726" lon="2.791308"><ele></ele><time>2017-9-19T7:19:1Z</time></trkpt>
<trkpt lat="48.497679" lon="2.791174"><ele></ele><time>2017-9-19T7:19:4Z</time></trkpt>
<trkpt lat="48.497599" lon="2.791059"><ele></ele><time>2017-9-19T7:19:7Z</time></trkpt>
<trkpt lat="48.497569" lon="2.79087"><ele></ele><time>2017-9-19T7:19:10Z</time></trkpt>
<trkpt lat="48.49755" lon="2.790712"><ele></ele><time>2017-9-19T7:19:13Z</time></trkpt>
<trkpt lat="48.497524" lon="2.790424"><ele></ele><time>2017-9-19T7:19:16Z</time></trkpt>
<trkpt lat="48.497472" lon="2.790275"><ele></ele><time>2017-9-19T7:19:19Z</time></trkpt>
<trkpt lat="48.497429" lon="2.790152"><ele></ele><time>2017-9-19T7:19:22Z</time></trkpt>
<trkpt lat="48.497398" lon="2.790009"><ele></ele><time>2017-9-19T7:19:25Z</time></trkpt>
<trkpt lat="48.497378" lon="2.789864"><ele></ele><time>2017-9-19T7:19:28Z</time></trkpt>
<trkpt lat="48.49735" lon="2.789692"><ele></ele><time>2017-9-19T7:19:31Z</time></trkpt>
<trkpt lat="48.497368" lon="2.789356"><ele></ele><time>2017-9-19T7:19:34Z</time></trkpt>
<trkpt lat="48.497362" lon="2.78917"><ele></ele><time>2017-9-19T7:19:37Z</time></trkpt>
<trkpt lat="48.497329" lon="2.788952"><ele></ele><time>2017-9-19T7:19:40Z</time></trkpt>
<trkpt lat="48.497322" lon="2.788741"><ele></ele><time>2017-9-19T7:19:43Z</time></trkpt>
<trkpt lat="48.497243" lon="2.788507"><ele></ele><time>2017-9-19T7:19:46Z</time></trkpt>
<trkpt lat="48.497174" lon="2.788375"><ele></ele><time>2017-9-19T7:19:49Z</time></trkpt>
<trkpt lat="48.497165" lon="2.788224"><ele></ele><time>2017-9-19T7:19:52Z</time></trkpt>
<trkpt lat="48.497122" lon="2.788093"><ele></ele><time>2017-9-19T7:19:55Z</time></trkpt>
<trkpt lat="48.497081" lon="2.787962"><ele></ele><time>2017-9-19T7:19:58Z</time></trkpt>
<trkpt lat="48.497021" lon="2.787855"><ele></ele><time>2017-9-19T7:20:1Z</time></trkpt>
<trkpt lat="48.497004" lon="2.787718"><ele></ele><time>2017-9-19T7:20:4Z</time></trkpt>
<trkpt lat="48.496968" lon="2.787579"><ele></ele><time>2017-9-19T7:20:7Z</time></trkpt>
<trkpt lat="48.496943" lon="2.787444"><ele></ele><time>2017-9-19T7:20:10Z</time></trkpt>
<trkpt lat="48.496886" lon="2.787234"><ele></ele><time>2017-9-19T7:20:13Z</time></trkpt>
<trkpt lat="48.496869" lon="2.787092"><ele></ele><time>2017-9-19T7:20:16Z</time></trkpt>
<trkpt lat="48.496843" lon="2.786936"><ele></ele><time>2017-9-19T7:20:19Z</time></trkpt>
<trkpt lat="48.49678" lon="2.786722"><ele></ele><time>2017-9-19T7:20:22Z</time></trkpt>
<trkpt lat="48.496754" lon="2.786581"><ele></ele><time>2017-9-19T7:20:25Z</time></trkpt>
<trkpt lat="48.496711" lon="2.786402"><ele></ele><time>2017-9-19T7:20:28Z</time></trkpt>
<trkpt lat="48.49668" lon="2.786198"><ele></ele><time>2017-9-19T7:20:31Z</time></trkpt>
<trkpt lat="48.496713" lon="2.78607"><ele></ele><time>2017-9-19T7:20:34Z</time></trkpt>
<trkpt lat="48.496716" lon="2.785871"><ele></ele><time>2017-9-19T7:20:37Z</time></trkpt>
<trkpt lat="48.49652" lon="2.785744"><ele></ele><time>2017-9-19T7:20:40Z</time></trkpt>
<trkpt lat="48.496422" lon="2.785708"><ele></ele><time>2017-9-19T7:20:43Z</time></trkpt>
<trkpt lat="48.496323" lon="2.785648"><ele></ele><time>2017-9-19T7:20:46Z</time></trkpt>
<trkpt lat="48.496207" lon="2.785597"><ele></ele><time>2017-9-19T7:20:49Z</time></trkpt>
<trkpt lat="48.496106" lon="2.785565"><ele></ele><time>2017-9-19T7:20:52Z</time></trkpt>
<trkpt lat="48.496024" lon="2.785627"><ele></ele><time>2017-9-19T7:20:55Z</time></trkpt>
<trkpt lat="48.495803" lon="2.78576"><ele></ele><time>2017-9-19T7:20:58Z</time></trkpt>
<trkpt lat="48.495686" lon="2.785809"><ele></ele><time>2017-9-19T7:21:1Z</time></trkpt>
<trkpt lat="48.495576" lon="2.785785"><ele></ele><time>2017-9-19T7:21:4Z</time></trkpt>
<trkpt lat="48.495497" lon="2.78566"><ele></ele><time>2017-9-19T7:21:7Z</time></trkpt>
<trkpt lat="48.495408" lon="2.785564"><ele></ele><time>2017-9-19T7:21:10Z</time></trkpt>
<trkpt lat="48.495323" lon="2.785509"><ele></ele><time>2017-9-19T7:21:13Z</time></trkpt>
<trkpt lat="48.495191" lon="2.785425"><ele></ele><time>2017-9-19T7:21:16Z</time></trkpt>
<trkpt lat="48.495105" lon="2.785281"><ele></ele><time>2017-9-19T7:21:19Z</time></trkpt>
<trkpt lat="48.495029" lon="2.785185"><ele></ele><time>2017-9-19T7:21:22Z</time></trkpt>
<trkpt lat="48.494938" lon="2.785119"><ele></ele><time>2017-9-19T7:21:25Z</time></trkpt>
<trkpt lat="48.494834" lon="2.785043"><ele></ele><time>2017-9-19T7:21:28Z</time></trkpt>
<trkpt lat="48.494735" lon="2.784973"><ele></ele><time>2017-9-19T7:21:31Z</time></trkpt>
<trkpt lat="48.49471" lon="2.784827"><ele></ele><time>2017-9-19T7:21:34Z</time></trkpt>
<trkpt lat="48.494609" lon="2.784775"><ele></ele><time>2017-9-19T7:21:37Z</time></trkpt>
<trkpt lat="48.494527" lon="2.784676"><ele></ele><time>2017-9-19T7:21:40Z</time></trkpt>
<trkpt lat="48.494343" lon="2.784525"><ele></ele><time>2017-9-19T7:21:43Z</time></trkpt>
<trkpt lat="48.494247" lon="2.784468"><ele></ele><time>2017-9-19T7:21:46Z</time></trkpt>
<trkpt lat="48.494163" lon="2.784415"><ele></ele><time>2017-9-19T7:21:49Z</time></trkpt>
<trkpt lat="48.49405" lon="2.784385"><ele></ele><time>2017-9-19T7:21:52Z</time></trkpt>
<trkpt lat="48.493955" lon="2.784358"><ele></ele><time>2017-9-19T7:21:55Z</time></trkpt>
<trkpt lat="48.493836" lon="2.78431"><ele></ele><time>2017-9-19T7:21:58Z</time></trkpt>
<trkpt lat="48.493716" lon="2.784265"><ele></ele><time>2017-9-19T7:22:1Z</time></trkpt>
<trkpt lat="48.493601" lon="2.784259"><ele></ele><time>2017-9-19T7:22:4Z</time></trkpt>
<trkpt lat="48.493507" lon="2.784227"><ele></ele><time>2017-9-19T7:22:7Z</time></trkpt>
<trkpt lat="48.493404" lon="2.784206"><ele></ele><time>2017-9-19T7:22:10Z</time></trkpt>
<trkpt lat="48.493288" lon="2.78417"><ele></ele><time>2017-9-19T7:22:13Z</time></trkpt>
<trkpt lat="48.49318" lon="2.784113"><ele></ele><time>2017-9-19T7:22:16Z</time></trkpt>
<trkpt lat="48.493085" lon="2.784042"><ele></ele><time>2017-9-19T7:22:19Z</time></trkpt>
<trkpt lat="48.492953" lon="2.783921"><ele></ele><time>2017-9-19T7:22:22Z</time></trkpt>
<trkpt lat="48.492848" lon="2.78374"><ele></ele><time>2017-9-19T7:22:25Z</time></trkpt>
<trkpt lat="48.492763" lon="2.783615"><ele></ele><time>2017-9-19T7:22:28Z</time></trkpt>
<trkpt lat="48.492552" lon="2.783446"><ele></ele><time>2017-9-19T7:22:31Z</time></trkpt>
<trkpt lat="48.492438" lon="2.783419"><ele></ele><time>2017-9-19T7:22:34Z</time></trkpt>
<trkpt lat="48.492336" lon="2.7834"><ele></ele><time>2017-9-19T7:22:37Z</time></trkpt>
<trkpt lat="48.492223" lon="2.783373"><ele></ele><time>2017-9-19T7:22:40Z</time></trkpt>
<trkpt lat="48.492099" lon="2.783331"><ele></ele><time>2017-9-19T7:22:43Z</time></trkpt>
<trkpt lat="48.491993" lon="2.78321"><ele></ele><time>2017-9-19T7:22:46Z</time></trkpt>
<trkpt lat="48.491906" lon="2.783056"><ele></ele><time>2017-9-19T7:22:49Z</time></trkpt>
<trkpt lat="48.491848" lon="2.782952"><ele></ele><time>2017-9-19T7:22:52Z</time></trkpt>
<trkpt lat="48.491786" lon="2.782831"><ele></ele><time>2017-9-19T7:22:55Z</time></trkpt>
<trkpt lat="48.491725" lon="2.782714"><ele></ele><time>2017-9-19T7:22:58Z</time></trkpt>
<trkpt lat="48.491654" lon="2.782625"><ele></ele><time>2017-9-19T7:23:1Z</time></trkpt>
<trkpt lat="48.491542" lon="2.782514"><ele></ele><time>2017-9-19T7:23:4Z</time></trkpt>
<trkpt lat="48.491457" lon="2.782462"><ele></ele><time>2017-9-19T7:23:7Z</time></trkpt>
<trkpt lat="48.491332" lon="2.782408"><ele></ele><time>2017-9-19T7:23:10Z</time></trkpt>
<trkpt lat="48.491201" lon="2.78236"><ele></ele><time>2017-9-19T7:23:13Z</time></trkpt>
<trkpt lat="48.491115" lon="2.782302"><ele></ele><time>2017-9-19T7:23:16Z</time></trkpt>
<trkpt lat="48.491003" lon="2.782193"><ele></ele><time>2017-9-19T7:23:19Z</time></trkpt>
<trkpt lat="48.490915" lon="2.782075"><ele></ele><time>2017-9-19T7:23:22Z</time></trkpt>
<trkpt lat="48.490833" lon="2.781926"><ele></ele><time>2017-9-19T7:23:25Z</time></trkpt>
<trkpt lat="48.490773" lon="2.781814"><ele></ele><time>2017-9-19T7:23:28Z</time></trkpt>
<trkpt lat="48.490686" lon="2.781646"><ele></ele><time>2017-9-19T7:23:31Z</time></trkpt>
<trkpt lat="48.490631" lon="2.78153"><ele></ele><time>2017-9-19T7:23:34Z</time></trkpt>
<trkpt lat="48.490529" lon="2.781281"><ele></ele><time>2017-9-19T7:23:37Z</time></trkpt>
<trkpt lat="48.490479" lon="2.781154"><ele></ele><time>2017-9-19T7:23:40Z</time></trkpt>
<trkpt lat="48.490436" lon="2.781013"><ele></ele><time>2017-9-19T7:23:43Z</time></trkpt>
<trkpt lat="48.490391" lon="2.780884"><ele></ele><time>2017-9-19T7:23:46Z</time></trkpt>
<trkpt lat="48.490342" lon="2.780761"><ele></ele><time>2017-9-19T7:23:49Z</time></trkpt>
<trkpt lat="48.490308" lon="2.780631"><ele></ele><time>2017-9-19T7:23:52Z</time></trkpt>
<trkpt lat="48.490264" lon="2.780498"><ele></ele><time>2017-9-19T7:23:55Z</time></trkpt>
<trkpt lat="48.490208" lon="2.780358"><ele></ele><time>2017-9-19T7:23:58Z</time></trkpt>
<trkpt lat="48.490129" lon="2.78021"><ele></ele><time>2017-9-19T7:24:1Z</time></trkpt>
<trkpt lat="48.490083" lon="2.780063"><ele></ele><time>2017-9-19T7:24:4Z</time></trkpt>
<trkpt lat="48.490029" lon="2.779931"><ele></ele><time>2017-9-19T7:24:7Z</time></trkpt>
<trkpt lat="48.48997" lon="2.779777"><ele></ele><time>2017-9-19T7:24:10Z</time></trkpt>
<trkpt lat="48.489908" lon="2.779609"><ele></ele><time>2017-9-19T7:24:13Z</time></trkpt>
<trkpt lat="48.489856" lon="2.779493"><ele></ele><time>2017-9-19T7:24:16Z</time></trkpt>
<trkpt lat="48.489804" lon="2.779375"><ele></ele><time>2017-9-19T7:24:19Z</time></trkpt>
<trkpt lat="48.489732" lon="2.779232"><ele></ele><time>2017-9-19T7:24:22Z</time></trkpt>
<trkpt lat="48.489673" lon="2.779113"><ele></ele><time>2017-9-19T7:24:25Z</time></trkpt>
<trkpt lat="48.489539" lon="2.778932"><ele></ele><time>2017-9-19T7:24:28Z</time></trkpt>
<trkpt lat="48.489472" lon="2.778797"><ele></ele><time>2017-9-19T7:24:31Z</time></trkpt>
<trkpt lat="48.489406" lon="2.778676"><ele></ele><time>2017-9-19T7:24:34Z</time></trkpt>
<trkpt lat="48.489336" lon="2.778584"><ele></ele><time>2017-9-19T7:24:37Z</time></trkpt>
<trkpt lat="48.489259" lon="2.778483"><ele></ele><time>2017-9-19T7:24:40Z</time></trkpt>
<trkpt lat="48.489182" lon="2.778386"><ele></ele><time>2017-9-19T7:24:43Z</time></trkpt>
<trkpt lat="48.489107" lon="2.778298"><ele></ele><time>2017-9-19T7:24:46Z</time></trkpt>
<trkpt lat="48.489027" lon="2.778202"><ele></ele><time>2017-9-19T7:24:49Z</time></trkpt>
<trkpt lat="48.488948" lon="2.778116"><ele></ele><time>2017-9-19T7:24:52Z</time></trkpt>
<trkpt lat="48.488873" lon="2.778027"><ele></ele><time>2017-9-19T7:24:55Z</time></trkpt>
<trkpt lat="48.488804" lon="2.777933"><ele></ele><time>2017-9-19T7:24:58Z</time></trkpt>
<trkpt lat="48.488657" lon="2.777756"><ele></ele><time>2017-9-19T7:25:1Z</time></trkpt>
<trkpt lat="48.488581" lon="2.777668"><ele></ele><time>2017-9-19T7:25:4Z</time></trkpt>
<trkpt lat="48.488504" lon="2.777576"><ele></ele><time>2017-9-19T7:25:7Z</time></trkpt>
<trkpt lat="48.488427" lon="2.77749"><ele></ele><time>2017-9-19T7:25:10Z</time></trkpt>
<trkpt lat="48.488352" lon="2.777404"><ele></ele><time>2017-9-19T7:25:13Z</time></trkpt>
<trkpt lat="48.488276" lon="2.777313"><ele></ele><time>2017-9-19T7:25:16Z</time></trkpt>
<trkpt lat="48.4882" lon="2.777221"><ele></ele><time>2017-9-19T7:25:19Z</time></trkpt>
<trkpt lat="48.488135" lon="2.777123"><ele></ele><time>2017-9-19T7:25:22Z</time></trkpt>
<trkpt lat="48.488064" lon="2.777033"><ele></ele><time>2017-9-19T7:25:25Z</time></trkpt>
<trkpt lat="48.487997" lon="2.776933"><ele></ele><time>2017-9-19T7:25:28Z</time></trkpt>
<trkpt lat="48.487919" lon="2.776826"><ele></ele><time>2017-9-19T7:25:31Z</time></trkpt>
<trkpt lat="48.487859" lon="2.77671"><ele></ele><time>2017-9-19T7:25:34Z</time></trkpt>
<trkpt lat="48.487765" lon="2.77649"><ele></ele><time>2017-9-19T7:25:37Z</time></trkpt>
<trkpt lat="48.487731" lon="2.776344"><ele></ele><time>2017-9-19T7:25:40Z</time></trkpt>
<trkpt lat="48.487681" lon="2.77622"><ele></ele><time>2017-9-19T7:25:43Z</time></trkpt>
<trkpt lat="48.487595" lon="2.77603"><ele></ele><time>2017-9-19T7:25:46Z</time></trkpt>
<trkpt lat="48.487532" lon="2.775907"><ele></ele><time>2017-9-19T7:25:49Z</time></trkpt>
<trkpt lat="48.487528" lon="2.775688"><ele></ele><time>2017-9-19T7:25:52Z</time></trkpt>
<trkpt lat="48.487531" lon="2.775482"><ele></ele><time>2017-9-19T7:25:55Z</time></trkpt>
<trkpt lat="48.487529" lon="2.775308"><ele></ele><time>2017-9-19T7:25:58Z</time></trkpt>
<trkpt lat="48.487523" lon="2.775132"><ele></ele><time>2017-9-19T7:26:1Z</time></trkpt>
<trkpt lat="48.487502" lon="2.774888"><ele></ele><time>2017-9-19T7:26:4Z</time></trkpt>
<trkpt lat="48.487509" lon="2.774661"><ele></ele><time>2017-9-19T7:26:7Z</time></trkpt>
<trkpt lat="48.487488" lon="2.774512"><ele></ele><time>2017-9-19T7:26:10Z</time></trkpt>
<trkpt lat="48.48747" lon="2.774345"><ele></ele><time>2017-9-19T7:26:13Z</time></trkpt>
<trkpt lat="48.487464" lon="2.774169"><ele></ele><time>2017-9-19T7:26:16Z</time></trkpt>
<trkpt lat="48.487447" lon="2.774"><ele></ele><time>2017-9-19T7:26:19Z</time></trkpt>
<trkpt lat="48.487418" lon="2.7737"><ele></ele><time>2017-9-19T7:26:22Z</time></trkpt>
<trkpt lat="48.487408" lon="2.773464"><ele></ele><time>2017-9-19T7:26:25Z</time></trkpt>
<trkpt lat="48.487401" lon="2.773253"><ele></ele><time>2017-9-19T7:26:28Z</time></trkpt>
<trkpt lat="48.487378" lon="2.772896"><ele></ele><time>2017-9-19T7:26:31Z</time></trkpt>
<trkpt lat="48.48736" lon="2.772733"><ele></ele><time>2017-9-19T7:26:34Z</time></trkpt>
<trkpt lat="48.487338" lon="2.772576"><ele></ele><time>2017-9-19T7:26:37Z</time></trkpt>
<trkpt lat="48.487318" lon="2.772415"><ele></ele><time>2017-9-19T7:26:40Z</time></trkpt>
<trkpt lat="48.487306" lon="2.77227"><ele></ele><time>2017-9-19T7:26:43Z</time></trkpt>
<trkpt lat="48.487291" lon="2.772131"><ele></ele><time>2017-9-19T7:26:46Z</time></trkpt>
<trkpt lat="48.487288" lon="2.771986"><ele></ele><time>2017-9-19T7:26:49Z</time></trkpt>
<trkpt lat="48.487282" lon="2.771848"><ele></ele><time>2017-9-19T7:26:52Z</time></trkpt>
<trkpt lat="48.487285" lon="2.771664"><ele></ele><time>2017-9-19T7:26:55Z</time></trkpt>
<trkpt lat="48.487273" lon="2.771468"><ele></ele><time>2017-9-19T7:26:58Z</time></trkpt>
<trkpt lat="48.487266" lon="2.771289"><ele></ele><time>2017-9-19T7:27:1Z</time></trkpt>
<trkpt lat="48.487262" lon="2.771116"><ele></ele><time>2017-9-19T7:27:4Z</time></trkpt>
<trkpt lat="48.487261" lon="2.770939"><ele></ele><time>2017-9-19T7:27:7Z</time></trkpt>
<trkpt lat="48.487259" lon="2.770751"><ele></ele><time>2017-9-19T7:27:10Z</time></trkpt>
<trkpt lat="48.487254" lon="2.770567"><ele></ele><time>2017-9-19T7:27:13Z</time></trkpt>
<trkpt lat="48.487263" lon="2.770394"><ele></ele><time>2017-9-19T7:27:16Z</time></trkpt>
<trkpt lat="48.487253" lon="2.770211"><ele></ele><time>2017-9-19T7:27:19Z</time></trkpt>
<trkpt lat="48.487233" lon="2.770033"><ele></ele><time>2017-9-19T7:27:22Z</time></trkpt>
<trkpt lat="48.487197" lon="2.769851"><ele></ele><time>2017-9-19T7:27:25Z</time></trkpt>
<trkpt lat="48.487183" lon="2.769664"><ele></ele><time>2017-9-19T7:27:28Z</time></trkpt>
<trkpt lat="48.487166" lon="2.769488"><ele></ele><time>2017-9-19T7:27:31Z</time></trkpt>
<trkpt lat="48.487154" lon="2.769288"><ele></ele><time>2017-9-19T7:27:34Z</time></trkpt>
<trkpt lat="48.487134" lon="2.769103"><ele></ele><time>2017-9-19T7:27:37Z</time></trkpt>
<trkpt lat="48.487131" lon="2.768718"><ele></ele><time>2017-9-19T7:27:40Z</time></trkpt>
<trkpt lat="48.487123" lon="2.768559"><ele></ele><time>2017-9-19T7:27:43Z</time></trkpt>
<trkpt lat="48.487139" lon="2.768333"><ele></ele><time>2017-9-19T7:27:46Z</time></trkpt>
<trkpt lat="48.487166" lon="2.768167"><ele></ele><time>2017-9-19T7:27:49Z</time></trkpt>
<trkpt lat="48.487212" lon="2.768046"><ele></ele><time>2017-9-19T7:27:52Z</time></trkpt>
<trkpt lat="48.487237" lon="2.767899"><ele></ele><time>2017-9-19T7:27:55Z</time></trkpt>
<trkpt lat="48.487253" lon="2.767752"><ele></ele><time>2017-9-19T7:27:58Z</time></trkpt>
<trkpt lat="48.487259" lon="2.767602"><ele></ele><time>2017-9-19T7:28:1Z</time></trkpt>
<trkpt lat="48.487249" lon="2.767447"><ele></ele><time>2017-9-19T7:28:4Z</time></trkpt>
<trkpt lat="48.487222" lon="2.767298"><ele></ele><time>2017-9-19T7:28:7Z</time></trkpt>
<trkpt lat="48.487192" lon="2.767147"><ele></ele><time>2017-9-19T7:28:10Z</time></trkpt>
<trkpt lat="48.487156" lon="2.767001"><ele></ele><time>2017-9-19T7:28:13Z</time></trkpt>
<trkpt lat="48.487122" lon="2.766852"><ele></ele><time>2017-9-19T7:28:16Z</time></trkpt>
<trkpt lat="48.487089" lon="2.766714"><ele></ele><time>2017-9-19T7:28:19Z</time></trkpt>
<trkpt lat="48.487058" lon="2.766585"><ele></ele><time>2017-9-19T7:28:22Z</time></trkpt>
<trkpt lat="48.487015" lon="2.766426"><ele></ele><time>2017-9-19T7:28:25Z</time></trkpt>
<trkpt lat="48.487" lon="2.766285"><ele></ele><time>2017-9-19T7:28:28Z</time></trkpt>
<trkpt lat="48.486987" lon="2.766141"><ele></ele><time>2017-9-19T7:28:31Z</time></trkpt>
<trkpt lat="48.486965" lon="2.766008"><ele></ele><time>2017-9-19T7:28:34Z</time></trkpt>
<trkpt lat="48.48694" lon="2.765867"><ele></ele><time>2017-9-19T7:28:37Z</time></trkpt>
<trkpt lat="48.486916" lon="2.765704"><ele></ele><time>2017-9-19T7:28:40Z</time></trkpt>
<trkpt lat="48.486818" lon="2.765666"><ele></ele><time>2017-9-19T7:28:43Z</time></trkpt>
<trkpt lat="48.486707" lon="2.765734"><ele></ele><time>2017-9-19T7:28:46Z</time></trkpt>
<trkpt lat="48.486591" lon="2.765777"><ele></ele><time>2017-9-19T7:28:49Z</time></trkpt>
<trkpt lat="48.486296" lon="2.76586"><ele></ele><time>2017-9-19T7:28:52Z</time></trkpt>
<trkpt lat="48.486202" lon="2.765881"><ele></ele><time>2017-9-19T7:28:55Z</time></trkpt>
<trkpt lat="48.486077" lon="2.765945"><ele></ele><time>2017-9-19T7:28:58Z</time></trkpt>
<trkpt lat="48.485988" lon="2.765981"><ele></ele><time>2017-9-19T7:29:1Z</time></trkpt>
<trkpt lat="48.485876" lon="2.765982"><ele></ele><time>2017-9-19T7:29:4Z</time></trkpt>
<trkpt lat="48.485754" lon="2.766029"><ele></ele><time>2017-9-19T7:29:7Z</time></trkpt>
<trkpt lat="48.48566" lon="2.76605"><ele></ele><time>2017-9-19T7:29:10Z</time></trkpt>
<trkpt lat="48.485568" lon="2.766031"><ele></ele><time>2017-9-19T7:29:13Z</time></trkpt>
<trkpt lat="48.485474" lon="2.76604"><ele></ele><time>2017-9-19T7:29:16Z</time></trkpt>
<trkpt lat="48.485383" lon="2.766043"><ele></ele><time>2017-9-19T7:29:19Z</time></trkpt>
<trkpt lat="48.485253" lon="2.766055"><ele></ele><time>2017-9-19T7:29:22Z</time></trkpt>
<trkpt lat="48.485148" lon="2.766064"><ele></ele><time>2017-9-19T7:29:25Z</time></trkpt>
<trkpt lat="48.485048" lon="2.766061"><ele></ele><time>2017-9-19T7:29:28Z</time></trkpt>
<trkpt lat="48.484945" lon="2.766066"><ele></ele><time>2017-9-19T7:29:31Z</time></trkpt>
<trkpt lat="48.484847" lon="2.766072"><ele></ele><time>2017-9-19T7:29:34Z</time></trkpt>
<trkpt lat="48.484757" lon="2.766086"><ele></ele><time>2017-9-19T7:29:37Z</time></trkpt>
<trkpt lat="48.484625" lon="2.766101"><ele></ele><time>2017-9-19T7:29:40Z</time></trkpt>
<trkpt lat="48.484492" lon="2.766102"><ele></ele><time>2017-9-19T7:29:43Z</time></trkpt>
<trkpt lat="48.48431" lon="2.766095"><ele></ele><time>2017-9-19T7:29:46Z</time></trkpt>
<trkpt lat="48.48418" lon="2.766089"><ele></ele><time>2017-9-19T7:29:49Z</time></trkpt>
<trkpt lat="48.484055" lon="2.766086"><ele></ele><time>2017-9-19T7:29:52Z</time></trkpt>
<trkpt lat="48.483937" lon="2.766086"><ele></ele><time>2017-9-19T7:29:55Z</time></trkpt>
<trkpt lat="48.483714" lon="2.766074"><ele></ele><time>2017-9-19T7:29:58Z</time></trkpt>
<trkpt lat="48.483588" lon="2.766064"><ele></ele><time>2017-9-19T7:30:1Z</time></trkpt>
<trkpt lat="48.483465" lon="2.766056"><ele></ele><time>2017-9-19T7:30:4Z</time></trkpt>
<trkpt lat="48.483341" lon="2.766062"><ele></ele><time>2017-9-19T7:30:7Z</time></trkpt>
<trkpt lat="48.483235" lon="2.766069"><ele></ele><time>2017-9-19T7:30:10Z</time></trkpt>
<trkpt lat="48.48312" lon="2.766079"><ele></ele><time>2017-9-19T7:30:13Z</time></trkpt>
<trkpt lat="48.482977" lon="2.766163"><ele></ele><time>2017-9-19T7:30:16Z</time></trkpt>
<trkpt lat="48.482864" lon="2.766254"><ele></ele><time>2017-9-19T7:30:19Z</time></trkpt>
<trkpt lat="48.482751" lon="2.766333"><ele></ele><time>2017-9-19T7:30:22Z</time></trkpt>
<trkpt lat="48.48263" lon="2.766439"><ele></ele><time>2017-9-19T7:30:25Z</time></trkpt>
<trkpt lat="48.482473" lon="2.766639"><ele></ele><time>2017-9-19T7:30:28Z</time></trkpt>
<trkpt lat="48.482372" lon="2.766737"><ele></ele><time>2017-9-19T7:30:31Z</time></trkpt>
<trkpt lat="48.482288" lon="2.766797"><ele></ele><time>2017-9-19T7:30:34Z</time></trkpt>
<trkpt lat="48.482192" lon="2.766841"><ele></ele><time>2017-9-19T7:30:37Z</time></trkpt>
<trkpt lat="48.482074" lon="2.766907"><ele></ele><time>2017-9-19T7:30:40Z</time></trkpt>
<trkpt lat="48.481941" lon="2.767005"><ele></ele><time>2017-9-19T7:30:43Z</time></trkpt>
<trkpt lat="48.481859" lon="2.76708"><ele></ele><time>2017-9-19T7:30:46Z</time></trkpt>
<trkpt lat="48.481755" lon="2.767106"><ele></ele><time>2017-9-19T7:30:49Z</time></trkpt>
<trkpt lat="48.481663" lon="2.767166"><ele></ele><time>2017-9-19T7:30:52Z</time></trkpt>
<trkpt lat="48.481519" lon="2.76722"><ele></ele><time>2017-9-19T7:30:55Z</time></trkpt>
<trkpt lat="48.481419" lon="2.767273"><ele></ele><time>2017-9-19T7:30:58Z</time></trkpt>
<trkpt lat="48.481273" lon="2.767376"><ele></ele><time>2017-9-19T7:31:1Z</time></trkpt>
<trkpt lat="48.481064" lon="2.767596"><ele></ele><time>2017-9-19T7:31:4Z</time></trkpt>
<trkpt lat="48.480965" lon="2.767735"><ele></ele><time>2017-9-19T7:31:7Z</time></trkpt>
<trkpt lat="48.48088" lon="2.767814"><ele></ele><time>2017-9-19T7:31:10Z</time></trkpt>
<trkpt lat="48.480751" lon="2.767957"><ele></ele><time>2017-9-19T7:31:13Z</time></trkpt>
<trkpt lat="48.480631" lon="2.768073"><ele></ele><time>2017-9-19T7:31:16Z</time></trkpt>
<trkpt lat="48.480521" lon="2.768191"><ele></ele><time>2017-9-19T7:31:19Z</time></trkpt>
<trkpt lat="48.480396" lon="2.768311"><ele></ele><time>2017-9-19T7:31:22Z</time></trkpt>
<trkpt lat="48.480319" lon="2.768439"><ele></ele><time>2017-9-19T7:31:25Z</time></trkpt>
<trkpt lat="48.480203" lon="2.768557"><ele></ele><time>2017-9-19T7:31:28Z</time></trkpt>
<trkpt lat="48.480093" lon="2.768633"><ele></ele><time>2017-9-19T7:31:31Z</time></trkpt>
<trkpt lat="48.480016" lon="2.76872"><ele></ele><time>2017-9-19T7:31:34Z</time></trkpt>
<trkpt lat="48.47984" lon="2.768917"><ele></ele><time>2017-9-19T7:31:37Z</time></trkpt>
<trkpt lat="48.479637" lon="2.769067"><ele></ele><time>2017-9-19T7:31:40Z</time></trkpt>
<trkpt lat="48.479545" lon="2.769171"><ele></ele><time>2017-9-19T7:31:43Z</time></trkpt>
<trkpt lat="48.479456" lon="2.769321"><ele></ele><time>2017-9-19T7:31:46Z</time></trkpt>
<trkpt lat="48.479372" lon="2.769454"><ele></ele><time>2017-9-19T7:31:49Z</time></trkpt>
<trkpt lat="48.47932" lon="2.769576"><ele></ele><time>2017-9-19T7:31:52Z</time></trkpt>
<trkpt lat="48.479235" lon="2.76965"><ele></ele><time>2017-9-19T7:31:55Z</time></trkpt>
<trkpt lat="48.479136" lon="2.769715"><ele></ele><time>2017-9-19T7:31:58Z</time></trkpt>
<trkpt lat="48.479046" lon="2.769762"><ele></ele><time>2017-9-19T7:32:1Z</time></trkpt>
<trkpt lat="48.478886" lon="2.769857"><ele></ele><time>2017-9-19T7:32:4Z</time></trkpt>
<trkpt lat="48.478757" lon="2.769907"><ele></ele><time>2017-9-19T7:32:7Z</time></trkpt>
<trkpt lat="48.478651" lon="2.769962"><ele></ele><time>2017-9-19T7:32:10Z</time></trkpt>
<trkpt lat="48.478515" lon="2.77001"><ele></ele><time>2017-9-19T7:32:13Z</time></trkpt>
<trkpt lat="48.478361" lon="2.770037"><ele></ele><time>2017-9-19T7:32:16Z</time></trkpt>
<trkpt lat="48.478109" lon="2.770245"><ele></ele><time>2017-9-19T7:32:19Z</time></trkpt>
<trkpt lat="48.47802" lon="2.770303"><ele></ele><time>2017-9-19T7:32:22Z</time></trkpt>
<trkpt lat="48.477846" lon="2.770423"><ele></ele><time>2017-9-19T7:32:25Z</time></trkpt>
<trkpt lat="48.477757" lon="2.77049"><ele></ele><time>2017-9-19T7:32:28Z</time></trkpt>
<trkpt lat="48.477667" lon="2.770584"><ele></ele><time>2017-9-19T7:32:31Z</time></trkpt>
<trkpt lat="48.477552" lon="2.770643"><ele></ele><time>2017-9-19T7:32:34Z</time></trkpt>
<trkpt lat="48.477401" lon="2.770761"><ele></ele><time>2017-9-19T7:32:37Z</time></trkpt>
<trkpt lat="48.47732" lon="2.770829"><ele></ele><time>2017-9-19T7:32:40Z</time></trkpt>
<trkpt lat="48.477226" lon="2.770932"><ele></ele><time>2017-9-19T7:32:43Z</time></trkpt>
<trkpt lat="48.477114" lon="2.77097"><ele></ele><time>2017-9-19T7:32:46Z</time></trkpt>
<trkpt lat="48.476967" lon="2.771116"><ele></ele><time>2017-9-19T7:32:49Z</time></trkpt>
<trkpt lat="48.476829" lon="2.771171"><ele></ele><time>2017-9-19T7:32:52Z</time></trkpt>
<trkpt lat="48.476672" lon="2.771279"><ele></ele><time>2017-9-19T7:32:55Z</time></trkpt>
<trkpt lat="48.476528" lon="2.771359"><ele></ele><time>2017-9-19T7:32:58Z</time></trkpt>
<trkpt lat="48.476401" lon="2.771464"><ele></ele><time>2017-9-19T7:33:1Z</time></trkpt>
<trkpt lat="48.476319" lon="2.771526"><ele></ele><time>2017-9-19T7:33:4Z</time></trkpt>
<trkpt lat="48.476224" lon="2.771596"><ele></ele><time>2017-9-19T7:33:7Z</time></trkpt>
<trkpt lat="48.476124" lon="2.771656"><ele></ele><time>2017-9-19T7:33:10Z</time></trkpt>
<trkpt lat="48.476023" lon="2.771725"><ele></ele><time>2017-9-19T7:33:13Z</time></trkpt>
<trkpt lat="48.475921" lon="2.771787"><ele></ele><time>2017-9-19T7:33:16Z</time></trkpt>
<trkpt lat="48.475832" lon="2.771826"><ele></ele><time>2017-9-19T7:33:19Z</time></trkpt>
<trkpt lat="48.475753" lon="2.771898"><ele></ele><time>2017-9-19T7:33:22Z</time></trkpt>
<trkpt lat="48.475553" lon="2.772032"><ele></ele><time>2017-9-19T7:33:25Z</time></trkpt>
<trkpt lat="48.475481" lon="2.772113"><ele></ele><time>2017-9-19T7:33:28Z</time></trkpt>
<trkpt lat="48.475359" lon="2.772169"><ele></ele><time>2017-9-19T7:33:31Z</time></trkpt>
<trkpt lat="48.475277" lon="2.772235"><ele></ele><time>2017-9-19T7:33:34Z</time></trkpt>
<trkpt lat="48.47517" lon="2.77226"><ele></ele><time>2017-9-19T7:33:37Z</time></trkpt>
<trkpt lat="48.475063" lon="2.77231"><ele></ele><time>2017-9-19T7:33:40Z</time></trkpt>
<trkpt lat="48.474948" lon="2.772318"><ele></ele><time>2017-9-19T7:33:43Z</time></trkpt>
<trkpt lat="48.474855" lon="2.77237"><ele></ele><time>2017-9-19T7:33:46Z</time></trkpt>
<trkpt lat="48.474759" lon="2.772409"><ele></ele><time>2017-9-19T7:33:49Z</time></trkpt>
<trkpt lat="48.474649" lon="2.772489"><ele></ele><time>2017-9-19T7:33:52Z</time></trkpt>
<trkpt lat="48.474558" lon="2.772526"><ele></ele><time>2017-9-19T7:33:55Z</time></trkpt>
<trkpt lat="48.474428" lon="2.772621"><ele></ele><time>2017-9-19T7:33:58Z</time></trkpt>
<trkpt lat="48.474346" lon="2.772718"><ele></ele><time>2017-9-19T7:34:1Z</time></trkpt>
<trkpt lat="48.474236" lon="2.772764"><ele></ele><time>2017-9-19T7:34:4Z</time></trkpt>
<trkpt lat="48.474125" lon="2.772777"><ele></ele><time>2017-9-19T7:34:7Z</time></trkpt>
<trkpt lat="48.474033" lon="2.772777"><ele></ele><time>2017-9-19T7:34:10Z</time></trkpt>
<trkpt lat="48.473936" lon="2.772842"><ele></ele><time>2017-9-19T7:34:13Z</time></trkpt>
<trkpt lat="48.473787" lon="2.772981"><ele></ele><time>2017-9-19T7:34:16Z</time></trkpt>
<trkpt lat="48.47369" lon="2.773017"><ele></ele><time>2017-9-19T7:34:19Z</time></trkpt>
<trkpt lat="48.473614" lon="2.773144"><ele></ele><time>2017-9-19T7:34:22Z</time></trkpt>
<trkpt lat="48.473478" lon="2.773445"><ele></ele><time>2017-9-19T7:34:25Z</time></trkpt>
<trkpt lat="48.473382" lon="2.773581"><ele></ele><time>2017-9-19T7:34:28Z</time></trkpt>
<trkpt lat="48.473311" lon="2.773684"><ele></ele><time>2017-9-19T7:34:31Z</time></trkpt>
<trkpt lat="48.473208" lon="2.773732"><ele></ele><time>2017-9-19T7:34:34Z</time></trkpt>
<trkpt lat="48.473147" lon="2.773598"><ele></ele><time>2017-9-19T7:34:37Z</time></trkpt>
<trkpt lat="48.47307" lon="2.773454"><ele></ele><time>2017-9-19T7:34:40Z</time></trkpt>
<trkpt lat="48.472985" lon="2.773374"><ele></ele><time>2017-9-19T7:34:43Z</time></trkpt>
<trkpt lat="48.472891" lon="2.773452"><ele></ele><time>2017-9-19T7:34:46Z</time></trkpt>
<trkpt lat="48.472794" lon="2.773499"><ele></ele><time>2017-9-19T7:34:49Z</time></trkpt>
<trkpt lat="48.472701" lon="2.773524"><ele></ele><time>2017-9-19T7:34:52Z</time></trkpt>
<trkpt lat="48.472606" lon="2.773565"><ele></ele><time>2017-9-19T7:34:55Z</time></trkpt>
<trkpt lat="48.472476" lon="2.773553"><ele></ele><time>2017-9-19T7:34:58Z</time></trkpt>
<trkpt lat="48.47234" lon="2.7735"><ele></ele><time>2017-9-19T7:35:1Z</time></trkpt>
<trkpt lat="48.472249" lon="2.77349"><ele></ele><time>2017-9-19T7:35:4Z</time></trkpt>
<trkpt lat="48.472141" lon="2.773471"><ele></ele><time>2017-9-19T7:35:7Z</time></trkpt>
<trkpt lat="48.472043" lon="2.773409"><ele></ele><time>2017-9-19T7:35:10Z</time></trkpt>
<trkpt lat="48.47191" lon="2.773378"><ele></ele><time>2017-9-19T7:35:13Z</time></trkpt>
<trkpt lat="48.471684" lon="2.773443"><ele></ele><time>2017-9-19T7:35:16Z</time></trkpt>
<trkpt lat="48.471564" lon="2.773443"><ele></ele><time>2017-9-19T7:35:19Z</time></trkpt>
<trkpt lat="48.471476" lon="2.773494"><ele></ele><time>2017-9-19T7:35:22Z</time></trkpt>
<trkpt lat="48.471374" lon="2.773536"><ele></ele><time>2017-9-19T7:35:25Z</time></trkpt>
<trkpt lat="48.471284" lon="2.773591"><ele></ele><time>2017-9-19T7:35:28Z</time></trkpt>
<trkpt lat="48.471242" lon="2.773722"><ele></ele><time>2017-9-19T7:35:31Z</time></trkpt>
<trkpt lat="48.471269" lon="2.773869"><ele></ele><time>2017-9-19T7:35:34Z</time></trkpt>
<trkpt lat="48.471279" lon="2.774014"><ele></ele><time>2017-9-19T7:35:37Z</time></trkpt>
<trkpt lat="48.471323" lon="2.774136"><ele></ele><time>2017-9-19T7:35:40Z</time></trkpt>
<trkpt lat="48.471227" lon="2.774226"><ele></ele><time>2017-9-19T7:35:43Z</time></trkpt>
<trkpt lat="48.471122" lon="2.774366"><ele></ele><time>2017-9-19T7:35:46Z</time></trkpt>
<trkpt lat="48.470921" lon="2.774497"><ele></ele><time>2017-9-19T7:35:49Z</time></trkpt>
<trkpt lat="48.47079" lon="2.774507"><ele></ele><time>2017-9-19T7:35:52Z</time></trkpt>
<trkpt lat="48.470697" lon="2.774514"><ele></ele><time>2017-9-19T7:35:55Z</time></trkpt>
<trkpt lat="48.470598" lon="2.774526"><ele></ele><time>2017-9-19T7:35:58Z</time></trkpt>
<trkpt lat="48.470446" lon="2.774559"><ele></ele><time>2017-9-19T7:36:1Z</time></trkpt>
<trkpt lat="48.470337" lon="2.774656"><ele></ele><time>2017-9-19T7:36:4Z</time></trkpt>
<trkpt lat="48.470241" lon="2.774739"><ele></ele><time>2017-9-19T7:36:7Z</time></trkpt>
<trkpt lat="48.47011" lon="2.774816"><ele></ele><time>2017-9-19T7:36:10Z</time></trkpt>
<trkpt lat="48.470021" lon="2.774893"><ele></ele><time>2017-9-19T7:36:13Z</time></trkpt>
<trkpt lat="48.469946" lon="2.774989"><ele></ele><time>2017-9-19T7:36:16Z</time></trkpt>
<trkpt lat="48.469773" lon="2.77491"><ele></ele><time>2017-9-19T7:36:19Z</time></trkpt>
<trkpt lat="48.469744" lon="2.775077"><ele></ele><time>2017-9-19T7:36:22Z</time></trkpt>
<trkpt lat="48.46968" lon="2.775175"><ele></ele><time>2017-9-19T7:36:25Z</time></trkpt>
<trkpt lat="48.469544" lon="2.775256"><ele></ele><time>2017-9-19T7:36:28Z</time></trkpt>
<trkpt lat="48.469376" lon="2.775384"><ele></ele><time>2017-9-19T7:36:31Z</time></trkpt>
<trkpt lat="48.469285" lon="2.775368"><ele></ele><time>2017-9-19T7:36:34Z</time></trkpt>
<trkpt lat="48.469198" lon="2.77541"><ele></ele><time>2017-9-19T7:36:37Z</time></trkpt>
<trkpt lat="48.469112" lon="2.775456"><ele></ele><time>2017-9-19T7:36:40Z</time></trkpt>
<trkpt lat="48.469041" lon="2.775676"><ele></ele><time>2017-9-19T7:36:43Z</time></trkpt>
<trkpt lat="48.468946" lon="2.775731"><ele></ele><time>2017-9-19T7:36:46Z</time></trkpt>
<trkpt lat="48.468753" lon="2.775859"><ele></ele><time>2017-9-19T7:36:49Z</time></trkpt>
<trkpt lat="48.468663" lon="2.775966"><ele></ele><time>2017-9-19T7:36:52Z</time></trkpt>
<trkpt lat="48.468557" lon="2.776051"><ele></ele><time>2017-9-19T7:36:55Z</time></trkpt>
<trkpt lat="48.468481" lon="2.77615"><ele></ele><time>2017-9-19T7:36:58Z</time></trkpt>
<trkpt lat="48.468385" lon="2.776266"><ele></ele><time>2017-9-19T7:37:1Z</time></trkpt>
<trkpt lat="48.468291" lon="2.77633"><ele></ele><time>2017-9-19T7:37:4Z</time></trkpt>
<trkpt lat="48.468201" lon="2.776368"><ele></ele><time>2017-9-19T7:37:7Z</time></trkpt>
<trkpt lat="48.4681" lon="2.776384"><ele></ele><time>2017-9-19T7:37:10Z</time></trkpt>
<trkpt lat="48.467972" lon="2.776475"><ele></ele><time>2017-9-19T7:37:13Z</time></trkpt>
<trkpt lat="48.467861" lon="2.776507"><ele></ele><time>2017-9-19T7:37:16Z</time></trkpt>
<trkpt lat="48.467718" lon="2.776584"><ele></ele><time>2017-9-19T7:37:19Z</time></trkpt>
<trkpt lat="48.467618" lon="2.776659"><ele></ele><time>2017-9-19T7:37:22Z</time></trkpt>
<trkpt lat="48.467529" lon="2.776765"><ele></ele><time>2017-9-19T7:37:25Z</time></trkpt>
<trkpt lat="48.467412" lon="2.776851"><ele></ele><time>2017-9-19T7:37:28Z</time></trkpt>
<trkpt lat="48.467317" lon="2.776934"><ele></ele><time>2017-9-19T7:37:31Z</time></trkpt>
<trkpt lat="48.467229" lon="2.777052"><ele></ele><time>2017-9-19T7:37:34Z</time></trkpt>
<trkpt lat="48.46717" lon="2.777164"><ele></ele><time>2017-9-19T7:37:37Z</time></trkpt>
<trkpt lat="48.467136" lon="2.777296"><ele></ele><time>2017-9-19T7:37:40Z</time></trkpt>
<trkpt lat="48.46707" lon="2.777417"><ele></ele><time>2017-9-19T7:37:43Z</time></trkpt>
<trkpt lat="48.466925" lon="2.777754"><ele></ele><time>2017-9-19T7:37:46Z</time></trkpt>
<trkpt lat="48.466864" lon="2.777926"><ele></ele><time>2017-9-19T7:37:49Z</time></trkpt>
<trkpt lat="48.466829" lon="2.778093"><ele></ele><time>2017-9-19T7:37:52Z</time></trkpt>
<trkpt lat="48.466746" lon="2.778211"><ele></ele><time>2017-9-19T7:37:55Z</time></trkpt>
<trkpt lat="48.466658" lon="2.778287"><ele></ele><time>2017-9-19T7:37:58Z</time></trkpt>
<trkpt lat="48.46659" lon="2.77841"><ele></ele><time>2017-9-19T7:38:1Z</time></trkpt>
<trkpt lat="48.466482" lon="2.778497"><ele></ele><time>2017-9-19T7:38:4Z</time></trkpt>
<trkpt lat="48.466368" lon="2.778648"><ele></ele><time>2017-9-19T7:38:7Z</time></trkpt>
<trkpt lat="48.466258" lon="2.778798"><ele></ele><time>2017-9-19T7:38:10Z</time></trkpt>
<trkpt lat="48.466128" lon="2.778777"><ele></ele><time>2017-9-19T7:38:13Z</time></trkpt>
<trkpt lat="48.465997" lon="2.778742"><ele></ele><time>2017-9-19T7:38:16Z</time></trkpt>
<trkpt lat="48.465903" lon="2.77883"><ele></ele><time>2017-9-19T7:38:19Z</time></trkpt>
<trkpt lat="48.465795" lon="2.778835"><ele></ele><time>2017-9-19T7:38:22Z</time></trkpt>
<trkpt lat="48.465669" lon="2.778847"><ele></ele><time>2017-9-19T7:38:25Z</time></trkpt>
<trkpt lat="48.465596" lon="2.778932"><ele></ele><time>2017-9-19T7:38:28Z</time></trkpt>
<trkpt lat="48.465445" lon="2.778987"><ele></ele><time>2017-9-19T7:38:31Z</time></trkpt>
<trkpt lat="48.465212" lon="2.77879"><ele></ele><time>2017-9-19T7:38:34Z</time></trkpt>
<trkpt lat="48.465161" lon="2.778665"><ele></ele><time>2017-9-19T7:38:37Z</time></trkpt>
<trkpt lat="48.465059" lon="2.778496"><ele></ele><time>2017-9-19T7:38:40Z</time></trkpt>
<trkpt lat="48.464989" lon="2.778333"><ele></ele><time>2017-9-19T7:38:43Z</time></trkpt>
<trkpt lat="48.464895" lon="2.77823"><ele></ele><time>2017-9-19T7:38:46Z</time></trkpt>
<trkpt lat="48.464799" lon="2.77812"><ele></ele><time>2017-9-19T7:38:49Z</time></trkpt>
<trkpt lat="48.464707" lon="2.778032"><ele></ele><time>2017-9-19T7:38:52Z</time></trkpt>
<trkpt lat="48.464632" lon="2.777916"><ele></ele><time>2017-9-19T7:38:55Z</time></trkpt>
<trkpt lat="48.464525" lon="2.777831"><ele></ele><time>2017-9-19T7:38:58Z</time></trkpt>
<trkpt lat="48.464414" lon="2.777737"><ele></ele><time>2017-9-19T7:39:1Z</time></trkpt>
<trkpt lat="48.464302" lon="2.777701"><ele></ele><time>2017-9-19T7:39:4Z</time></trkpt>
<trkpt lat="48.464259" lon="2.777576"><ele></ele><time>2017-9-19T7:39:7Z</time></trkpt>
<trkpt lat="48.464031" lon="2.777705"><ele></ele><time>2017-9-19T7:39:10Z</time></trkpt>
<trkpt lat="48.463913" lon="2.777781"><ele></ele><time>2017-9-19T7:39:13Z</time></trkpt>
<trkpt lat="48.463786" lon="2.777839"><ele></ele><time>2017-9-19T7:39:16Z</time></trkpt>
<trkpt lat="48.463671" lon="2.777784"><ele></ele><time>2017-9-19T7:39:19Z</time></trkpt>
<trkpt lat="48.463527" lon="2.777809"><ele></ele><time>2017-9-19T7:39:22Z</time></trkpt>
<trkpt lat="48.463429" lon="2.777813"><ele></ele><time>2017-9-19T7:39:25Z</time></trkpt>
<trkpt lat="48.463299" lon="2.777823"><ele></ele><time>2017-9-19T7:39:28Z</time></trkpt>
<trkpt lat="48.463191" lon="2.777832"><ele></ele><time>2017-9-19T7:39:31Z</time></trkpt>
<trkpt lat="48.463086" lon="2.777875"><ele></ele><time>2017-9-19T7:39:34Z</time></trkpt>
<trkpt lat="48.46303" lon="2.777984"><ele></ele><time>2017-9-19T7:39:37Z</time></trkpt>
<trkpt lat="48.462936" lon="2.778002"><ele></ele><time>2017-9-19T7:39:40Z</time></trkpt>
<trkpt lat="48.462857" lon="2.778093"><ele></ele><time>2017-9-19T7:39:43Z</time></trkpt>
<trkpt lat="48.462723" lon="2.778151"><ele></ele><time>2017-9-19T7:39:46Z</time></trkpt>
<trkpt lat="48.462475" lon="2.7782"><ele></ele><time>2017-9-19T7:39:49Z</time></trkpt>
<trkpt lat="48.462402" lon="2.77828"><ele></ele><time>2017-9-19T7:39:52Z</time></trkpt>
<trkpt lat="48.46231" lon="2.778342"><ele></ele><time>2017-9-19T7:39:55Z</time></trkpt>
<trkpt lat="48.462203" lon="2.778402"><ele></ele><time>2017-9-19T7:39:58Z</time></trkpt>
<trkpt lat="48.462124" lon="2.778488"><ele></ele><time>2017-9-19T7:40:1Z</time></trkpt>
<trkpt lat="48.462044" lon="2.778606"><ele></ele><time>2017-9-19T7:40:4Z</time></trkpt>
<trkpt lat="48.461932" lon="2.778633"><ele></ele><time>2017-9-19T7:40:7Z</time></trkpt>
<trkpt lat="48.461827" lon="2.778734"><ele></ele><time>2017-9-19T7:40:10Z</time></trkpt>
<trkpt lat="48.461737" lon="2.778895"><ele></ele><time>2017-9-19T7:40:13Z</time></trkpt>
<trkpt lat="48.461675" lon="2.778993"><ele></ele><time>2017-9-19T7:40:16Z</time></trkpt>
<trkpt lat="48.46152" lon="2.779076"><ele></ele><time>2017-9-19T7:40:19Z</time></trkpt>
<trkpt lat="48.461392" lon="2.779225"><ele></ele><time>2017-9-19T7:40:22Z</time></trkpt>
<trkpt lat="48.461226" lon="2.779377"><ele></ele><time>2017-9-19T7:40:25Z</time></trkpt>
<trkpt lat="48.461111" lon="2.779543"><ele></ele><time>2017-9-19T7:40:28Z</time></trkpt>
<trkpt lat="48.461023" lon="2.779653"><ele></ele><time>2017-9-19T7:40:31Z</time></trkpt>
<trkpt lat="48.460886" lon="2.77976"><ele></ele><time>2017-9-19T7:40:34Z</time></trkpt>
<trkpt lat="48.460801" lon="2.77983"><ele></ele><time>2017-9-19T7:40:37Z</time></trkpt>
<trkpt lat="48.460747" lon="2.779985"><ele></ele><time>2017-9-19T7:40:40Z</time></trkpt>
<trkpt lat="48.460681" lon="2.780107"><ele></ele><time>2017-9-19T7:40:43Z</time></trkpt>
<trkpt lat="48.460598" lon="2.780184"><ele></ele><time>2017-9-19T7:40:46Z</time></trkpt>
<trkpt lat="48.460578" lon="2.780342"><ele></ele><time>2017-9-19T7:40:49Z</time></trkpt>
<trkpt lat="48.460523" lon="2.780459"><ele></ele><time>2017-9-19T7:40:52Z</time></trkpt>
<trkpt lat="48.460375" lon="2.780454"><ele></ele><time>2017-9-19T7:40:55Z</time></trkpt>
<trkpt lat="48.460214" lon="2.780391"><ele></ele><time>2017-9-19T7:40:58Z</time></trkpt>
<trkpt lat="48.459962" lon="2.78034"><ele></ele><time>2017-9-19T7:41:1Z</time></trkpt>
<trkpt lat="48.459883" lon="2.780241"><ele></ele><time>2017-9-19T7:41:4Z</time></trkpt>
<trkpt lat="48.459813" lon="2.780127"><ele></ele><time>2017-9-19T7:41:7Z</time></trkpt>
<trkpt lat="48.459718" lon="2.780117"><ele></ele><time>2017-9-19T7:41:10Z</time></trkpt>
<trkpt lat="48.459607" lon="2.780053"><ele></ele><time>2017-9-19T7:41:13Z</time></trkpt>
<trkpt lat="48.459523" lon="2.779971"><ele></ele><time>2017-9-19T7:41:16Z</time></trkpt>
<trkpt lat="48.459435" lon="2.779847"><ele></ele><time>2017-9-19T7:41:19Z</time></trkpt>
<trkpt lat="48.459353" lon="2.779745"><ele></ele><time>2017-9-19T7:41:22Z</time></trkpt>
<trkpt lat="48.459262" lon="2.779668"><ele></ele><time>2017-9-19T7:41:25Z</time></trkpt>
<trkpt lat="48.459181" lon="2.779782"><ele></ele><time>2017-9-19T7:41:28Z</time></trkpt>
<trkpt lat="48.459079" lon="2.779948"><ele></ele><time>2017-9-19T7:41:31Z</time></trkpt>
<trkpt lat="48.458979" lon="2.78007"><ele></ele><time>2017-9-19T7:41:34Z</time></trkpt>
<trkpt lat="48.458826" lon="2.780272"><ele></ele><time>2017-9-19T7:41:37Z</time></trkpt>
<trkpt lat="48.45876" lon="2.780373"><ele></ele><time>2017-9-19T7:41:40Z</time></trkpt>
<trkpt lat="48.45869" lon="2.780467"><ele></ele><time>2017-9-19T7:41:43Z</time></trkpt>
<trkpt lat="48.458622" lon="2.780567"><ele></ele><time>2017-9-19T7:41:46Z</time></trkpt>
<trkpt lat="48.458558" lon="2.780684"><ele></ele><time>2017-9-19T7:41:49Z</time></trkpt>
<trkpt lat="48.458473" lon="2.780817"><ele></ele><time>2017-9-19T7:41:52Z</time></trkpt>
<trkpt lat="48.45839" lon="2.780968"><ele></ele><time>2017-9-19T7:41:55Z</time></trkpt>
<trkpt lat="48.458324" lon="2.78116"><ele></ele><time>2017-9-19T7:41:58Z</time></trkpt>
<trkpt lat="48.458267" lon="2.781334"><ele></ele><time>2017-9-19T7:42:1Z</time></trkpt>
<trkpt lat="48.458266" lon="2.781559"><ele></ele><time>2017-9-19T7:42:4Z</time></trkpt>
<trkpt lat="48.458218" lon="2.781733"><ele></ele><time>2017-9-19T7:42:7Z</time></trkpt>
<trkpt lat="48.458165" lon="2.781873"><ele></ele><time>2017-9-19T7:42:10Z</time></trkpt>
<trkpt lat="48.458116" lon="2.781994"><ele></ele><time>2017-9-19T7:42:13Z</time></trkpt>
<trkpt lat="48.458037" lon="2.782203"><ele></ele><time>2017-9-19T7:42:16Z</time></trkpt>
<trkpt lat="48.457971" lon="2.782393"><ele></ele><time>2017-9-19T7:42:19Z</time></trkpt>
<trkpt lat="48.457922" lon="2.782536"><ele></ele><time>2017-9-19T7:42:22Z</time></trkpt>
<trkpt lat="48.457853" lon="2.782747"><ele></ele><time>2017-9-19T7:42:25Z</time></trkpt>
<trkpt lat="48.457767" lon="2.782884"><ele></ele><time>2017-9-19T7:42:28Z</time></trkpt>
<trkpt lat="48.457651" lon="2.782844"><ele></ele><time>2017-9-19T7:42:31Z</time></trkpt>
<trkpt lat="48.457557" lon="2.782822"><ele></ele><time>2017-9-19T7:42:34Z</time></trkpt>
<trkpt lat="48.457443" lon="2.782822"><ele></ele><time>2017-9-19T7:42:37Z</time></trkpt>
<trkpt lat="48.457332" lon="2.782824"><ele></ele><time>2017-9-19T7:42:40Z</time></trkpt>
<trkpt lat="48.457225" lon="2.782822"><ele></ele><time>2017-9-19T7:42:43Z</time></trkpt>
<trkpt lat="48.457024" lon="2.782801"><ele></ele><time>2017-9-19T7:42:46Z</time></trkpt>
<trkpt lat="48.456923" lon="2.782792"><ele></ele><time>2017-9-19T7:42:49Z</time></trkpt>
<trkpt lat="48.456825" lon="2.782778"><ele></ele><time>2017-9-19T7:42:52Z</time></trkpt>
<trkpt lat="48.456715" lon="2.782775"><ele></ele><time>2017-9-19T7:42:55Z</time></trkpt>
<trkpt lat="48.456624" lon="2.782768"><ele></ele><time>2017-9-19T7:42:58Z</time></trkpt>
<trkpt lat="48.456529" lon="2.782765"><ele></ele><time>2017-9-19T7:43:1Z</time></trkpt>
<trkpt lat="48.456435" lon="2.782768"><ele></ele><time>2017-9-19T7:43:4Z</time></trkpt>
<trkpt lat="48.456333" lon="2.782767"><ele></ele><time>2017-9-19T7:43:7Z</time></trkpt>
<trkpt lat="48.456233" lon="2.782772"><ele></ele><time>2017-9-19T7:43:10Z</time></trkpt>
<trkpt lat="48.456129" lon="2.782777"><ele></ele><time>2017-9-19T7:43:13Z</time></trkpt>
<trkpt lat="48.456032" lon="2.782766"><ele></ele><time>2017-9-19T7:43:16Z</time></trkpt>
<trkpt lat="48.455941" lon="2.782805"><ele></ele><time>2017-9-19T7:43:19Z</time></trkpt>
<trkpt lat="48.455743" lon="2.782862"><ele></ele><time>2017-9-19T7:43:22Z</time></trkpt>
<trkpt lat="48.455658" lon="2.782913"><ele></ele><time>2017-9-19T7:43:25Z</time></trkpt>
<trkpt lat="48.455571" lon="2.782952"><ele></ele><time>2017-9-19T7:43:28Z</time></trkpt>
<trkpt lat="48.455477" lon="2.783004"><ele></ele><time>2017-9-19T7:43:31Z</time></trkpt>
<trkpt lat="48.455382" lon="2.783038"><ele></ele><time>2017-9-19T7:43:34Z</time></trkpt>
<trkpt lat="48.455281" lon="2.783044"><ele></ele><time>2017-9-19T7:43:37Z</time></trkpt>
<trkpt lat="48.455179" lon="2.78304"><ele></ele><time>2017-9-19T7:43:40Z</time></trkpt>
<trkpt lat="48.455084" lon="2.783011"><ele></ele><time>2017-9-19T7:43:43Z</time></trkpt>
<trkpt lat="48.454876" lon="2.782929"><ele></ele><time>2017-9-19T7:43:46Z</time></trkpt>
<trkpt lat="48.454765" lon="2.782884"><ele></ele><time>2017-9-19T7:43:49Z</time></trkpt>
<trkpt lat="48.454668" lon="2.782826"><ele></ele><time>2017-9-19T7:43:52Z</time></trkpt>
<trkpt lat="48.454559" lon="2.782777"><ele></ele><time>2017-9-19T7:43:55Z</time></trkpt>
<trkpt lat="48.454465" lon="2.782715"><ele></ele><time>2017-9-19T7:43:58Z</time></trkpt>
<trkpt lat="48.454377" lon="2.782656"><ele></ele><time>2017-9-19T7:44:1Z</time></trkpt>
<trkpt lat="48.454286" lon="2.782609"><ele></ele><time>2017-9-19T7:44:4Z</time></trkpt>
<trkpt lat="48.454187" lon="2.782575"><ele></ele><time>2017-9-19T7:44:7Z</time></trkpt>
<trkpt lat="48.453974" lon="2.782521"><ele></ele><time>2017-9-19T7:44:10Z</time></trkpt>
<trkpt lat="48.453858" lon="2.782499"><ele></ele><time>2017-9-19T7:44:13Z</time></trkpt>
<trkpt lat="48.453745" lon="2.782483"><ele></ele><time>2017-9-19T7:44:16Z</time></trkpt>
<trkpt lat="48.453641" lon="2.782503"><ele></ele><time>2017-9-19T7:44:19Z</time></trkpt>
<trkpt lat="48.453536" lon="2.782494"><ele></ele><time>2017-9-19T7:44:22Z</time></trkpt>
<trkpt lat="48.453432" lon="2.782469"><ele></ele><time>2017-9-19T7:44:25Z</time></trkpt>
<trkpt lat="48.453341" lon="2.782447"><ele></ele><time>2017-9-19T7:44:28Z</time></trkpt>
<trkpt lat="48.453239" lon="2.782409"><ele></ele><time>2017-9-19T7:44:31Z</time></trkpt>
<trkpt lat="48.453148" lon="2.782369"><ele></ele><time>2017-9-19T7:44:34Z</time></trkpt>
<trkpt lat="48.453058" lon="2.782313"><ele></ele><time>2017-9-19T7:44:37Z</time></trkpt>
<trkpt lat="48.452943" lon="2.782235"><ele></ele><time>2017-9-19T7:44:40Z</time></trkpt>
<trkpt lat="48.452857" lon="2.78215"><ele></ele><time>2017-9-19T7:44:43Z</time></trkpt>
<trkpt lat="48.452718" lon="2.781963"><ele></ele><time>2017-9-19T7:44:46Z</time></trkpt>
<trkpt lat="48.452662" lon="2.781834"><ele></ele><time>2017-9-19T7:44:49Z</time></trkpt>
<trkpt lat="48.452607" lon="2.781686"><ele></ele><time>2017-9-19T7:44:52Z</time></trkpt>
<trkpt lat="48.452549" lon="2.781492"><ele></ele><time>2017-9-19T7:44:55Z</time></trkpt>
<trkpt lat="48.452512" lon="2.781361"><ele></ele><time>2017-9-19T7:44:58Z</time></trkpt>
<trkpt lat="48.452478" lon="2.781229"><ele></ele><time>2017-9-19T7:45:1Z</time></trkpt>
<trkpt lat="48.452444" lon="2.781098"><ele></ele><time>2017-9-19T7:45:4Z</time></trkpt>
<trkpt lat="48.452411" lon="2.780971"><ele></ele><time>2017-9-19T7:45:7Z</time></trkpt>
<trkpt lat="48.452377" lon="2.780836"><ele></ele><time>2017-9-19T7:45:10Z</time></trkpt>
<trkpt lat="48.452345" lon="2.780694"><ele></ele><time>2017-9-19T7:45:13Z</time></trkpt>
<trkpt lat="48.45231" lon="2.78054"><ele></ele><time>2017-9-19T7:45:16Z</time></trkpt>
<trkpt lat="48.452279" lon="2.780383"><ele></ele><time>2017-9-19T7:45:19Z</time></trkpt>
<trkpt lat="48.452252" lon="2.780231"><ele></ele><time>2017-9-19T7:45:22Z</time></trkpt>
<trkpt lat="48.452218" lon="2.780027"><ele></ele><time>2017-9-19T7:45:25Z</time></trkpt>
<trkpt lat="48.452194" lon="2.779864"><ele></ele><time>2017-9-19T7:45:28Z</time></trkpt>
<trkpt lat="48.45217" lon="2.779701"><ele></ele><time>2017-9-19T7:45:31Z</time></trkpt>
<trkpt lat="48.452143" lon="2.779534"><ele></ele><time>2017-9-19T7:45:34Z</time></trkpt>
<trkpt lat="48.452092" lon="2.779197"><ele></ele><time>2017-9-19T7:45:37Z</time></trkpt>
<trkpt lat="48.452067" lon="2.779021"><ele></ele><time>2017-9-19T7:45:40Z</time></trkpt>
<trkpt lat="48.452037" lon="2.778855"><ele></ele><time>2017-9-19T7:45:43Z</time></trkpt>
<trkpt lat="48.452013" lon="2.778691"><ele></ele><time>2017-9-19T7:45:46Z</time></trkpt>
<trkpt lat="48.451991" lon="2.778516"><ele></ele><time>2017-9-19T7:45:49Z</time></trkpt>
<trkpt lat="48.45197" lon="2.778337"><ele></ele><time>2017-9-19T7:45:52Z</time></trkpt>
<trkpt lat="48.451946" lon="2.778163"><ele></ele><time>2017-9-19T7:45:55Z</time></trkpt>
<trkpt lat="48.451919" lon="2.777998"><ele></ele><time>2017-9-19T7:45:58Z</time></trkpt>
<trkpt lat="48.451894" lon="2.777846"><ele></ele><time>2017-9-19T7:46:1Z</time></trkpt>
<trkpt lat="48.451869" lon="2.777686"><ele></ele><time>2017-9-19T7:46:4Z</time></trkpt>
<trkpt lat="48.451836" lon="2.777499"><ele></ele><time>2017-9-19T7:46:7Z</time></trkpt>
<trkpt lat="48.451805" lon="2.777321"><ele></ele><time>2017-9-19T7:46:10Z</time></trkpt>
<trkpt lat="48.451777" lon="2.777144"><ele></ele><time>2017-9-19T7:46:13Z</time></trkpt>
<trkpt lat="48.451755" lon="2.777"><ele></ele><time>2017-9-19T7:46:16Z</time></trkpt>
<trkpt lat="48.451728" lon="2.776843"><ele></ele><time>2017-9-19T7:46:19Z</time></trkpt>
<trkpt lat="48.451694" lon="2.776702"><ele></ele><time>2017-9-19T7:46:22Z</time></trkpt>
<trkpt lat="48.451663" lon="2.776563"><ele></ele><time>2017-9-19T7:46:25Z</time></trkpt>
<trkpt lat="48.45163" lon="2.776412"><ele></ele><time>2017-9-19T7:46:28Z</time></trkpt>
<trkpt lat="48.451594" lon="2.776253"><ele></ele><time>2017-9-19T7:46:31Z</time></trkpt>
<trkpt lat="48.451525" lon="2.775944"><ele></ele><time>2017-9-19T7:46:34Z</time></trkpt>
<trkpt lat="48.45149" lon="2.775784"><ele></ele><time>2017-9-19T7:46:37Z</time></trkpt>
<trkpt lat="48.451452" lon="2.775622"><ele></ele><time>2017-9-19T7:46:40Z</time></trkpt>
<trkpt lat="48.451424" lon="2.775472"><ele></ele><time>2017-9-19T7:46:43Z</time></trkpt>
<trkpt lat="48.451394" lon="2.775326"><ele></ele><time>2017-9-19T7:46:46Z</time></trkpt>
<trkpt lat="48.451362" lon="2.775164"><ele></ele><time>2017-9-19T7:46:49Z</time></trkpt>
<trkpt lat="48.451344" lon="2.77503"><ele></ele><time>2017-9-19T7:46:52Z</time></trkpt>
<trkpt lat="48.451313" lon="2.774843"><ele></ele><time>2017-9-19T7:46:55Z</time></trkpt>
<trkpt lat="48.451297" lon="2.774684"><ele></ele><time>2017-9-19T7:46:58Z</time></trkpt>
<trkpt lat="48.451274" lon="2.774503"><ele></ele><time>2017-9-19T7:47:1Z</time></trkpt>
<trkpt lat="48.451258" lon="2.774317"><ele></ele><time>2017-9-19T7:47:4Z</time></trkpt>
<trkpt lat="48.451236" lon="2.774177"><ele></ele><time>2017-9-19T7:47:7Z</time></trkpt>
<trkpt lat="48.451238" lon="2.774018"><ele></ele><time>2017-9-19T7:47:10Z</time></trkpt>
<trkpt lat="48.451252" lon="2.773848"><ele></ele><time>2017-9-19T7:47:13Z</time></trkpt>
<trkpt lat="48.451241" lon="2.773677"><ele></ele><time>2017-9-19T7:47:16Z</time></trkpt>
<trkpt lat="48.451255" lon="2.773499"><ele></ele><time>2017-9-19T7:47:19Z</time></trkpt>
<trkpt lat="48.451273" lon="2.773351"><ele></ele><time>2017-9-19T7:47:22Z</time></trkpt>
<trkpt lat="48.451252" lon="2.773524"><ele></ele><time>2017-9-19T7:47:25Z</time></trkpt>
<trkpt lat="48.451131" lon="2.773788"><ele></ele><time>2017-9-19T7:47:28Z</time></trkpt>
<trkpt lat="48.451034" lon="2.77386"><ele></ele><time>2017-9-19T7:47:31Z</time></trkpt>
<trkpt lat="48.450936" lon="2.773889"><ele></ele><time>2017-9-19T7:47:34Z</time></trkpt>
<trkpt lat="48.450829" lon="2.773948"><ele></ele><time>2017-9-19T7:47:37Z</time></trkpt>
<trkpt lat="48.450719" lon="2.774021"><ele></ele><time>2017-9-19T7:47:40Z</time></trkpt>
<trkpt lat="48.450605" lon="2.774064"><ele></ele><time>2017-9-19T7:47:43Z</time></trkpt>
<trkpt lat="48.450487" lon="2.774107"><ele></ele><time>2017-9-19T7:47:46Z</time></trkpt>
<trkpt lat="48.450375" lon="2.774146"><ele></ele><time>2017-9-19T7:47:49Z</time></trkpt>
<trkpt lat="48.450258" lon="2.774182"><ele></ele><time>2017-9-19T7:47:52Z</time></trkpt>
<trkpt lat="48.450139" lon="2.774205"><ele></ele><time>2017-9-19T7:47:55Z</time></trkpt>
<trkpt lat="48.450018" lon="2.77424"><ele></ele><time>2017-9-19T7:47:58Z</time></trkpt>
<trkpt lat="48.449898" lon="2.774271"><ele></ele><time>2017-9-19T7:48:1Z</time></trkpt>
<trkpt lat="48.44978" lon="2.774305"><ele></ele><time>2017-9-19T7:48:4Z</time></trkpt>
<trkpt lat="48.449654" lon="2.77432"><ele></ele><time>2017-9-19T7:48:7Z</time></trkpt>
<trkpt lat="48.449535" lon="2.774347"><ele></ele><time>2017-9-19T7:48:10Z</time></trkpt>
<trkpt lat="48.449413" lon="2.774366"><ele></ele><time>2017-9-19T7:48:13Z</time></trkpt>
<trkpt lat="48.449299" lon="2.77437"><ele></ele><time>2017-9-19T7:48:16Z</time></trkpt>
<trkpt lat="48.449144" lon="2.774397"><ele></ele><time>2017-9-19T7:48:19Z</time></trkpt>
<trkpt lat="48.449028" lon="2.774411"><ele></ele><time>2017-9-19T7:48:22Z</time></trkpt>
<trkpt lat="48.448704" lon="2.774404"><ele></ele><time>2017-9-19T7:48:25Z</time></trkpt>
<trkpt lat="48.44861" lon="2.774386"><ele></ele><time>2017-9-19T7:48:28Z</time></trkpt>
<trkpt lat="48.448448" lon="2.774391"><ele></ele><time>2017-9-19T7:48:31Z</time></trkpt>
<trkpt lat="48.448295" lon="2.774474"><ele></ele><time>2017-9-19T7:48:34Z</time></trkpt>
<trkpt lat="48.448195" lon="2.774503"><ele></ele><time>2017-9-19T7:48:37Z</time></trkpt>
<trkpt lat="48.448063" lon="2.774554"><ele></ele><time>2017-9-19T7:48:40Z</time></trkpt>
<trkpt lat="48.447844" lon="2.774596"><ele></ele><time>2017-9-19T7:48:43Z</time></trkpt>
<trkpt lat="48.44772" lon="2.774633"><ele></ele><time>2017-9-19T7:48:46Z</time></trkpt>
<trkpt lat="48.447598" lon="2.774662"><ele></ele><time>2017-9-19T7:48:49Z</time></trkpt>
<trkpt lat="48.447491" lon="2.774659"><ele></ele><time>2017-9-19T7:48:52Z</time></trkpt>
<trkpt lat="48.447365" lon="2.774647"><ele></ele><time>2017-9-19T7:48:55Z</time></trkpt>
<trkpt lat="48.447278" lon="2.774686"><ele></ele><time>2017-9-19T7:48:58Z</time></trkpt>
<trkpt lat="48.447162" lon="2.774666"><ele></ele><time>2017-9-19T7:49:1Z</time></trkpt>
<trkpt lat="48.44705" lon="2.774658"><ele></ele><time>2017-9-19T7:49:4Z</time></trkpt>
<trkpt lat="48.446946" lon="2.77467"><ele></ele><time>2017-9-19T7:49:7Z</time></trkpt>
<trkpt lat="48.446861" lon="2.774832"><ele></ele><time>2017-9-19T7:49:10Z</time></trkpt>
<trkpt lat="48.446741" lon="2.774932"><ele></ele><time>2017-9-19T7:49:13Z</time></trkpt>
<trkpt lat="48.446658" lon="2.77502"><ele></ele><time>2017-9-19T7:49:16Z</time></trkpt>
<trkpt lat="48.446473" lon="2.77519"><ele></ele><time>2017-9-19T7:49:19Z</time></trkpt>
<trkpt lat="48.446372" lon="2.775306"><ele></ele><time>2017-9-19T7:49:22Z</time></trkpt>
<trkpt lat="48.446451" lon="2.775228"><ele></ele><time>2017-9-19T7:49:25Z</time></trkpt>
<trkpt lat="48.446528" lon="2.775133"><ele></ele><time>2017-9-19T7:49:28Z</time></trkpt>
<trkpt lat="48.446553" lon="2.774993"><ele></ele><time>2017-9-19T7:49:31Z</time></trkpt>
<trkpt lat="48.446514" lon="2.774868"><ele></ele><time>2017-9-19T7:49:34Z</time></trkpt>
<trkpt lat="48.446451" lon="2.774764"><ele></ele><time>2017-9-19T7:49:37Z</time></trkpt>
<trkpt lat="48.446367" lon="2.774641"><ele></ele><time>2017-9-19T7:49:40Z</time></trkpt>
<trkpt lat="48.446272" lon="2.774539"><ele></ele><time>2017-9-19T7:49:43Z</time></trkpt>
<trkpt lat="48.44619" lon="2.774412"><ele></ele><time>2017-9-19T7:49:46Z</time></trkpt>
<trkpt lat="48.446067" lon="2.774406"><ele></ele><time>2017-9-19T7:49:49Z</time></trkpt>
<trkpt lat="48.445975" lon="2.774496"><ele></ele><time>2017-9-19T7:49:52Z</time></trkpt>
<trkpt lat="48.445877" lon="2.774401"><ele></ele><time>2017-9-19T7:49:55Z</time></trkpt>
<trkpt lat="48.445815" lon="2.774019"><ele></ele><time>2017-9-19T7:49:58Z</time></trkpt>
<trkpt lat="48.44577" lon="2.773791"><ele></ele><time>2017-9-19T7:50:1Z</time></trkpt>
<trkpt lat="48.445677" lon="2.773661"><ele></ele><time>2017-9-19T7:50:4Z</time></trkpt>
<trkpt lat="48.445581" lon="2.773613"><ele></ele><time>2017-9-19T7:50:7Z</time></trkpt>
<trkpt lat="48.445481" lon="2.773598"><ele></ele><time>2017-9-19T7:50:10Z</time></trkpt>
<trkpt lat="48.445359" lon="2.773587"><ele></ele><time>2017-9-19T7:50:13Z</time></trkpt>
<trkpt lat="48.445243" lon="2.773592"><ele></ele><time>2017-9-19T7:50:16Z</time></trkpt>
<trkpt lat="48.445151" lon="2.773565"><ele></ele><time>2017-9-19T7:50:19Z</time></trkpt>
<trkpt lat="48.445056" lon="2.773467"><ele></ele><time>2017-9-19T7:50:22Z</time></trkpt>
<trkpt lat="48.44497" lon="2.7734"><ele></ele><time>2017-9-19T7:50:25Z</time></trkpt>
<trkpt lat="48.444827" lon="2.773329"><ele></ele><time>2017-9-19T7:50:28Z</time></trkpt>
<trkpt lat="48.444715" lon="2.773224"><ele></ele><time>2017-9-19T7:50:31Z</time></trkpt>
<trkpt lat="48.444646" lon="2.773126"><ele></ele><time>2017-9-19T7:50:34Z</time></trkpt>
<trkpt lat="48.444661" lon="2.772972"><ele></ele><time>2017-9-19T7:50:37Z</time></trkpt>
<trkpt lat="48.444567" lon="2.772864"><ele></ele><time>2017-9-19T7:50:40Z</time></trkpt>
<trkpt lat="48.444505" lon="2.772757"><ele></ele><time>2017-9-19T7:50:43Z</time></trkpt>
<trkpt lat="48.444414" lon="2.772713"><ele></ele><time>2017-9-19T7:50:46Z</time></trkpt>
<trkpt lat="48.444321" lon="2.772658"><ele></ele><time>2017-9-19T7:50:49Z</time></trkpt>
<trkpt lat="48.444265" lon="2.772535"><ele></ele><time>2017-9-19T7:50:52Z</time></trkpt>
<trkpt lat="48.444126" lon="2.772347"><ele></ele><time>2017-9-19T7:50:55Z</time></trkpt>
<trkpt lat="48.444052" lon="2.772247"><ele></ele><time>2017-9-19T7:50:58Z</time></trkpt>
<trkpt lat="48.443983" lon="2.772097"><ele></ele><time>2017-9-19T7:51:1Z</time></trkpt>
<trkpt lat="48.443926" lon="2.771972"><ele></ele><time>2017-9-19T7:51:4Z</time></trkpt>
<trkpt lat="48.443953" lon="2.771804"><ele></ele><time>2017-9-19T7:51:7Z</time></trkpt>
<trkpt lat="48.444013" lon="2.771677"><ele></ele><time>2017-9-19T7:51:10Z</time></trkpt>
<trkpt lat="48.444051" lon="2.771498"><ele></ele><time>2017-9-19T7:51:13Z</time></trkpt>
<trkpt lat="48.444127" lon="2.771391"><ele></ele><time>2017-9-19T7:51:16Z</time></trkpt>
<trkpt lat="48.444186" lon="2.77128"><ele></ele><time>2017-9-19T7:51:19Z</time></trkpt>
<trkpt lat="48.444252" lon="2.77111"><ele></ele><time>2017-9-19T7:51:22Z</time></trkpt>
<trkpt lat="48.444303" lon="2.77098"><ele></ele><time>2017-9-19T7:51:25Z</time></trkpt>
<trkpt lat="48.444305" lon="2.770829"><ele></ele><time>2017-9-19T7:51:28Z</time></trkpt>
<trkpt lat="48.444379" lon="2.770659"><ele></ele><time>2017-9-19T7:51:31Z</time></trkpt>
<trkpt lat="48.444417" lon="2.770525"><ele></ele><time>2017-9-19T7:51:34Z</time></trkpt>
<trkpt lat="48.44446" lon="2.770342"><ele></ele><time>2017-9-19T7:51:37Z</time></trkpt>
<trkpt lat="48.444509" lon="2.770062"><ele></ele><time>2017-9-19T7:51:40Z</time></trkpt>
<trkpt lat="48.444568" lon="2.769958"><ele></ele><time>2017-9-19T7:51:43Z</time></trkpt>
<trkpt lat="48.444412" lon="2.769807"><ele></ele><time>2017-9-19T7:51:46Z</time></trkpt>
<trkpt lat="48.444281" lon="2.769678"><ele></ele><time>2017-9-19T7:51:49Z</time></trkpt>
<trkpt lat="48.444181" lon="2.769542"><ele></ele><time>2017-9-19T7:51:52Z</time></trkpt>
<trkpt lat="48.444108" lon="2.769445"><ele></ele><time>2017-9-19T7:51:55Z</time></trkpt>
<trkpt lat="48.444016" lon="2.769357"><ele></ele><time>2017-9-19T7:51:58Z</time></trkpt>
<trkpt lat="48.443965" lon="2.769239"><ele></ele><time>2017-9-19T7:52:1Z</time></trkpt>
<trkpt lat="48.443798" lon="2.76915"><ele></ele><time>2017-9-19T7:52:4Z</time></trkpt>
<trkpt lat="48.443719" lon="2.76906"><ele></ele><time>2017-9-19T7:52:7Z</time></trkpt>
<trkpt lat="48.443626" lon="2.768993"><ele></ele><time>2017-9-19T7:52:10Z</time></trkpt>
<trkpt lat="48.443537" lon="2.768944"><ele></ele><time>2017-9-19T7:52:13Z</time></trkpt>
<trkpt lat="48.443398" lon="2.768887"><ele></ele><time>2017-9-19T7:52:16Z</time></trkpt>
<trkpt lat="48.443287" lon="2.768792"><ele></ele><time>2017-9-19T7:52:19Z</time></trkpt>
<trkpt lat="48.443242" lon="2.768671"><ele></ele><time>2017-9-19T7:52:22Z</time></trkpt>
<trkpt lat="48.443011" lon="2.768524"><ele></ele><time>2017-9-19T7:52:25Z</time></trkpt>
<trkpt lat="48.442939" lon="2.768416"><ele></ele><time>2017-9-19T7:52:28Z</time></trkpt>
<trkpt lat="48.44283" lon="2.768323"><ele></ele><time>2017-9-19T7:52:31Z</time></trkpt>
<trkpt lat="48.44274" lon="2.768219"><ele></ele><time>2017-9-19T7:52:34Z</time></trkpt>
<trkpt lat="48.442642" lon="2.76816"><ele></ele><time>2017-9-19T7:52:37Z</time></trkpt>
<trkpt lat="48.442525" lon="2.768045"><ele></ele><time>2017-9-19T7:52:40Z</time></trkpt>
<trkpt lat="48.442439" lon="2.767995"><ele></ele><time>2017-9-19T7:52:43Z</time></trkpt>
<trkpt lat="48.442441" lon="2.76784"><ele></ele><time>2017-9-19T7:52:46Z</time></trkpt>
<trkpt lat="48.442484" lon="2.767715"><ele></ele><time>2017-9-19T7:52:49Z</time></trkpt>
<trkpt lat="48.442527" lon="2.767592"><ele></ele><time>2017-9-19T7:52:52Z</time></trkpt>
<trkpt lat="48.442578" lon="2.76746"><ele></ele><time>2017-9-19T7:52:55Z</time></trkpt>
<trkpt lat="48.44263" lon="2.767325"><ele></ele><time>2017-9-19T7:52:58Z</time></trkpt>
<trkpt lat="48.442685" lon="2.767183"><ele></ele><time>2017-9-19T7:53:1Z</time></trkpt>
<trkpt lat="48.442752" lon="2.767055"><ele></ele><time>2017-9-19T7:53:4Z</time></trkpt>
<trkpt lat="48.442813" lon="2.766908"><ele></ele><time>2017-9-19T7:53:7Z</time></trkpt>
<trkpt lat="48.442886" lon="2.766743"><ele></ele><time>2017-9-19T7:53:10Z</time></trkpt>
<trkpt lat="48.442913" lon="2.766539"><ele></ele><time>2017-9-19T7:53:13Z</time></trkpt>
<trkpt lat="48.442953" lon="2.766346"><ele></ele><time>2017-9-19T7:53:16Z</time></trkpt>
<trkpt lat="48.442996" lon="2.766198"><ele></ele><time>2017-9-19T7:53:19Z</time></trkpt>
<trkpt lat="48.443039" lon="2.766036"><ele></ele><time>2017-9-19T7:53:22Z</time></trkpt>
<trkpt lat="48.443066" lon="2.765904"><ele></ele><time>2017-9-19T7:53:25Z</time></trkpt>
<trkpt lat="48.443121" lon="2.765759"><ele></ele><time>2017-9-19T7:53:28Z</time></trkpt>
<trkpt lat="48.443188" lon="2.765594"><ele></ele><time>2017-9-19T7:53:31Z</time></trkpt>
<trkpt lat="48.443209" lon="2.765257"><ele></ele><time>2017-9-19T7:53:34Z</time></trkpt>
<trkpt lat="48.443222" lon="2.765108"><ele></ele><time>2017-9-19T7:53:37Z</time></trkpt>
<trkpt lat="48.44311" lon="2.764973"><ele></ele><time>2017-9-19T7:53:40Z</time></trkpt>
<trkpt lat="48.442989" lon="2.764924"><ele></ele><time>2017-9-19T7:53:43Z</time></trkpt>
<trkpt lat="48.442866" lon="2.765043"><ele></ele><time>2017-9-19T7:53:46Z</time></trkpt>
<trkpt lat="48.442757" lon="2.7651"><ele></ele><time>2017-9-19T7:53:49Z</time></trkpt>
<trkpt lat="48.442651" lon="2.765183"><ele></ele><time>2017-9-19T7:53:52Z</time></trkpt>
<trkpt lat="48.44257" lon="2.765257"><ele></ele><time>2017-9-19T7:53:55Z</time></trkpt>
<trkpt lat="48.442475" lon="2.765336"><ele></ele><time>2017-9-19T7:53:58Z</time></trkpt>
<trkpt lat="48.442394" lon="2.765428"><ele></ele><time>2017-9-19T7:54:1Z</time></trkpt>
<trkpt lat="48.442302" lon="2.765479"><ele></ele><time>2017-9-19T7:54:4Z</time></trkpt>
<trkpt lat="48.442216" lon="2.765536"><ele></ele><time>2017-9-19T7:54:7Z</time></trkpt>
<trkpt lat="48.442091" lon="2.765594"><ele></ele><time>2017-9-19T7:54:10Z</time></trkpt>
<trkpt lat="48.441986" lon="2.76567"><ele></ele><time>2017-9-19T7:54:13Z</time></trkpt>
<trkpt lat="48.441874" lon="2.765749"><ele></ele><time>2017-9-19T7:54:16Z</time></trkpt>
<trkpt lat="48.441785" lon="2.765782"><ele></ele><time>2017-9-19T7:54:19Z</time></trkpt>
<trkpt lat="48.441699" lon="2.765865"><ele></ele><time>2017-9-19T7:54:22Z</time></trkpt>
<trkpt lat="48.441599" lon="2.76587"><ele></ele><time>2017-9-19T7:54:25Z</time></trkpt>
<trkpt lat="48.441455" lon="2.765917"><ele></ele><time>2017-9-19T7:54:28Z</time></trkpt>
<trkpt lat="48.44124" lon="2.765978"><ele></ele><time>2017-9-19T7:54:31Z</time></trkpt>
<trkpt lat="48.441148" lon="2.765964"><ele></ele><time>2017-9-19T7:54:34Z</time></trkpt>
<trkpt lat="48.441031" lon="2.766026"><ele></ele><time>2017-9-19T7:54:37Z</time></trkpt>
<trkpt lat="48.440917" lon="2.766098"><ele></ele><time>2017-9-19T7:54:40Z</time></trkpt>
<trkpt lat="48.440775" lon="2.766155"><ele></ele><time>2017-9-19T7:54:43Z</time></trkpt>
<trkpt lat="48.44067" lon="2.766213"><ele></ele><time>2017-9-19T7:54:46Z</time></trkpt>
<trkpt lat="48.440514" lon="2.766264"><ele></ele><time>2017-9-19T7:54:49Z</time></trkpt>
<trkpt lat="48.44039" lon="2.76629"><ele></ele><time>2017-9-19T7:54:52Z</time></trkpt>
<trkpt lat="48.440288" lon="2.766309"><ele></ele><time>2017-9-19T7:54:55Z</time></trkpt>
<trkpt lat="48.440178" lon="2.766192"><ele></ele><time>2017-9-19T7:54:58Z</time></trkpt>
<trkpt lat="48.440106" lon="2.766041"><ele></ele><time>2017-9-19T7:55:1Z</time></trkpt>
<trkpt lat="48.440051" lon="2.765922"><ele></ele><time>2017-9-19T7:55:4Z</time></trkpt>
<trkpt lat="48.439982" lon="2.765716"><ele></ele><time>2017-9-19T7:55:7Z</time></trkpt>
<trkpt lat="48.439946" lon="2.765536"><ele></ele><time>2017-9-19T7:55:10Z</time></trkpt>
<trkpt lat="48.439963" lon="2.765394"><ele></ele><time>2017-9-19T7:55:13Z</time></trkpt>
<trkpt lat="48.439959" lon="2.765242"><ele></ele><time>2017-9-19T7:55:16Z</time></trkpt>
<trkpt lat="48.439972" lon="2.765094"><ele></ele><time>2017-9-19T7:55:19Z</time></trkpt>
<trkpt lat="48.439822" lon="2.764707"><ele></ele><time>2017-9-19T7:55:22Z</time></trkpt>
<trkpt lat="48.439815" lon="2.764566"><ele></ele><time>2017-9-19T7:55:25Z</time></trkpt>
<trkpt lat="48.439801" lon="2.764325"><ele></ele><time>2017-9-19T7:55:28Z</time></trkpt>
<trkpt lat="48.439813" lon="2.764146"><ele></ele><time>2017-9-19T7:55:31Z</time></trkpt>
<trkpt lat="48.439835" lon="2.763949"><ele></ele><time>2017-9-19T7:55:34Z</time></trkpt>
<trkpt lat="48.439875" lon="2.763762"><ele></ele><time>2017-9-19T7:55:37Z</time></trkpt>
<trkpt lat="48.439795" lon="2.763667"><ele></ele><time>2017-9-19T7:55:40Z</time></trkpt>
<trkpt lat="48.439696" lon="2.763613"><ele></ele><time>2017-9-19T7:55:43Z</time></trkpt>
<trkpt lat="48.439595" lon="2.763561"><ele></ele><time>2017-9-19T7:55:46Z</time></trkpt>
<trkpt lat="48.439498" lon="2.763538"><ele></ele><time>2017-9-19T7:55:49Z</time></trkpt>
<trkpt lat="48.439403" lon="2.763512"><ele></ele><time>2017-9-19T7:55:52Z</time></trkpt>
<trkpt lat="48.439296" lon="2.763543"><ele></ele><time>2017-9-19T7:55:55Z</time></trkpt>
<trkpt lat="48.439195" lon="2.763564"><ele></ele><time>2017-9-19T7:55:58Z</time></trkpt>
<trkpt lat="48.439062" lon="2.763572"><ele></ele><time>2017-9-19T7:56:1Z</time></trkpt>
<trkpt lat="48.438915" lon="2.763585"><ele></ele><time>2017-9-19T7:56:4Z</time></trkpt>
<trkpt lat="48.438823" lon="2.763584"><ele></ele><time>2017-9-19T7:56:7Z</time></trkpt>
<trkpt lat="48.438729" lon="2.763551"><ele></ele><time>2017-9-19T7:56:10Z</time></trkpt>
<trkpt lat="48.438637" lon="2.763524"><ele></ele><time>2017-9-19T7:56:13Z</time></trkpt>
<trkpt lat="48.438495" lon="2.763453"><ele></ele><time>2017-9-19T7:56:16Z</time></trkpt>
<trkpt lat="48.438249" lon="2.763368"><ele></ele><time>2017-9-19T7:56:19Z</time></trkpt>
<trkpt lat="48.438087" lon="2.763299"><ele></ele><time>2017-9-19T7:56:22Z</time></trkpt>
<trkpt lat="48.437955" lon="2.763274"><ele></ele><time>2017-9-19T7:56:25Z</time></trkpt>
<trkpt lat="48.437834" lon="2.763234"><ele></ele><time>2017-9-19T7:56:28Z</time></trkpt>
<trkpt lat="48.437719" lon="2.763188"><ele></ele><time>2017-9-19T7:56:31Z</time></trkpt>
<trkpt lat="48.437625" lon="2.763135"><ele></ele><time>2017-9-19T7:56:34Z</time></trkpt>
<trkpt lat="48.437547" lon="2.763047"><ele></ele><time>2017-9-19T7:56:37Z</time></trkpt>
<trkpt lat="48.43746" lon="2.762946"><ele></ele><time>2017-9-19T7:56:40Z</time></trkpt>
<trkpt lat="48.437358" lon="2.762822"><ele></ele><time>2017-9-19T7:56:43Z</time></trkpt>
<trkpt lat="48.437268" lon="2.762738"><ele></ele><time>2017-9-19T7:56:46Z</time></trkpt>
<trkpt lat="48.437085" lon="2.762659"><ele></ele><time>2017-9-19T7:56:49Z</time></trkpt>
<trkpt lat="48.436998" lon="2.762611"><ele></ele><time>2017-9-19T7:56:52Z</time></trkpt>
<trkpt lat="48.436876" lon="2.762595"><ele></ele><time>2017-9-19T7:56:55Z</time></trkpt>
<trkpt lat="48.436755" lon="2.762589"><ele></ele><time>2017-9-19T7:56:58Z</time></trkpt>
<trkpt lat="48.436646" lon="2.762568"><ele></ele><time>2017-9-19T7:57:1Z</time></trkpt>
<trkpt lat="48.436517" lon="2.762563"><ele></ele><time>2017-9-19T7:57:4Z</time></trkpt>
<trkpt lat="48.436286" lon="2.762552"><ele></ele><time>2017-9-19T7:57:7Z</time></trkpt>
<trkpt lat="48.436181" lon="2.76255"><ele></ele><time>2017-9-19T7:57:10Z</time></trkpt>
<trkpt lat="48.436074" lon="2.762546"><ele></ele><time>2017-9-19T7:57:13Z</time></trkpt>
<trkpt lat="48.435915" lon="2.76254"><ele></ele><time>2017-9-19T7:57:16Z</time></trkpt>
<trkpt lat="48.435756" lon="2.762605"><ele></ele><time>2017-9-19T7:57:19Z</time></trkpt>
<trkpt lat="48.435632" lon="2.762603"><ele></ele><time>2017-9-19T7:57:22Z</time></trkpt>
<trkpt lat="48.435508" lon="2.762617"><ele></ele><time>2017-9-19T7:57:25Z</time></trkpt>
<trkpt lat="48.435405" lon="2.762617"><ele></ele><time>2017-9-19T7:57:28Z</time></trkpt>
<trkpt lat="48.435294" lon="2.762634"><ele></ele><time>2017-9-19T7:57:31Z</time></trkpt>
<trkpt lat="48.435184" lon="2.762656"><ele></ele><time>2017-9-19T7:57:34Z</time></trkpt>
<trkpt lat="48.43504" lon="2.762703"><ele></ele><time>2017-9-19T7:57:37Z</time></trkpt>
<trkpt lat="48.434937" lon="2.762706"><ele></ele><time>2017-9-19T7:57:40Z</time></trkpt>
<trkpt lat="48.434839" lon="2.762686"><ele></ele><time>2017-9-19T7:57:43Z</time></trkpt>
<trkpt lat="48.434721" lon="2.762647"><ele></ele><time>2017-9-19T7:57:46Z</time></trkpt>
<trkpt lat="48.434601" lon="2.762611"><ele></ele><time>2017-9-19T7:57:49Z</time></trkpt>
<trkpt lat="48.434492" lon="2.762563"><ele></ele><time>2017-9-19T7:57:52Z</time></trkpt>
<trkpt lat="48.434369" lon="2.762522"><ele></ele><time>2017-9-19T7:57:55Z</time></trkpt>
<trkpt lat="48.43428" lon="2.762503"><ele></ele><time>2017-9-19T7:57:58Z</time></trkpt>
<trkpt lat="48.434159" lon="2.76247"><ele></ele><time>2017-9-19T7:58:1Z</time></trkpt>
<trkpt lat="48.434038" lon="2.762456"><ele></ele><time>2017-9-19T7:58:4Z</time></trkpt>
<trkpt lat="48.433975" lon="2.762175"><ele></ele><time>2017-9-19T7:58:7Z</time></trkpt>
<trkpt lat="48.433977" lon="2.762003"><ele></ele><time>2017-9-19T7:58:10Z</time></trkpt>
<trkpt lat="48.433912" lon="2.761781"><ele></ele><time>2017-9-19T7:58:13Z</time></trkpt>
<trkpt lat="48.433834" lon="2.76169"><ele></ele><time>2017-9-19T7:58:16Z</time></trkpt>
<trkpt lat="48.433741" lon="2.761568"><ele></ele><time>2017-9-19T7:58:19Z</time></trkpt>
<trkpt lat="48.433651" lon="2.761534"><ele></ele><time>2017-9-19T7:58:22Z</time></trkpt>
<trkpt lat="48.433642" lon="2.761389"><ele></ele><time>2017-9-19T7:58:25Z</time></trkpt>
<trkpt lat="48.43365" lon="2.761098"><ele></ele><time>2017-9-19T7:58:28Z</time></trkpt>
<trkpt lat="48.43366" lon="2.760903"><ele></ele><time>2017-9-19T7:58:31Z</time></trkpt>
<trkpt lat="48.433692" lon="2.760697"><ele></ele><time>2017-9-19T7:58:34Z</time></trkpt>
<trkpt lat="48.433719" lon="2.76048"><ele></ele><time>2017-9-19T7:58:37Z</time></trkpt>
<trkpt lat="48.433741" lon="2.760346"><ele></ele><time>2017-9-19T7:58:40Z</time></trkpt>
<trkpt lat="48.433688" lon="2.76019"><ele></ele><time>2017-9-19T7:58:43Z</time></trkpt>
<trkpt lat="48.433586" lon="2.760106"><ele></ele><time>2017-9-19T7:58:46Z</time></trkpt>
<trkpt lat="48.433483" lon="2.76005"><ele></ele><time>2017-9-19T7:58:49Z</time></trkpt>
<trkpt lat="48.433376" lon="2.759999"><ele></ele><time>2017-9-19T7:58:52Z</time></trkpt>
<trkpt lat="48.433283" lon="2.759978"><ele></ele><time>2017-9-19T7:58:55Z</time></trkpt>
<trkpt lat="48.433182" lon="2.759938"><ele></ele><time>2017-9-19T7:58:58Z</time></trkpt>
<trkpt lat="48.43308" lon="2.759891"><ele></ele><time>2017-9-19T7:59:1Z</time></trkpt>
<trkpt lat="48.432972" lon="2.759855"><ele></ele><time>2017-9-19T7:59:4Z</time></trkpt>
<trkpt lat="48.432861" lon="2.75981"><ele></ele><time>2017-9-19T7:59:7Z</time></trkpt>
<trkpt lat="48.432746" lon="2.75977"><ele></ele><time>2017-9-19T7:59:10Z</time></trkpt>
<trkpt lat="48.432638" lon="2.75972"><ele></ele><time>2017-9-19T7:59:13Z</time></trkpt>
<trkpt lat="48.432528" lon="2.759668"><ele></ele><time>2017-9-19T7:59:16Z</time></trkpt>
<trkpt lat="48.432429" lon="2.759638"><ele></ele><time>2017-9-19T7:59:19Z</time></trkpt>
<trkpt lat="48.432338" lon="2.759598"><ele></ele><time>2017-9-19T7:59:22Z</time></trkpt>
<trkpt lat="48.432236" lon="2.759547"><ele></ele><time>2017-9-19T7:59:25Z</time></trkpt>
<trkpt lat="48.43201" lon="2.759442"><ele></ele><time>2017-9-19T7:59:28Z</time></trkpt>
<trkpt lat="48.431919" lon="2.759386"><ele></ele><time>2017-9-19T7:59:31Z</time></trkpt>
<trkpt lat="48.431828" lon="2.759376"><ele></ele><time>2017-9-19T7:59:34Z</time></trkpt>
<trkpt lat="48.431724" lon="2.759339"><ele></ele><time>2017-9-19T7:59:37Z</time></trkpt>
<trkpt lat="48.431689" lon="2.759207"><ele></ele><time>2017-9-19T7:59:40Z</time></trkpt>
<trkpt lat="48.431715" lon="2.758884"><ele></ele><time>2017-9-19T7:59:43Z</time></trkpt>
<trkpt lat="48.431742" lon="2.758706"><ele></ele><time>2017-9-19T7:59:46Z</time></trkpt>
<trkpt lat="48.43172" lon="2.758555"><ele></ele><time>2017-9-19T7:59:49Z</time></trkpt>
<trkpt lat="48.431632" lon="2.758463"><ele></ele><time>2017-9-19T7:59:52Z</time></trkpt>
<trkpt lat="48.431531" lon="2.758388"><ele></ele><time>2017-9-19T7:59:55Z</time></trkpt>
<trkpt lat="48.431433" lon="2.758319"><ele></ele><time>2017-9-19T7:59:58Z</time></trkpt>
<trkpt lat="48.431331" lon="2.758242"><ele></ele><time>2017-9-19T8:0:1Z</time></trkpt>
<trkpt lat="48.431243" lon="2.758213"><ele></ele><time>2017-9-19T8:0:4Z</time></trkpt>
<trkpt lat="48.431144" lon="2.758163"><ele></ele><time>2017-9-19T8:0:7Z</time></trkpt>
<trkpt lat="48.431036" lon="2.758129"><ele></ele><time>2017-9-19T8:0:10Z</time></trkpt>
<trkpt lat="48.430908" lon="2.758078"><ele></ele><time>2017-9-19T8:0:13Z</time></trkpt>
<trkpt lat="48.430783" lon="2.758049"><ele></ele><time>2017-9-19T8:0:16Z</time></trkpt>
<trkpt lat="48.430692" lon="2.75803"><ele></ele><time>2017-9-19T8:0:19Z</time></trkpt>
<trkpt lat="48.430569" lon="2.757989"><ele></ele><time>2017-9-19T8:0:22Z</time></trkpt>
<trkpt lat="48.430446" lon="2.757927"><ele></ele><time>2017-9-19T8:0:25Z</time></trkpt>
<trkpt lat="48.430351" lon="2.757895"><ele></ele><time>2017-9-19T8:0:28Z</time></trkpt>
<trkpt lat="48.43026" lon="2.7578"><ele></ele><time>2017-9-19T8:0:31Z</time></trkpt>
<trkpt lat="48.430251" lon="2.757598"><ele></ele><time>2017-9-19T8:0:34Z</time></trkpt>
<trkpt lat="48.430254" lon="2.757425"><ele></ele><time>2017-9-19T8:0:37Z</time></trkpt>
<trkpt lat="48.430285" lon="2.757264"><ele></ele><time>2017-9-19T8:0:40Z</time></trkpt>
<trkpt lat="48.430289" lon="2.757089"><ele></ele><time>2017-9-19T8:0:43Z</time></trkpt>
<trkpt lat="48.430309" lon="2.756776"><ele></ele><time>2017-9-19T8:0:46Z</time></trkpt>
<trkpt lat="48.430306" lon="2.756622"><ele></ele><time>2017-9-19T8:0:49Z</time></trkpt>
<trkpt lat="48.430321" lon="2.756469"><ele></ele><time>2017-9-19T8:0:52Z</time></trkpt>
<trkpt lat="48.430323" lon="2.756324"><ele></ele><time>2017-9-19T8:0:55Z</time></trkpt>
<trkpt lat="48.43035" lon="2.756135"><ele></ele><time>2017-9-19T8:0:58Z</time></trkpt>
<trkpt lat="48.430375" lon="2.755943"><ele></ele><time>2017-9-19T8:1:1Z</time></trkpt>
<trkpt lat="48.430395" lon="2.755807"><ele></ele><time>2017-9-19T8:1:4Z</time></trkpt>
<trkpt lat="48.430427" lon="2.755631"><ele></ele><time>2017-9-19T8:1:7Z</time></trkpt>
<trkpt lat="48.430462" lon="2.755488"><ele></ele><time>2017-9-19T8:1:10Z</time></trkpt>
<trkpt lat="48.430346" lon="2.755433"><ele></ele><time>2017-9-19T8:1:13Z</time></trkpt>
<trkpt lat="48.430258" lon="2.755391"><ele></ele><time>2017-9-19T8:1:16Z</time></trkpt>
<trkpt lat="48.430169" lon="2.755351"><ele></ele><time>2017-9-19T8:1:19Z</time></trkpt>
<trkpt lat="48.430034" lon="2.755319"><ele></ele><time>2017-9-19T8:1:22Z</time></trkpt>
<trkpt lat="48.429943" lon="2.755305"><ele></ele><time>2017-9-19T8:1:25Z</time></trkpt>
<trkpt lat="48.429817" lon="2.755322"><ele></ele><time>2017-9-19T8:1:28Z</time></trkpt>
<trkpt lat="48.429661" lon="2.75531"><ele></ele><time>2017-9-19T8:1:31Z</time></trkpt>
<trkpt lat="48.429555" lon="2.755298"><ele></ele><time>2017-9-19T8:1:34Z</time></trkpt>
<trkpt lat="48.429473" lon="2.755242"><ele></ele><time>2017-9-19T8:1:37Z</time></trkpt>
<trkpt lat="48.429453" lon="2.755066"><ele></ele><time>2017-9-19T8:1:40Z</time></trkpt>
<trkpt lat="48.429457" lon="2.754915"><ele></ele><time>2017-9-19T8:1:43Z</time></trkpt>
<trkpt lat="48.42948" lon="2.754749"><ele></ele><time>2017-9-19T8:1:46Z</time></trkpt>
<trkpt lat="48.429487" lon="2.754572"><ele></ele><time>2017-9-19T8:1:49Z</time></trkpt>
<trkpt lat="48.429496" lon="2.754397"><ele></ele><time>2017-9-19T8:1:52Z</time></trkpt>
<trkpt lat="48.429505" lon="2.754226"><ele></ele><time>2017-9-19T8:1:55Z</time></trkpt>
<trkpt lat="48.429527" lon="2.753879"><ele></ele><time>2017-9-19T8:1:58Z</time></trkpt>
<trkpt lat="48.42952" lon="2.753717"><ele></ele><time>2017-9-19T8:2:1Z</time></trkpt>
<trkpt lat="48.429541" lon="2.75353"><ele></ele><time>2017-9-19T8:2:4Z</time></trkpt>
<trkpt lat="48.429553" lon="2.753338"><ele></ele><time>2017-9-19T8:2:7Z</time></trkpt>
<trkpt lat="48.429551" lon="2.75315"><ele></ele><time>2017-9-19T8:2:10Z</time></trkpt>
<trkpt lat="48.429546" lon="2.753009"><ele></ele><time>2017-9-19T8:2:13Z</time></trkpt>
<trkpt lat="48.429596" lon="2.753136"><ele></ele><time>2017-9-19T8:2:16Z</time></trkpt>
<trkpt lat="48.429819" lon="2.753273"><ele></ele><time>2017-9-19T8:2:19Z</time></trkpt>
<trkpt lat="48.429925" lon="2.753307"><ele></ele><time>2017-9-19T8:2:22Z</time></trkpt>
<trkpt lat="48.430015" lon="2.753339"><ele></ele><time>2017-9-19T8:2:25Z</time></trkpt>
<trkpt lat="48.430135" lon="2.753374"><ele></ele><time>2017-9-19T8:2:28Z</time></trkpt>
<trkpt lat="48.430223" lon="2.753432"><ele></ele><time>2017-9-19T8:2:31Z</time></trkpt>
<trkpt lat="48.430323" lon="2.753453"><ele></ele><time>2017-9-19T8:2:34Z</time></trkpt>
<trkpt lat="48.430417" lon="2.753426"><ele></ele><time>2017-9-19T8:2:37Z</time></trkpt>
<trkpt lat="48.430471" lon="2.753294"><ele></ele><time>2017-9-19T8:2:40Z</time></trkpt>
<trkpt lat="48.43051" lon="2.753163"><ele></ele><time>2017-9-19T8:2:43Z</time></trkpt>
<trkpt lat="48.43043" lon="2.753064"><ele></ele><time>2017-9-19T8:2:46Z</time></trkpt>
<trkpt lat="48.430341" lon="2.753025"><ele></ele><time>2017-9-19T8:2:49Z</time></trkpt>
<trkpt lat="48.430347" lon="2.753006"><ele></ele><time>2017-9-19T8:2:52Z</time></trkpt>
<trkpt lat="48.430456" lon="2.753036"><ele></ele><time>2017-9-19T8:2:55Z</time></trkpt>
<trkpt lat="48.430459" lon="2.753173"><ele></ele><time>2017-9-19T8:2:58Z</time></trkpt>
<trkpt lat="48.430368" lon="2.75314"><ele></ele><time>2017-9-19T8:3:1Z</time></trkpt>
<trkpt lat="48.430252" lon="2.753105"><ele></ele><time>2017-9-19T8:3:4Z</time></trkpt>
<trkpt lat="48.430156" lon="2.753044"><ele></ele><time>2017-9-19T8:3:7Z</time></trkpt>
<trkpt lat="48.430078" lon="2.75297"><ele></ele><time>2017-9-19T8:3:10Z</time></trkpt>
<trkpt lat="48.430133" lon="2.752851"><ele></ele><time>2017-9-19T8:3:13Z</time></trkpt>
<trkpt lat="48.43009" lon="2.752697"><ele></ele><time>2017-9-19T8:3:16Z</time></trkpt>
<trkpt lat="48.430006" lon="2.752626"><ele></ele><time>2017-9-19T8:3:19Z</time></trkpt>
<trkpt lat="48.429916" lon="2.752581"><ele></ele><time>2017-9-19T8:3:22Z</time></trkpt>
<trkpt lat="48.429729" lon="2.752483"><ele></ele><time>2017-9-19T8:3:25Z</time></trkpt>
<trkpt lat="48.429645" lon="2.752404"><ele></ele><time>2017-9-19T8:3:28Z</time></trkpt>
<trkpt lat="48.429632" lon="2.75227"><ele></ele><time>2017-9-19T8:3:31Z</time></trkpt>
<trkpt lat="48.429639" lon="2.752094"><ele></ele><time>2017-9-19T8:3:34Z</time></trkpt>
<trkpt lat="48.429648" lon="2.751916"><ele></ele><time>2017-9-19T8:3:37Z</time></trkpt>
<trkpt lat="48.42965" lon="2.751738"><ele></ele><time>2017-9-19T8:3:40Z</time></trkpt>
<trkpt lat="48.429654" lon="2.751576"><ele></ele><time>2017-9-19T8:3:43Z</time></trkpt>
<trkpt lat="48.429679" lon="2.751415"><ele></ele><time>2017-9-19T8:3:46Z</time></trkpt>
<trkpt lat="48.429663" lon="2.751273"><ele></ele><time>2017-9-19T8:3:49Z</time></trkpt>
<trkpt lat="48.429652" lon="2.751094"><ele></ele><time>2017-9-19T8:3:52Z</time></trkpt>
<trkpt lat="48.429663" lon="2.750955"><ele></ele><time>2017-9-19T8:3:55Z</time></trkpt>
<trkpt lat="48.42967" lon="2.750813"><ele></ele><time>2017-9-19T8:3:58Z</time></trkpt>
<trkpt lat="48.429687" lon="2.750652"><ele></ele><time>2017-9-19T8:4:1Z</time></trkpt>
<trkpt lat="48.429693" lon="2.750464"><ele></ele><time>2017-9-19T8:4:4Z</time></trkpt>
<trkpt lat="48.429701" lon="2.750283"><ele></ele><time>2017-9-19T8:4:7Z</time></trkpt>
<trkpt lat="48.429717" lon="2.750119"><ele></ele><time>2017-9-19T8:4:10Z</time></trkpt>
<trkpt lat="48.429746" lon="2.749632"><ele></ele><time>2017-9-19T8:4:13Z</time></trkpt>
<trkpt lat="48.429726" lon="2.749495"><ele></ele><time>2017-9-19T8:4:16Z</time></trkpt>
<trkpt lat="48.429728" lon="2.749329"><ele></ele><time>2017-9-19T8:4:19Z</time></trkpt>
<trkpt lat="48.42976" lon="2.749116"><ele></ele><time>2017-9-19T8:4:22Z</time></trkpt>
<trkpt lat="48.42978" lon="2.74889"><ele></ele><time>2017-9-19T8:4:25Z</time></trkpt>
<trkpt lat="48.42976" lon="2.748675"><ele></ele><time>2017-9-19T8:4:28Z</time></trkpt>
<trkpt lat="48.429796" lon="2.748465"><ele></ele><time>2017-9-19T8:4:31Z</time></trkpt>
<trkpt lat="48.429777" lon="2.748264"><ele></ele><time>2017-9-19T8:4:34Z</time></trkpt>
<trkpt lat="48.429804" lon="2.7481"><ele></ele><time>2017-9-19T8:4:37Z</time></trkpt>
<trkpt lat="48.429817" lon="2.747903"><ele></ele><time>2017-9-19T8:4:40Z</time></trkpt>
<trkpt lat="48.429827" lon="2.74775"><ele></ele><time>2017-9-19T8:4:43Z</time></trkpt>
<trkpt lat="48.429837" lon="2.747589"><ele></ele><time>2017-9-19T8:4:46Z</time></trkpt>
<trkpt lat="48.429857" lon="2.747446"><ele></ele><time>2017-9-19T8:4:49Z</time></trkpt>
<trkpt lat="48.429869" lon="2.747308"><ele></ele><time>2017-9-19T8:4:52Z</time></trkpt>
<trkpt lat="48.429879" lon="2.747116"><ele></ele><time>2017-9-19T8:4:55Z</time></trkpt>
<trkpt lat="48.429896" lon="2.746953"><ele></ele><time>2017-9-19T8:4:58Z</time></trkpt>
<trkpt lat="48.429937" lon="2.746774"><ele></ele><time>2017-9-19T8:5:1Z</time></trkpt>
<trkpt lat="48.429836" lon="2.746723"><ele></ele><time>2017-9-19T8:5:4Z</time></trkpt>
<trkpt lat="48.429754" lon="2.746656"><ele></ele><time>2017-9-19T8:5:7Z</time></trkpt>
<trkpt lat="48.429737" lon="2.7465"><ele></ele><time>2017-9-19T8:5:10Z</time></trkpt>
<trkpt lat="48.42972" lon="2.746328"><ele></ele><time>2017-9-19T8:5:13Z</time></trkpt>
<trkpt lat="48.429701" lon="2.746104"><ele></ele><time>2017-9-19T8:5:16Z</time></trkpt>
<trkpt lat="48.429673" lon="2.745767"><ele></ele><time>2017-9-19T8:5:19Z</time></trkpt>
<trkpt lat="48.42966" lon="2.745597"><ele></ele><time>2017-9-19T8:5:22Z</time></trkpt>
<trkpt lat="48.429649" lon="2.74542"><ele></ele><time>2017-9-19T8:5:25Z</time></trkpt>
<trkpt lat="48.429635" lon="2.745241"><ele></ele><time>2017-9-19T8:5:28Z</time></trkpt>
<trkpt lat="48.429623" lon="2.745056"><ele></ele><time>2017-9-19T8:5:31Z</time></trkpt>
<trkpt lat="48.429614" lon="2.744862"><ele></ele><time>2017-9-19T8:5:34Z</time></trkpt>
<trkpt lat="48.429609" lon="2.744671"><ele></ele><time>2017-9-19T8:5:37Z</time></trkpt>
<trkpt lat="48.429598" lon="2.744485"><ele></ele><time>2017-9-19T8:5:40Z</time></trkpt>
<trkpt lat="48.429622" lon="2.744335"><ele></ele><time>2017-9-19T8:5:43Z</time></trkpt>
<trkpt lat="48.429701" lon="2.744262"><ele></ele><time>2017-9-19T8:5:46Z</time></trkpt>
<trkpt lat="48.429746" lon="2.744141"><ele></ele><time>2017-9-19T8:5:49Z</time></trkpt>
<trkpt lat="48.42995" lon="2.744169"><ele></ele><time>2017-9-19T8:5:52Z</time></trkpt>
<trkpt lat="48.430073" lon="2.744227"><ele></ele><time>2017-9-19T8:5:55Z</time></trkpt>
<trkpt lat="48.43019" lon="2.744233"><ele></ele><time>2017-9-19T8:5:58Z</time></trkpt>
<trkpt lat="48.430341" lon="2.744233"><ele></ele><time>2017-9-19T8:6:1Z</time></trkpt>
<trkpt lat="48.430449" lon="2.744231"><ele></ele><time>2017-9-19T8:6:4Z</time></trkpt>
<trkpt lat="48.430575" lon="2.744214"><ele></ele><time>2017-9-19T8:6:7Z</time></trkpt>
<trkpt lat="48.430724" lon="2.744213"><ele></ele><time>2017-9-19T8:6:10Z</time></trkpt>
<trkpt lat="48.430852" lon="2.744202"><ele></ele><time>2017-9-19T8:6:13Z</time></trkpt>
<trkpt lat="48.430978" lon="2.744206"><ele></ele><time>2017-9-19T8:6:16Z</time></trkpt>
<trkpt lat="48.431132" lon="2.744243"><ele></ele><time>2017-9-19T8:6:19Z</time></trkpt>
<trkpt lat="48.431259" lon="2.74424"><ele></ele><time>2017-9-19T8:6:22Z</time></trkpt>
<trkpt lat="48.431349" lon="2.744222"><ele></ele><time>2017-9-19T8:6:25Z</time></trkpt>
<trkpt lat="48.431492" lon="2.744226"><ele></ele><time>2017-9-19T8:6:28Z</time></trkpt>
<trkpt lat="48.431717" lon="2.744224"><ele></ele><time>2017-9-19T8:6:31Z</time></trkpt>
<trkpt lat="48.431833" lon="2.744224"><ele></ele><time>2017-9-19T8:6:34Z</time></trkpt>
<trkpt lat="48.431968" lon="2.744209"><ele></ele><time>2017-9-19T8:6:37Z</time></trkpt>
<trkpt lat="48.432066" lon="2.744204"><ele></ele><time>2017-9-19T8:6:40Z</time></trkpt>
<trkpt lat="48.432194" lon="2.744211"><ele></ele><time>2017-9-19T8:6:43Z</time></trkpt>
<trkpt lat="48.432318" lon="2.744189"><ele></ele><time>2017-9-19T8:6:46Z</time></trkpt>
<trkpt lat="48.43241" lon="2.744157"><ele></ele><time>2017-9-19T8:6:49Z</time></trkpt>
<trkpt lat="48.432551" lon="2.744174"><ele></ele><time>2017-9-19T8:6:52Z</time></trkpt>
<trkpt lat="48.432719" lon="2.744176"><ele></ele><time>2017-9-19T8:6:55Z</time></trkpt>
<trkpt lat="48.432828" lon="2.744169"><ele></ele><time>2017-9-19T8:6:58Z</time></trkpt>
<trkpt lat="48.432928" lon="2.744163"><ele></ele><time>2017-9-19T8:7:1Z</time></trkpt>
<trkpt lat="48.433046" lon="2.744173"><ele></ele><time>2017-9-19T8:7:4Z</time></trkpt>
<trkpt lat="48.433142" lon="2.744178"><ele></ele><time>2017-9-19T8:7:7Z</time></trkpt>
<trkpt lat="48.433242" lon="2.744184"><ele></ele><time>2017-9-19T8:7:10Z</time></trkpt>
<trkpt lat="48.433341" lon="2.744194"><ele></ele><time>2017-9-19T8:7:13Z</time></trkpt>
<trkpt lat="48.433458" lon="2.744162"><ele></ele><time>2017-9-19T8:7:16Z</time></trkpt>
<trkpt lat="48.433575" lon="2.744143"><ele></ele><time>2017-9-19T8:7:19Z</time></trkpt>
<trkpt lat="48.433667" lon="2.744175"><ele></ele><time>2017-9-19T8:7:22Z</time></trkpt>
<trkpt lat="48.433755" lon="2.744198"><ele></ele><time>2017-9-19T8:7:25Z</time></trkpt>
<trkpt lat="48.433862" lon="2.744223"><ele></ele><time>2017-9-19T8:7:28Z</time></trkpt>
<trkpt lat="48.433955" lon="2.744218"><ele></ele><time>2017-9-19T8:7:31Z</time></trkpt>
<trkpt lat="48.434145" lon="2.744232"><ele></ele><time>2017-9-19T8:7:34Z</time></trkpt>
<trkpt lat="48.434249" lon="2.74425"><ele></ele><time>2017-9-19T8:7:37Z</time></trkpt>
<trkpt lat="48.434389" lon="2.74426"><ele></ele><time>2017-9-19T8:7:40Z</time></trkpt>
<trkpt lat="48.434485" lon="2.744267"><ele></ele><time>2017-9-19T8:7:43Z</time></trkpt>
<trkpt lat="48.434744" lon="2.74428"><ele></ele><time>2017-9-19T8:7:46Z</time></trkpt>
<trkpt lat="48.434838" lon="2.744292"><ele></ele><time>2017-9-19T8:7:49Z</time></trkpt>
<trkpt lat="48.43493" lon="2.744303"><ele></ele><time>2017-9-19T8:7:52Z</time></trkpt>
<trkpt lat="48.435076" lon="2.74432"><ele></ele><time>2017-9-19T8:7:55Z</time></trkpt>
<trkpt lat="48.435215" lon="2.744382"><ele></ele><time>2017-9-19T8:7:58Z</time></trkpt>
<trkpt lat="48.435321" lon="2.744407"><ele></ele><time>2017-9-19T8:8:1Z</time></trkpt>
<trkpt lat="48.43542" lon="2.744426"><ele></ele><time>2017-9-19T8:8:4Z</time></trkpt>
<trkpt lat="48.435535" lon="2.74445"><ele></ele><time>2017-9-19T8:8:7Z</time></trkpt>
<trkpt lat="48.435668" lon="2.744496"><ele></ele><time>2017-9-19T8:8:10Z</time></trkpt>
<trkpt lat="48.435829" lon="2.74454"><ele></ele><time>2017-9-19T8:8:13Z</time></trkpt>
<trkpt lat="48.435958" lon="2.744565"><ele></ele><time>2017-9-19T8:8:16Z</time></trkpt>
<trkpt lat="48.436078" lon="2.744611"><ele></ele><time>2017-9-19T8:8:19Z</time></trkpt>
<trkpt lat="48.436208" lon="2.744646"><ele></ele><time>2017-9-19T8:8:22Z</time></trkpt>
<trkpt lat="48.436342" lon="2.744687"><ele></ele><time>2017-9-19T8:8:25Z</time></trkpt>
<trkpt lat="48.436465" lon="2.74478"><ele></ele><time>2017-9-19T8:8:28Z</time></trkpt>
<trkpt lat="48.436571" lon="2.744855"><ele></ele><time>2017-9-19T8:8:31Z</time></trkpt>
<trkpt lat="48.436697" lon="2.744916"><ele></ele><time>2017-9-19T8:8:34Z</time></trkpt>
<trkpt lat="48.436801" lon="2.744966"><ele></ele><time>2017-9-19T8:8:37Z</time></trkpt>
<trkpt lat="48.436908" lon="2.745013"><ele></ele><time>2017-9-19T8:8:40Z</time></trkpt>
<trkpt lat="48.437048" lon="2.745084"><ele></ele><time>2017-9-19T8:8:43Z</time></trkpt>
<trkpt lat="48.437147" lon="2.745119"><ele></ele><time>2017-9-19T8:8:46Z</time></trkpt>
<trkpt lat="48.437275" lon="2.745175"><ele></ele><time>2017-9-19T8:8:49Z</time></trkpt>
<trkpt lat="48.437374" lon="2.745226"><ele></ele><time>2017-9-19T8:8:52Z</time></trkpt>
<trkpt lat="48.437504" lon="2.745268"><ele></ele><time>2017-9-19T8:8:55Z</time></trkpt>
<trkpt lat="48.43772" lon="2.745403"><ele></ele><time>2017-9-19T8:8:58Z</time></trkpt>
<trkpt lat="48.437865" lon="2.74548"><ele></ele><time>2017-9-19T8:9:1Z</time></trkpt>
<trkpt lat="48.437956" lon="2.745553"><ele></ele><time>2017-9-19T8:9:4Z</time></trkpt>
<trkpt lat="48.43805" lon="2.745571"><ele></ele><time>2017-9-19T8:9:7Z</time></trkpt>
<trkpt lat="48.438157" lon="2.745615"><ele></ele><time>2017-9-19T8:9:10Z</time></trkpt>
<trkpt lat="48.438278" lon="2.745671"><ele></ele><time>2017-9-19T8:9:13Z</time></trkpt>
<trkpt lat="48.438406" lon="2.745734"><ele></ele><time>2017-9-19T8:9:16Z</time></trkpt>
<trkpt lat="48.438495" lon="2.74577"><ele></ele><time>2017-9-19T8:9:19Z</time></trkpt>
<trkpt lat="48.438601" lon="2.745816"><ele></ele><time>2017-9-19T8:9:22Z</time></trkpt>
<trkpt lat="48.438696" lon="2.745871"><ele></ele><time>2017-9-19T8:9:25Z</time></trkpt>
<trkpt lat="48.438799" lon="2.745909"><ele></ele><time>2017-9-19T8:9:28Z</time></trkpt>
<trkpt lat="48.438894" lon="2.745934"><ele></ele><time>2017-9-19T8:9:31Z</time></trkpt>
<trkpt lat="48.438996" lon="2.745963"><ele></ele><time>2017-9-19T8:9:34Z</time></trkpt>
<trkpt lat="48.439098" lon="2.746016"><ele></ele><time>2017-9-19T8:9:37Z</time></trkpt>
<trkpt lat="48.439201" lon="2.746057"><ele></ele><time>2017-9-19T8:9:40Z</time></trkpt>
<trkpt lat="48.439296" lon="2.746106"><ele></ele><time>2017-9-19T8:9:43Z</time></trkpt>
<trkpt lat="48.43939" lon="2.746159"><ele></ele><time>2017-9-19T8:9:46Z</time></trkpt>
<trkpt lat="48.439517" lon="2.746219"><ele></ele><time>2017-9-19T8:9:49Z</time></trkpt>
<trkpt lat="48.439622" lon="2.746267"><ele></ele><time>2017-9-19T8:9:52Z</time></trkpt>
<trkpt lat="48.439718" lon="2.746323"><ele></ele><time>2017-9-19T8:9:55Z</time></trkpt>
<trkpt lat="48.439865" lon="2.746392"><ele></ele><time>2017-9-19T8:9:58Z</time></trkpt>
<trkpt lat="48.439952" lon="2.746442"><ele></ele><time>2017-9-19T8:10:1Z</time></trkpt>
<trkpt lat="48.440061" lon="2.746448"><ele></ele><time>2017-9-19T8:10:4Z</time></trkpt>
<trkpt lat="48.440218" lon="2.746547"><ele></ele><time>2017-9-19T8:10:7Z</time></trkpt>
<trkpt lat="48.440302" lon="2.746627"><ele></ele><time>2017-9-19T8:10:10Z</time></trkpt>
<trkpt lat="48.440604" lon="2.746821"><ele></ele><time>2017-9-19T8:10:13Z</time></trkpt>
<trkpt lat="48.44073" lon="2.746898"><ele></ele><time>2017-9-19T8:10:16Z</time></trkpt>
<trkpt lat="48.440833" lon="2.746984"><ele></ele><time>2017-9-19T8:10:19Z</time></trkpt>
<trkpt lat="48.440912" lon="2.747049"><ele></ele><time>2017-9-19T8:10:22Z</time></trkpt>
<trkpt lat="48.441035" lon="2.747146"><ele></ele><time>2017-9-19T8:10:25Z</time></trkpt>
<trkpt lat="48.441143" lon="2.747227"><ele></ele><time>2017-9-19T8:10:28Z</time></trkpt>
<trkpt lat="48.441234" lon="2.747304"><ele></ele><time>2017-9-19T8:10:31Z</time></trkpt>
<trkpt lat="48.441336" lon="2.747364"><ele></ele><time>2017-9-19T8:10:34Z</time></trkpt>
<trkpt lat="48.441454" lon="2.747445"><ele></ele><time>2017-9-19T8:10:37Z</time></trkpt>
<trkpt lat="48.441537" lon="2.747517"><ele></ele><time>2017-9-19T8:10:40Z</time></trkpt>
<trkpt lat="48.44164" lon="2.747612"><ele></ele><time>2017-9-19T8:10:43Z</time></trkpt>
<trkpt lat="48.441819" lon="2.747738"><ele></ele><time>2017-9-19T8:10:46Z</time></trkpt>
<trkpt lat="48.441903" lon="2.747806"><ele></ele><time>2017-9-19T8:10:49Z</time></trkpt>
<trkpt lat="48.441989" lon="2.747892"><ele></ele><time>2017-9-19T8:10:52Z</time></trkpt>
<trkpt lat="48.442068" lon="2.747978"><ele></ele><time>2017-9-19T8:10:55Z</time></trkpt>
<trkpt lat="48.442213" lon="2.748072"><ele></ele><time>2017-9-19T8:10:58Z</time></trkpt>
<trkpt lat="48.4423" lon="2.748139"><ele></ele><time>2017-9-19T8:11:1Z</time></trkpt>
<trkpt lat="48.44242" lon="2.748229"><ele></ele><time>2017-9-19T8:11:4Z</time></trkpt>
<trkpt lat="48.442509" lon="2.748291"><ele></ele><time>2017-9-19T8:11:7Z</time></trkpt>
<trkpt lat="48.442606" lon="2.748364"><ele></ele><time>2017-9-19T8:11:10Z</time></trkpt>
<trkpt lat="48.442706" lon="2.748424"><ele></ele><time>2017-9-19T8:11:13Z</time></trkpt>
<trkpt lat="48.442798" lon="2.748498"><ele></ele><time>2017-9-19T8:11:16Z</time></trkpt>
<trkpt lat="48.442947" lon="2.748635"><ele></ele><time>2017-9-19T8:11:19Z</time></trkpt>
<trkpt lat="48.443055" lon="2.748725"><ele></ele><time>2017-9-19T8:11:22Z</time></trkpt>
<trkpt lat="48.443155" lon="2.748795"><ele></ele><time>2017-9-19T8:11:25Z</time></trkpt>
<trkpt lat="48.443353" lon="2.748936"><ele></ele><time>2017-9-19T8:11:28Z</time></trkpt>
<trkpt lat="48.443433" lon="2.749"><ele></ele><time>2017-9-19T8:11:31Z</time></trkpt>
<trkpt lat="48.443557" lon="2.749098"><ele></ele><time>2017-9-19T8:11:34Z</time></trkpt>
<trkpt lat="48.443693" lon="2.749229"><ele></ele><time>2017-9-19T8:11:37Z</time></trkpt>
<trkpt lat="48.443798" lon="2.749302"><ele></ele><time>2017-9-19T8:11:40Z</time></trkpt>
<trkpt lat="48.443893" lon="2.749345"><ele></ele><time>2017-9-19T8:11:43Z</time></trkpt>
<trkpt lat="48.444002" lon="2.749456"><ele></ele><time>2017-9-19T8:11:46Z</time></trkpt>
<trkpt lat="48.444104" lon="2.749535"><ele></ele><time>2017-9-19T8:11:49Z</time></trkpt>
<trkpt lat="48.444196" lon="2.749618"><ele></ele><time>2017-9-19T8:11:52Z</time></trkpt>
<trkpt lat="48.444299" lon="2.749637"><ele></ele><time>2017-9-19T8:11:55Z</time></trkpt>
<trkpt lat="48.444389" lon="2.749593"><ele></ele><time>2017-9-19T8:11:58Z</time></trkpt>
<trkpt lat="48.444456" lon="2.749479"><ele></ele><time>2017-9-19T8:12:1Z</time></trkpt>
<trkpt lat="48.444546" lon="2.749245"><ele></ele><time>2017-9-19T8:12:4Z</time></trkpt>
<trkpt lat="48.444613" lon="2.748939"><ele></ele><time>2017-9-19T8:12:7Z</time></trkpt>
<trkpt lat="48.444655" lon="2.748779"><ele></ele><time>2017-9-19T8:12:10Z</time></trkpt>
<trkpt lat="48.444776" lon="2.748547"><ele></ele><time>2017-9-19T8:12:13Z</time></trkpt>
<trkpt lat="48.444795" lon="2.748399"><ele></ele><time>2017-9-19T8:12:16Z</time></trkpt>
<trkpt lat="48.444865" lon="2.748265"><ele></ele><time>2017-9-19T8:12:19Z</time></trkpt>
<trkpt lat="48.444875" lon="2.748089"><ele></ele><time>2017-9-19T8:12:22Z</time></trkpt>
<trkpt lat="48.444943" lon="2.747994"><ele></ele><time>2017-9-19T8:12:25Z</time></trkpt>
<trkpt lat="48.445001" lon="2.74788"><ele></ele><time>2017-9-19T8:12:28Z</time></trkpt>
<trkpt lat="48.445005" lon="2.747729"><ele></ele><time>2017-9-19T8:12:31Z</time></trkpt>
<trkpt lat="48.445048" lon="2.747444"><ele></ele><time>2017-9-19T8:12:34Z</time></trkpt>
<trkpt lat="48.44504" lon="2.747269"><ele></ele><time>2017-9-19T8:12:37Z</time></trkpt>
<trkpt lat="48.445097" lon="2.74714"><ele></ele><time>2017-9-19T8:12:40Z</time></trkpt>
<trkpt lat="48.445122" lon="2.74697"><ele></ele><time>2017-9-19T8:12:43Z</time></trkpt>
<trkpt lat="48.445001" lon="2.746746"><ele></ele><time>2017-9-19T8:12:46Z</time></trkpt>
<trkpt lat="48.445034" lon="2.74659"><ele></ele><time>2017-9-19T8:12:49Z</time></trkpt>
<trkpt lat="48.445071" lon="2.746459"><ele></ele><time>2017-9-19T8:12:52Z</time></trkpt>
<trkpt lat="48.445139" lon="2.746341"><ele></ele><time>2017-9-19T8:12:55Z</time></trkpt>
<trkpt lat="48.445091" lon="2.746203"><ele></ele><time>2017-9-19T8:12:58Z</time></trkpt>
<trkpt lat="48.445169" lon="2.746097"><ele></ele><time>2017-9-19T8:13:1Z</time></trkpt>
<trkpt lat="48.445253" lon="2.746015"><ele></ele><time>2017-9-19T8:13:4Z</time></trkpt>
<trkpt lat="48.445368" lon="2.746028"><ele></ele><time>2017-9-19T8:13:7Z</time></trkpt>
<trkpt lat="48.445463" lon="2.746007"><ele></ele><time>2017-9-19T8:13:10Z</time></trkpt>
<trkpt lat="48.445559" lon="2.745877"><ele></ele><time>2017-9-19T8:13:13Z</time></trkpt>
<trkpt lat="48.445653" lon="2.74574"><ele></ele><time>2017-9-19T8:13:16Z</time></trkpt>
<trkpt lat="48.445704" lon="2.745554"><ele></ele><time>2017-9-19T8:13:19Z</time></trkpt>
<trkpt lat="48.445642" lon="2.745093"><ele></ele><time>2017-9-19T8:13:22Z</time></trkpt>
<trkpt lat="48.445655" lon="2.744925"><ele></ele><time>2017-9-19T8:13:25Z</time></trkpt>
<trkpt lat="48.445695" lon="2.744763"><ele></ele><time>2017-9-19T8:13:28Z</time></trkpt>
<trkpt lat="48.44574" lon="2.744615"><ele></ele><time>2017-9-19T8:13:31Z</time></trkpt>
<trkpt lat="48.445761" lon="2.744468"><ele></ele><time>2017-9-19T8:13:34Z</time></trkpt>
<trkpt lat="48.445752" lon="2.744302"><ele></ele><time>2017-9-19T8:13:37Z</time></trkpt>
<trkpt lat="48.445763" lon="2.744165"><ele></ele><time>2017-9-19T8:13:40Z</time></trkpt>
<trkpt lat="48.445795" lon="2.744028"><ele></ele><time>2017-9-19T8:13:43Z</time></trkpt>
<trkpt lat="48.445801" lon="2.74385"><ele></ele><time>2017-9-19T8:13:46Z</time></trkpt>
<trkpt lat="48.44571" lon="2.743704"><ele></ele><time>2017-9-19T8:13:49Z</time></trkpt>
<trkpt lat="48.445646" lon="2.743576"><ele></ele><time>2017-9-19T8:13:52Z</time></trkpt>
<trkpt lat="48.445572" lon="2.743465"><ele></ele><time>2017-9-19T8:13:55Z</time></trkpt>
<trkpt lat="48.445582" lon="2.743299"><ele></ele><time>2017-9-19T8:13:58Z</time></trkpt>
<trkpt lat="48.445541" lon="2.743175"><ele></ele><time>2017-9-19T8:14:1Z</time></trkpt>
<trkpt lat="48.445448" lon="2.743204"><ele></ele><time>2017-9-19T8:14:4Z</time></trkpt>
<trkpt lat="48.445148" lon="2.743218"><ele></ele><time>2017-9-19T8:14:7Z</time></trkpt>
<trkpt lat="48.445052" lon="2.743138"><ele></ele><time>2017-9-19T8:14:10Z</time></trkpt>
<trkpt lat="48.444923" lon="2.743026"><ele></ele><time>2017-9-19T8:14:13Z</time></trkpt>
<trkpt lat="48.444843" lon="2.742963"><ele></ele><time>2017-9-19T8:14:16Z</time></trkpt>
<trkpt lat="48.444713" lon="2.743139"><ele></ele><time>2017-9-19T8:14:19Z</time></trkpt>
<trkpt lat="48.444801" lon="2.743053"><ele></ele><time>2017-9-19T8:14:22Z</time></trkpt>
<trkpt lat="48.444921" lon="2.742993"><ele></ele><time>2017-9-19T8:14:25Z</time></trkpt>
<trkpt lat="48.44521" lon="2.742983"><ele></ele><time>2017-9-19T8:14:28Z</time></trkpt>
<trkpt lat="48.445323" lon="2.743087"><ele></ele><time>2017-9-19T8:14:31Z</time></trkpt>
<trkpt lat="48.445506" lon="2.743328"><ele></ele><time>2017-9-19T8:14:34Z</time></trkpt>
<trkpt lat="48.445604" lon="2.743405"><ele></ele><time>2017-9-19T8:14:37Z</time></trkpt>
<trkpt lat="48.445661" lon="2.743521"><ele></ele><time>2017-9-19T8:14:40Z</time></trkpt>
<trkpt lat="48.44569" lon="2.743657"><ele></ele><time>2017-9-19T8:14:43Z</time></trkpt>
<trkpt lat="48.44572" lon="2.743787"><ele></ele><time>2017-9-19T8:14:46Z</time></trkpt>
<trkpt lat="48.445808" lon="2.743854"><ele></ele><time>2017-9-19T8:14:49Z</time></trkpt>
<trkpt lat="48.445913" lon="2.743871"><ele></ele><time>2017-9-19T8:14:52Z</time></trkpt>
<trkpt lat="48.445984" lon="2.743789"><ele></ele><time>2017-9-19T8:14:55Z</time></trkpt>
<trkpt lat="48.446077" lon="2.743588"><ele></ele><time>2017-9-19T8:14:58Z</time></trkpt>
<trkpt lat="48.445985" lon="2.743529"><ele></ele><time>2017-9-19T8:15:1Z</time></trkpt>
<trkpt lat="48.446008" lon="2.743384"><ele></ele><time>2017-9-19T8:15:4Z</time></trkpt>
<trkpt lat="48.446045" lon="2.743079"><ele></ele><time>2017-9-19T8:15:7Z</time></trkpt>
<trkpt lat="48.446049" lon="2.742913"><ele></ele><time>2017-9-19T8:15:10Z</time></trkpt>
<trkpt lat="48.446083" lon="2.742782"><ele></ele><time>2017-9-19T8:15:13Z</time></trkpt>
<trkpt lat="48.446099" lon="2.742629"><ele></ele><time>2017-9-19T8:15:16Z</time></trkpt>
<trkpt lat="48.446066" lon="2.742476"><ele></ele><time>2017-9-19T8:15:19Z</time></trkpt>
<trkpt lat="48.446108" lon="2.742343"><ele></ele><time>2017-9-19T8:15:22Z</time></trkpt>
<trkpt lat="48.446161" lon="2.742203"><ele></ele><time>2017-9-19T8:15:25Z</time></trkpt>
<trkpt lat="48.4462" lon="2.742059"><ele></ele><time>2017-9-19T8:15:28Z</time></trkpt>
<trkpt lat="48.446343" lon="2.742016"><ele></ele><time>2017-9-19T8:15:31Z</time></trkpt>
<trkpt lat="48.446469" lon="2.742016"><ele></ele><time>2017-9-19T8:15:34Z</time></trkpt>
<trkpt lat="48.446595" lon="2.742096"><ele></ele><time>2017-9-19T8:15:37Z</time></trkpt>
<trkpt lat="48.446693" lon="2.742097"><ele></ele><time>2017-9-19T8:15:40Z</time></trkpt>
<trkpt lat="48.446789" lon="2.742154"><ele></ele><time>2017-9-19T8:15:43Z</time></trkpt>
<trkpt lat="48.446878" lon="2.742114"><ele></ele><time>2017-9-19T8:15:46Z</time></trkpt>
<trkpt lat="48.446823" lon="2.741904"><ele></ele><time>2017-9-19T8:15:49Z</time></trkpt>
<trkpt lat="48.446742" lon="2.741804"><ele></ele><time>2017-9-19T8:15:52Z</time></trkpt>
<trkpt lat="48.446592" lon="2.741692"><ele></ele><time>2017-9-19T8:15:55Z</time></trkpt>
<trkpt lat="48.446533" lon="2.741581"><ele></ele><time>2017-9-19T8:15:58Z</time></trkpt>
<trkpt lat="48.446466" lon="2.741451"><ele></ele><time>2017-9-19T8:16:1Z</time></trkpt>
<trkpt lat="48.446381" lon="2.741326"><ele></ele><time>2017-9-19T8:16:4Z</time></trkpt>
<trkpt lat="48.446282" lon="2.741209"><ele></ele><time>2017-9-19T8:16:7Z</time></trkpt>
<trkpt lat="48.446118" lon="2.741101"><ele></ele><time>2017-9-19T8:16:10Z</time></trkpt>
<trkpt lat="48.446021" lon="2.740938"><ele></ele><time>2017-9-19T8:16:13Z</time></trkpt>
<trkpt lat="48.445959" lon="2.740792"><ele></ele><time>2017-9-19T8:16:16Z</time></trkpt>
<trkpt lat="48.445884" lon="2.740703"><ele></ele><time>2017-9-19T8:16:19Z</time></trkpt>
<trkpt lat="48.445748" lon="2.740556"><ele></ele><time>2017-9-19T8:16:22Z</time></trkpt>
<trkpt lat="48.445667" lon="2.740466"><ele></ele><time>2017-9-19T8:16:25Z</time></trkpt>
<trkpt lat="48.4456" lon="2.740361"><ele></ele><time>2017-9-19T8:16:28Z</time></trkpt>
<trkpt lat="48.445503" lon="2.740263"><ele></ele><time>2017-9-19T8:16:31Z</time></trkpt>
<trkpt lat="48.445409" lon="2.740115"><ele></ele><time>2017-9-19T8:16:34Z</time></trkpt>
<trkpt lat="48.445286" lon="2.740028"><ele></ele><time>2017-9-19T8:16:37Z</time></trkpt>
<trkpt lat="48.44518" lon="2.739938"><ele></ele><time>2017-9-19T8:16:40Z</time></trkpt>
<trkpt lat="48.445094" lon="2.739837"><ele></ele><time>2017-9-19T8:16:43Z</time></trkpt>
<trkpt lat="48.445" lon="2.739756"><ele></ele><time>2017-9-19T8:16:46Z</time></trkpt>
<trkpt lat="48.444931" lon="2.739648"><ele></ele><time>2017-9-19T8:16:49Z</time></trkpt>
<trkpt lat="48.444851" lon="2.73953"><ele></ele><time>2017-9-19T8:16:52Z</time></trkpt>
<trkpt lat="48.44478" lon="2.739428"><ele></ele><time>2017-9-19T8:16:55Z</time></trkpt>
<trkpt lat="48.444696" lon="2.739343"><ele></ele><time>2017-9-19T8:16:58Z</time></trkpt>
<trkpt lat="48.444545" lon="2.739243"><ele></ele><time>2017-9-19T8:17:1Z</time></trkpt>
<trkpt lat="48.444473" lon="2.739142"><ele></ele><time>2017-9-19T8:17:4Z</time></trkpt>
<trkpt lat="48.444408" lon="2.738916"><ele></ele><time>2017-9-19T8:17:7Z</time></trkpt>
<trkpt lat="48.444425" lon="2.738782"><ele></ele><time>2017-9-19T8:17:10Z</time></trkpt>
<trkpt lat="48.444592" lon="2.738443"><ele></ele><time>2017-9-19T8:17:13Z</time></trkpt>
<trkpt lat="48.44462" lon="2.738264"><ele></ele><time>2017-9-19T8:17:16Z</time></trkpt>
<trkpt lat="48.444676" lon="2.738123"><ele></ele><time>2017-9-19T8:17:19Z</time></trkpt>
<trkpt lat="48.444732" lon="2.737991"><ele></ele><time>2017-9-19T8:17:22Z</time></trkpt>
<trkpt lat="48.444882" lon="2.737914"><ele></ele><time>2017-9-19T8:17:25Z</time></trkpt>
<trkpt lat="48.444996" lon="2.737835"><ele></ele><time>2017-9-19T8:17:28Z</time></trkpt>
<trkpt lat="48.445083" lon="2.737748"><ele></ele><time>2017-9-19T8:17:31Z</time></trkpt>
<trkpt lat="48.445129" lon="2.737603"><ele></ele><time>2017-9-19T8:17:34Z</time></trkpt>
<trkpt lat="48.445215" lon="2.737513"><ele></ele><time>2017-9-19T8:17:37Z</time></trkpt>
<trkpt lat="48.445251" lon="2.737326"><ele></ele><time>2017-9-19T8:17:40Z</time></trkpt>
<trkpt lat="48.445318" lon="2.737217"><ele></ele><time>2017-9-19T8:17:43Z</time></trkpt>
<trkpt lat="48.445407" lon="2.737097"><ele></ele><time>2017-9-19T8:17:46Z</time></trkpt>
<trkpt lat="48.44548" lon="2.736977"><ele></ele><time>2017-9-19T8:17:49Z</time></trkpt>
<trkpt lat="48.445557" lon="2.736868"><ele></ele><time>2017-9-19T8:17:52Z</time></trkpt>
<trkpt lat="48.445614" lon="2.736734"><ele></ele><time>2017-9-19T8:17:55Z</time></trkpt>
<trkpt lat="48.445688" lon="2.736579"><ele></ele><time>2017-9-19T8:17:58Z</time></trkpt>
<trkpt lat="48.445669" lon="2.736413"><ele></ele><time>2017-9-19T8:18:1Z</time></trkpt>
<trkpt lat="48.445828" lon="2.736207"><ele></ele><time>2017-9-19T8:18:4Z</time></trkpt>
<trkpt lat="48.445894" lon="2.736067"><ele></ele><time>2017-9-19T8:18:7Z</time></trkpt>
<trkpt lat="48.445922" lon="2.735897"><ele></ele><time>2017-9-19T8:18:10Z</time></trkpt>
<trkpt lat="48.445959" lon="2.735761"><ele></ele><time>2017-9-19T8:18:13Z</time></trkpt>
<trkpt lat="48.446013" lon="2.735597"><ele></ele><time>2017-9-19T8:18:16Z</time></trkpt>
<trkpt lat="48.446102" lon="2.735564"><ele></ele><time>2017-9-19T8:18:19Z</time></trkpt>
<trkpt lat="48.446218" lon="2.735552"><ele></ele><time>2017-9-19T8:18:22Z</time></trkpt>
<trkpt lat="48.446316" lon="2.735459"><ele></ele><time>2017-9-19T8:18:25Z</time></trkpt>
<trkpt lat="48.446407" lon="2.735352"><ele></ele><time>2017-9-19T8:18:28Z</time></trkpt>
<trkpt lat="48.446366" lon="2.735213"><ele></ele><time>2017-9-19T8:18:31Z</time></trkpt>
<trkpt lat="48.44644" lon="2.735082"><ele></ele><time>2017-9-19T8:18:34Z</time></trkpt>
<trkpt lat="48.446518" lon="2.734994"><ele></ele><time>2017-9-19T8:18:37Z</time></trkpt>
<trkpt lat="48.44651" lon="2.734828"><ele></ele><time>2017-9-19T8:18:40Z</time></trkpt>
<trkpt lat="48.446546" lon="2.734676"><ele></ele><time>2017-9-19T8:18:43Z</time></trkpt>
<trkpt lat="48.446389" lon="2.734565"><ele></ele><time>2017-9-19T8:18:46Z</time></trkpt>
<trkpt lat="48.446323" lon="2.734432"><ele></ele><time>2017-9-19T8:18:49Z</time></trkpt>
<trkpt lat="48.446322" lon="2.734239"><ele></ele><time>2017-9-19T8:18:52Z</time></trkpt>
<trkpt lat="48.446388" lon="2.734125"><ele></ele><time>2017-9-19T8:18:55Z</time></trkpt>
<trkpt lat="48.446428" lon="2.733989"><ele></ele><time>2017-9-19T8:18:58Z</time></trkpt>
<trkpt lat="48.446555" lon="2.733946"><ele></ele><time>2017-9-19T8:19:1Z</time></trkpt>
<trkpt lat="48.446662" lon="2.733826"><ele></ele><time>2017-9-19T8:19:4Z</time></trkpt>
<trkpt lat="48.446809" lon="2.733616"><ele></ele><time>2017-9-19T8:19:7Z</time></trkpt>
<trkpt lat="48.446892" lon="2.733516"><ele></ele><time>2017-9-19T8:19:10Z</time></trkpt>
<trkpt lat="48.446998" lon="2.733481"><ele></ele><time>2017-9-19T8:19:13Z</time></trkpt>
<trkpt lat="48.4471" lon="2.733322"><ele></ele><time>2017-9-19T8:19:16Z</time></trkpt>
<trkpt lat="48.447194" lon="2.733338"><ele></ele><time>2017-9-19T8:19:19Z</time></trkpt>
<trkpt lat="48.447275" lon="2.733243"><ele></ele><time>2017-9-19T8:19:22Z</time></trkpt>
<trkpt lat="48.447342" lon="2.733086"><ele></ele><time>2017-9-19T8:19:25Z</time></trkpt>
<trkpt lat="48.447323" lon="2.732942"><ele></ele><time>2017-9-19T8:19:28Z</time></trkpt>
<trkpt lat="48.447306" lon="2.732768"><ele></ele><time>2017-9-19T8:19:31Z</time></trkpt>
<trkpt lat="48.447389" lon="2.73263"><ele></ele><time>2017-9-19T8:19:34Z</time></trkpt>
<trkpt lat="48.447433" lon="2.732505"><ele></ele><time>2017-9-19T8:19:37Z</time></trkpt>
<trkpt lat="48.447319" lon="2.73235"><ele></ele><time>2017-9-19T8:19:40Z</time></trkpt>
<trkpt lat="48.447398" lon="2.732253"><ele></ele><time>2017-9-19T8:19:43Z</time></trkpt>
<trkpt lat="48.447487" lon="2.732162"><ele></ele><time>2017-9-19T8:19:46Z</time></trkpt>
<trkpt lat="48.447649" lon="2.732032"><ele></ele><time>2017-9-19T8:19:49Z</time></trkpt>
<trkpt lat="48.447652" lon="2.731873"><ele></ele><time>2017-9-19T8:19:52Z</time></trkpt>
<trkpt lat="48.447662" lon="2.731683"><ele></ele><time>2017-9-19T8:19:55Z</time></trkpt>
<trkpt lat="48.447762" lon="2.731559"><ele></ele><time>2017-9-19T8:19:58Z</time></trkpt>
<trkpt lat="48.447856" lon="2.731441"><ele></ele><time>2017-9-19T8:20:1Z</time></trkpt>
<trkpt lat="48.448008" lon="2.731395"><ele></ele><time>2017-9-19T8:20:4Z</time></trkpt>
<trkpt lat="48.448061" lon="2.731253"><ele></ele><time>2017-9-19T8:20:7Z</time></trkpt>
<trkpt lat="48.448128" lon="2.731111"><ele></ele><time>2017-9-19T8:20:10Z</time></trkpt>
<trkpt lat="48.448209" lon="2.730959"><ele></ele><time>2017-9-19T8:20:13Z</time></trkpt>
<trkpt lat="48.448243" lon="2.73061"><ele></ele><time>2017-9-19T8:20:16Z</time></trkpt>
<trkpt lat="48.448367" lon="2.730578"><ele></ele><time>2017-9-19T8:20:19Z</time></trkpt>
<trkpt lat="48.44842" lon="2.730443"><ele></ele><time>2017-9-19T8:20:22Z</time></trkpt>
<trkpt lat="48.448506" lon="2.730285"><ele></ele><time>2017-9-19T8:20:25Z</time></trkpt>
<trkpt lat="48.448516" lon="2.730135"><ele></ele><time>2017-9-19T8:20:28Z</time></trkpt>
<trkpt lat="48.448588" lon="2.730002"><ele></ele><time>2017-9-19T8:20:31Z</time></trkpt>
<trkpt lat="48.448676" lon="2.729912"><ele></ele><time>2017-9-19T8:20:34Z</time></trkpt>
<trkpt lat="48.44875" lon="2.729788"><ele></ele><time>2017-9-19T8:20:37Z</time></trkpt>
<trkpt lat="48.448804" lon="2.729655"><ele></ele><time>2017-9-19T8:20:40Z</time></trkpt>
<trkpt lat="48.448852" lon="2.729486"><ele></ele><time>2017-9-19T8:20:43Z</time></trkpt>
<trkpt lat="48.448919" lon="2.729372"><ele></ele><time>2017-9-19T8:20:46Z</time></trkpt>
<trkpt lat="48.44901" lon="2.729308"><ele></ele><time>2017-9-19T8:20:49Z</time></trkpt>
<trkpt lat="48.449127" lon="2.729297"><ele></ele><time>2017-9-19T8:20:52Z</time></trkpt>
<trkpt lat="48.449222" lon="2.729276"><ele></ele><time>2017-9-19T8:20:55Z</time></trkpt>
<trkpt lat="48.449341" lon="2.729256"><ele></ele><time>2017-9-19T8:20:58Z</time></trkpt>
<trkpt lat="48.449443" lon="2.729047"><ele></ele><time>2017-9-19T8:21:1Z</time></trkpt>
<trkpt lat="48.449493" lon="2.728905"><ele></ele><time>2017-9-19T8:21:4Z</time></trkpt>
<trkpt lat="48.449553" lon="2.728731"><ele></ele><time>2017-9-19T8:21:7Z</time></trkpt>
<trkpt lat="48.449646" lon="2.728593"><ele></ele><time>2017-9-19T8:21:10Z</time></trkpt>
<trkpt lat="48.449689" lon="2.728437"><ele></ele><time>2017-9-19T8:21:13Z</time></trkpt>
<trkpt lat="48.449827" lon="2.728404"><ele></ele><time>2017-9-19T8:21:16Z</time></trkpt>
<trkpt lat="48.449927" lon="2.72831"><ele></ele><time>2017-9-19T8:21:19Z</time></trkpt>
<trkpt lat="48.45" lon="2.728217"><ele></ele><time>2017-9-19T8:21:22Z</time></trkpt>
<trkpt lat="48.450047" lon="2.728062"><ele></ele><time>2017-9-19T8:21:25Z</time></trkpt>
<trkpt lat="48.45009" lon="2.727915"><ele></ele><time>2017-9-19T8:21:28Z</time></trkpt>
<trkpt lat="48.450177" lon="2.727851"><ele></ele><time>2017-9-19T8:21:31Z</time></trkpt>
<trkpt lat="48.450289" lon="2.727759"><ele></ele><time>2017-9-19T8:21:34Z</time></trkpt>
<trkpt lat="48.450299" lon="2.727608"><ele></ele><time>2017-9-19T8:21:37Z</time></trkpt>
<trkpt lat="48.450296" lon="2.727467"><ele></ele><time>2017-9-19T8:21:40Z</time></trkpt>
<trkpt lat="48.450364" lon="2.727323"><ele></ele><time>2017-9-19T8:21:43Z</time></trkpt>
<trkpt lat="48.450406" lon="2.727155"><ele></ele><time>2017-9-19T8:21:46Z</time></trkpt>
<trkpt lat="48.450452" lon="2.726943"><ele></ele><time>2017-9-19T8:21:49Z</time></trkpt>
<trkpt lat="48.45053" lon="2.72687"><ele></ele><time>2017-9-19T8:21:52Z</time></trkpt>
<trkpt lat="48.450582" lon="2.726694"><ele></ele><time>2017-9-19T8:21:55Z</time></trkpt>
<trkpt lat="48.450679" lon="2.726379"><ele></ele><time>2017-9-19T8:21:58Z</time></trkpt>
<trkpt lat="48.45091" lon="2.726225"><ele></ele><time>2017-9-19T8:22:1Z</time></trkpt>
<trkpt lat="48.451027" lon="2.726078"><ele></ele><time>2017-9-19T8:22:4Z</time></trkpt>
<trkpt lat="48.451126" lon="2.726036"><ele></ele><time>2017-9-19T8:22:7Z</time></trkpt>
<trkpt lat="48.451223" lon="2.726019"><ele></ele><time>2017-9-19T8:22:10Z</time></trkpt>
<trkpt lat="48.451314" lon="2.72598"><ele></ele><time>2017-9-19T8:22:13Z</time></trkpt>
<trkpt lat="48.451374" lon="2.725878"><ele></ele><time>2017-9-19T8:22:16Z</time></trkpt>
<trkpt lat="48.45158" lon="2.725766"><ele></ele><time>2017-9-19T8:22:19Z</time></trkpt>
<trkpt lat="48.45166" lon="2.725647"><ele></ele><time>2017-9-19T8:22:22Z</time></trkpt>
<trkpt lat="48.451707" lon="2.725526"><ele></ele><time>2017-9-19T8:22:25Z</time></trkpt>
<trkpt lat="48.451852" lon="2.725237"><ele></ele><time>2017-9-19T8:22:28Z</time></trkpt>
<trkpt lat="48.451813" lon="2.725102"><ele></ele><time>2017-9-19T8:22:31Z</time></trkpt>
<trkpt lat="48.451796" lon="2.724942"><ele></ele><time>2017-9-19T8:22:34Z</time></trkpt>
<trkpt lat="48.451877" lon="2.724849"><ele></ele><time>2017-9-19T8:22:37Z</time></trkpt>
<trkpt lat="48.451969" lon="2.724731"><ele></ele><time>2017-9-19T8:22:40Z</time></trkpt>
<trkpt lat="48.452035" lon="2.724572"><ele></ele><time>2017-9-19T8:22:43Z</time></trkpt>
<trkpt lat="48.452074" lon="2.724393"><ele></ele><time>2017-9-19T8:22:46Z</time></trkpt>
<trkpt lat="48.452163" lon="2.724301"><ele></ele><time>2017-9-19T8:22:49Z</time></trkpt>
<trkpt lat="48.452287" lon="2.724214"><ele></ele><time>2017-9-19T8:22:52Z</time></trkpt>
<trkpt lat="48.452382" lon="2.724102"><ele></ele><time>2017-9-19T8:22:55Z</time></trkpt>
<trkpt lat="48.452442" lon="2.724"><ele></ele><time>2017-9-19T8:22:58Z</time></trkpt>
<trkpt lat="48.452471" lon="2.72386"><ele></ele><time>2017-9-19T8:23:1Z</time></trkpt>
<trkpt lat="48.452539" lon="2.723728"><ele></ele><time>2017-9-19T8:23:4Z</time></trkpt>
<trkpt lat="48.452629" lon="2.723594"><ele></ele><time>2017-9-19T8:23:7Z</time></trkpt>
<trkpt lat="48.452658" lon="2.723462"><ele></ele><time>2017-9-19T8:23:10Z</time></trkpt>
<trkpt lat="48.452814" lon="2.723248"><ele></ele><time>2017-9-19T8:23:13Z</time></trkpt>
<trkpt lat="48.452904" lon="2.723108"><ele></ele><time>2017-9-19T8:23:16Z</time></trkpt>
<trkpt lat="48.452984" lon="2.723033"><ele></ele><time>2017-9-19T8:23:19Z</time></trkpt>
<trkpt lat="48.453061" lon="2.722961"><ele></ele><time>2017-9-19T8:23:22Z</time></trkpt>
<trkpt lat="48.45305" lon="2.722823"><ele></ele><time>2017-9-19T8:23:25Z</time></trkpt>
<trkpt lat="48.452968" lon="2.722765"><ele></ele><time>2017-9-19T8:23:28Z</time></trkpt>
<trkpt lat="48.453011" lon="2.722626"><ele></ele><time>2017-9-19T8:23:31Z</time></trkpt>
<trkpt lat="48.453061" lon="2.722503"><ele></ele><time>2017-9-19T8:23:34Z</time></trkpt>
<trkpt lat="48.453177" lon="2.722228"><ele></ele><time>2017-9-19T8:23:37Z</time></trkpt>
<trkpt lat="48.453258" lon="2.722147"><ele></ele><time>2017-9-19T8:23:40Z</time></trkpt>
<trkpt lat="48.453335" lon="2.722064"><ele></ele><time>2017-9-19T8:23:43Z</time></trkpt>
<trkpt lat="48.453382" lon="2.721945"><ele></ele><time>2017-9-19T8:23:46Z</time></trkpt>
<trkpt lat="48.453396" lon="2.721799"><ele></ele><time>2017-9-19T8:23:49Z</time></trkpt>
<trkpt lat="48.453455" lon="2.721662"><ele></ele><time>2017-9-19T8:23:52Z</time></trkpt>
<trkpt lat="48.453496" lon="2.721513"><ele></ele><time>2017-9-19T8:23:55Z</time></trkpt>
<trkpt lat="48.453572" lon="2.72142"><ele></ele><time>2017-9-19T8:23:58Z</time></trkpt>
<trkpt lat="48.453695" lon="2.721335"><ele></ele><time>2017-9-19T8:24:1Z</time></trkpt>
<trkpt lat="48.453783" lon="2.721216"><ele></ele><time>2017-9-19T8:24:4Z</time></trkpt>
<trkpt lat="48.453877" lon="2.72109"><ele></ele><time>2017-9-19T8:24:7Z</time></trkpt>
<trkpt lat="48.453961" lon="2.721015"><ele></ele><time>2017-9-19T8:24:10Z</time></trkpt>
<trkpt lat="48.454112" lon="2.720912"><ele></ele><time>2017-9-19T8:24:13Z</time></trkpt>
<trkpt lat="48.454205" lon="2.720835"><ele></ele><time>2017-9-19T8:24:16Z</time></trkpt>
<trkpt lat="48.454312" lon="2.720778"><ele></ele><time>2017-9-19T8:24:19Z</time></trkpt>
<trkpt lat="48.454395" lon="2.720708"><ele></ele><time>2017-9-19T8:24:22Z</time></trkpt>
<trkpt lat="48.454482" lon="2.720646"><ele></ele><time>2017-9-19T8:24:25Z</time></trkpt>
<trkpt lat="48.454587" lon="2.720535"><ele></ele><time>2017-9-19T8:24:28Z</time></trkpt>
<trkpt lat="48.45465" lon="2.720437"><ele></ele><time>2017-9-19T8:24:31Z</time></trkpt>
<trkpt lat="48.454722" lon="2.720308"><ele></ele><time>2017-9-19T8:24:34Z</time></trkpt>
<trkpt lat="48.454786" lon="2.720198"><ele></ele><time>2017-9-19T8:24:37Z</time></trkpt>
<trkpt lat="48.454963" lon="2.719962"><ele></ele><time>2017-9-19T8:24:40Z</time></trkpt>
<trkpt lat="48.455069" lon="2.719862"><ele></ele><time>2017-9-19T8:24:43Z</time></trkpt>
<trkpt lat="48.45515" lon="2.719707"><ele></ele><time>2017-9-19T8:24:46Z</time></trkpt>
<trkpt lat="48.45522" lon="2.719594"><ele></ele><time>2017-9-19T8:24:49Z</time></trkpt>
<trkpt lat="48.455278" lon="2.719427"><ele></ele><time>2017-9-19T8:24:52Z</time></trkpt>
<trkpt lat="48.455411" lon="2.719413"><ele></ele><time>2017-9-19T8:24:55Z</time></trkpt>
<trkpt lat="48.455469" lon="2.719266"><ele></ele><time>2017-9-19T8:24:58Z</time></trkpt>
<trkpt lat="48.455496" lon="2.719061"><ele></ele><time>2017-9-19T8:25:1Z</time></trkpt>
<trkpt lat="48.455519" lon="2.718916"><ele></ele><time>2017-9-19T8:25:4Z</time></trkpt>
<trkpt lat="48.455558" lon="2.718774"><ele></ele><time>2017-9-19T8:25:7Z</time></trkpt>
<trkpt lat="48.455737" lon="2.718779"><ele></ele><time>2017-9-19T8:25:10Z</time></trkpt>
<trkpt lat="48.455731" lon="2.718635"><ele></ele><time>2017-9-19T8:25:13Z</time></trkpt>
<trkpt lat="48.455688" lon="2.718431"><ele></ele><time>2017-9-19T8:25:16Z</time></trkpt>
<trkpt lat="48.455731" lon="2.718226"><ele></ele><time>2017-9-19T8:25:19Z</time></trkpt>
<trkpt lat="48.455745" lon="2.718001"><ele></ele><time>2017-9-19T8:25:22Z</time></trkpt>
<trkpt lat="48.455709" lon="2.717785"><ele></ele><time>2017-9-19T8:25:25Z</time></trkpt>
<trkpt lat="48.455761" lon="2.717546"><ele></ele><time>2017-9-19T8:25:28Z</time></trkpt>
<trkpt lat="48.455757" lon="2.717384"><ele></ele><time>2017-9-19T8:25:31Z</time></trkpt>
<trkpt lat="48.455745" lon="2.71719"><ele></ele><time>2017-9-19T8:25:34Z</time></trkpt>
<trkpt lat="48.45578" lon="2.716998"><ele></ele><time>2017-9-19T8:25:37Z</time></trkpt>
<trkpt lat="48.45572" lon="2.716811"><ele></ele><time>2017-9-19T8:25:40Z</time></trkpt>
<trkpt lat="48.455784" lon="2.716669"><ele></ele><time>2017-9-19T8:25:43Z</time></trkpt>
<trkpt lat="48.45585" lon="2.716517"><ele></ele><time>2017-9-19T8:25:46Z</time></trkpt>
<trkpt lat="48.455868" lon="2.71635"><ele></ele><time>2017-9-19T8:25:49Z</time></trkpt>
<trkpt lat="48.455846" lon="2.71613"><ele></ele><time>2017-9-19T8:25:52Z</time></trkpt>
<trkpt lat="48.455825" lon="2.715923"><ele></ele><time>2017-9-19T8:25:55Z</time></trkpt>
<trkpt lat="48.455811" lon="2.715778"><ele></ele><time>2017-9-19T8:25:58Z</time></trkpt>
<trkpt lat="48.455791" lon="2.715583"><ele></ele><time>2017-9-19T8:26:1Z</time></trkpt>
<trkpt lat="48.455764" lon="2.715394"><ele></ele><time>2017-9-19T8:26:4Z</time></trkpt>
<trkpt lat="48.455662" lon="2.715131"><ele></ele><time>2017-9-19T8:26:7Z</time></trkpt>
<trkpt lat="48.455691" lon="2.714964"><ele></ele><time>2017-9-19T8:26:10Z</time></trkpt>
<trkpt lat="48.455679" lon="2.714785"><ele></ele><time>2017-9-19T8:26:13Z</time></trkpt>
<trkpt lat="48.455645" lon="2.71459"><ele></ele><time>2017-9-19T8:26:16Z</time></trkpt>
<trkpt lat="48.455689" lon="2.714426"><ele></ele><time>2017-9-19T8:26:19Z</time></trkpt>
<trkpt lat="48.4557" lon="2.714157"><ele></ele><time>2017-9-19T8:26:22Z</time></trkpt>
<trkpt lat="48.455749" lon="2.713983"><ele></ele><time>2017-9-19T8:26:25Z</time></trkpt>
<trkpt lat="48.455854" lon="2.713846"><ele></ele><time>2017-9-19T8:26:28Z</time></trkpt>
<trkpt lat="48.45588" lon="2.713672"><ele></ele><time>2017-9-19T8:26:31Z</time></trkpt>
<trkpt lat="48.455874" lon="2.713502"><ele></ele><time>2017-9-19T8:26:34Z</time></trkpt>
<trkpt lat="48.455876" lon="2.713307"><ele></ele><time>2017-9-19T8:26:37Z</time></trkpt>
<trkpt lat="48.455848" lon="2.713128"><ele></ele><time>2017-9-19T8:26:40Z</time></trkpt>
<trkpt lat="48.455869" lon="2.712902"><ele></ele><time>2017-9-19T8:26:43Z</time></trkpt>
<trkpt lat="48.45586" lon="2.712744"><ele></ele><time>2017-9-19T8:26:46Z</time></trkpt>
<trkpt lat="48.455998" lon="2.712412"><ele></ele><time>2017-9-19T8:26:49Z</time></trkpt>
<trkpt lat="48.456012" lon="2.712178"><ele></ele><time>2017-9-19T8:26:52Z</time></trkpt>
<trkpt lat="48.45602" lon="2.71204"><ele></ele><time>2017-9-19T8:26:55Z</time></trkpt>
<trkpt lat="48.456042" lon="2.711899"><ele></ele><time>2017-9-19T8:26:58Z</time></trkpt>
<trkpt lat="48.456151" lon="2.711675"><ele></ele><time>2017-9-19T8:27:1Z</time></trkpt>
<trkpt lat="48.456283" lon="2.711558"><ele></ele><time>2017-9-19T8:27:4Z</time></trkpt>
<trkpt lat="48.456394" lon="2.711495"><ele></ele><time>2017-9-19T8:27:7Z</time></trkpt>
<trkpt lat="48.456491" lon="2.71132"><ele></ele><time>2017-9-19T8:27:10Z</time></trkpt>
<trkpt lat="48.456542" lon="2.711204"><ele></ele><time>2017-9-19T8:27:13Z</time></trkpt>
<trkpt lat="48.456526" lon="2.711029"><ele></ele><time>2017-9-19T8:27:16Z</time></trkpt>
<trkpt lat="48.456566" lon="2.710892"><ele></ele><time>2017-9-19T8:27:19Z</time></trkpt>
<trkpt lat="48.456603" lon="2.710722"><ele></ele><time>2017-9-19T8:27:22Z</time></trkpt>
<trkpt lat="48.456633" lon="2.71055"><ele></ele><time>2017-9-19T8:27:25Z</time></trkpt>
<trkpt lat="48.456675" lon="2.71041"><ele></ele><time>2017-9-19T8:27:28Z</time></trkpt>
<trkpt lat="48.456763" lon="2.710339"><ele></ele><time>2017-9-19T8:27:31Z</time></trkpt>
<trkpt lat="48.456807" lon="2.710189"><ele></ele><time>2017-9-19T8:27:34Z</time></trkpt>
<trkpt lat="48.45683" lon="2.709999"><ele></ele><time>2017-9-19T8:27:37Z</time></trkpt>
<trkpt lat="48.45681" lon="2.709788"><ele></ele><time>2017-9-19T8:27:40Z</time></trkpt>
<trkpt lat="48.456734" lon="2.709563"><ele></ele><time>2017-9-19T8:27:43Z</time></trkpt>
<trkpt lat="48.456695" lon="2.709408"><ele></ele><time>2017-9-19T8:27:46Z</time></trkpt>
<trkpt lat="48.456658" lon="2.709281"><ele></ele><time>2017-9-19T8:27:49Z</time></trkpt>
<trkpt lat="48.456678" lon="2.709066"><ele></ele><time>2017-9-19T8:27:52Z</time></trkpt>
<trkpt lat="48.456684" lon="2.708913"><ele></ele><time>2017-9-19T8:27:55Z</time></trkpt>
<trkpt lat="48.456651" lon="2.708754"><ele></ele><time>2017-9-19T8:27:58Z</time></trkpt>
<trkpt lat="48.456606" lon="2.708566"><ele></ele><time>2017-9-19T8:28:1Z</time></trkpt>
<trkpt lat="48.456705" lon="2.70831"><ele></ele><time>2017-9-19T8:28:4Z</time></trkpt>
<trkpt lat="48.456758" lon="2.708113"><ele></ele><time>2017-9-19T8:28:7Z</time></trkpt>
<trkpt lat="48.456833" lon="2.707931"><ele></ele><time>2017-9-19T8:28:10Z</time></trkpt>
<trkpt lat="48.456874" lon="2.707792"><ele></ele><time>2017-9-19T8:28:13Z</time></trkpt>
<trkpt lat="48.456934" lon="2.707653"><ele></ele><time>2017-9-19T8:28:16Z</time></trkpt>
<trkpt lat="48.456996" lon="2.707516"><ele></ele><time>2017-9-19T8:28:19Z</time></trkpt>
<trkpt lat="48.457055" lon="2.707384"><ele></ele><time>2017-9-19T8:28:22Z</time></trkpt>
<trkpt lat="48.457073" lon="2.707248"><ele></ele><time>2017-9-19T8:28:25Z</time></trkpt>
<trkpt lat="48.457163" lon="2.707095"><ele></ele><time>2017-9-19T8:28:28Z</time></trkpt>
<trkpt lat="48.457186" lon="2.706931"><ele></ele><time>2017-9-19T8:28:31Z</time></trkpt>
<trkpt lat="48.457251" lon="2.706764"><ele></ele><time>2017-9-19T8:28:34Z</time></trkpt>
<trkpt lat="48.457275" lon="2.706581"><ele></ele><time>2017-9-19T8:28:37Z</time></trkpt>
<trkpt lat="48.457227" lon="2.706448"><ele></ele><time>2017-9-19T8:28:40Z</time></trkpt>
<trkpt lat="48.457231" lon="2.706281"><ele></ele><time>2017-9-19T8:28:43Z</time></trkpt>
<trkpt lat="48.457243" lon="2.706139"><ele></ele><time>2017-9-19T8:28:46Z</time></trkpt>
<trkpt lat="48.457236" lon="2.705947"><ele></ele><time>2017-9-19T8:28:49Z</time></trkpt>
<trkpt lat="48.457271" lon="2.705756"><ele></ele><time>2017-9-19T8:28:52Z</time></trkpt>
<trkpt lat="48.457373" lon="2.705678"><ele></ele><time>2017-9-19T8:28:55Z</time></trkpt>
<trkpt lat="48.457436" lon="2.705485"><ele></ele><time>2017-9-19T8:28:58Z</time></trkpt>
<trkpt lat="48.457465" lon="2.705277"><ele></ele><time>2017-9-19T8:29:1Z</time></trkpt>
<trkpt lat="48.457554" lon="2.705189"><ele></ele><time>2017-9-19T8:29:4Z</time></trkpt>
<trkpt lat="48.457622" lon="2.705012"><ele></ele><time>2017-9-19T8:29:7Z</time></trkpt>
<trkpt lat="48.457646" lon="2.704844"><ele></ele><time>2017-9-19T8:29:10Z</time></trkpt>
<trkpt lat="48.457691" lon="2.704688"><ele></ele><time>2017-9-19T8:29:13Z</time></trkpt>
<trkpt lat="48.457601" lon="2.704355"><ele></ele><time>2017-9-19T8:29:16Z</time></trkpt>
<trkpt lat="48.457605" lon="2.704169"><ele></ele><time>2017-9-19T8:29:19Z</time></trkpt>
<trkpt lat="48.457641" lon="2.704031"><ele></ele><time>2017-9-19T8:29:22Z</time></trkpt>
<trkpt lat="48.457655" lon="2.70389"><ele></ele><time>2017-9-19T8:29:25Z</time></trkpt>
<trkpt lat="48.457731" lon="2.70377"><ele></ele><time>2017-9-19T8:29:28Z</time></trkpt>
<trkpt lat="48.457781" lon="2.703642"><ele></ele><time>2017-9-19T8:29:31Z</time></trkpt>
<trkpt lat="48.457775" lon="2.703423"><ele></ele><time>2017-9-19T8:29:34Z</time></trkpt>
<trkpt lat="48.457768" lon="2.703235"><ele></ele><time>2017-9-19T8:29:37Z</time></trkpt>
<trkpt lat="48.457738" lon="2.703086"><ele></ele><time>2017-9-19T8:29:40Z</time></trkpt>
<trkpt lat="48.457757" lon="2.702876"><ele></ele><time>2017-9-19T8:29:43Z</time></trkpt>
<trkpt lat="48.457804" lon="2.702695"><ele></ele><time>2017-9-19T8:29:46Z</time></trkpt>
<trkpt lat="48.45782" lon="2.702543"><ele></ele><time>2017-9-19T8:29:49Z</time></trkpt>
<trkpt lat="48.457872" lon="2.702404"><ele></ele><time>2017-9-19T8:29:52Z</time></trkpt>
<trkpt lat="48.457865" lon="2.702221"><ele></ele><time>2017-9-19T8:29:55Z</time></trkpt>
<trkpt lat="48.457941" lon="2.702068"><ele></ele><time>2017-9-19T8:29:58Z</time></trkpt>
<trkpt lat="48.457946" lon="2.701813"><ele></ele><time>2017-9-19T8:30:1Z</time></trkpt>
<trkpt lat="48.458004" lon="2.701687"><ele></ele><time>2017-9-19T8:30:4Z</time></trkpt>
<trkpt lat="48.458032" lon="2.701554"><ele></ele><time>2017-9-19T8:30:7Z</time></trkpt>
<trkpt lat="48.45805" lon="2.701355"><ele></ele><time>2017-9-19T8:30:10Z</time></trkpt>
<trkpt lat="48.45805" lon="2.7012"><ele></ele><time>2017-9-19T8:30:13Z</time></trkpt>
<trkpt lat="48.457979" lon="2.700926"><ele></ele><time>2017-9-19T8:30:16Z</time></trkpt>
<trkpt lat="48.45802" lon="2.700779"><ele></ele><time>2017-9-19T8:30:19Z</time></trkpt>
<trkpt lat="48.458063" lon="2.700634"><ele></ele><time>2017-9-19T8:30:22Z</time></trkpt>
<trkpt lat="48.458083" lon="2.700464"><ele></ele><time>2017-9-19T8:30:25Z</time></trkpt>
<trkpt lat="48.458164" lon="2.700358"><ele></ele><time>2017-9-19T8:30:28Z</time></trkpt>
<trkpt lat="48.458242" lon="2.700256"><ele></ele><time>2017-9-19T8:30:31Z</time></trkpt>
<trkpt lat="48.458324" lon="2.700156"><ele></ele><time>2017-9-19T8:30:34Z</time></trkpt>
<trkpt lat="48.458252" lon="2.70004"><ele></ele><time>2017-9-19T8:30:37Z</time></trkpt>
<trkpt lat="48.458183" lon="2.699909"><ele></ele><time>2017-9-19T8:30:40Z</time></trkpt>
<trkpt lat="48.458104" lon="2.69979"><ele></ele><time>2017-9-19T8:30:43Z</time></trkpt>
<trkpt lat="48.458028" lon="2.699674"><ele></ele><time>2017-9-19T8:30:46Z</time></trkpt>
<trkpt lat="48.457942" lon="2.699549"><ele></ele><time>2017-9-19T8:30:49Z</time></trkpt>
<trkpt lat="48.457883" lon="2.69942"><ele></ele><time>2017-9-19T8:30:52Z</time></trkpt>
<trkpt lat="48.457825" lon="2.69931"><ele></ele><time>2017-9-19T8:30:55Z</time></trkpt>
<trkpt lat="48.457756" lon="2.699188"><ele></ele><time>2017-9-19T8:30:58Z</time></trkpt>
<trkpt lat="48.457616" lon="2.698959"><ele></ele><time>2017-9-19T8:31:1Z</time></trkpt>
<trkpt lat="48.457556" lon="2.698837"><ele></ele><time>2017-9-19T8:31:4Z</time></trkpt>
<trkpt lat="48.457481" lon="2.698707"><ele></ele><time>2017-9-19T8:31:7Z</time></trkpt>
<trkpt lat="48.457426" lon="2.698599"><ele></ele><time>2017-9-19T8:31:10Z</time></trkpt>
<trkpt lat="48.457362" lon="2.698481"><ele></ele><time>2017-9-19T8:31:13Z</time></trkpt>
<trkpt lat="48.457303" lon="2.698362"><ele></ele><time>2017-9-19T8:31:16Z</time></trkpt>
<trkpt lat="48.457242" lon="2.698252"><ele></ele><time>2017-9-19T8:31:19Z</time></trkpt>
<trkpt lat="48.457175" lon="2.69812"><ele></ele><time>2017-9-19T8:31:22Z</time></trkpt>
<trkpt lat="48.457255" lon="2.698203"><ele></ele><time>2017-9-19T8:31:25Z</time></trkpt>
<trkpt lat="48.457392" lon="2.69846"><ele></ele><time>2017-9-19T8:31:28Z</time></trkpt>
<trkpt lat="48.457473" lon="2.698582"><ele></ele><time>2017-9-19T8:31:31Z</time></trkpt>
<trkpt lat="48.457545" lon="2.698702"><ele></ele><time>2017-9-19T8:31:34Z</time></trkpt>
<trkpt lat="48.457623" lon="2.698853"><ele></ele><time>2017-9-19T8:31:37Z</time></trkpt>
<trkpt lat="48.45769" lon="2.698976"><ele></ele><time>2017-9-19T8:31:40Z</time></trkpt>
<trkpt lat="48.457783" lon="2.6991"><ele></ele><time>2017-9-19T8:31:43Z</time></trkpt>
<trkpt lat="48.457857" lon="2.699221"><ele></ele><time>2017-9-19T8:31:46Z</time></trkpt>
<trkpt lat="48.457933" lon="2.699348"><ele></ele><time>2017-9-19T8:31:49Z</time></trkpt>
<trkpt lat="48.457991" lon="2.69948"><ele></ele><time>2017-9-19T8:31:52Z</time></trkpt>
<trkpt lat="48.458063" lon="2.699604"><ele></ele><time>2017-9-19T8:31:55Z</time></trkpt>
<trkpt lat="48.458148" lon="2.699734"><ele></ele><time>2017-9-19T8:31:58Z</time></trkpt>
<trkpt lat="48.458217" lon="2.699842"><ele></ele><time>2017-9-19T8:32:1Z</time></trkpt>
<trkpt lat="48.458312" lon="2.69979"><ele></ele><time>2017-9-19T8:32:4Z</time></trkpt>
<trkpt lat="48.458312" lon="2.699609"><ele></ele><time>2017-9-19T8:32:7Z</time></trkpt>
<trkpt lat="48.458351" lon="2.699469"><ele></ele><time>2017-9-19T8:32:10Z</time></trkpt>
<trkpt lat="48.458357" lon="2.699317"><ele></ele><time>2017-9-19T8:32:13Z</time></trkpt>
<trkpt lat="48.4584" lon="2.699193"><ele></ele><time>2017-9-19T8:32:16Z</time></trkpt>
<trkpt lat="48.458461" lon="2.699029"><ele></ele><time>2017-9-19T8:32:19Z</time></trkpt>
<trkpt lat="48.458516" lon="2.698858"><ele></ele><time>2017-9-19T8:32:22Z</time></trkpt>
<trkpt lat="48.458625" lon="2.698566"><ele></ele><time>2017-9-19T8:32:25Z</time></trkpt>
<trkpt lat="48.458649" lon="2.698433"><ele></ele><time>2017-9-19T8:32:28Z</time></trkpt>
<trkpt lat="48.458563" lon="2.698297"><ele></ele><time>2017-9-19T8:32:31Z</time></trkpt>
<trkpt lat="48.458588" lon="2.698148"><ele></ele><time>2017-9-19T8:32:34Z</time></trkpt>
<trkpt lat="48.458629" lon="2.698013"><ele></ele><time>2017-9-19T8:32:37Z</time></trkpt>
<trkpt lat="48.458735" lon="2.697907"><ele></ele><time>2017-9-19T8:32:40Z</time></trkpt>
<trkpt lat="48.458799" lon="2.697798"><ele></ele><time>2017-9-19T8:32:43Z</time></trkpt>
<trkpt lat="48.45882" lon="2.697615"><ele></ele><time>2017-9-19T8:32:46Z</time></trkpt>
<trkpt lat="48.458854" lon="2.697446"><ele></ele><time>2017-9-19T8:32:49Z</time></trkpt>
<trkpt lat="48.458927" lon="2.697327"><ele></ele><time>2017-9-19T8:32:52Z</time></trkpt>
<trkpt lat="48.459007" lon="2.697204"><ele></ele><time>2017-9-19T8:32:55Z</time></trkpt>
<trkpt lat="48.459113" lon="2.69715"><ele></ele><time>2017-9-19T8:32:58Z</time></trkpt>
<trkpt lat="48.459095" lon="2.696941"><ele></ele><time>2017-9-19T8:33:1Z</time></trkpt>
<trkpt lat="48.45913" lon="2.696789"><ele></ele><time>2017-9-19T8:33:4Z</time></trkpt>
<trkpt lat="48.459173" lon="2.696577"><ele></ele><time>2017-9-19T8:33:7Z</time></trkpt>
<trkpt lat="48.459183" lon="2.696426"><ele></ele><time>2017-9-19T8:33:10Z</time></trkpt>
<trkpt lat="48.459226" lon="2.696296"><ele></ele><time>2017-9-19T8:33:13Z</time></trkpt>
<trkpt lat="48.459255" lon="2.696164"><ele></ele><time>2017-9-19T8:33:16Z</time></trkpt>
<trkpt lat="48.459277" lon="2.696026"><ele></ele><time>2017-9-19T8:33:19Z</time></trkpt>
<trkpt lat="48.459289" lon="2.69585"><ele></ele><time>2017-9-19T8:33:22Z</time></trkpt>
<trkpt lat="48.459268" lon="2.69564"><ele></ele><time>2017-9-19T8:33:25Z</time></trkpt>
<trkpt lat="48.459269" lon="2.695471"><ele></ele><time>2017-9-19T8:33:28Z</time></trkpt>
<trkpt lat="48.459317" lon="2.695306"><ele></ele><time>2017-9-19T8:33:31Z</time></trkpt>
<trkpt lat="48.459227" lon="2.69501"><ele></ele><time>2017-9-19T8:33:34Z</time></trkpt>
<trkpt lat="48.459189" lon="2.694843"><ele></ele><time>2017-9-19T8:33:37Z</time></trkpt>
<trkpt lat="48.459211" lon="2.694662"><ele></ele><time>2017-9-19T8:33:40Z</time></trkpt>
<trkpt lat="48.459254" lon="2.694528"><ele></ele><time>2017-9-19T8:33:43Z</time></trkpt>
<trkpt lat="48.459392" lon="2.694229"><ele></ele><time>2017-9-19T8:33:46Z</time></trkpt>
<trkpt lat="48.459401" lon="2.694079"><ele></ele><time>2017-9-19T8:33:49Z</time></trkpt>
<trkpt lat="48.459412" lon="2.693865"><ele></ele><time>2017-9-19T8:33:52Z</time></trkpt>
<trkpt lat="48.459522" lon="2.693834"><ele></ele><time>2017-9-19T8:33:55Z</time></trkpt>
<trkpt lat="48.459509" lon="2.693687"><ele></ele><time>2017-9-19T8:33:58Z</time></trkpt>
<trkpt lat="48.459586" lon="2.693431"><ele></ele><time>2017-9-19T8:34:1Z</time></trkpt>
<trkpt lat="48.45959" lon="2.693262"><ele></ele><time>2017-9-19T8:34:4Z</time></trkpt>
<trkpt lat="48.459594" lon="2.693091"><ele></ele><time>2017-9-19T8:34:7Z</time></trkpt>
<trkpt lat="48.459526" lon="2.69292"><ele></ele><time>2017-9-19T8:34:10Z</time></trkpt>
<trkpt lat="48.45952" lon="2.692755"><ele></ele><time>2017-9-19T8:34:13Z</time></trkpt>
<trkpt lat="48.459501" lon="2.692604"><ele></ele><time>2017-9-19T8:34:16Z</time></trkpt>
<trkpt lat="48.459453" lon="2.692399"><ele></ele><time>2017-9-19T8:34:19Z</time></trkpt>
<trkpt lat="48.459407" lon="2.6922"><ele></ele><time>2017-9-19T8:34:22Z</time></trkpt>
<trkpt lat="48.459389" lon="2.692042"><ele></ele><time>2017-9-19T8:34:25Z</time></trkpt>
<trkpt lat="48.459478" lon="2.691913"><ele></ele><time>2017-9-19T8:34:28Z</time></trkpt>
<trkpt lat="48.459494" lon="2.691716"><ele></ele><time>2017-9-19T8:34:31Z</time></trkpt>
<trkpt lat="48.459524" lon="2.691584"><ele></ele><time>2017-9-19T8:34:34Z</time></trkpt>
<trkpt lat="48.459569" lon="2.691392"><ele></ele><time>2017-9-19T8:34:37Z</time></trkpt>
<trkpt lat="48.459587" lon="2.691236"><ele></ele><time>2017-9-19T8:34:40Z</time></trkpt>
<trkpt lat="48.459627" lon="2.691062"><ele></ele><time>2017-9-19T8:34:43Z</time></trkpt>
<trkpt lat="48.459671" lon="2.69091"><ele></ele><time>2017-9-19T8:34:46Z</time></trkpt>
<trkpt lat="48.459693" lon="2.690762"><ele></ele><time>2017-9-19T8:34:49Z</time></trkpt>
<trkpt lat="48.459783" lon="2.690614"><ele></ele><time>2017-9-19T8:34:52Z</time></trkpt>
<trkpt lat="48.459841" lon="2.69049"><ele></ele><time>2017-9-19T8:34:55Z</time></trkpt>
<trkpt lat="48.459959" lon="2.690373"><ele></ele><time>2017-9-19T8:34:58Z</time></trkpt>
<trkpt lat="48.460105" lon="2.690088"><ele></ele><time>2017-9-19T8:35:1Z</time></trkpt>
<trkpt lat="48.460118" lon="2.689807"><ele></ele><time>2017-9-19T8:35:4Z</time></trkpt>
<trkpt lat="48.460177" lon="2.689681"><ele></ele><time>2017-9-19T8:35:7Z</time></trkpt>
<trkpt lat="48.460207" lon="2.689514"><ele></ele><time>2017-9-19T8:35:10Z</time></trkpt>
<trkpt lat="48.460289" lon="2.68933"><ele></ele><time>2017-9-19T8:35:13Z</time></trkpt>
<trkpt lat="48.460336" lon="2.689155"><ele></ele><time>2017-9-19T8:35:16Z</time></trkpt>
<trkpt lat="48.460333" lon="2.688971"><ele></ele><time>2017-9-19T8:35:19Z</time></trkpt>
<trkpt lat="48.460336" lon="2.688826"><ele></ele><time>2017-9-19T8:35:22Z</time></trkpt>
<trkpt lat="48.460344" lon="2.688689"><ele></ele><time>2017-9-19T8:35:25Z</time></trkpt>
<trkpt lat="48.460389" lon="2.688459"><ele></ele><time>2017-9-19T8:35:28Z</time></trkpt>
<trkpt lat="48.460505" lon="2.688375"><ele></ele><time>2017-9-19T8:35:31Z</time></trkpt>
<trkpt lat="48.460634" lon="2.688358"><ele></ele><time>2017-9-19T8:35:34Z</time></trkpt>
<trkpt lat="48.460723" lon="2.688313"><ele></ele><time>2017-9-19T8:35:37Z</time></trkpt>
<trkpt lat="48.460729" lon="2.688175"><ele></ele><time>2017-9-19T8:35:40Z</time></trkpt>
<trkpt lat="48.460725" lon="2.688034"><ele></ele><time>2017-9-19T8:35:43Z</time></trkpt>
<trkpt lat="48.460719" lon="2.687814"><ele></ele><time>2017-9-19T8:35:46Z</time></trkpt>
<trkpt lat="48.460748" lon="2.687685"><ele></ele><time>2017-9-19T8:35:49Z</time></trkpt>
<trkpt lat="48.460778" lon="2.687556"><ele></ele><time>2017-9-19T8:35:52Z</time></trkpt>
<trkpt lat="48.460677" lon="2.687417"><ele></ele><time>2017-9-19T8:35:55Z</time></trkpt>
<trkpt lat="48.460644" lon="2.687201"><ele></ele><time>2017-9-19T8:35:58Z</time></trkpt>
<trkpt lat="48.460687" lon="2.687002"><ele></ele><time>2017-9-19T8:36:1Z</time></trkpt>
<trkpt lat="48.460792" lon="2.686867"><ele></ele><time>2017-9-19T8:36:4Z</time></trkpt>
<trkpt lat="48.460878" lon="2.68675"><ele></ele><time>2017-9-19T8:36:7Z</time></trkpt>
<trkpt lat="48.460843" lon="2.686365"><ele></ele><time>2017-9-19T8:36:10Z</time></trkpt>
<trkpt lat="48.460836" lon="2.686225"><ele></ele><time>2017-9-19T8:36:13Z</time></trkpt>
<trkpt lat="48.460819" lon="2.686066"><ele></ele><time>2017-9-19T8:36:16Z</time></trkpt>
<trkpt lat="48.460823" lon="2.685903"><ele></ele><time>2017-9-19T8:36:19Z</time></trkpt>
<trkpt lat="48.460843" lon="2.68576"><ele></ele><time>2017-9-19T8:36:22Z</time></trkpt>
<trkpt lat="48.460866" lon="2.685628"><ele></ele><time>2017-9-19T8:36:25Z</time></trkpt>
<trkpt lat="48.460889" lon="2.685489"><ele></ele><time>2017-9-19T8:36:28Z</time></trkpt>
<trkpt lat="48.460911" lon="2.685294"><ele></ele><time>2017-9-19T8:36:31Z</time></trkpt>
<trkpt lat="48.460958" lon="2.685047"><ele></ele><time>2017-9-19T8:36:34Z</time></trkpt>
<trkpt lat="48.460974" lon="2.684894"><ele></ele><time>2017-9-19T8:36:37Z</time></trkpt>
<trkpt lat="48.461057" lon="2.68464"><ele></ele><time>2017-9-19T8:36:40Z</time></trkpt>
<trkpt lat="48.461096" lon="2.684475"><ele></ele><time>2017-9-19T8:36:43Z</time></trkpt>
<trkpt lat="48.461119" lon="2.684258"><ele></ele><time>2017-9-19T8:36:46Z</time></trkpt>
<trkpt lat="48.461069" lon="2.68408"><ele></ele><time>2017-9-19T8:36:49Z</time></trkpt>
<trkpt lat="48.461019" lon="2.68394"><ele></ele><time>2017-9-19T8:36:52Z</time></trkpt>
<trkpt lat="48.460972" lon="2.683788"><ele></ele><time>2017-9-19T8:36:55Z</time></trkpt>
<trkpt lat="48.460897" lon="2.68362"><ele></ele><time>2017-9-19T8:36:58Z</time></trkpt>
<trkpt lat="48.460816" lon="2.6835"><ele></ele><time>2017-9-19T8:37:1Z</time></trkpt>
<trkpt lat="48.460731" lon="2.68336"><ele></ele><time>2017-9-19T8:37:4Z</time></trkpt>
<trkpt lat="48.46067" lon="2.683171"><ele></ele><time>2017-9-19T8:37:7Z</time></trkpt>
<trkpt lat="48.46061" lon="2.683056"><ele></ele><time>2017-9-19T8:37:10Z</time></trkpt>
<trkpt lat="48.460564" lon="2.682897"><ele></ele><time>2017-9-19T8:37:13Z</time></trkpt>
<trkpt lat="48.460519" lon="2.682629"><ele></ele><time>2017-9-19T8:37:16Z</time></trkpt>
<trkpt lat="48.460487" lon="2.68247"><ele></ele><time>2017-9-19T8:37:19Z</time></trkpt>
<trkpt lat="48.460486" lon="2.682287"><ele></ele><time>2017-9-19T8:37:22Z</time></trkpt>
<trkpt lat="48.460531" lon="2.682153"><ele></ele><time>2017-9-19T8:37:25Z</time></trkpt>
<trkpt lat="48.460562" lon="2.682017"><ele></ele><time>2017-9-19T8:37:28Z</time></trkpt>
<trkpt lat="48.460591" lon="2.681872"><ele></ele><time>2017-9-19T8:37:31Z</time></trkpt>
<trkpt lat="48.460642" lon="2.681685"><ele></ele><time>2017-9-19T8:37:34Z</time></trkpt>
<trkpt lat="48.460685" lon="2.681551"><ele></ele><time>2017-9-19T8:37:37Z</time></trkpt>
<trkpt lat="48.460762" lon="2.681409"><ele></ele><time>2017-9-19T8:37:40Z</time></trkpt>
<trkpt lat="48.460801" lon="2.681227"><ele></ele><time>2017-9-19T8:37:43Z</time></trkpt>
<trkpt lat="48.460865" lon="2.681097"><ele></ele><time>2017-9-19T8:37:46Z</time></trkpt>
<trkpt lat="48.46093" lon="2.680963"><ele></ele><time>2017-9-19T8:37:49Z</time></trkpt>
<trkpt lat="48.460998" lon="2.680824"><ele></ele><time>2017-9-19T8:37:52Z</time></trkpt>
<trkpt lat="48.461052" lon="2.68069"><ele></ele><time>2017-9-19T8:37:55Z</time></trkpt>
<trkpt lat="48.461111" lon="2.680561"><ele></ele><time>2017-9-19T8:37:58Z</time></trkpt>
<trkpt lat="48.461183" lon="2.680443"><ele></ele><time>2017-9-19T8:38:1Z</time></trkpt>
<trkpt lat="48.461247" lon="2.680319"><ele></ele><time>2017-9-19T8:38:4Z</time></trkpt>
<trkpt lat="48.461304" lon="2.680207"><ele></ele><time>2017-9-19T8:38:7Z</time></trkpt>
<trkpt lat="48.461372" lon="2.680091"><ele></ele><time>2017-9-19T8:38:10Z</time></trkpt>
<trkpt lat="48.461429" lon="2.679968"><ele></ele><time>2017-9-19T8:38:13Z</time></trkpt>
<trkpt lat="48.461484" lon="2.679835"><ele></ele><time>2017-9-19T8:38:16Z</time></trkpt>
<trkpt lat="48.46154" lon="2.679719"><ele></ele><time>2017-9-19T8:38:19Z</time></trkpt>
<trkpt lat="48.461606" lon="2.679604"><ele></ele><time>2017-9-19T8:38:22Z</time></trkpt>
<trkpt lat="48.461694" lon="2.679437"><ele></ele><time>2017-9-19T8:38:25Z</time></trkpt>
<trkpt lat="48.461789" lon="2.679269"><ele></ele><time>2017-9-19T8:38:28Z</time></trkpt>
<trkpt lat="48.461971" lon="2.678997"><ele></ele><time>2017-9-19T8:38:31Z</time></trkpt>
<trkpt lat="48.462046" lon="2.678863"><ele></ele><time>2017-9-19T8:38:34Z</time></trkpt>
<trkpt lat="48.462131" lon="2.678745"><ele></ele><time>2017-9-19T8:38:37Z</time></trkpt>
<trkpt lat="48.462206" lon="2.678636"><ele></ele><time>2017-9-19T8:38:40Z</time></trkpt>
<trkpt lat="48.462277" lon="2.678519"><ele></ele><time>2017-9-19T8:38:43Z</time></trkpt>
<trkpt lat="48.462405" lon="2.678383"><ele></ele><time>2017-9-19T8:38:46Z</time></trkpt>
<trkpt lat="48.462477" lon="2.678257"><ele></ele><time>2017-9-19T8:38:49Z</time></trkpt>
<trkpt lat="48.462544" lon="2.678144"><ele></ele><time>2017-9-19T8:38:52Z</time></trkpt>
<trkpt lat="48.462649" lon="2.678026"><ele></ele><time>2017-9-19T8:38:55Z</time></trkpt>
<trkpt lat="48.462736" lon="2.677914"><ele></ele><time>2017-9-19T8:38:58Z</time></trkpt>
<trkpt lat="48.462832" lon="2.677811"><ele></ele><time>2017-9-19T8:39:1Z</time></trkpt>
<trkpt lat="48.462911" lon="2.677717"><ele></ele><time>2017-9-19T8:39:4Z</time></trkpt>
<trkpt lat="48.462962" lon="2.677562"><ele></ele><time>2017-9-19T8:39:7Z</time></trkpt>
<trkpt lat="48.463056" lon="2.677424"><ele></ele><time>2017-9-19T8:39:10Z</time></trkpt>
<trkpt lat="48.463126" lon="2.677309"><ele></ele><time>2017-9-19T8:39:13Z</time></trkpt>
<trkpt lat="48.463201" lon="2.677187"><ele></ele><time>2017-9-19T8:39:16Z</time></trkpt>
<trkpt lat="48.46327" lon="2.677051"><ele></ele><time>2017-9-19T8:39:19Z</time></trkpt>
<trkpt lat="48.463359" lon="2.67693"><ele></ele><time>2017-9-19T8:39:22Z</time></trkpt>
<trkpt lat="48.4634" lon="2.676785"><ele></ele><time>2017-9-19T8:39:25Z</time></trkpt>
<trkpt lat="48.463453" lon="2.676666"><ele></ele><time>2017-9-19T8:39:28Z</time></trkpt>
<trkpt lat="48.463549" lon="2.676549"><ele></ele><time>2017-9-19T8:39:31Z</time></trkpt>
<trkpt lat="48.463616" lon="2.676421"><ele></ele><time>2017-9-19T8:39:34Z</time></trkpt>
<trkpt lat="48.463655" lon="2.676292"><ele></ele><time>2017-9-19T8:39:37Z</time></trkpt>
<trkpt lat="48.463696" lon="2.676117"><ele></ele><time>2017-9-19T8:39:40Z</time></trkpt>
<trkpt lat="48.463752" lon="2.675987"><ele></ele><time>2017-9-19T8:39:43Z</time></trkpt>
<trkpt lat="48.463821" lon="2.675865"><ele></ele><time>2017-9-19T8:39:46Z</time></trkpt>
<trkpt lat="48.46389" lon="2.675748"><ele></ele><time>2017-9-19T8:39:49Z</time></trkpt>
<trkpt lat="48.463958" lon="2.675622"><ele></ele><time>2017-9-19T8:39:52Z</time></trkpt>
<trkpt lat="48.464019" lon="2.675507"><ele></ele><time>2017-9-19T8:39:55Z</time></trkpt>
<trkpt lat="48.464165" lon="2.675286"><ele></ele><time>2017-9-19T8:39:58Z</time></trkpt>
<trkpt lat="48.464241" lon="2.675204"><ele></ele><time>2017-9-19T8:40:1Z</time></trkpt>
<trkpt lat="48.464308" lon="2.675101"><ele></ele><time>2017-9-19T8:40:4Z</time></trkpt>
<trkpt lat="48.464362" lon="2.674989"><ele></ele><time>2017-9-19T8:40:7Z</time></trkpt>
<trkpt lat="48.464408" lon="2.674853"><ele></ele><time>2017-9-19T8:40:10Z</time></trkpt>
<trkpt lat="48.464486" lon="2.67471"><ele></ele><time>2017-9-19T8:40:13Z</time></trkpt>
<trkpt lat="48.464581" lon="2.674586"><ele></ele><time>2017-9-19T8:40:16Z</time></trkpt>
<trkpt lat="48.464649" lon="2.674487"><ele></ele><time>2017-9-19T8:40:19Z</time></trkpt>
<trkpt lat="48.464721" lon="2.674392"><ele></ele><time>2017-9-19T8:40:22Z</time></trkpt>
<trkpt lat="48.464777" lon="2.674282"><ele></ele><time>2017-9-19T8:40:25Z</time></trkpt>
<trkpt lat="48.464837" lon="2.674169"><ele></ele><time>2017-9-19T8:40:28Z</time></trkpt>
<trkpt lat="48.464914" lon="2.674063"><ele></ele><time>2017-9-19T8:40:31Z</time></trkpt>
<trkpt lat="48.464982" lon="2.673899"><ele></ele><time>2017-9-19T8:40:34Z</time></trkpt>
<trkpt lat="48.465033" lon="2.673783"><ele></ele><time>2017-9-19T8:40:37Z</time></trkpt>
<trkpt lat="48.465101" lon="2.673672"><ele></ele><time>2017-9-19T8:40:40Z</time></trkpt>
<trkpt lat="48.465173" lon="2.673565"><ele></ele><time>2017-9-19T8:40:43Z</time></trkpt>
<trkpt lat="48.465223" lon="2.673451"><ele></ele><time>2017-9-19T8:40:46Z</time></trkpt>
<trkpt lat="48.465272" lon="2.673289"><ele></ele><time>2017-9-19T8:40:49Z</time></trkpt>
<trkpt lat="48.46534" lon="2.67319"><ele></ele><time>2017-9-19T8:40:52Z</time></trkpt>
<trkpt lat="48.465392" lon="2.673075"><ele></ele><time>2017-9-19T8:40:55Z</time></trkpt>
<trkpt lat="48.465447" lon="2.67295"><ele></ele><time>2017-9-19T8:40:58Z</time></trkpt>
<trkpt lat="48.465517" lon="2.672852"><ele></ele><time>2017-9-19T8:41:1Z</time></trkpt>
<trkpt lat="48.465554" lon="2.672717"><ele></ele><time>2017-9-19T8:41:4Z</time></trkpt>
<trkpt lat="48.465616" lon="2.672578"><ele></ele><time>2017-9-19T8:41:7Z</time></trkpt>
<trkpt lat="48.465662" lon="2.672444"><ele></ele><time>2017-9-19T8:41:10Z</time></trkpt>
<trkpt lat="48.465704" lon="2.67213"><ele></ele><time>2017-9-19T8:41:13Z</time></trkpt>
<trkpt lat="48.465774" lon="2.672031"><ele></ele><time>2017-9-19T8:41:16Z</time></trkpt>
<trkpt lat="48.465852" lon="2.671916"><ele></ele><time>2017-9-19T8:41:19Z</time></trkpt>
<trkpt lat="48.465924" lon="2.671784"><ele></ele><time>2017-9-19T8:41:22Z</time></trkpt>
<trkpt lat="48.46601" lon="2.671706"><ele></ele><time>2017-9-19T8:41:25Z</time></trkpt>
<trkpt lat="48.466093" lon="2.671596"><ele></ele><time>2017-9-19T8:41:28Z</time></trkpt>
<trkpt lat="48.466164" lon="2.671489"><ele></ele><time>2017-9-19T8:41:31Z</time></trkpt>
<trkpt lat="48.466239" lon="2.671371"><ele></ele><time>2017-9-19T8:41:34Z</time></trkpt>
<trkpt lat="48.466302" lon="2.671253"><ele></ele><time>2017-9-19T8:41:37Z</time></trkpt>
<trkpt lat="48.466372" lon="2.671138"><ele></ele><time>2017-9-19T8:41:40Z</time></trkpt>
<trkpt lat="48.466435" lon="2.671022"><ele></ele><time>2017-9-19T8:41:43Z</time></trkpt>
<trkpt lat="48.466496" lon="2.670918"><ele></ele><time>2017-9-19T8:41:46Z</time></trkpt>
<trkpt lat="48.466554" lon="2.670814"><ele></ele><time>2017-9-19T8:41:49Z</time></trkpt>
<trkpt lat="48.466613" lon="2.67071"><ele></ele><time>2017-9-19T8:41:52Z</time></trkpt>
<trkpt lat="48.466696" lon="2.670556"><ele></ele><time>2017-9-19T8:41:55Z</time></trkpt>
<trkpt lat="48.466783" lon="2.670411"><ele></ele><time>2017-9-19T8:41:58Z</time></trkpt>
<trkpt lat="48.466842" lon="2.670271"><ele></ele><time>2017-9-19T8:42:1Z</time></trkpt>
<trkpt lat="48.466912" lon="2.670154"><ele></ele><time>2017-9-19T8:42:4Z</time></trkpt>
<trkpt lat="48.467005" lon="2.670011"><ele></ele><time>2017-9-19T8:42:7Z</time></trkpt>
<trkpt lat="48.46708" lon="2.669889"><ele></ele><time>2017-9-19T8:42:10Z</time></trkpt>
<trkpt lat="48.467145" lon="2.669748"><ele></ele><time>2017-9-19T8:42:13Z</time></trkpt>
<trkpt lat="48.467204" lon="2.669633"><ele></ele><time>2017-9-19T8:42:16Z</time></trkpt>
<trkpt lat="48.467351" lon="2.669426"><ele></ele><time>2017-9-19T8:42:19Z</time></trkpt>
<trkpt lat="48.46743" lon="2.669309"><ele></ele><time>2017-9-19T8:42:22Z</time></trkpt>
<trkpt lat="48.467468" lon="2.669152"><ele></ele><time>2017-9-19T8:42:25Z</time></trkpt>
<trkpt lat="48.467543" lon="2.669024"><ele></ele><time>2017-9-19T8:42:28Z</time></trkpt>
<trkpt lat="48.467622" lon="2.668915"><ele></ele><time>2017-9-19T8:42:31Z</time></trkpt>
<trkpt lat="48.467669" lon="2.668798"><ele></ele><time>2017-9-19T8:42:34Z</time></trkpt>
<trkpt lat="48.467726" lon="2.66867"><ele></ele><time>2017-9-19T8:42:37Z</time></trkpt>
<trkpt lat="48.467778" lon="2.668541"><ele></ele><time>2017-9-19T8:42:40Z</time></trkpt>
<trkpt lat="48.46784" lon="2.668436"><ele></ele><time>2017-9-19T8:42:43Z</time></trkpt>
<trkpt lat="48.467907" lon="2.668293"><ele></ele><time>2017-9-19T8:42:46Z</time></trkpt>
<trkpt lat="48.467988" lon="2.668166"><ele></ele><time>2017-9-19T8:42:49Z</time></trkpt>
<trkpt lat="48.468041" lon="2.668054"><ele></ele><time>2017-9-19T8:42:52Z</time></trkpt>
<trkpt lat="48.468135" lon="2.667913"><ele></ele><time>2017-9-19T8:42:55Z</time></trkpt>
<trkpt lat="48.468225" lon="2.667814"><ele></ele><time>2017-9-19T8:42:58Z</time></trkpt>
<trkpt lat="48.468282" lon="2.667707"><ele></ele><time>2017-9-19T8:43:1Z</time></trkpt>
<trkpt lat="48.468427" lon="2.667477"><ele></ele><time>2017-9-19T8:43:4Z</time></trkpt>
<trkpt lat="48.468481" lon="2.667363"><ele></ele><time>2017-9-19T8:43:7Z</time></trkpt>
<trkpt lat="48.468598" lon="2.66725"><ele></ele><time>2017-9-19T8:43:10Z</time></trkpt>
<trkpt lat="48.468656" lon="2.667137"><ele></ele><time>2017-9-19T8:43:13Z</time></trkpt>
<trkpt lat="48.468716" lon="2.667011"><ele></ele><time>2017-9-19T8:43:16Z</time></trkpt>
<trkpt lat="48.468746" lon="2.666872"><ele></ele><time>2017-9-19T8:43:19Z</time></trkpt>
<trkpt lat="48.468785" lon="2.666732"><ele></ele><time>2017-9-19T8:43:22Z</time></trkpt>
<trkpt lat="48.468851" lon="2.666578"><ele></ele><time>2017-9-19T8:43:25Z</time></trkpt>
<trkpt lat="48.468898" lon="2.666453"><ele></ele><time>2017-9-19T8:43:28Z</time></trkpt>
<trkpt lat="48.46898" lon="2.666359"><ele></ele><time>2017-9-19T8:43:31Z</time></trkpt>
<trkpt lat="48.469041" lon="2.666255"><ele></ele><time>2017-9-19T8:43:34Z</time></trkpt>
<trkpt lat="48.46912" lon="2.666111"><ele></ele><time>2017-9-19T8:43:37Z</time></trkpt>
<trkpt lat="48.469279" lon="2.665874"><ele></ele><time>2017-9-19T8:43:40Z</time></trkpt>
<trkpt lat="48.469359" lon="2.665794"><ele></ele><time>2017-9-19T8:43:43Z</time></trkpt>
<trkpt lat="48.469438" lon="2.66568"><ele></ele><time>2017-9-19T8:43:46Z</time></trkpt>
<trkpt lat="48.469488" lon="2.665507"><ele></ele><time>2017-9-19T8:43:49Z</time></trkpt>
<trkpt lat="48.46953" lon="2.665357"><ele></ele><time>2017-9-19T8:43:52Z</time></trkpt>
<trkpt lat="48.469574" lon="2.665204"><ele></ele><time>2017-9-19T8:43:55Z</time></trkpt>
<trkpt lat="48.469616" lon="2.665018"><ele></ele><time>2017-9-19T8:43:58Z</time></trkpt>
<trkpt lat="48.469652" lon="2.664857"><ele></ele><time>2017-9-19T8:44:1Z</time></trkpt>
<trkpt lat="48.469673" lon="2.664696"><ele></ele><time>2017-9-19T8:44:4Z</time></trkpt>
<trkpt lat="48.469698" lon="2.664555"><ele></ele><time>2017-9-19T8:44:7Z</time></trkpt>
<trkpt lat="48.469775" lon="2.664465"><ele></ele><time>2017-9-19T8:44:10Z</time></trkpt>
<trkpt lat="48.469851" lon="2.664345"><ele></ele><time>2017-9-19T8:44:13Z</time></trkpt>
<trkpt lat="48.469927" lon="2.664225"><ele></ele><time>2017-9-19T8:44:16Z</time></trkpt>
<trkpt lat="48.470026" lon="2.6641"><ele></ele><time>2017-9-19T8:44:19Z</time></trkpt>
<trkpt lat="48.470106" lon="2.663961"><ele></ele><time>2017-9-19T8:44:22Z</time></trkpt>
<trkpt lat="48.470224" lon="2.663846"><ele></ele><time>2017-9-19T8:44:25Z</time></trkpt>
<trkpt lat="48.47031" lon="2.663728"><ele></ele><time>2017-9-19T8:44:28Z</time></trkpt>
<trkpt lat="48.470397" lon="2.66364"><ele></ele><time>2017-9-19T8:44:31Z</time></trkpt>
<trkpt lat="48.470466" lon="2.663517"><ele></ele><time>2017-9-19T8:44:34Z</time></trkpt>
<trkpt lat="48.470516" lon="2.663378"><ele></ele><time>2017-9-19T8:44:37Z</time></trkpt>
<trkpt lat="48.470676" lon="2.663089"><ele></ele><time>2017-9-19T8:44:40Z</time></trkpt>
<trkpt lat="48.470718" lon="2.66294"><ele></ele><time>2017-9-19T8:44:43Z</time></trkpt>
<trkpt lat="48.470769" lon="2.662821"><ele></ele><time>2017-9-19T8:44:46Z</time></trkpt>
<trkpt lat="48.470816" lon="2.662659"><ele></ele><time>2017-9-19T8:44:49Z</time></trkpt>
<trkpt lat="48.470894" lon="2.662549"><ele></ele><time>2017-9-19T8:44:52Z</time></trkpt>
<trkpt lat="48.47096" lon="2.662423"><ele></ele><time>2017-9-19T8:44:55Z</time></trkpt>
<trkpt lat="48.471046" lon="2.66232"><ele></ele><time>2017-9-19T8:44:58Z</time></trkpt>
<trkpt lat="48.4711" lon="2.662191"><ele></ele><time>2017-9-19T8:45:1Z</time></trkpt>
<trkpt lat="48.47112" lon="2.662035"><ele></ele><time>2017-9-19T8:45:4Z</time></trkpt>
<trkpt lat="48.471175" lon="2.661888"><ele></ele><time>2017-9-19T8:45:7Z</time></trkpt>
<trkpt lat="48.471264" lon="2.66185"><ele></ele><time>2017-9-19T8:45:10Z</time></trkpt>
<trkpt lat="48.47135" lon="2.661787"><ele></ele><time>2017-9-19T8:45:13Z</time></trkpt>
<trkpt lat="48.471488" lon="2.661565"><ele></ele><time>2017-9-19T8:45:16Z</time></trkpt>
<trkpt lat="48.471569" lon="2.661491"><ele></ele><time>2017-9-19T8:45:19Z</time></trkpt>
<trkpt lat="48.471633" lon="2.661365"><ele></ele><time>2017-9-19T8:45:22Z</time></trkpt>
<trkpt lat="48.471718" lon="2.661249"><ele></ele><time>2017-9-19T8:45:25Z</time></trkpt>
<trkpt lat="48.471798" lon="2.66112"><ele></ele><time>2017-9-19T8:45:28Z</time></trkpt>
<trkpt lat="48.471865" lon="2.66102"><ele></ele><time>2017-9-19T8:45:31Z</time></trkpt>
<trkpt lat="48.471921" lon="2.6609"><ele></ele><time>2017-9-19T8:45:34Z</time></trkpt>
<trkpt lat="48.472065" lon="2.660862"><ele></ele><time>2017-9-19T8:45:37Z</time></trkpt>
<trkpt lat="48.472188" lon="2.660859"><ele></ele><time>2017-9-19T8:45:40Z</time></trkpt>
<trkpt lat="48.472288" lon="2.660857"><ele></ele><time>2017-9-19T8:45:43Z</time></trkpt>
<trkpt lat="48.472416" lon="2.660872"><ele></ele><time>2017-9-19T8:45:46Z</time></trkpt>
<trkpt lat="48.472506" lon="2.660873"><ele></ele><time>2017-9-19T8:45:49Z</time></trkpt>
<trkpt lat="48.472612" lon="2.660875"><ele></ele><time>2017-9-19T8:45:52Z</time></trkpt>
<trkpt lat="48.472714" lon="2.660886"><ele></ele><time>2017-9-19T8:45:55Z</time></trkpt>
<trkpt lat="48.472814" lon="2.660904"><ele></ele><time>2017-9-19T8:45:58Z</time></trkpt>
<trkpt lat="48.47291" lon="2.660916"><ele></ele><time>2017-9-19T8:46:1Z</time></trkpt>
<trkpt lat="48.473008" lon="2.660941"><ele></ele><time>2017-9-19T8:46:4Z</time></trkpt>
<trkpt lat="48.473117" lon="2.660911"><ele></ele><time>2017-9-19T8:46:7Z</time></trkpt>
<trkpt lat="48.473368" lon="2.660924"><ele></ele><time>2017-9-19T8:46:10Z</time></trkpt>
<trkpt lat="48.473494" lon="2.660951"><ele></ele><time>2017-9-19T8:46:13Z</time></trkpt>
<trkpt lat="48.473606" lon="2.660964"><ele></ele><time>2017-9-19T8:46:16Z</time></trkpt>
<trkpt lat="48.473708" lon="2.660979"><ele></ele><time>2017-9-19T8:46:19Z</time></trkpt>
<trkpt lat="48.473825" lon="2.660984"><ele></ele><time>2017-9-19T8:46:22Z</time></trkpt>
<trkpt lat="48.473926" lon="2.661007"><ele></ele><time>2017-9-19T8:46:25Z</time></trkpt>
<trkpt lat="48.474042" lon="2.661029"><ele></ele><time>2017-9-19T8:46:28Z</time></trkpt>
<trkpt lat="48.474134" lon="2.661029"><ele></ele><time>2017-9-19T8:46:31Z</time></trkpt>
<trkpt lat="48.474224" lon="2.661037"><ele></ele><time>2017-9-19T8:46:34Z</time></trkpt>
<trkpt lat="48.474354" lon="2.66107"><ele></ele><time>2017-9-19T8:46:37Z</time></trkpt>
<trkpt lat="48.474445" lon="2.661088"><ele></ele><time>2017-9-19T8:46:40Z</time></trkpt>
<trkpt lat="48.474539" lon="2.661094"><ele></ele><time>2017-9-19T8:46:43Z</time></trkpt>
<trkpt lat="48.47464" lon="2.661109"><ele></ele><time>2017-9-19T8:46:46Z</time></trkpt>
<trkpt lat="48.474732" lon="2.66112"><ele></ele><time>2017-9-19T8:46:49Z</time></trkpt>
<trkpt lat="48.474856" lon="2.661129"><ele></ele><time>2017-9-19T8:46:52Z</time></trkpt>
<trkpt lat="48.474981" lon="2.661124"><ele></ele><time>2017-9-19T8:46:55Z</time></trkpt>
<trkpt lat="48.475068" lon="2.661156"><ele></ele><time>2017-9-19T8:46:58Z</time></trkpt>
<trkpt lat="48.475184" lon="2.661168"><ele></ele><time>2017-9-19T8:47:1Z</time></trkpt>
<trkpt lat="48.475275" lon="2.661179"><ele></ele><time>2017-9-19T8:47:4Z</time></trkpt>
<trkpt lat="48.475405" lon="2.661196"><ele></ele><time>2017-9-19T8:47:7Z</time></trkpt>
<trkpt lat="48.475528" lon="2.66121"><ele></ele><time>2017-9-19T8:47:10Z</time></trkpt>
<trkpt lat="48.475621" lon="2.661237"><ele></ele><time>2017-9-19T8:47:13Z</time></trkpt>
<trkpt lat="48.475737" lon="2.661235"><ele></ele><time>2017-9-19T8:47:16Z</time></trkpt>
<trkpt lat="48.475869" lon="2.66127"><ele></ele><time>2017-9-19T8:47:19Z</time></trkpt>
<trkpt lat="48.476062" lon="2.661289"><ele></ele><time>2017-9-19T8:47:22Z</time></trkpt>
<trkpt lat="48.476152" lon="2.661306"><ele></ele><time>2017-9-19T8:47:25Z</time></trkpt>
<trkpt lat="48.47625" lon="2.66132"><ele></ele><time>2017-9-19T8:47:28Z</time></trkpt>
<trkpt lat="48.47638" lon="2.661334"><ele></ele><time>2017-9-19T8:47:31Z</time></trkpt>
<trkpt lat="48.476472" lon="2.661345"><ele></ele><time>2017-9-19T8:47:34Z</time></trkpt>
<trkpt lat="48.476599" lon="2.66136"><ele></ele><time>2017-9-19T8:47:37Z</time></trkpt>
<trkpt lat="48.476701" lon="2.66129"><ele></ele><time>2017-9-19T8:47:40Z</time></trkpt>
<trkpt lat="48.476757" lon="2.661112"><ele></ele><time>2017-9-19T8:47:43Z</time></trkpt>
<trkpt lat="48.476827" lon="2.660939"><ele></ele><time>2017-9-19T8:47:46Z</time></trkpt>
<trkpt lat="48.476872" lon="2.660732"><ele></ele><time>2017-9-19T8:47:49Z</time></trkpt>
<trkpt lat="48.476928" lon="2.660574"><ele></ele><time>2017-9-19T8:47:52Z</time></trkpt>
<trkpt lat="48.476983" lon="2.660378"><ele></ele><time>2017-9-19T8:47:55Z</time></trkpt>
<trkpt lat="48.477044" lon="2.66026"><ele></ele><time>2017-9-19T8:47:58Z</time></trkpt>
<trkpt lat="48.477074" lon="2.660083"><ele></ele><time>2017-9-19T8:48:1Z</time></trkpt>
<trkpt lat="48.477126" lon="2.659867"><ele></ele><time>2017-9-19T8:48:4Z</time></trkpt>
<trkpt lat="48.477167" lon="2.659727"><ele></ele><time>2017-9-19T8:48:7Z</time></trkpt>
<trkpt lat="48.477202" lon="2.659581"><ele></ele><time>2017-9-19T8:48:10Z</time></trkpt>
<trkpt lat="48.477208" lon="2.659402"><ele></ele><time>2017-9-19T8:48:13Z</time></trkpt>
<trkpt lat="48.477232" lon="2.659238"><ele></ele><time>2017-9-19T8:48:16Z</time></trkpt>
<trkpt lat="48.477365" lon="2.65921"><ele></ele><time>2017-9-19T8:48:19Z</time></trkpt>
<trkpt lat="48.477423" lon="2.659097"><ele></ele><time>2017-9-19T8:48:22Z</time></trkpt>
<trkpt lat="48.477474" lon="2.658982"><ele></ele><time>2017-9-19T8:48:25Z</time></trkpt>
<trkpt lat="48.477516" lon="2.658804"><ele></ele><time>2017-9-19T8:48:28Z</time></trkpt>
<trkpt lat="48.477624" lon="2.65849"><ele></ele><time>2017-9-19T8:48:31Z</time></trkpt>
<trkpt lat="48.477647" lon="2.658313"><ele></ele><time>2017-9-19T8:48:34Z</time></trkpt>
<trkpt lat="48.477676" lon="2.658162"><ele></ele><time>2017-9-19T8:48:37Z</time></trkpt>
<trkpt lat="48.477709" lon="2.657983"><ele></ele><time>2017-9-19T8:48:40Z</time></trkpt>
<trkpt lat="48.477706" lon="2.657845"><ele></ele><time>2017-9-19T8:48:43Z</time></trkpt>
<trkpt lat="48.477752" lon="2.657696"><ele></ele><time>2017-9-19T8:48:46Z</time></trkpt>
<trkpt lat="48.477829" lon="2.657552"><ele></ele><time>2017-9-19T8:48:49Z</time></trkpt>
<trkpt lat="48.477851" lon="2.657413"><ele></ele><time>2017-9-19T8:48:52Z</time></trkpt>
<trkpt lat="48.477861" lon="2.657277"><ele></ele><time>2017-9-19T8:48:55Z</time></trkpt>
<trkpt lat="48.477885" lon="2.657125"><ele></ele><time>2017-9-19T8:48:58Z</time></trkpt>
<trkpt lat="48.477913" lon="2.656979"><ele></ele><time>2017-9-19T8:49:1Z</time></trkpt>
<trkpt lat="48.477965" lon="2.656798"><ele></ele><time>2017-9-19T8:49:4Z</time></trkpt>
<trkpt lat="48.478006" lon="2.656658"><ele></ele><time>2017-9-19T8:49:7Z</time></trkpt>
<trkpt lat="48.478021" lon="2.65644"><ele></ele><time>2017-9-19T8:49:10Z</time></trkpt>
<trkpt lat="48.47805" lon="2.656258"><ele></ele><time>2017-9-19T8:49:13Z</time></trkpt>
<trkpt lat="48.478084" lon="2.65611"><ele></ele><time>2017-9-19T8:49:16Z</time></trkpt>
<trkpt lat="48.478156" lon="2.656026"><ele></ele><time>2017-9-19T8:49:19Z</time></trkpt>
<trkpt lat="48.478212" lon="2.655814"><ele></ele><time>2017-9-19T8:49:22Z</time></trkpt>
<trkpt lat="48.478246" lon="2.655662"><ele></ele><time>2017-9-19T8:49:25Z</time></trkpt>
<trkpt lat="48.478279" lon="2.655469"><ele></ele><time>2017-9-19T8:49:28Z</time></trkpt>
<trkpt lat="48.478283" lon="2.655314"><ele></ele><time>2017-9-19T8:49:31Z</time></trkpt>
<trkpt lat="48.478318" lon="2.655163"><ele></ele><time>2017-9-19T8:49:34Z</time></trkpt>
<trkpt lat="48.478327" lon="2.654945"><ele></ele><time>2017-9-19T8:49:37Z</time></trkpt>
<trkpt lat="48.478376" lon="2.654828"><ele></ele><time>2017-9-19T8:49:40Z</time></trkpt>
<trkpt lat="48.478435" lon="2.654662"><ele></ele><time>2017-9-19T8:49:43Z</time></trkpt>
<trkpt lat="48.478454" lon="2.654333"><ele></ele><time>2017-9-19T8:49:46Z</time></trkpt>
<trkpt lat="48.478485" lon="2.6542"><ele></ele><time>2017-9-19T8:49:49Z</time></trkpt>
<trkpt lat="48.478517" lon="2.653976"><ele></ele><time>2017-9-19T8:49:52Z</time></trkpt>
<trkpt lat="48.478573" lon="2.653822"><ele></ele><time>2017-9-19T8:49:55Z</time></trkpt>
<trkpt lat="48.478695" lon="2.653807"><ele></ele><time>2017-9-19T8:49:58Z</time></trkpt>
<trkpt lat="48.478742" lon="2.653685"><ele></ele><time>2017-9-19T8:50:1Z</time></trkpt>
<trkpt lat="48.478794" lon="2.653566"><ele></ele><time>2017-9-19T8:50:4Z</time></trkpt>
<trkpt lat="48.478812" lon="2.653391"><ele></ele><time>2017-9-19T8:50:7Z</time></trkpt>
<trkpt lat="48.478836" lon="2.653115"><ele></ele><time>2017-9-19T8:50:10Z</time></trkpt>
<trkpt lat="48.478872" lon="2.652985"><ele></ele><time>2017-9-19T8:50:13Z</time></trkpt>
<trkpt lat="48.478917" lon="2.652862"><ele></ele><time>2017-9-19T8:50:16Z</time></trkpt>
<trkpt lat="48.478978" lon="2.652742"><ele></ele><time>2017-9-19T8:50:19Z</time></trkpt>
<trkpt lat="48.479039" lon="2.652616"><ele></ele><time>2017-9-19T8:50:22Z</time></trkpt>
<trkpt lat="48.479125" lon="2.652444"><ele></ele><time>2017-9-19T8:50:25Z</time></trkpt>
<trkpt lat="48.479167" lon="2.652288"><ele></ele><time>2017-9-19T8:50:28Z</time></trkpt>
<trkpt lat="48.479222" lon="2.652179"><ele></ele><time>2017-9-19T8:50:31Z</time></trkpt>
<trkpt lat="48.479294" lon="2.652074"><ele></ele><time>2017-9-19T8:50:34Z</time></trkpt>
<trkpt lat="48.479385" lon="2.651969"><ele></ele><time>2017-9-19T8:50:37Z</time></trkpt>
<trkpt lat="48.479499" lon="2.651866"><ele></ele><time>2017-9-19T8:50:40Z</time></trkpt>
<trkpt lat="48.47969" lon="2.651711"><ele></ele><time>2017-9-19T8:50:43Z</time></trkpt>
<trkpt lat="48.479801" lon="2.651622"><ele></ele><time>2017-9-19T8:50:46Z</time></trkpt>
<trkpt lat="48.479894" lon="2.651508"><ele></ele><time>2017-9-19T8:50:49Z</time></trkpt>
<trkpt lat="48.479973" lon="2.651356"><ele></ele><time>2017-9-19T8:50:52Z</time></trkpt>
<trkpt lat="48.48004" lon="2.65125"><ele></ele><time>2017-9-19T8:50:55Z</time></trkpt>
<trkpt lat="48.480087" lon="2.651117"><ele></ele><time>2017-9-19T8:50:58Z</time></trkpt>
<trkpt lat="48.480203" lon="2.651063"><ele></ele><time>2017-9-19T8:51:1Z</time></trkpt>
<trkpt lat="48.480309" lon="2.650984"><ele></ele><time>2017-9-19T8:51:4Z</time></trkpt>
<trkpt lat="48.480423" lon="2.650909"><ele></ele><time>2017-9-19T8:51:7Z</time></trkpt>
<trkpt lat="48.48052" lon="2.65083"><ele></ele><time>2017-9-19T8:51:10Z</time></trkpt>
<trkpt lat="48.480599" lon="2.650757"><ele></ele><time>2017-9-19T8:51:13Z</time></trkpt>
<trkpt lat="48.480709" lon="2.650669"><ele></ele><time>2017-9-19T8:51:16Z</time></trkpt>
<trkpt lat="48.480773" lon="2.650568"><ele></ele><time>2017-9-19T8:51:19Z</time></trkpt>
<trkpt lat="48.480881" lon="2.650462"><ele></ele><time>2017-9-19T8:51:22Z</time></trkpt>
<trkpt lat="48.48096" lon="2.650383"><ele></ele><time>2017-9-19T8:51:25Z</time></trkpt>
<trkpt lat="48.481066" lon="2.650294"><ele></ele><time>2017-9-19T8:51:28Z</time></trkpt>
<trkpt lat="48.481175" lon="2.650217"><ele></ele><time>2017-9-19T8:51:31Z</time></trkpt>
<trkpt lat="48.481275" lon="2.65015"><ele></ele><time>2017-9-19T8:51:34Z</time></trkpt>
<trkpt lat="48.481451" lon="2.649971"><ele></ele><time>2017-9-19T8:51:37Z</time></trkpt>
<trkpt lat="48.481535" lon="2.649915"><ele></ele><time>2017-9-19T8:51:40Z</time></trkpt>
<trkpt lat="48.481632" lon="2.649823"><ele></ele><time>2017-9-19T8:51:43Z</time></trkpt>
<trkpt lat="48.481733" lon="2.649723"><ele></ele><time>2017-9-19T8:51:46Z</time></trkpt>
<trkpt lat="48.481834" lon="2.649646"><ele></ele><time>2017-9-19T8:51:49Z</time></trkpt>
<trkpt lat="48.481939" lon="2.649581"><ele></ele><time>2017-9-19T8:51:52Z</time></trkpt>
<trkpt lat="48.482025" lon="2.649512"><ele></ele><time>2017-9-19T8:51:55Z</time></trkpt>
<trkpt lat="48.482109" lon="2.649454"><ele></ele><time>2017-9-19T8:51:58Z</time></trkpt>
<trkpt lat="48.482194" lon="2.649345"><ele></ele><time>2017-9-19T8:52:1Z</time></trkpt>
<trkpt lat="48.482283" lon="2.649285"><ele></ele><time>2017-9-19T8:52:4Z</time></trkpt>
<trkpt lat="48.482369" lon="2.649222"><ele></ele><time>2017-9-19T8:52:7Z</time></trkpt>
<trkpt lat="48.482473" lon="2.64914"><ele></ele><time>2017-9-19T8:52:10Z</time></trkpt>
<trkpt lat="48.482597" lon="2.649077"><ele></ele><time>2017-9-19T8:52:13Z</time></trkpt>
<trkpt lat="48.482677" lon="2.648992"><ele></ele><time>2017-9-19T8:52:16Z</time></trkpt>
<trkpt lat="48.482763" lon="2.648916"><ele></ele><time>2017-9-19T8:52:19Z</time></trkpt>
<trkpt lat="48.482868" lon="2.648838"><ele></ele><time>2017-9-19T8:52:22Z</time></trkpt>
<trkpt lat="48.482964" lon="2.648746"><ele></ele><time>2017-9-19T8:52:25Z</time></trkpt>
<trkpt lat="48.483071" lon="2.648653"><ele></ele><time>2017-9-19T8:52:28Z</time></trkpt>
<trkpt lat="48.483343" lon="2.648441"><ele></ele><time>2017-9-19T8:52:31Z</time></trkpt>
<trkpt lat="48.483448" lon="2.648365"><ele></ele><time>2017-9-19T8:52:34Z</time></trkpt>
<trkpt lat="48.48355" lon="2.648273"><ele></ele><time>2017-9-19T8:52:37Z</time></trkpt>
<trkpt lat="48.483632" lon="2.648207"><ele></ele><time>2017-9-19T8:52:40Z</time></trkpt>
<trkpt lat="48.483714" lon="2.648128"><ele></ele><time>2017-9-19T8:52:43Z</time></trkpt>
<trkpt lat="48.483825" lon="2.648021"><ele></ele><time>2017-9-19T8:52:46Z</time></trkpt>
<trkpt lat="48.483927" lon="2.647925"><ele></ele><time>2017-9-19T8:52:49Z</time></trkpt>
<trkpt lat="48.484028" lon="2.64783"><ele></ele><time>2017-9-19T8:52:52Z</time></trkpt>
<trkpt lat="48.484134" lon="2.647779"><ele></ele><time>2017-9-19T8:52:55Z</time></trkpt>
<trkpt lat="48.484228" lon="2.647677"><ele></ele><time>2017-9-19T8:52:58Z</time></trkpt>
<trkpt lat="48.484325" lon="2.647588"><ele></ele><time>2017-9-19T8:53:1Z</time></trkpt>
<trkpt lat="48.484432" lon="2.647486"><ele></ele><time>2017-9-19T8:53:4Z</time></trkpt>
<trkpt lat="48.484539" lon="2.647376"><ele></ele><time>2017-9-19T8:53:7Z</time></trkpt>
<trkpt lat="48.484632" lon="2.647316"><ele></ele><time>2017-9-19T8:53:10Z</time></trkpt>
<trkpt lat="48.484727" lon="2.647237"><ele></ele><time>2017-9-19T8:53:13Z</time></trkpt>
<trkpt lat="48.484824" lon="2.647158"><ele></ele><time>2017-9-19T8:53:16Z</time></trkpt>
<trkpt lat="48.484921" lon="2.647072"><ele></ele><time>2017-9-19T8:53:19Z</time></trkpt>
<trkpt lat="48.485027" lon="2.646991"><ele></ele><time>2017-9-19T8:53:22Z</time></trkpt>
<trkpt lat="48.485135" lon="2.646916"><ele></ele><time>2017-9-19T8:53:25Z</time></trkpt>
<trkpt lat="48.485249" lon="2.646828"><ele></ele><time>2017-9-19T8:53:28Z</time></trkpt>
<trkpt lat="48.48536" lon="2.646744"><ele></ele><time>2017-9-19T8:53:31Z</time></trkpt>
<trkpt lat="48.485456" lon="2.646639"><ele></ele><time>2017-9-19T8:53:34Z</time></trkpt>
<trkpt lat="48.485573" lon="2.64653"><ele></ele><time>2017-9-19T8:53:37Z</time></trkpt>
<trkpt lat="48.485683" lon="2.646415"><ele></ele><time>2017-9-19T8:53:40Z</time></trkpt>
<trkpt lat="48.485928" lon="2.646213"><ele></ele><time>2017-9-19T8:53:43Z</time></trkpt>
<trkpt lat="48.486049" lon="2.646078"><ele></ele><time>2017-9-19T8:53:46Z</time></trkpt>
<trkpt lat="48.486167" lon="2.64596"><ele></ele><time>2017-9-19T8:53:49Z</time></trkpt>
<trkpt lat="48.486289" lon="2.645874"><ele></ele><time>2017-9-19T8:53:52Z</time></trkpt>
<trkpt lat="48.486411" lon="2.645791"><ele></ele><time>2017-9-19T8:53:55Z</time></trkpt>
<trkpt lat="48.48652" lon="2.645702"><ele></ele><time>2017-9-19T8:53:58Z</time></trkpt>
<trkpt lat="48.486626" lon="2.645626"><ele></ele><time>2017-9-19T8:54:1Z</time></trkpt>
<trkpt lat="48.486719" lon="2.645561"><ele></ele><time>2017-9-19T8:54:4Z</time></trkpt>
<trkpt lat="48.486819" lon="2.64545"><ele></ele><time>2017-9-19T8:54:7Z</time></trkpt>
<trkpt lat="48.486919" lon="2.645347"><ele></ele><time>2017-9-19T8:54:10Z</time></trkpt>
<trkpt lat="48.48701" lon="2.645278"><ele></ele><time>2017-9-19T8:54:13Z</time></trkpt>
<trkpt lat="48.487097" lon="2.645203"><ele></ele><time>2017-9-19T8:54:16Z</time></trkpt>
<trkpt lat="48.487177" lon="2.645114"><ele></ele><time>2017-9-19T8:54:19Z</time></trkpt>
<trkpt lat="48.487278" lon="2.645042"><ele></ele><time>2017-9-19T8:54:22Z</time></trkpt>
<trkpt lat="48.487374" lon="2.644961"><ele></ele><time>2017-9-19T8:54:25Z</time></trkpt>
<trkpt lat="48.487459" lon="2.644883"><ele></ele><time>2017-9-19T8:54:28Z</time></trkpt>
<trkpt lat="48.487573" lon="2.644781"><ele></ele><time>2017-9-19T8:54:31Z</time></trkpt>
<trkpt lat="48.487671" lon="2.644721"><ele></ele><time>2017-9-19T8:54:34Z</time></trkpt>
<trkpt lat="48.487744" lon="2.644623"><ele></ele><time>2017-9-19T8:54:37Z</time></trkpt>
<trkpt lat="48.48783" lon="2.644525"><ele></ele><time>2017-9-19T8:54:40Z</time></trkpt>
<trkpt lat="48.487909" lon="2.64446"><ele></ele><time>2017-9-19T8:54:43Z</time></trkpt>
<trkpt lat="48.488011" lon="2.644345"><ele></ele><time>2017-9-19T8:54:46Z</time></trkpt>
<trkpt lat="48.488092" lon="2.644281"><ele></ele><time>2017-9-19T8:54:49Z</time></trkpt>
<trkpt lat="48.488176" lon="2.644214"><ele></ele><time>2017-9-19T8:54:52Z</time></trkpt>
<trkpt lat="48.488258" lon="2.644154"><ele></ele><time>2017-9-19T8:54:55Z</time></trkpt>
<trkpt lat="48.488346" lon="2.644096"><ele></ele><time>2017-9-19T8:54:58Z</time></trkpt>
<trkpt lat="48.488545" lon="2.643912"><ele></ele><time>2017-9-19T8:55:1Z</time></trkpt>
<trkpt lat="48.488645" lon="2.643881"><ele></ele><time>2017-9-19T8:55:4Z</time></trkpt>
<trkpt lat="48.488742" lon="2.643851"><ele></ele><time>2017-9-19T8:55:7Z</time></trkpt>
<trkpt lat="48.488854" lon="2.643783"><ele></ele><time>2017-9-19T8:55:10Z</time></trkpt>
<trkpt lat="48.488966" lon="2.643736"><ele></ele><time>2017-9-19T8:55:13Z</time></trkpt>
<trkpt lat="48.489071" lon="2.643702"><ele></ele><time>2017-9-19T8:55:16Z</time></trkpt>
<trkpt lat="48.489197" lon="2.643671"><ele></ele><time>2017-9-19T8:55:19Z</time></trkpt>
<trkpt lat="48.489298" lon="2.643638"><ele></ele><time>2017-9-19T8:55:22Z</time></trkpt>
<trkpt lat="48.489417" lon="2.643563"><ele></ele><time>2017-9-19T8:55:25Z</time></trkpt>
<trkpt lat="48.489514" lon="2.643515"><ele></ele><time>2017-9-19T8:55:28Z</time></trkpt>
<trkpt lat="48.489614" lon="2.643434"><ele></ele><time>2017-9-19T8:55:31Z</time></trkpt>
<trkpt lat="48.489697" lon="2.643332"><ele></ele><time>2017-9-19T8:55:34Z</time></trkpt>
<trkpt lat="48.489783" lon="2.643225"><ele></ele><time>2017-9-19T8:55:37Z</time></trkpt>
<trkpt lat="48.489885" lon="2.643107"><ele></ele><time>2017-9-19T8:55:40Z</time></trkpt>
<trkpt lat="48.489961" lon="2.642977"><ele></ele><time>2017-9-19T8:55:43Z</time></trkpt>
<trkpt lat="48.490054" lon="2.642886"><ele></ele><time>2017-9-19T8:55:46Z</time></trkpt>
<trkpt lat="48.490122" lon="2.642755"><ele></ele><time>2017-9-19T8:55:49Z</time></trkpt>
<trkpt lat="48.490203" lon="2.642659"><ele></ele><time>2017-9-19T8:55:52Z</time></trkpt>
<trkpt lat="48.490322" lon="2.642625"><ele></ele><time>2017-9-19T8:55:55Z</time></trkpt>
<trkpt lat="48.490507" lon="2.642381"><ele></ele><time>2017-9-19T8:55:58Z</time></trkpt>
<trkpt lat="48.490586" lon="2.642288"><ele></ele><time>2017-9-19T8:56:1Z</time></trkpt>
<trkpt lat="48.490654" lon="2.642195"><ele></ele><time>2017-9-19T8:56:4Z</time></trkpt>
<trkpt lat="48.490749" lon="2.642101"><ele></ele><time>2017-9-19T8:56:7Z</time></trkpt>
<trkpt lat="48.490832" lon="2.642011"><ele></ele><time>2017-9-19T8:56:10Z</time></trkpt>
<trkpt lat="48.490895" lon="2.641882"><ele></ele><time>2017-9-19T8:56:13Z</time></trkpt>
<trkpt lat="48.490985" lon="2.641804"><ele></ele><time>2017-9-19T8:56:16Z</time></trkpt>
<trkpt lat="48.4911" lon="2.641749"><ele></ele><time>2017-9-19T8:56:19Z</time></trkpt>
<trkpt lat="48.49119" lon="2.64165"><ele></ele><time>2017-9-19T8:56:22Z</time></trkpt>
<trkpt lat="48.491268" lon="2.641569"><ele></ele><time>2017-9-19T8:56:25Z</time></trkpt>
<trkpt lat="48.491376" lon="2.641472"><ele></ele><time>2017-9-19T8:56:28Z</time></trkpt>
<trkpt lat="48.491451" lon="2.641341"><ele></ele><time>2017-9-19T8:56:31Z</time></trkpt>
<trkpt lat="48.491531" lon="2.641216"><ele></ele><time>2017-9-19T8:56:34Z</time></trkpt>
<trkpt lat="48.491642" lon="2.641142"><ele></ele><time>2017-9-19T8:56:37Z</time></trkpt>
<trkpt lat="48.491716" lon="2.640979"><ele></ele><time>2017-9-19T8:56:40Z</time></trkpt>
<trkpt lat="48.491787" lon="2.640883"><ele></ele><time>2017-9-19T8:56:43Z</time></trkpt>
<trkpt lat="48.491868" lon="2.640803"><ele></ele><time>2017-9-19T8:56:46Z</time></trkpt>
<trkpt lat="48.491942" lon="2.64071"><ele></ele><time>2017-9-19T8:56:49Z</time></trkpt>
<trkpt lat="48.492042" lon="2.640594"><ele></ele><time>2017-9-19T8:56:52Z</time></trkpt>
<trkpt lat="48.492159" lon="2.64049"><ele></ele><time>2017-9-19T8:56:55Z</time></trkpt>
<trkpt lat="48.492246" lon="2.640359"><ele></ele><time>2017-9-19T8:56:58Z</time></trkpt>
<trkpt lat="48.49233" lon="2.640259"><ele></ele><time>2017-9-19T8:57:1Z</time></trkpt>
<trkpt lat="48.492391" lon="2.640152"><ele></ele><time>2017-9-19T8:57:4Z</time></trkpt>
<trkpt lat="48.492554" lon="2.63993"><ele></ele><time>2017-9-19T8:57:7Z</time></trkpt>
<trkpt lat="48.492619" lon="2.639798"><ele></ele><time>2017-9-19T8:57:10Z</time></trkpt>
<trkpt lat="48.49269" lon="2.639707"><ele></ele><time>2017-9-19T8:57:13Z</time></trkpt>
<trkpt lat="48.492783" lon="2.639619"><ele></ele><time>2017-9-19T8:57:16Z</time></trkpt>
<trkpt lat="48.492915" lon="2.639526"><ele></ele><time>2017-9-19T8:57:19Z</time></trkpt>
<trkpt lat="48.49302" lon="2.639402"><ele></ele><time>2017-9-19T8:57:22Z</time></trkpt>
<trkpt lat="48.493091" lon="2.63931"><ele></ele><time>2017-9-19T8:57:25Z</time></trkpt>
<trkpt lat="48.49316" lon="2.639221"><ele></ele><time>2017-9-19T8:57:28Z</time></trkpt>
<trkpt lat="48.493239" lon="2.639146"><ele></ele><time>2017-9-19T8:57:31Z</time></trkpt>
<trkpt lat="48.49332" lon="2.639055"><ele></ele><time>2017-9-19T8:57:34Z</time></trkpt>
<trkpt lat="48.493389" lon="2.638949"><ele></ele><time>2017-9-19T8:57:37Z</time></trkpt>
<trkpt lat="48.493458" lon="2.638843"><ele></ele><time>2017-9-19T8:57:40Z</time></trkpt>
<trkpt lat="48.493543" lon="2.63872"><ele></ele><time>2017-9-19T8:57:43Z</time></trkpt>
<trkpt lat="48.49361" lon="2.638594"><ele></ele><time>2017-9-19T8:57:46Z</time></trkpt>
<trkpt lat="48.493686" lon="2.638483"><ele></ele><time>2017-9-19T8:57:49Z</time></trkpt>
<trkpt lat="48.493767" lon="2.638377"><ele></ele><time>2017-9-19T8:57:52Z</time></trkpt>
<trkpt lat="48.493839" lon="2.63828"><ele></ele><time>2017-9-19T8:57:55Z</time></trkpt>
<trkpt lat="48.493912" lon="2.638171"><ele></ele><time>2017-9-19T8:57:58Z</time></trkpt>
<trkpt lat="48.493994" lon="2.638083"><ele></ele><time>2017-9-19T8:58:1Z</time></trkpt>
<trkpt lat="48.494081" lon="2.638006"><ele></ele><time>2017-9-19T8:58:4Z</time></trkpt>
<trkpt lat="48.494147" lon="2.637902"><ele></ele><time>2017-9-19T8:58:7Z</time></trkpt>
<trkpt lat="48.494238" lon="2.637822"><ele></ele><time>2017-9-19T8:58:10Z</time></trkpt>
<trkpt lat="48.494327" lon="2.63774"><ele></ele><time>2017-9-19T8:58:13Z</time></trkpt>
<trkpt lat="48.494411" lon="2.637641"><ele></ele><time>2017-9-19T8:58:16Z</time></trkpt>
<trkpt lat="48.494495" lon="2.637534"><ele></ele><time>2017-9-19T8:58:19Z</time></trkpt>
<trkpt lat="48.494577" lon="2.63743"><ele></ele><time>2017-9-19T8:58:22Z</time></trkpt>
<trkpt lat="48.494665" lon="2.637318"><ele></ele><time>2017-9-19T8:58:25Z</time></trkpt>
<trkpt lat="48.494755" lon="2.637205"><ele></ele><time>2017-9-19T8:58:28Z</time></trkpt>
<trkpt lat="48.494934" lon="2.636984"><ele></ele><time>2017-9-19T8:58:31Z</time></trkpt>
<trkpt lat="48.495018" lon="2.636859"><ele></ele><time>2017-9-19T8:58:34Z</time></trkpt>
<trkpt lat="48.495111" lon="2.63674"><ele></ele><time>2017-9-19T8:58:37Z</time></trkpt>
<trkpt lat="48.495198" lon="2.636623"><ele></ele><time>2017-9-19T8:58:40Z</time></trkpt>
<trkpt lat="48.49529" lon="2.63651"><ele></ele><time>2017-9-19T8:58:43Z</time></trkpt>
<trkpt lat="48.495391" lon="2.636386"><ele></ele><time>2017-9-19T8:58:46Z</time></trkpt>
<trkpt lat="48.495474" lon="2.636279"><ele></ele><time>2017-9-19T8:58:49Z</time></trkpt>
<trkpt lat="48.495555" lon="2.636173"><ele></ele><time>2017-9-19T8:58:52Z</time></trkpt>
<trkpt lat="48.495632" lon="2.636059"><ele></ele><time>2017-9-19T8:58:55Z</time></trkpt>
<trkpt lat="48.495719" lon="2.635947"><ele></ele><time>2017-9-19T8:58:58Z</time></trkpt>
<trkpt lat="48.495801" lon="2.635836"><ele></ele><time>2017-9-19T8:59:1Z</time></trkpt>
<trkpt lat="48.495867" lon="2.635725"><ele></ele><time>2017-9-19T8:59:4Z</time></trkpt>
<trkpt lat="48.495949" lon="2.635649"><ele></ele><time>2017-9-19T8:59:7Z</time></trkpt>
<trkpt lat="48.496027" lon="2.635578"><ele></ele><time>2017-9-19T8:59:10Z</time></trkpt>
<trkpt lat="48.496115" lon="2.635524"><ele></ele><time>2017-9-19T8:59:13Z</time></trkpt>
<trkpt lat="48.496214" lon="2.635486"><ele></ele><time>2017-9-19T8:59:16Z</time></trkpt>
<trkpt lat="48.496295" lon="2.635367"><ele></ele><time>2017-9-19T8:59:19Z</time></trkpt>
<trkpt lat="48.496367" lon="2.63525"><ele></ele><time>2017-9-19T8:59:22Z</time></trkpt>
<trkpt lat="48.496448" lon="2.635131"><ele></ele><time>2017-9-19T8:59:25Z</time></trkpt>
<trkpt lat="48.496542" lon="2.635036"><ele></ele><time>2017-9-19T8:59:28Z</time></trkpt>
<trkpt lat="48.496657" lon="2.634898"><ele></ele><time>2017-9-19T8:59:31Z</time></trkpt>
<trkpt lat="48.496754" lon="2.634828"><ele></ele><time>2017-9-19T8:59:34Z</time></trkpt>
<trkpt lat="48.496691" lon="2.634939"><ele></ele><time>2017-9-19T8:59:37Z</time></trkpt>
</trkseg></trk></gpx>